<?xml version="1.0" encoding="UTF-8" standalone="no" ?>
<gpx xmlns="http://www.topografix.com/GPX/1/1" xmlns:xsi="http://www.w3.org/2001/XMLSchema-instance" xsi:schemaLocation="http://www.topografix.com/GPX/1/1 http://www.topografix.com/GPX/1/1/gpx.xsd" version="1.1" creator="VisuGPX - https://www.visugpx.com">
  <metadata>
    <name>Sortie libre au départ de la Gournerie</name>
    <desc><![CDATA[Rando improvisée au départ de la Gournerie
Guidage au GPS et à l\'intuition.]]></desc>
  </metadata>
  <trk>
    <name><![CDATA[2013-03-02 Sortie libre - Château de la Gournerie]]></name>
    <desc><![CDATA[Présents : Gilles, Vincent & Nicolas
]]></desc>
    <trkseg>
      <trkpt lat="47.24686" lon="-1.63791">
        <ele>31.1</ele>
        <time>2013-03-02T07:42:36Z</time>
      </trkpt>
      <trkpt lat="47.24687" lon="-1.6379">
        <ele>31.2</ele>
        <time>2013-03-02T07:42:37Z</time>
      </trkpt>
      <trkpt lat="47.24688" lon="-1.63789">
        <ele>31.2</ele>
        <time>2013-03-02T07:42:38Z</time>
      </trkpt>
      <trkpt lat="47.24692" lon="-1.63786">
        <ele>31.5</ele>
        <time>2013-03-02T07:42:40Z</time>
      </trkpt>
      <trkpt lat="47.24694" lon="-1.63784">
        <ele>31.6</ele>
        <time>2013-03-02T07:42:41Z</time>
      </trkpt>
      <trkpt lat="47.24695" lon="-1.63782">
        <ele>32</ele>
        <time>2013-03-02T07:42:42Z</time>
      </trkpt>
      <trkpt lat="47.24698" lon="-1.63778">
        <ele>32.2</ele>
        <time>2013-03-02T07:42:44Z</time>
      </trkpt>
      <trkpt lat="47.24703" lon="-1.63771">
        <ele>32</ele>
        <time>2013-03-02T07:42:47Z</time>
      </trkpt>
      <trkpt lat="47.24704" lon="-1.63769">
        <ele>32</ele>
        <time>2013-03-02T07:42:48Z</time>
      </trkpt>
      <trkpt lat="47.24706" lon="-1.63764">
        <ele>32.2</ele>
        <time>2013-03-02T07:42:50Z</time>
      </trkpt>
      <trkpt lat="47.24714" lon="-1.63749">
        <ele>33.8</ele>
        <time>2013-03-02T07:42:57Z</time>
      </trkpt>
      <trkpt lat="47.24715" lon="-1.63747">
        <ele>33.8</ele>
        <time>2013-03-02T07:42:58Z</time>
      </trkpt>
      <trkpt lat="47.24716" lon="-1.63744">
        <ele>34</ele>
        <time>2013-03-02T07:42:59Z</time>
      </trkpt>
      <trkpt lat="47.24718" lon="-1.63737">
        <ele>34.5</ele>
        <time>2013-03-02T07:43:02Z</time>
      </trkpt>
      <trkpt lat="47.24719" lon="-1.63735">
        <ele>35</ele>
        <time>2013-03-02T07:43:03Z</time>
      </trkpt>
      <trkpt lat="47.2472" lon="-1.63733">
        <ele>35.4</ele>
        <time>2013-03-02T07:43:04Z</time>
      </trkpt>
      <trkpt lat="47.24722" lon="-1.63729">
        <ele>36.6</ele>
        <time>2013-03-02T07:43:06Z</time>
      </trkpt>
      <trkpt lat="47.24723" lon="-1.63728">
        <ele>37.1</ele>
        <time>2013-03-02T07:43:07Z</time>
      </trkpt>
      <trkpt lat="47.24725" lon="-1.63728">
        <ele>37.2</ele>
        <time>2013-03-02T07:43:08Z</time>
      </trkpt>
      <trkpt lat="47.24727" lon="-1.63728">
        <ele>37.2</ele>
        <time>2013-03-02T07:43:09Z</time>
      </trkpt>
      <trkpt lat="47.2473" lon="-1.63729">
        <ele>37.4</ele>
        <time>2013-03-02T07:43:10Z</time>
      </trkpt>
      <trkpt lat="47.24732" lon="-1.63728">
        <ele>37.5</ele>
        <time>2013-03-02T07:43:11Z</time>
      </trkpt>
      <trkpt lat="47.24735" lon="-1.63728">
        <ele>37.6</ele>
        <time>2013-03-02T07:43:12Z</time>
      </trkpt>
      <trkpt lat="47.24737" lon="-1.63728">
        <ele>37.1</ele>
        <time>2013-03-02T07:43:13Z</time>
      </trkpt>
      <trkpt lat="47.24739" lon="-1.63726">
        <ele>36.8</ele>
        <time>2013-03-02T07:43:14Z</time>
      </trkpt>
      <trkpt lat="47.24741" lon="-1.63725">
        <ele>37.1</ele>
        <time>2013-03-02T07:43:15Z</time>
      </trkpt>
      <trkpt lat="47.24742" lon="-1.63723">
        <ele>37.3</ele>
        <time>2013-03-02T07:43:16Z</time>
      </trkpt>
      <trkpt lat="47.24746" lon="-1.63719">
        <ele>38.1</ele>
        <time>2013-03-02T07:43:18Z</time>
      </trkpt>
      <trkpt lat="47.2475" lon="-1.63715">
        <ele>38.7</ele>
        <time>2013-03-02T07:43:20Z</time>
      </trkpt>
      <trkpt lat="47.24756" lon="-1.63707">
        <ele>39.3</ele>
        <time>2013-03-02T07:43:23Z</time>
      </trkpt>
      <trkpt lat="47.24758" lon="-1.63704">
        <ele>39.5</ele>
        <time>2013-03-02T07:43:24Z</time>
      </trkpt>
      <trkpt lat="47.24772" lon="-1.63682">
        <ele>40.5</ele>
        <time>2013-03-02T07:43:34Z</time>
      </trkpt>
      <trkpt lat="47.24777" lon="-1.63676">
        <ele>40.5</ele>
        <time>2013-03-02T07:43:37Z</time>
      </trkpt>
      <trkpt lat="47.24778" lon="-1.63673">
        <ele>40.5</ele>
        <time>2013-03-02T07:43:38Z</time>
      </trkpt>
      <trkpt lat="47.2478" lon="-1.63667">
        <ele>41.5</ele>
        <time>2013-03-02T07:43:40Z</time>
      </trkpt>
      <trkpt lat="47.24782" lon="-1.63665">
        <ele>41.8</ele>
        <time>2013-03-02T07:43:41Z</time>
      </trkpt>
      <trkpt lat="47.24784" lon="-1.63661">
        <ele>42.2</ele>
        <time>2013-03-02T07:43:43Z</time>
      </trkpt>
      <trkpt lat="47.24788" lon="-1.63654">
        <ele>42.1</ele>
        <time>2013-03-02T07:43:46Z</time>
      </trkpt>
      <trkpt lat="47.24789" lon="-1.63653">
        <ele>42.4</ele>
        <time>2013-03-02T07:43:47Z</time>
      </trkpt>
      <trkpt lat="47.24792" lon="-1.6365">
        <ele>42.2</ele>
        <time>2013-03-02T07:43:49Z</time>
      </trkpt>
      <trkpt lat="47.24795" lon="-1.63644">
        <ele>41.8</ele>
        <time>2013-03-02T07:43:52Z</time>
      </trkpt>
      <trkpt lat="47.24798" lon="-1.63638">
        <ele>43.2</ele>
        <time>2013-03-02T07:43:55Z</time>
      </trkpt>
      <trkpt lat="47.248" lon="-1.63636">
        <ele>43.6</ele>
        <time>2013-03-02T07:43:56Z</time>
      </trkpt>
      <trkpt lat="47.24802" lon="-1.63634">
        <ele>43.9</ele>
        <time>2013-03-02T07:43:57Z</time>
      </trkpt>
      <trkpt lat="47.24804" lon="-1.6363">
        <ele>43.4</ele>
        <time>2013-03-02T07:43:59Z</time>
      </trkpt>
      <trkpt lat="47.24806" lon="-1.63627">
        <ele>44.2</ele>
        <time>2013-03-02T07:44:00Z</time>
      </trkpt>
      <trkpt lat="47.2481" lon="-1.63619">
        <ele>44.6</ele>
        <time>2013-03-02T07:44:03Z</time>
      </trkpt>
      <trkpt lat="47.24822" lon="-1.63593">
        <ele>45.3</ele>
        <time>2013-03-02T07:44:13Z</time>
      </trkpt>
      <trkpt lat="47.24826" lon="-1.63586">
        <ele>45.8</ele>
        <time>2013-03-02T07:44:16Z</time>
      </trkpt>
      <trkpt lat="47.24827" lon="-1.63584">
        <ele>45.8</ele>
        <time>2013-03-02T07:44:17Z</time>
      </trkpt>
      <trkpt lat="47.24828" lon="-1.63579">
        <ele>45.8</ele>
        <time>2013-03-02T07:44:19Z</time>
      </trkpt>
      <trkpt lat="47.24829" lon="-1.63577">
        <ele>45.8</ele>
        <time>2013-03-02T07:44:20Z</time>
      </trkpt>
      <trkpt lat="47.2483" lon="-1.63576">
        <ele>45.8</ele>
        <time>2013-03-02T07:44:21Z</time>
      </trkpt>
      <trkpt lat="47.24832" lon="-1.63572">
        <ele>46.1</ele>
        <time>2013-03-02T07:44:23Z</time>
      </trkpt>
      <trkpt lat="47.24833" lon="-1.6357">
        <ele>46</ele>
        <time>2013-03-02T07:44:24Z</time>
      </trkpt>
      <trkpt lat="47.24834" lon="-1.63567">
        <ele>46</ele>
        <time>2013-03-02T07:44:25Z</time>
      </trkpt>
      <trkpt lat="47.24835" lon="-1.63566">
        <ele>46.2</ele>
        <time>2013-03-02T07:44:26Z</time>
      </trkpt>
      <trkpt lat="47.24836" lon="-1.63565">
        <ele>46.3</ele>
        <time>2013-03-02T07:44:27Z</time>
      </trkpt>
      <trkpt lat="47.24837" lon="-1.63564">
        <ele>46.4</ele>
        <time>2013-03-02T07:44:28Z</time>
      </trkpt>
      <trkpt lat="47.24838" lon="-1.63563">
        <ele>46.4</ele>
        <time>2013-03-02T07:44:29Z</time>
      </trkpt>
      <trkpt lat="47.24841" lon="-1.63561">
        <ele>46.2</ele>
        <time>2013-03-02T07:44:31Z</time>
      </trkpt>
      <trkpt lat="47.24848" lon="-1.63552">
        <ele>46.5</ele>
        <time>2013-03-02T07:44:35Z</time>
      </trkpt>
      <trkpt lat="47.24849" lon="-1.63551">
        <ele>46.6</ele>
        <time>2013-03-02T07:44:36Z</time>
      </trkpt>
      <trkpt lat="47.24853" lon="-1.63548">
        <ele>46.7</ele>
        <time>2013-03-02T07:44:38Z</time>
      </trkpt>
      <trkpt lat="47.24855" lon="-1.63546">
        <ele>46.8</ele>
        <time>2013-03-02T07:44:39Z</time>
      </trkpt>
      <trkpt lat="47.24863" lon="-1.6354">
        <ele>47.9</ele>
        <time>2013-03-02T07:44:43Z</time>
      </trkpt>
      <trkpt lat="47.24865" lon="-1.63539">
        <ele>48</ele>
        <time>2013-03-02T07:44:44Z</time>
      </trkpt>
      <trkpt lat="47.24869" lon="-1.63535">
        <ele>48</ele>
        <time>2013-03-02T07:44:46Z</time>
      </trkpt>
      <trkpt lat="47.24881" lon="-1.63524">
        <ele>47.8</ele>
        <time>2013-03-02T07:44:52Z</time>
      </trkpt>
      <trkpt lat="47.24911" lon="-1.63494">
        <ele>48.1</ele>
        <time>2013-03-02T07:45:07Z</time>
      </trkpt>
      <trkpt lat="47.2494" lon="-1.63465">
        <ele>49.1</ele>
        <time>2013-03-02T07:45:20Z</time>
      </trkpt>
      <trkpt lat="47.24943" lon="-1.63464">
        <ele>49.1</ele>
        <time>2013-03-02T07:45:21Z</time>
      </trkpt>
      <trkpt lat="47.24945" lon="-1.63463">
        <ele>49.2</ele>
        <time>2013-03-02T07:45:22Z</time>
      </trkpt>
      <trkpt lat="47.24964" lon="-1.63459">
        <ele>49.5</ele>
        <time>2013-03-02T07:45:31Z</time>
      </trkpt>
      <trkpt lat="47.24966" lon="-1.63459">
        <ele>49.5</ele>
        <time>2013-03-02T07:45:32Z</time>
      </trkpt>
      <trkpt lat="47.24968" lon="-1.63461">
        <ele>49.6</ele>
        <time>2013-03-02T07:45:33Z</time>
      </trkpt>
      <trkpt lat="47.24969" lon="-1.63464">
        <ele>49.7</ele>
        <time>2013-03-02T07:45:34Z</time>
      </trkpt>
      <trkpt lat="47.24969" lon="-1.63467">
        <ele>49.8</ele>
        <time>2013-03-02T07:45:35Z</time>
      </trkpt>
      <trkpt lat="47.24971" lon="-1.63493">
        <ele>49.6</ele>
        <time>2013-03-02T07:45:42Z</time>
      </trkpt>
      <trkpt lat="47.24972" lon="-1.63496">
        <ele>49.2</ele>
        <time>2013-03-02T07:45:43Z</time>
      </trkpt>
      <trkpt lat="47.24973" lon="-1.635">
        <ele>48.9</ele>
        <time>2013-03-02T07:45:44Z</time>
      </trkpt>
      <trkpt lat="47.24977" lon="-1.63508">
        <ele>49.6</ele>
        <time>2013-03-02T07:45:47Z</time>
      </trkpt>
      <trkpt lat="47.2498" lon="-1.63511">
        <ele>49.7</ele>
        <time>2013-03-02T07:45:48Z</time>
      </trkpt>
      <trkpt lat="47.24988" lon="-1.63521">
        <ele>49.1</ele>
        <time>2013-03-02T07:45:52Z</time>
      </trkpt>
      <trkpt lat="47.2499" lon="-1.63524">
        <ele>48.9</ele>
        <time>2013-03-02T07:45:53Z</time>
      </trkpt>
      <trkpt lat="47.24991" lon="-1.63527">
        <ele>49.1</ele>
        <time>2013-03-02T07:45:54Z</time>
      </trkpt>
      <trkpt lat="47.24992" lon="-1.6353">
        <ele>49.2</ele>
        <time>2013-03-02T07:45:55Z</time>
      </trkpt>
      <trkpt lat="47.24992" lon="-1.63534">
        <ele>49.2</ele>
        <time>2013-03-02T07:45:56Z</time>
      </trkpt>
      <trkpt lat="47.24992" lon="-1.63537">
        <ele>49.1</ele>
        <time>2013-03-02T07:45:57Z</time>
      </trkpt>
      <trkpt lat="47.24992" lon="-1.63565">
        <ele>48.6</ele>
        <time>2013-03-02T07:46:05Z</time>
      </trkpt>
      <trkpt lat="47.24992" lon="-1.63568">
        <ele>48.5</ele>
        <time>2013-03-02T07:46:06Z</time>
      </trkpt>
      <trkpt lat="47.24993" lon="-1.63578">
        <ele>48</ele>
        <time>2013-03-02T07:46:09Z</time>
      </trkpt>
      <trkpt lat="47.24994" lon="-1.63582">
        <ele>47.9</ele>
        <time>2013-03-02T07:46:10Z</time>
      </trkpt>
      <trkpt lat="47.24996" lon="-1.6359">
        <ele>48.4</ele>
        <time>2013-03-02T07:46:12Z</time>
      </trkpt>
      <trkpt lat="47.24998" lon="-1.63593">
        <ele>48.3</ele>
        <time>2013-03-02T07:46:13Z</time>
      </trkpt>
      <trkpt lat="47.25002" lon="-1.636">
        <ele>48</ele>
        <time>2013-03-02T07:46:15Z</time>
      </trkpt>
      <trkpt lat="47.25008" lon="-1.6361">
        <ele>48.1</ele>
        <time>2013-03-02T07:46:18Z</time>
      </trkpt>
      <trkpt lat="47.25011" lon="-1.63618">
        <ele>47.9</ele>
        <time>2013-03-02T07:46:20Z</time>
      </trkpt>
      <trkpt lat="47.25012" lon="-1.63621">
        <ele>47.6</ele>
        <time>2013-03-02T07:46:21Z</time>
      </trkpt>
      <trkpt lat="47.25013" lon="-1.63625">
        <ele>47.4</ele>
        <time>2013-03-02T07:46:22Z</time>
      </trkpt>
      <trkpt lat="47.25014" lon="-1.63629">
        <ele>47.5</ele>
        <time>2013-03-02T07:46:23Z</time>
      </trkpt>
      <trkpt lat="47.25013" lon="-1.63633">
        <ele>47.5</ele>
        <time>2013-03-02T07:46:24Z</time>
      </trkpt>
      <trkpt lat="47.25012" lon="-1.63638">
        <ele>47.5</ele>
        <time>2013-03-02T07:46:25Z</time>
      </trkpt>
      <trkpt lat="47.25011" lon="-1.63641">
        <ele>47.5</ele>
        <time>2013-03-02T07:46:26Z</time>
      </trkpt>
      <trkpt lat="47.25009" lon="-1.63645">
        <ele>47.2</ele>
        <time>2013-03-02T07:46:27Z</time>
      </trkpt>
      <trkpt lat="47.25008" lon="-1.63649">
        <ele>47</ele>
        <time>2013-03-02T07:46:28Z</time>
      </trkpt>
      <trkpt lat="47.25004" lon="-1.63663">
        <ele>46.8</ele>
        <time>2013-03-02T07:46:31Z</time>
      </trkpt>
      <trkpt lat="47.25003" lon="-1.63667">
        <ele>47</ele>
        <time>2013-03-02T07:46:32Z</time>
      </trkpt>
      <trkpt lat="47.25002" lon="-1.63675">
        <ele>47.3</ele>
        <time>2013-03-02T07:46:34Z</time>
      </trkpt>
      <trkpt lat="47.25002" lon="-1.63679">
        <ele>47.5</ele>
        <time>2013-03-02T07:46:35Z</time>
      </trkpt>
      <trkpt lat="47.25003" lon="-1.63682">
        <ele>47.7</ele>
        <time>2013-03-02T07:46:36Z</time>
      </trkpt>
      <trkpt lat="47.25004" lon="-1.63686">
        <ele>47.3</ele>
        <time>2013-03-02T07:46:37Z</time>
      </trkpt>
      <trkpt lat="47.25006" lon="-1.63688">
        <ele>47.1</ele>
        <time>2013-03-02T07:46:38Z</time>
      </trkpt>
      <trkpt lat="47.25008" lon="-1.63689">
        <ele>47</ele>
        <time>2013-03-02T07:46:39Z</time>
      </trkpt>
      <trkpt lat="47.25011" lon="-1.6369">
        <ele>46.9</ele>
        <time>2013-03-02T07:46:40Z</time>
      </trkpt>
      <trkpt lat="47.25016" lon="-1.6369">
        <ele>46.8</ele>
        <time>2013-03-02T07:46:42Z</time>
      </trkpt>
      <trkpt lat="47.25018" lon="-1.63691">
        <ele>46.7</ele>
        <time>2013-03-02T07:46:43Z</time>
      </trkpt>
      <trkpt lat="47.2502" lon="-1.63692">
        <ele>46.7</ele>
        <time>2013-03-02T07:46:44Z</time>
      </trkpt>
      <trkpt lat="47.25024" lon="-1.63694">
        <ele>46.3</ele>
        <time>2013-03-02T07:46:46Z</time>
      </trkpt>
      <trkpt lat="47.25026" lon="-1.63696">
        <ele>46.1</ele>
        <time>2013-03-02T07:46:47Z</time>
      </trkpt>
      <trkpt lat="47.25028" lon="-1.63699">
        <ele>45.9</ele>
        <time>2013-03-02T07:46:48Z</time>
      </trkpt>
      <trkpt lat="47.25029" lon="-1.63701">
        <ele>46.2</ele>
        <time>2013-03-02T07:46:49Z</time>
      </trkpt>
      <trkpt lat="47.25031" lon="-1.63704">
        <ele>46.4</ele>
        <time>2013-03-02T07:46:50Z</time>
      </trkpt>
      <trkpt lat="47.25033" lon="-1.63709">
        <ele>46.3</ele>
        <time>2013-03-02T07:46:52Z</time>
      </trkpt>
      <trkpt lat="47.25034" lon="-1.63711">
        <ele>46.2</ele>
        <time>2013-03-02T07:46:53Z</time>
      </trkpt>
      <trkpt lat="47.25038" lon="-1.63717">
        <ele>45.4</ele>
        <time>2013-03-02T07:46:55Z</time>
      </trkpt>
      <trkpt lat="47.25041" lon="-1.63719">
        <ele>45.1</ele>
        <time>2013-03-02T07:46:56Z</time>
      </trkpt>
      <trkpt lat="47.25043" lon="-1.63721">
        <ele>44.9</ele>
        <time>2013-03-02T07:46:57Z</time>
      </trkpt>
      <trkpt lat="47.25046" lon="-1.63722">
        <ele>44.9</ele>
        <time>2013-03-02T07:46:58Z</time>
      </trkpt>
      <trkpt lat="47.25057" lon="-1.63726">
        <ele>44.4</ele>
        <time>2013-03-02T07:47:03Z</time>
      </trkpt>
      <trkpt lat="47.25059" lon="-1.63727">
        <ele>44.3</ele>
        <time>2013-03-02T07:47:04Z</time>
      </trkpt>
      <trkpt lat="47.25062" lon="-1.6373">
        <ele>44.4</ele>
        <time>2013-03-02T07:47:05Z</time>
      </trkpt>
      <trkpt lat="47.25066" lon="-1.63737">
        <ele>44.5</ele>
        <time>2013-03-02T07:47:07Z</time>
      </trkpt>
      <trkpt lat="47.25068" lon="-1.6374">
        <ele>44.4</ele>
        <time>2013-03-02T07:47:08Z</time>
      </trkpt>
      <trkpt lat="47.2507" lon="-1.63744">
        <ele>44.3</ele>
        <time>2013-03-02T07:47:09Z</time>
      </trkpt>
      <trkpt lat="47.25078" lon="-1.63763">
        <ele>43.7</ele>
        <time>2013-03-02T07:47:14Z</time>
      </trkpt>
      <trkpt lat="47.2508" lon="-1.63766">
        <ele>43.6</ele>
        <time>2013-03-02T07:47:15Z</time>
      </trkpt>
      <trkpt lat="47.25084" lon="-1.63768">
        <ele>43.6</ele>
        <time>2013-03-02T07:47:16Z</time>
      </trkpt>
      <trkpt lat="47.25089" lon="-1.63771">
        <ele>43.2</ele>
        <time>2013-03-02T07:47:18Z</time>
      </trkpt>
      <trkpt lat="47.25092" lon="-1.63774">
        <ele>43</ele>
        <time>2013-03-02T07:47:19Z</time>
      </trkpt>
      <trkpt lat="47.25094" lon="-1.63776">
        <ele>43.1</ele>
        <time>2013-03-02T07:47:20Z</time>
      </trkpt>
      <trkpt lat="47.25097" lon="-1.63779">
        <ele>43.2</ele>
        <time>2013-03-02T07:47:21Z</time>
      </trkpt>
      <trkpt lat="47.25099" lon="-1.63782">
        <ele>43.1</ele>
        <time>2013-03-02T07:47:22Z</time>
      </trkpt>
      <trkpt lat="47.251" lon="-1.63785">
        <ele>43.1</ele>
        <time>2013-03-02T07:47:23Z</time>
      </trkpt>
      <trkpt lat="47.2511" lon="-1.63808">
        <ele>42.7</ele>
        <time>2013-03-02T07:47:30Z</time>
      </trkpt>
      <trkpt lat="47.25111" lon="-1.63811">
        <ele>42.9</ele>
        <time>2013-03-02T07:47:31Z</time>
      </trkpt>
      <trkpt lat="47.25112" lon="-1.63815">
        <ele>43</ele>
        <time>2013-03-02T07:47:32Z</time>
      </trkpt>
      <trkpt lat="47.25112" lon="-1.63818">
        <ele>43.1</ele>
        <time>2013-03-02T07:47:33Z</time>
      </trkpt>
      <trkpt lat="47.25112" lon="-1.63822">
        <ele>42.5</ele>
        <time>2013-03-02T07:47:34Z</time>
      </trkpt>
      <trkpt lat="47.25111" lon="-1.63825">
        <ele>42</ele>
        <time>2013-03-02T07:47:35Z</time>
      </trkpt>
      <trkpt lat="47.2511" lon="-1.63828">
        <ele>42.3</ele>
        <time>2013-03-02T07:47:36Z</time>
      </trkpt>
      <trkpt lat="47.25108" lon="-1.63838">
        <ele>41.8</ele>
        <time>2013-03-02T07:47:40Z</time>
      </trkpt>
      <trkpt lat="47.25107" lon="-1.6384">
        <ele>41.8</ele>
        <time>2013-03-02T07:47:41Z</time>
      </trkpt>
      <trkpt lat="47.25107" lon="-1.63841">
        <ele>41.8</ele>
        <time>2013-03-02T07:47:42Z</time>
      </trkpt>
      <trkpt lat="47.25104" lon="-1.6385">
        <ele>41.4</ele>
        <time>2013-03-02T07:47:46Z</time>
      </trkpt>
      <trkpt lat="47.25102" lon="-1.63853">
        <ele>41.4</ele>
        <time>2013-03-02T07:47:47Z</time>
      </trkpt>
      <trkpt lat="47.25097" lon="-1.63865">
        <ele>41.8</ele>
        <time>2013-03-02T07:47:52Z</time>
      </trkpt>
      <trkpt lat="47.25085" lon="-1.63884">
        <ele>42.3</ele>
        <time>2013-03-02T07:47:59Z</time>
      </trkpt>
      <trkpt lat="47.25083" lon="-1.63886">
        <ele>42.1</ele>
        <time>2013-03-02T07:48:00Z</time>
      </trkpt>
      <trkpt lat="47.25078" lon="-1.63892">
        <ele>41.9</ele>
        <time>2013-03-02T07:48:02Z</time>
      </trkpt>
      <trkpt lat="47.25076" lon="-1.63894">
        <ele>41.8</ele>
        <time>2013-03-02T07:48:03Z</time>
      </trkpt>
      <trkpt lat="47.25064" lon="-1.63909">
        <ele>41.7</ele>
        <time>2013-03-02T07:48:09Z</time>
      </trkpt>
      <trkpt lat="47.25058" lon="-1.63916">
        <ele>42</ele>
        <time>2013-03-02T07:48:12Z</time>
      </trkpt>
      <trkpt lat="47.25035" lon="-1.63938">
        <ele>43.3</ele>
        <time>2013-03-02T07:48:24Z</time>
      </trkpt>
      <trkpt lat="47.25033" lon="-1.6394">
        <ele>43.4</ele>
        <time>2013-03-02T07:48:25Z</time>
      </trkpt>
      <trkpt lat="47.25031" lon="-1.63941">
        <ele>43.1</ele>
        <time>2013-03-02T07:48:26Z</time>
      </trkpt>
      <trkpt lat="47.25028" lon="-1.63943">
        <ele>42.9</ele>
        <time>2013-03-02T07:48:27Z</time>
      </trkpt>
      <trkpt lat="47.2502" lon="-1.63947">
        <ele>42.8</ele>
        <time>2013-03-02T07:48:30Z</time>
      </trkpt>
      <trkpt lat="47.25017" lon="-1.63949">
        <ele>42.5</ele>
        <time>2013-03-02T07:48:31Z</time>
      </trkpt>
      <trkpt lat="47.25013" lon="-1.63954">
        <ele>42.2</ele>
        <time>2013-03-02T07:48:33Z</time>
      </trkpt>
      <trkpt lat="47.25011" lon="-1.63957">
        <ele>42.2</ele>
        <time>2013-03-02T07:48:34Z</time>
      </trkpt>
      <trkpt lat="47.25011" lon="-1.6396">
        <ele>42.1</ele>
        <time>2013-03-02T07:48:35Z</time>
      </trkpt>
      <trkpt lat="47.25011" lon="-1.63963">
        <ele>42.2</ele>
        <time>2013-03-02T07:48:36Z</time>
      </trkpt>
      <trkpt lat="47.25011" lon="-1.63965">
        <ele>42.2</ele>
        <time>2013-03-02T07:48:37Z</time>
      </trkpt>
      <trkpt lat="47.25012" lon="-1.63977">
        <ele>41.4</ele>
        <time>2013-03-02T07:48:41Z</time>
      </trkpt>
      <trkpt lat="47.25013" lon="-1.6399">
        <ele>41.2</ele>
        <time>2013-03-02T07:48:46Z</time>
      </trkpt>
      <trkpt lat="47.25014" lon="-1.63993">
        <ele>41.1</ele>
        <time>2013-03-02T07:48:47Z</time>
      </trkpt>
      <trkpt lat="47.25015" lon="-1.63996">
        <ele>41.1</ele>
        <time>2013-03-02T07:48:48Z</time>
      </trkpt>
      <trkpt lat="47.25017" lon="-1.64004">
        <ele>41.4</ele>
        <time>2013-03-02T07:48:50Z</time>
      </trkpt>
      <trkpt lat="47.25017" lon="-1.64008">
        <ele>41.7</ele>
        <time>2013-03-02T07:48:51Z</time>
      </trkpt>
      <trkpt lat="47.25019" lon="-1.64015">
        <ele>42</ele>
        <time>2013-03-02T07:48:53Z</time>
      </trkpt>
      <trkpt lat="47.25027" lon="-1.64061">
        <ele>42.2</ele>
        <time>2013-03-02T07:49:05Z</time>
      </trkpt>
      <trkpt lat="47.25034" lon="-1.64089">
        <ele>42.3</ele>
        <time>2013-03-02T07:49:13Z</time>
      </trkpt>
      <trkpt lat="47.25044" lon="-1.64129">
        <ele>41.9</ele>
        <time>2013-03-02T07:49:24Z</time>
      </trkpt>
      <trkpt lat="47.25049" lon="-1.64153">
        <ele>42.6</ele>
        <time>2013-03-02T07:49:31Z</time>
      </trkpt>
      <trkpt lat="47.25049" lon="-1.64156">
        <ele>42.6</ele>
        <time>2013-03-02T07:49:32Z</time>
      </trkpt>
      <trkpt lat="47.25049" lon="-1.64159">
        <ele>42.6</ele>
        <time>2013-03-02T07:49:33Z</time>
      </trkpt>
      <trkpt lat="47.25049" lon="-1.64162">
        <ele>42.6</ele>
        <time>2013-03-02T07:49:34Z</time>
      </trkpt>
      <trkpt lat="47.25047" lon="-1.64163">
        <ele>42.2</ele>
        <time>2013-03-02T07:49:35Z</time>
      </trkpt>
      <trkpt lat="47.25045" lon="-1.64165">
        <ele>41.9</ele>
        <time>2013-03-02T07:49:36Z</time>
      </trkpt>
      <trkpt lat="47.25042" lon="-1.64166">
        <ele>41.7</ele>
        <time>2013-03-02T07:49:37Z</time>
      </trkpt>
      <trkpt lat="47.25039" lon="-1.64167">
        <ele>41.6</ele>
        <time>2013-03-02T07:49:38Z</time>
      </trkpt>
      <trkpt lat="47.25021" lon="-1.64173">
        <ele>41.2</ele>
        <time>2013-03-02T07:49:42Z</time>
      </trkpt>
      <trkpt lat="47.25017" lon="-1.64175">
        <ele>40.8</ele>
        <time>2013-03-02T07:49:43Z</time>
      </trkpt>
      <trkpt lat="47.24943" lon="-1.64212">
        <ele>36.9</ele>
        <time>2013-03-02T07:50:05Z</time>
      </trkpt>
      <trkpt lat="47.2494" lon="-1.64215">
        <ele>37.2</ele>
        <time>2013-03-02T07:50:06Z</time>
      </trkpt>
      <trkpt lat="47.24938" lon="-1.64218">
        <ele>37.4</ele>
        <time>2013-03-02T07:50:07Z</time>
      </trkpt>
      <trkpt lat="47.24936" lon="-1.64221">
        <ele>37.3</ele>
        <time>2013-03-02T07:50:08Z</time>
      </trkpt>
      <trkpt lat="47.24935" lon="-1.64224">
        <ele>37.2</ele>
        <time>2013-03-02T07:50:09Z</time>
      </trkpt>
      <trkpt lat="47.24935" lon="-1.64228">
        <ele>37</ele>
        <time>2013-03-02T07:50:10Z</time>
      </trkpt>
      <trkpt lat="47.24936" lon="-1.64235">
        <ele>36.8</ele>
        <time>2013-03-02T07:50:12Z</time>
      </trkpt>
      <trkpt lat="47.24935" lon="-1.64238">
        <ele>36.3</ele>
        <time>2013-03-02T07:50:13Z</time>
      </trkpt>
      <trkpt lat="47.24932" lon="-1.64248">
        <ele>36.2</ele>
        <time>2013-03-02T07:50:16Z</time>
      </trkpt>
      <trkpt lat="47.24932" lon="-1.64252">
        <ele>36.3</ele>
        <time>2013-03-02T07:50:17Z</time>
      </trkpt>
      <trkpt lat="47.24933" lon="-1.6426">
        <ele>36.1</ele>
        <time>2013-03-02T07:50:19Z</time>
      </trkpt>
      <trkpt lat="47.24933" lon="-1.64263">
        <ele>36.2</ele>
        <time>2013-03-02T07:50:20Z</time>
      </trkpt>
      <trkpt lat="47.24934" lon="-1.64267">
        <ele>36.3</ele>
        <time>2013-03-02T07:50:21Z</time>
      </trkpt>
      <trkpt lat="47.24936" lon="-1.64273">
        <ele>36.3</ele>
        <time>2013-03-02T07:50:23Z</time>
      </trkpt>
      <trkpt lat="47.24951" lon="-1.64343">
        <ele>37.4</ele>
        <time>2013-03-02T07:50:43Z</time>
      </trkpt>
      <trkpt lat="47.2496" lon="-1.64381">
        <ele>38.4</ele>
        <time>2013-03-02T07:50:52Z</time>
      </trkpt>
      <trkpt lat="47.24979" lon="-1.64451">
        <ele>35.6</ele>
        <time>2013-03-02T07:51:07Z</time>
      </trkpt>
      <trkpt lat="47.24981" lon="-1.64456">
        <ele>35.3</ele>
        <time>2013-03-02T07:51:08Z</time>
      </trkpt>
      <trkpt lat="47.25017" lon="-1.64573">
        <ele>33.6</ele>
        <time>2013-03-02T07:51:30Z</time>
      </trkpt>
      <trkpt lat="47.25018" lon="-1.64576">
        <ele>33.3</ele>
        <time>2013-03-02T07:51:31Z</time>
      </trkpt>
      <trkpt lat="47.2502" lon="-1.64581">
        <ele>32.9</ele>
        <time>2013-03-02T07:51:33Z</time>
      </trkpt>
      <trkpt lat="47.25021" lon="-1.64582">
        <ele>32.5</ele>
        <time>2013-03-02T07:51:34Z</time>
      </trkpt>
      <trkpt lat="47.25023" lon="-1.64582">
        <ele>32.2</ele>
        <time>2013-03-02T07:51:35Z</time>
      </trkpt>
      <trkpt lat="47.25025" lon="-1.64581">
        <ele>32.2</ele>
        <time>2013-03-02T07:51:36Z</time>
      </trkpt>
      <trkpt lat="47.25026" lon="-1.6458">
        <ele>32.1</ele>
        <time>2013-03-02T07:51:37Z</time>
      </trkpt>
      <trkpt lat="47.25028" lon="-1.64578">
        <ele>31.8</ele>
        <time>2013-03-02T07:51:38Z</time>
      </trkpt>
      <trkpt lat="47.25029" lon="-1.64576">
        <ele>31.5</ele>
        <time>2013-03-02T07:51:39Z</time>
      </trkpt>
      <trkpt lat="47.25034" lon="-1.64572">
        <ele>32.2</ele>
        <time>2013-03-02T07:51:42Z</time>
      </trkpt>
      <trkpt lat="47.25038" lon="-1.64569">
        <ele>32.8</ele>
        <time>2013-03-02T07:51:44Z</time>
      </trkpt>
      <trkpt lat="47.25084" lon="-1.64525">
        <ele>36.1</ele>
        <time>2013-03-02T07:52:06Z</time>
      </trkpt>
      <trkpt lat="47.25086" lon="-1.64524">
        <ele>36.5</ele>
        <time>2013-03-02T07:52:07Z</time>
      </trkpt>
      <trkpt lat="47.25088" lon="-1.64524">
        <ele>36.8</ele>
        <time>2013-03-02T07:52:08Z</time>
      </trkpt>
      <trkpt lat="47.25091" lon="-1.64524">
        <ele>37.2</ele>
        <time>2013-03-02T07:52:09Z</time>
      </trkpt>
      <trkpt lat="47.25092" lon="-1.64526">
        <ele>37.4</ele>
        <time>2013-03-02T07:52:10Z</time>
      </trkpt>
      <trkpt lat="47.25094" lon="-1.64529">
        <ele>37.1</ele>
        <time>2013-03-02T07:52:11Z</time>
      </trkpt>
      <trkpt lat="47.25094" lon="-1.64533">
        <ele>36.8</ele>
        <time>2013-03-02T07:52:12Z</time>
      </trkpt>
      <trkpt lat="47.25095" lon="-1.64537">
        <ele>36.6</ele>
        <time>2013-03-02T07:52:13Z</time>
      </trkpt>
      <trkpt lat="47.25101" lon="-1.6462">
        <ele>36.7</ele>
        <time>2013-03-02T07:52:31Z</time>
      </trkpt>
      <trkpt lat="47.25101" lon="-1.64625">
        <ele>36.4</ele>
        <time>2013-03-02T07:52:32Z</time>
      </trkpt>
      <trkpt lat="47.251" lon="-1.64644">
        <ele>37.5</ele>
        <time>2013-03-02T07:52:36Z</time>
      </trkpt>
      <trkpt lat="47.251" lon="-1.64648">
        <ele>37.7</ele>
        <time>2013-03-02T07:52:37Z</time>
      </trkpt>
      <trkpt lat="47.25069" lon="-1.64859">
        <ele>31.7</ele>
        <time>2013-03-02T07:53:11Z</time>
      </trkpt>
      <trkpt lat="47.25068" lon="-1.64865">
        <ele>31.6</ele>
        <time>2013-03-02T07:53:12Z</time>
      </trkpt>
      <trkpt lat="47.25065" lon="-1.64884">
        <ele>31.2</ele>
        <time>2013-03-02T07:53:16Z</time>
      </trkpt>
      <trkpt lat="47.25065" lon="-1.64889">
        <ele>31.4</ele>
        <time>2013-03-02T07:53:17Z</time>
      </trkpt>
      <trkpt lat="47.25065" lon="-1.64893">
        <ele>31.4</ele>
        <time>2013-03-02T07:53:18Z</time>
      </trkpt>
      <trkpt lat="47.25063" lon="-1.64895">
        <ele>31.3</ele>
        <time>2013-03-02T07:53:19Z</time>
      </trkpt>
      <trkpt lat="47.25061" lon="-1.64894">
        <ele>31.3</ele>
        <time>2013-03-02T07:53:20Z</time>
      </trkpt>
      <trkpt lat="47.25061" lon="-1.64891">
        <ele>31.2</ele>
        <time>2013-03-02T07:53:21Z</time>
      </trkpt>
      <trkpt lat="47.25062" lon="-1.64887">
        <ele>31.1</ele>
        <time>2013-03-02T07:53:22Z</time>
      </trkpt>
      <trkpt lat="47.25064" lon="-1.64883">
        <ele>30.9</ele>
        <time>2013-03-02T07:53:23Z</time>
      </trkpt>
      <trkpt lat="47.25069" lon="-1.64871">
        <ele>30.5</ele>
        <time>2013-03-02T07:53:26Z</time>
      </trkpt>
      <trkpt lat="47.2507" lon="-1.64868">
        <ele>30.5</ele>
        <time>2013-03-02T07:53:27Z</time>
      </trkpt>
      <trkpt lat="47.25075" lon="-1.64848">
        <ele>30.8</ele>
        <time>2013-03-02T07:53:33Z</time>
      </trkpt>
      <trkpt lat="47.25076" lon="-1.64839">
        <ele>30.5</ele>
        <time>2013-03-02T07:53:36Z</time>
      </trkpt>
      <trkpt lat="47.25078" lon="-1.64827">
        <ele>31.4</ele>
        <time>2013-03-02T07:53:40Z</time>
      </trkpt>
      <trkpt lat="47.25079" lon="-1.64824">
        <ele>31.6</ele>
        <time>2013-03-02T07:53:41Z</time>
      </trkpt>
      <trkpt lat="47.2508" lon="-1.64822">
        <ele>31.3</ele>
        <time>2013-03-02T07:53:42Z</time>
      </trkpt>
      <trkpt lat="47.25082" lon="-1.64821">
        <ele>31</ele>
        <time>2013-03-02T07:53:43Z</time>
      </trkpt>
      <trkpt lat="47.25083" lon="-1.64821">
        <ele>31.3</ele>
        <time>2013-03-02T07:53:44Z</time>
      </trkpt>
      <trkpt lat="47.25085" lon="-1.64822">
        <ele>31.5</ele>
        <time>2013-03-02T07:53:45Z</time>
      </trkpt>
      <trkpt lat="47.25087" lon="-1.64823">
        <ele>31.5</ele>
        <time>2013-03-02T07:53:46Z</time>
      </trkpt>
      <trkpt lat="47.25093" lon="-1.64827">
        <ele>31.8</ele>
        <time>2013-03-02T07:53:49Z</time>
      </trkpt>
      <trkpt lat="47.25094" lon="-1.64828">
        <ele>32</ele>
        <time>2013-03-02T07:53:50Z</time>
      </trkpt>
      <trkpt lat="47.25096" lon="-1.6483">
        <ele>31.9</ele>
        <time>2013-03-02T07:53:51Z</time>
      </trkpt>
      <trkpt lat="47.25098" lon="-1.64832">
        <ele>31.9</ele>
        <time>2013-03-02T07:53:52Z</time>
      </trkpt>
      <trkpt lat="47.251" lon="-1.64833">
        <ele>31.8</ele>
        <time>2013-03-02T07:53:53Z</time>
      </trkpt>
      <trkpt lat="47.25103" lon="-1.64834">
        <ele>31.9</ele>
        <time>2013-03-02T07:53:55Z</time>
      </trkpt>
      <trkpt lat="47.25105" lon="-1.64835">
        <ele>32.1</ele>
        <time>2013-03-02T07:53:56Z</time>
      </trkpt>
      <trkpt lat="47.25106" lon="-1.64835">
        <ele>32.3</ele>
        <time>2013-03-02T07:53:57Z</time>
      </trkpt>
      <trkpt lat="47.25108" lon="-1.64837">
        <ele>32.8</ele>
        <time>2013-03-02T07:53:58Z</time>
      </trkpt>
      <trkpt lat="47.25111" lon="-1.6484">
        <ele>33.5</ele>
        <time>2013-03-02T07:54:00Z</time>
      </trkpt>
      <trkpt lat="47.25136" lon="-1.64861">
        <ele>35.3</ele>
        <time>2013-03-02T07:54:13Z</time>
      </trkpt>
      <trkpt lat="47.25138" lon="-1.64863">
        <ele>35.2</ele>
        <time>2013-03-02T07:54:14Z</time>
      </trkpt>
      <trkpt lat="47.25149" lon="-1.64872">
        <ele>36.3</ele>
        <time>2013-03-02T07:54:20Z</time>
      </trkpt>
      <trkpt lat="47.2515" lon="-1.64875">
        <ele>36.5</ele>
        <time>2013-03-02T07:54:21Z</time>
      </trkpt>
      <trkpt lat="47.25153" lon="-1.64884">
        <ele>36.9</ele>
        <time>2013-03-02T07:54:24Z</time>
      </trkpt>
      <trkpt lat="47.25157" lon="-1.64897">
        <ele>37.1</ele>
        <time>2013-03-02T07:54:29Z</time>
      </trkpt>
      <trkpt lat="47.25159" lon="-1.64907">
        <ele>38</ele>
        <time>2013-03-02T07:54:32Z</time>
      </trkpt>
      <trkpt lat="47.25163" lon="-1.64926">
        <ele>39.2</ele>
        <time>2013-03-02T07:54:38Z</time>
      </trkpt>
      <trkpt lat="47.25167" lon="-1.6495">
        <ele>39</ele>
        <time>2013-03-02T07:54:45Z</time>
      </trkpt>
      <trkpt lat="47.25167" lon="-1.64954">
        <ele>39.3</ele>
        <time>2013-03-02T07:54:46Z</time>
      </trkpt>
      <trkpt lat="47.25167" lon="-1.64958">
        <ele>39.5</ele>
        <time>2013-03-02T07:54:47Z</time>
      </trkpt>
      <trkpt lat="47.25167" lon="-1.64962">
        <ele>39.5</ele>
        <time>2013-03-02T07:54:48Z</time>
      </trkpt>
      <trkpt lat="47.25166" lon="-1.64984">
        <ele>39.5</ele>
        <time>2013-03-02T07:54:53Z</time>
      </trkpt>
      <trkpt lat="47.25167" lon="-1.64989">
        <ele>39.3</ele>
        <time>2013-03-02T07:54:54Z</time>
      </trkpt>
      <trkpt lat="47.25168" lon="-1.65025">
        <ele>39.1</ele>
        <time>2013-03-02T07:55:02Z</time>
      </trkpt>
      <trkpt lat="47.25169" lon="-1.65098">
        <ele>39.3</ele>
        <time>2013-03-02T07:55:19Z</time>
      </trkpt>
      <trkpt lat="47.25168" lon="-1.65102">
        <ele>39.4</ele>
        <time>2013-03-02T07:55:20Z</time>
      </trkpt>
      <trkpt lat="47.25168" lon="-1.65107">
        <ele>39.1</ele>
        <time>2013-03-02T07:55:21Z</time>
      </trkpt>
      <trkpt lat="47.25167" lon="-1.65111">
        <ele>38.9</ele>
        <time>2013-03-02T07:55:22Z</time>
      </trkpt>
      <trkpt lat="47.25154" lon="-1.65174">
        <ele>37.6</ele>
        <time>2013-03-02T07:55:36Z</time>
      </trkpt>
      <trkpt lat="47.25149" lon="-1.65192">
        <ele>37.5</ele>
        <time>2013-03-02T07:55:40Z</time>
      </trkpt>
      <trkpt lat="47.25149" lon="-1.65198">
        <ele>37.3</ele>
        <time>2013-03-02T07:55:41Z</time>
      </trkpt>
      <trkpt lat="47.25149" lon="-1.65203">
        <ele>37.2</ele>
        <time>2013-03-02T07:55:42Z</time>
      </trkpt>
      <trkpt lat="47.2515" lon="-1.65209">
        <ele>37.3</ele>
        <time>2013-03-02T07:55:43Z</time>
      </trkpt>
      <trkpt lat="47.25151" lon="-1.65215">
        <ele>37.4</ele>
        <time>2013-03-02T07:55:44Z</time>
      </trkpt>
      <trkpt lat="47.25155" lon="-1.65228">
        <ele>36.6</ele>
        <time>2013-03-02T07:55:46Z</time>
      </trkpt>
      <trkpt lat="47.25156" lon="-1.65235">
        <ele>36.5</ele>
        <time>2013-03-02T07:55:47Z</time>
      </trkpt>
      <trkpt lat="47.25156" lon="-1.65241">
        <ele>36.5</ele>
        <time>2013-03-02T07:55:48Z</time>
      </trkpt>
      <trkpt lat="47.25156" lon="-1.65254">
        <ele>36.1</ele>
        <time>2013-03-02T07:55:50Z</time>
      </trkpt>
      <trkpt lat="47.25156" lon="-1.65261">
        <ele>35.8</ele>
        <time>2013-03-02T07:55:51Z</time>
      </trkpt>
      <trkpt lat="47.25156" lon="-1.65267">
        <ele>35.6</ele>
        <time>2013-03-02T07:55:52Z</time>
      </trkpt>
      <trkpt lat="47.25154" lon="-1.65278">
        <ele>35.3</ele>
        <time>2013-03-02T07:55:54Z</time>
      </trkpt>
      <trkpt lat="47.2515" lon="-1.65298">
        <ele>34.6</ele>
        <time>2013-03-02T07:55:57Z</time>
      </trkpt>
      <trkpt lat="47.25129" lon="-1.65378">
        <ele>31.8</ele>
        <time>2013-03-02T07:56:09Z</time>
      </trkpt>
      <trkpt lat="47.25127" lon="-1.65384">
        <ele>31.5</ele>
        <time>2013-03-02T07:56:10Z</time>
      </trkpt>
      <trkpt lat="47.25124" lon="-1.65391">
        <ele>31.4</ele>
        <time>2013-03-02T07:56:11Z</time>
      </trkpt>
      <trkpt lat="47.25112" lon="-1.65417">
        <ele>31.2</ele>
        <time>2013-03-02T07:56:15Z</time>
      </trkpt>
      <trkpt lat="47.25109" lon="-1.65424">
        <ele>30.9</ele>
        <time>2013-03-02T07:56:16Z</time>
      </trkpt>
      <trkpt lat="47.25107" lon="-1.65432">
        <ele>30.7</ele>
        <time>2013-03-02T07:56:17Z</time>
      </trkpt>
      <trkpt lat="47.25106" lon="-1.65439">
        <ele>30</ele>
        <time>2013-03-02T07:56:18Z</time>
      </trkpt>
      <trkpt lat="47.25104" lon="-1.65456">
        <ele>29.1</ele>
        <time>2013-03-02T07:56:20Z</time>
      </trkpt>
      <trkpt lat="47.25103" lon="-1.65465">
        <ele>29</ele>
        <time>2013-03-02T07:56:21Z</time>
      </trkpt>
      <trkpt lat="47.25094" lon="-1.65532">
        <ele>27.1</ele>
        <time>2013-03-02T07:56:28Z</time>
      </trkpt>
      <trkpt lat="47.25075" lon="-1.65602">
        <ele>23.2</ele>
        <time>2013-03-02T07:56:35Z</time>
      </trkpt>
      <trkpt lat="47.25069" lon="-1.65635">
        <ele>21.9</ele>
        <time>2013-03-02T07:56:39Z</time>
      </trkpt>
      <trkpt lat="47.25069" lon="-1.65642">
        <ele>21.9</ele>
        <time>2013-03-02T07:56:40Z</time>
      </trkpt>
      <trkpt lat="47.2507" lon="-1.65648">
        <ele>22</ele>
        <time>2013-03-02T07:56:41Z</time>
      </trkpt>
      <trkpt lat="47.25072" lon="-1.65651">
        <ele>21.9</ele>
        <time>2013-03-02T07:56:42Z</time>
      </trkpt>
      <trkpt lat="47.25075" lon="-1.65654">
        <ele>21.9</ele>
        <time>2013-03-02T07:56:43Z</time>
      </trkpt>
      <trkpt lat="47.25088" lon="-1.65666">
        <ele>24</ele>
        <time>2013-03-02T07:56:49Z</time>
      </trkpt>
      <trkpt lat="47.2509" lon="-1.65668">
        <ele>24.1</ele>
        <time>2013-03-02T07:56:50Z</time>
      </trkpt>
      <trkpt lat="47.25092" lon="-1.65669">
        <ele>24.4</ele>
        <time>2013-03-02T07:56:51Z</time>
      </trkpt>
      <trkpt lat="47.25098" lon="-1.65671">
        <ele>24.8</ele>
        <time>2013-03-02T07:56:53Z</time>
      </trkpt>
      <trkpt lat="47.2512" lon="-1.65681">
        <ele>25.5</ele>
        <time>2013-03-02T07:57:02Z</time>
      </trkpt>
      <trkpt lat="47.25123" lon="-1.65682">
        <ele>26</ele>
        <time>2013-03-02T07:57:03Z</time>
      </trkpt>
      <trkpt lat="47.25129" lon="-1.65686">
        <ele>26.9</ele>
        <time>2013-03-02T07:57:06Z</time>
      </trkpt>
      <trkpt lat="47.25131" lon="-1.65687">
        <ele>27.1</ele>
        <time>2013-03-02T07:57:07Z</time>
      </trkpt>
      <trkpt lat="47.25136" lon="-1.65689">
        <ele>27.2</ele>
        <time>2013-03-02T07:57:09Z</time>
      </trkpt>
      <trkpt lat="47.25138" lon="-1.6569">
        <ele>27.3</ele>
        <time>2013-03-02T07:57:10Z</time>
      </trkpt>
      <trkpt lat="47.25144" lon="-1.65694">
        <ele>28.6</ele>
        <time>2013-03-02T07:57:13Z</time>
      </trkpt>
      <trkpt lat="47.25146" lon="-1.65694">
        <ele>29</ele>
        <time>2013-03-02T07:57:14Z</time>
      </trkpt>
      <trkpt lat="47.25168" lon="-1.65701">
        <ele>29.4</ele>
        <time>2013-03-02T07:57:24Z</time>
      </trkpt>
      <trkpt lat="47.25171" lon="-1.65702">
        <ele>29.5</ele>
        <time>2013-03-02T07:57:25Z</time>
      </trkpt>
      <trkpt lat="47.25172" lon="-1.65704">
        <ele>29.5</ele>
        <time>2013-03-02T07:57:26Z</time>
      </trkpt>
      <trkpt lat="47.25174" lon="-1.65707">
        <ele>30.1</ele>
        <time>2013-03-02T07:57:27Z</time>
      </trkpt>
      <trkpt lat="47.25175" lon="-1.6571">
        <ele>30.5</ele>
        <time>2013-03-02T07:57:28Z</time>
      </trkpt>
      <trkpt lat="47.25175" lon="-1.65713">
        <ele>30.6</ele>
        <time>2013-03-02T07:57:29Z</time>
      </trkpt>
      <trkpt lat="47.25178" lon="-1.65726">
        <ele>31.4</ele>
        <time>2013-03-02T07:57:33Z</time>
      </trkpt>
      <trkpt lat="47.2518" lon="-1.65732">
        <ele>31.8</ele>
        <time>2013-03-02T07:57:35Z</time>
      </trkpt>
      <trkpt lat="47.25188" lon="-1.65756">
        <ele>31.6</ele>
        <time>2013-03-02T07:57:44Z</time>
      </trkpt>
      <trkpt lat="47.25201" lon="-1.658">
        <ele>32.8</ele>
        <time>2013-03-02T07:57:57Z</time>
      </trkpt>
      <trkpt lat="47.25219" lon="-1.65854">
        <ele>34</ele>
        <time>2013-03-02T07:58:13Z</time>
      </trkpt>
      <trkpt lat="47.25223" lon="-1.65862">
        <ele>34.1</ele>
        <time>2013-03-02T07:58:16Z</time>
      </trkpt>
      <trkpt lat="47.25223" lon="-1.65866">
        <ele>34.5</ele>
        <time>2013-03-02T07:58:17Z</time>
      </trkpt>
      <trkpt lat="47.25222" lon="-1.65867">
        <ele>34.7</ele>
        <time>2013-03-02T07:58:18Z</time>
      </trkpt>
      <trkpt lat="47.25221" lon="-1.65867">
        <ele>34.5</ele>
        <time>2013-03-02T07:58:19Z</time>
      </trkpt>
      <trkpt lat="47.2522" lon="-1.65865">
        <ele>34.3</ele>
        <time>2013-03-02T07:58:20Z</time>
      </trkpt>
      <trkpt lat="47.2522" lon="-1.65857">
        <ele>34.3</ele>
        <time>2013-03-02T07:58:22Z</time>
      </trkpt>
      <trkpt lat="47.25219" lon="-1.65853">
        <ele>34.4</ele>
        <time>2013-03-02T07:58:23Z</time>
      </trkpt>
      <trkpt lat="47.25218" lon="-1.65848">
        <ele>34.6</ele>
        <time>2013-03-02T07:58:24Z</time>
      </trkpt>
      <trkpt lat="47.25217" lon="-1.65843">
        <ele>34.7</ele>
        <time>2013-03-02T07:58:25Z</time>
      </trkpt>
      <trkpt lat="47.25218" lon="-1.65839">
        <ele>34.6</ele>
        <time>2013-03-02T07:58:26Z</time>
      </trkpt>
      <trkpt lat="47.2522" lon="-1.65837">
        <ele>34.6</ele>
        <time>2013-03-02T07:58:27Z</time>
      </trkpt>
      <trkpt lat="47.25222" lon="-1.65836">
        <ele>34.5</ele>
        <time>2013-03-02T07:58:28Z</time>
      </trkpt>
      <trkpt lat="47.25223" lon="-1.65835">
        <ele>34.4</ele>
        <time>2013-03-02T07:58:29Z</time>
      </trkpt>
      <trkpt lat="47.25225" lon="-1.65834">
        <ele>34.3</ele>
        <time>2013-03-02T07:58:31Z</time>
      </trkpt>
      <trkpt lat="47.25226" lon="-1.65833">
        <ele>34.3</ele>
        <time>2013-03-02T07:58:32Z</time>
      </trkpt>
      <trkpt lat="47.25227" lon="-1.65831">
        <ele>34.3</ele>
        <time>2013-03-02T07:58:33Z</time>
      </trkpt>
      <trkpt lat="47.25227" lon="-1.6583">
        <ele>34.6</ele>
        <time>2013-03-02T07:58:34Z</time>
      </trkpt>
      <trkpt lat="47.25228" lon="-1.65827">
        <ele>34.5</ele>
        <time>2013-03-02T07:58:36Z</time>
      </trkpt>
      <trkpt lat="47.2523" lon="-1.65823">
        <ele>34.2</ele>
        <time>2013-03-02T07:58:39Z</time>
      </trkpt>
      <trkpt lat="47.2523" lon="-1.65822">
        <ele>34.2</ele>
        <time>2013-03-02T07:58:40Z</time>
      </trkpt>
      <trkpt lat="47.2523" lon="-1.65822">
        <ele>34.2</ele>
        <time>2013-03-02T07:58:41Z</time>
      </trkpt>
      <trkpt lat="47.2523" lon="-1.65822">
        <ele>34.2</ele>
        <time>2013-03-02T07:58:42Z</time>
      </trkpt>
      <trkpt lat="47.2523" lon="-1.65822">
        <ele>34</ele>
        <time>2013-03-02T07:58:43Z</time>
      </trkpt>
      <trkpt lat="47.25231" lon="-1.65822">
        <ele>33.8</ele>
        <time>2013-03-02T07:58:44Z</time>
      </trkpt>
      <trkpt lat="47.25231" lon="-1.65822">
        <ele>34.1</ele>
        <time>2013-03-02T07:58:45Z</time>
      </trkpt>
      <trkpt lat="47.25231" lon="-1.65822">
        <ele>34.3</ele>
        <time>2013-03-02T07:58:46Z</time>
      </trkpt>
      <trkpt lat="47.25232" lon="-1.65822">
        <ele>34.5</ele>
        <time>2013-03-02T07:58:47Z</time>
      </trkpt>
      <trkpt lat="47.25232" lon="-1.65822">
        <ele>35</ele>
        <time>2013-03-02T07:58:48Z</time>
      </trkpt>
      <trkpt lat="47.25232" lon="-1.65822">
        <ele>35.4</ele>
        <time>2013-03-02T07:58:49Z</time>
      </trkpt>
      <trkpt lat="47.25232" lon="-1.65822">
        <ele>35.4</ele>
        <time>2013-03-02T07:58:50Z</time>
      </trkpt>
      <trkpt lat="47.25232" lon="-1.65822">
        <ele>35.4</ele>
        <time>2013-03-02T07:58:51Z</time>
      </trkpt>
      <trkpt lat="47.25233" lon="-1.65822">
        <ele>35.5</ele>
        <time>2013-03-02T07:58:52Z</time>
      </trkpt>
      <trkpt lat="47.25233" lon="-1.65822">
        <ele>35.6</ele>
        <time>2013-03-02T07:58:53Z</time>
      </trkpt>
      <trkpt lat="47.25233" lon="-1.65822">
        <ele>35.7</ele>
        <time>2013-03-02T07:58:54Z</time>
      </trkpt>
      <trkpt lat="47.25233" lon="-1.65822">
        <ele>35.4</ele>
        <time>2013-03-02T07:58:55Z</time>
      </trkpt>
      <trkpt lat="47.25233" lon="-1.65822">
        <ele>35.1</ele>
        <time>2013-03-02T07:58:56Z</time>
      </trkpt>
      <trkpt lat="47.25233" lon="-1.65822">
        <ele>35.1</ele>
        <time>2013-03-02T07:58:57Z</time>
      </trkpt>
      <trkpt lat="47.25233" lon="-1.65822">
        <ele>35.1</ele>
        <time>2013-03-02T07:58:58Z</time>
      </trkpt>
      <trkpt lat="47.25233" lon="-1.65822">
        <ele>35.1</ele>
        <time>2013-03-02T07:58:59Z</time>
      </trkpt>
      <trkpt lat="47.25233" lon="-1.65822">
        <ele>34.7</ele>
        <time>2013-03-02T07:59:00Z</time>
      </trkpt>
      <trkpt lat="47.25234" lon="-1.65822">
        <ele>34.4</ele>
        <time>2013-03-02T07:59:01Z</time>
      </trkpt>
      <trkpt lat="47.25234" lon="-1.65822">
        <ele>34.3</ele>
        <time>2013-03-02T07:59:02Z</time>
      </trkpt>
      <trkpt lat="47.25234" lon="-1.65822">
        <ele>34.2</ele>
        <time>2013-03-02T07:59:03Z</time>
      </trkpt>
      <trkpt lat="47.25234" lon="-1.65822">
        <ele>34.1</ele>
        <time>2013-03-02T07:59:04Z</time>
      </trkpt>
      <trkpt lat="47.25234" lon="-1.65822">
        <ele>34</ele>
        <time>2013-03-02T07:59:05Z</time>
      </trkpt>
      <trkpt lat="47.25234" lon="-1.65822">
        <ele>34</ele>
        <time>2013-03-02T07:59:06Z</time>
      </trkpt>
      <trkpt lat="47.25234" lon="-1.65822">
        <ele>34.2</ele>
        <time>2013-03-02T07:59:07Z</time>
      </trkpt>
      <trkpt lat="47.25234" lon="-1.65822">
        <ele>34.3</ele>
        <time>2013-03-02T07:59:08Z</time>
      </trkpt>
      <trkpt lat="47.25234" lon="-1.65822">
        <ele>34.6</ele>
        <time>2013-03-02T07:59:09Z</time>
      </trkpt>
      <trkpt lat="47.25234" lon="-1.65822">
        <ele>34.8</ele>
        <time>2013-03-02T07:59:10Z</time>
      </trkpt>
      <trkpt lat="47.25234" lon="-1.65822">
        <ele>34.9</ele>
        <time>2013-03-02T07:59:11Z</time>
      </trkpt>
      <trkpt lat="47.25234" lon="-1.65823">
        <ele>34.4</ele>
        <time>2013-03-02T07:59:12Z</time>
      </trkpt>
      <trkpt lat="47.25234" lon="-1.65823">
        <ele>34.1</ele>
        <time>2013-03-02T07:59:13Z</time>
      </trkpt>
      <trkpt lat="47.25234" lon="-1.65822">
        <ele>34.2</ele>
        <time>2013-03-02T07:59:14Z</time>
      </trkpt>
      <trkpt lat="47.25234" lon="-1.65823">
        <ele>34.3</ele>
        <time>2013-03-02T07:59:15Z</time>
      </trkpt>
      <trkpt lat="47.25234" lon="-1.65823">
        <ele>34.1</ele>
        <time>2013-03-02T07:59:16Z</time>
      </trkpt>
      <trkpt lat="47.25234" lon="-1.65823">
        <ele>33.9</ele>
        <time>2013-03-02T07:59:17Z</time>
      </trkpt>
      <trkpt lat="47.25234" lon="-1.65823">
        <ele>33.8</ele>
        <time>2013-03-02T07:59:18Z</time>
      </trkpt>
      <trkpt lat="47.25234" lon="-1.65823">
        <ele>33.8</ele>
        <time>2013-03-02T07:59:19Z</time>
      </trkpt>
      <trkpt lat="47.25234" lon="-1.65823">
        <ele>33.8</ele>
        <time>2013-03-02T07:59:20Z</time>
      </trkpt>
      <trkpt lat="47.25234" lon="-1.65823">
        <ele>33.4</ele>
        <time>2013-03-02T07:59:21Z</time>
      </trkpt>
      <trkpt lat="47.25234" lon="-1.65823">
        <ele>33.1</ele>
        <time>2013-03-02T07:59:22Z</time>
      </trkpt>
      <trkpt lat="47.25234" lon="-1.65823">
        <ele>33.4</ele>
        <time>2013-03-02T07:59:23Z</time>
      </trkpt>
      <trkpt lat="47.25234" lon="-1.65823">
        <ele>33.5</ele>
        <time>2013-03-02T07:59:24Z</time>
      </trkpt>
      <trkpt lat="47.25234" lon="-1.65823">
        <ele>33.6</ele>
        <time>2013-03-02T07:59:25Z</time>
      </trkpt>
      <trkpt lat="47.25235" lon="-1.65824">
        <ele>33.8</ele>
        <time>2013-03-02T07:59:26Z</time>
      </trkpt>
      <trkpt lat="47.25235" lon="-1.65825">
        <ele>33.9</ele>
        <time>2013-03-02T07:59:27Z</time>
      </trkpt>
      <trkpt lat="47.25236" lon="-1.65829">
        <ele>34.3</ele>
        <time>2013-03-02T07:59:29Z</time>
      </trkpt>
      <trkpt lat="47.25236" lon="-1.65831">
        <ele>34.2</ele>
        <time>2013-03-02T07:59:30Z</time>
      </trkpt>
      <trkpt lat="47.25235" lon="-1.65832">
        <ele>34.2</ele>
        <time>2013-03-02T07:59:31Z</time>
      </trkpt>
      <trkpt lat="47.25233" lon="-1.65833">
        <ele>34.1</ele>
        <time>2013-03-02T07:59:32Z</time>
      </trkpt>
      <trkpt lat="47.25231" lon="-1.65834">
        <ele>34.1</ele>
        <time>2013-03-02T07:59:33Z</time>
      </trkpt>
      <trkpt lat="47.25226" lon="-1.65835">
        <ele>33.9</ele>
        <time>2013-03-02T07:59:35Z</time>
      </trkpt>
      <trkpt lat="47.25223" lon="-1.65838">
        <ele>33.8</ele>
        <time>2013-03-02T07:59:36Z</time>
      </trkpt>
      <trkpt lat="47.25221" lon="-1.65842">
        <ele>33.6</ele>
        <time>2013-03-02T07:59:37Z</time>
      </trkpt>
      <trkpt lat="47.25221" lon="-1.65847">
        <ele>33.6</ele>
        <time>2013-03-02T07:59:38Z</time>
      </trkpt>
      <trkpt lat="47.25222" lon="-1.65851">
        <ele>33.5</ele>
        <time>2013-03-02T07:59:39Z</time>
      </trkpt>
      <trkpt lat="47.25227" lon="-1.65871">
        <ele>34</ele>
        <time>2013-03-02T07:59:45Z</time>
      </trkpt>
      <trkpt lat="47.25247" lon="-1.65938">
        <ele>34.6</ele>
        <time>2013-03-02T08:00:04Z</time>
      </trkpt>
      <trkpt lat="47.2526" lon="-1.65971">
        <ele>35.7</ele>
        <time>2013-03-02T08:00:14Z</time>
      </trkpt>
      <trkpt lat="47.25264" lon="-1.65981">
        <ele>35.8</ele>
        <time>2013-03-02T08:00:17Z</time>
      </trkpt>
      <trkpt lat="47.2527" lon="-1.65993">
        <ele>36.1</ele>
        <time>2013-03-02T08:00:21Z</time>
      </trkpt>
      <trkpt lat="47.25273" lon="-1.66002">
        <ele>36.7</ele>
        <time>2013-03-02T08:00:24Z</time>
      </trkpt>
      <trkpt lat="47.25275" lon="-1.66004">
        <ele>36.7</ele>
        <time>2013-03-02T08:00:25Z</time>
      </trkpt>
      <trkpt lat="47.25278" lon="-1.66008">
        <ele>36.8</ele>
        <time>2013-03-02T08:00:27Z</time>
      </trkpt>
      <trkpt lat="47.25279" lon="-1.66011">
        <ele>37</ele>
        <time>2013-03-02T08:00:28Z</time>
      </trkpt>
      <trkpt lat="47.25312" lon="-1.66073">
        <ele>36.8</ele>
        <time>2013-03-02T08:00:49Z</time>
      </trkpt>
      <trkpt lat="47.2532" lon="-1.66088">
        <ele>35.8</ele>
        <time>2013-03-02T08:00:54Z</time>
      </trkpt>
      <trkpt lat="47.25321" lon="-1.66091">
        <ele>35.6</ele>
        <time>2013-03-02T08:00:55Z</time>
      </trkpt>
      <trkpt lat="47.25322" lon="-1.66095">
        <ele>36.1</ele>
        <time>2013-03-02T08:00:56Z</time>
      </trkpt>
      <trkpt lat="47.25322" lon="-1.66099">
        <ele>36.4</ele>
        <time>2013-03-02T08:00:57Z</time>
      </trkpt>
      <trkpt lat="47.25323" lon="-1.66108">
        <ele>35.5</ele>
        <time>2013-03-02T08:00:59Z</time>
      </trkpt>
      <trkpt lat="47.25323" lon="-1.66127">
        <ele>35.1</ele>
        <time>2013-03-02T08:01:03Z</time>
      </trkpt>
      <trkpt lat="47.25321" lon="-1.66257">
        <ele>34.1</ele>
        <time>2013-03-02T08:01:28Z</time>
      </trkpt>
      <trkpt lat="47.25322" lon="-1.66262">
        <ele>33.7</ele>
        <time>2013-03-02T08:01:29Z</time>
      </trkpt>
      <trkpt lat="47.25322" lon="-1.66301">
        <ele>33.6</ele>
        <time>2013-03-02T08:01:37Z</time>
      </trkpt>
      <trkpt lat="47.25325" lon="-1.66333">
        <ele>33.5</ele>
        <time>2013-03-02T08:01:45Z</time>
      </trkpt>
      <trkpt lat="47.25325" lon="-1.66371">
        <ele>34.3</ele>
        <time>2013-03-02T08:01:54Z</time>
      </trkpt>
      <trkpt lat="47.25325" lon="-1.66476">
        <ele>31.5</ele>
        <time>2013-03-02T08:02:15Z</time>
      </trkpt>
      <trkpt lat="47.25326" lon="-1.66481">
        <ele>31.4</ele>
        <time>2013-03-02T08:02:16Z</time>
      </trkpt>
      <trkpt lat="47.25327" lon="-1.66487">
        <ele>30.7</ele>
        <time>2013-03-02T08:02:17Z</time>
      </trkpt>
      <trkpt lat="47.25327" lon="-1.66492">
        <ele>30.2</ele>
        <time>2013-03-02T08:02:18Z</time>
      </trkpt>
      <trkpt lat="47.25327" lon="-1.66502">
        <ele>29.5</ele>
        <time>2013-03-02T08:02:20Z</time>
      </trkpt>
      <trkpt lat="47.25328" lon="-1.66506">
        <ele>29.3</ele>
        <time>2013-03-02T08:02:21Z</time>
      </trkpt>
      <trkpt lat="47.2533" lon="-1.66507">
        <ele>29</ele>
        <time>2013-03-02T08:02:22Z</time>
      </trkpt>
      <trkpt lat="47.25332" lon="-1.66507">
        <ele>28.9</ele>
        <time>2013-03-02T08:02:23Z</time>
      </trkpt>
      <trkpt lat="47.25333" lon="-1.66507">
        <ele>29.1</ele>
        <time>2013-03-02T08:02:24Z</time>
      </trkpt>
      <trkpt lat="47.25334" lon="-1.66507">
        <ele>29.2</ele>
        <time>2013-03-02T08:02:25Z</time>
      </trkpt>
      <trkpt lat="47.25334" lon="-1.66507">
        <ele>29</ele>
        <time>2013-03-02T08:02:26Z</time>
      </trkpt>
      <trkpt lat="47.25335" lon="-1.66507">
        <ele>28.8</ele>
        <time>2013-03-02T08:02:27Z</time>
      </trkpt>
      <trkpt lat="47.25337" lon="-1.66508">
        <ele>28.9</ele>
        <time>2013-03-02T08:02:28Z</time>
      </trkpt>
      <trkpt lat="47.25338" lon="-1.66507">
        <ele>28.9</ele>
        <time>2013-03-02T08:02:29Z</time>
      </trkpt>
      <trkpt lat="47.2534" lon="-1.66506">
        <ele>28.9</ele>
        <time>2013-03-02T08:02:30Z</time>
      </trkpt>
      <trkpt lat="47.25341" lon="-1.66504">
        <ele>29.1</ele>
        <time>2013-03-02T08:02:31Z</time>
      </trkpt>
      <trkpt lat="47.25342" lon="-1.66502">
        <ele>29.3</ele>
        <time>2013-03-02T08:02:32Z</time>
      </trkpt>
      <trkpt lat="47.25343" lon="-1.66501">
        <ele>29.3</ele>
        <time>2013-03-02T08:02:33Z</time>
      </trkpt>
      <trkpt lat="47.25344" lon="-1.665">
        <ele>29.3</ele>
        <time>2013-03-02T08:02:34Z</time>
      </trkpt>
      <trkpt lat="47.25345" lon="-1.665">
        <ele>29.3</ele>
        <time>2013-03-02T08:02:35Z</time>
      </trkpt>
      <trkpt lat="47.25347" lon="-1.665">
        <ele>29.7</ele>
        <time>2013-03-02T08:02:36Z</time>
      </trkpt>
      <trkpt lat="47.25352" lon="-1.66498">
        <ele>30.2</ele>
        <time>2013-03-02T08:02:38Z</time>
      </trkpt>
      <trkpt lat="47.25366" lon="-1.66494">
        <ele>31.6</ele>
        <time>2013-03-02T08:02:44Z</time>
      </trkpt>
      <trkpt lat="47.25373" lon="-1.66492">
        <ele>31.4</ele>
        <time>2013-03-02T08:02:47Z</time>
      </trkpt>
      <trkpt lat="47.254" lon="-1.66489">
        <ele>32.4</ele>
        <time>2013-03-02T08:02:57Z</time>
      </trkpt>
      <trkpt lat="47.25402" lon="-1.66488">
        <ele>32.8</ele>
        <time>2013-03-02T08:02:58Z</time>
      </trkpt>
      <trkpt lat="47.25409" lon="-1.66484">
        <ele>33.5</ele>
        <time>2013-03-02T08:03:01Z</time>
      </trkpt>
      <trkpt lat="47.25416" lon="-1.6648">
        <ele>33.8</ele>
        <time>2013-03-02T08:03:04Z</time>
      </trkpt>
      <trkpt lat="47.2543" lon="-1.66469">
        <ele>34.1</ele>
        <time>2013-03-02T08:03:10Z</time>
      </trkpt>
      <trkpt lat="47.25432" lon="-1.66467">
        <ele>34.4</ele>
        <time>2013-03-02T08:03:11Z</time>
      </trkpt>
      <trkpt lat="47.25434" lon="-1.66465">
        <ele>34.5</ele>
        <time>2013-03-02T08:03:12Z</time>
      </trkpt>
      <trkpt lat="47.25441" lon="-1.66455">
        <ele>35.4</ele>
        <time>2013-03-02T08:03:16Z</time>
      </trkpt>
      <trkpt lat="47.25445" lon="-1.66449">
        <ele>35.8</ele>
        <time>2013-03-02T08:03:18Z</time>
      </trkpt>
      <trkpt lat="47.25457" lon="-1.66429">
        <ele>36.6</ele>
        <time>2013-03-02T08:03:25Z</time>
      </trkpt>
      <trkpt lat="47.2546" lon="-1.66426">
        <ele>36.5</ele>
        <time>2013-03-02T08:03:26Z</time>
      </trkpt>
      <trkpt lat="47.25466" lon="-1.66418">
        <ele>36.8</ele>
        <time>2013-03-02T08:03:29Z</time>
      </trkpt>
      <trkpt lat="47.25475" lon="-1.66407">
        <ele>36.6</ele>
        <time>2013-03-02T08:03:33Z</time>
      </trkpt>
      <trkpt lat="47.25477" lon="-1.66403">
        <ele>36.9</ele>
        <time>2013-03-02T08:03:34Z</time>
      </trkpt>
      <trkpt lat="47.25486" lon="-1.66387">
        <ele>36.9</ele>
        <time>2013-03-02T08:03:39Z</time>
      </trkpt>
      <trkpt lat="47.25488" lon="-1.66385">
        <ele>36.7</ele>
        <time>2013-03-02T08:03:40Z</time>
      </trkpt>
      <trkpt lat="47.2549" lon="-1.66383">
        <ele>36.6</ele>
        <time>2013-03-02T08:03:41Z</time>
      </trkpt>
      <trkpt lat="47.25493" lon="-1.66381">
        <ele>36.8</ele>
        <time>2013-03-02T08:03:42Z</time>
      </trkpt>
      <trkpt lat="47.25495" lon="-1.66379">
        <ele>37</ele>
        <time>2013-03-02T08:03:43Z</time>
      </trkpt>
      <trkpt lat="47.25499" lon="-1.66373">
        <ele>37.4</ele>
        <time>2013-03-02T08:03:45Z</time>
      </trkpt>
      <trkpt lat="47.25501" lon="-1.66372">
        <ele>37.5</ele>
        <time>2013-03-02T08:03:46Z</time>
      </trkpt>
      <trkpt lat="47.25502" lon="-1.66372">
        <ele>37.5</ele>
        <time>2013-03-02T08:03:47Z</time>
      </trkpt>
      <trkpt lat="47.25504" lon="-1.66371">
        <ele>37.5</ele>
        <time>2013-03-02T08:03:48Z</time>
      </trkpt>
      <trkpt lat="47.25505" lon="-1.66369">
        <ele>37.6</ele>
        <time>2013-03-02T08:03:49Z</time>
      </trkpt>
      <trkpt lat="47.25507" lon="-1.66367">
        <ele>37.7</ele>
        <time>2013-03-02T08:03:50Z</time>
      </trkpt>
      <trkpt lat="47.25513" lon="-1.66357">
        <ele>37.8</ele>
        <time>2013-03-02T08:03:54Z</time>
      </trkpt>
      <trkpt lat="47.25528" lon="-1.66328">
        <ele>39</ele>
        <time>2013-03-02T08:04:05Z</time>
      </trkpt>
      <trkpt lat="47.25531" lon="-1.6632">
        <ele>39.1</ele>
        <time>2013-03-02T08:04:08Z</time>
      </trkpt>
      <trkpt lat="47.25554" lon="-1.66276">
        <ele>40.3</ele>
        <time>2013-03-02T08:04:22Z</time>
      </trkpt>
      <trkpt lat="47.25564" lon="-1.66255">
        <ele>40.3</ele>
        <time>2013-03-02T08:04:28Z</time>
      </trkpt>
      <trkpt lat="47.25565" lon="-1.66252">
        <ele>40.4</ele>
        <time>2013-03-02T08:04:29Z</time>
      </trkpt>
      <trkpt lat="47.25569" lon="-1.66245">
        <ele>40.6</ele>
        <time>2013-03-02T08:04:31Z</time>
      </trkpt>
      <trkpt lat="47.25601" lon="-1.66185">
        <ele>42.4</ele>
        <time>2013-03-02T08:04:50Z</time>
      </trkpt>
      <trkpt lat="47.25602" lon="-1.66182">
        <ele>42.4</ele>
        <time>2013-03-02T08:04:51Z</time>
      </trkpt>
      <trkpt lat="47.25603" lon="-1.66179">
        <ele>42.5</ele>
        <time>2013-03-02T08:04:52Z</time>
      </trkpt>
      <trkpt lat="47.25604" lon="-1.66176">
        <ele>42.8</ele>
        <time>2013-03-02T08:04:53Z</time>
      </trkpt>
      <trkpt lat="47.25618" lon="-1.6615">
        <ele>42.9</ele>
        <time>2013-03-02T08:05:02Z</time>
      </trkpt>
      <trkpt lat="47.25627" lon="-1.66132">
        <ele>43.7</ele>
        <time>2013-03-02T08:05:09Z</time>
      </trkpt>
      <trkpt lat="47.25631" lon="-1.66125">
        <ele>43.6</ele>
        <time>2013-03-02T08:05:12Z</time>
      </trkpt>
      <trkpt lat="47.25635" lon="-1.66118">
        <ele>43.5</ele>
        <time>2013-03-02T08:05:15Z</time>
      </trkpt>
      <trkpt lat="47.25644" lon="-1.66101">
        <ele>44</ele>
        <time>2013-03-02T08:05:21Z</time>
      </trkpt>
      <trkpt lat="47.25652" lon="-1.66084">
        <ele>44.7</ele>
        <time>2013-03-02T08:05:27Z</time>
      </trkpt>
      <trkpt lat="47.25656" lon="-1.66075">
        <ele>44.1</ele>
        <time>2013-03-02T08:05:30Z</time>
      </trkpt>
      <trkpt lat="47.25657" lon="-1.66071">
        <ele>44.5</ele>
        <time>2013-03-02T08:05:31Z</time>
      </trkpt>
      <trkpt lat="47.25659" lon="-1.66068">
        <ele>44.8</ele>
        <time>2013-03-02T08:05:32Z</time>
      </trkpt>
      <trkpt lat="47.25665" lon="-1.66056">
        <ele>45.1</ele>
        <time>2013-03-02T08:05:36Z</time>
      </trkpt>
      <trkpt lat="47.25667" lon="-1.66051">
        <ele>45.2</ele>
        <time>2013-03-02T08:05:38Z</time>
      </trkpt>
      <trkpt lat="47.2567" lon="-1.66045">
        <ele>45.3</ele>
        <time>2013-03-02T08:05:41Z</time>
      </trkpt>
      <trkpt lat="47.25673" lon="-1.66037">
        <ele>45.1</ele>
        <time>2013-03-02T08:05:44Z</time>
      </trkpt>
      <trkpt lat="47.2568" lon="-1.66018">
        <ele>46</ele>
        <time>2013-03-02T08:05:50Z</time>
      </trkpt>
      <trkpt lat="47.25682" lon="-1.66015">
        <ele>46.1</ele>
        <time>2013-03-02T08:05:51Z</time>
      </trkpt>
      <trkpt lat="47.25684" lon="-1.66012">
        <ele>46.1</ele>
        <time>2013-03-02T08:05:52Z</time>
      </trkpt>
      <trkpt lat="47.25687" lon="-1.66006">
        <ele>46.2</ele>
        <time>2013-03-02T08:05:54Z</time>
      </trkpt>
      <trkpt lat="47.25763" lon="-1.65848">
        <ele>49.2</ele>
        <time>2013-03-02T08:06:46Z</time>
      </trkpt>
      <trkpt lat="47.2577" lon="-1.65836">
        <ele>49.7</ele>
        <time>2013-03-02T08:06:50Z</time>
      </trkpt>
      <trkpt lat="47.25785" lon="-1.65808">
        <ele>49.9</ele>
        <time>2013-03-02T08:07:01Z</time>
      </trkpt>
      <trkpt lat="47.25786" lon="-1.65805">
        <ele>49.8</ele>
        <time>2013-03-02T08:07:02Z</time>
      </trkpt>
      <trkpt lat="47.25795" lon="-1.65786">
        <ele>50.1</ele>
        <time>2013-03-02T08:07:10Z</time>
      </trkpt>
      <trkpt lat="47.25804" lon="-1.65764">
        <ele>50.6</ele>
        <time>2013-03-02T08:07:18Z</time>
      </trkpt>
      <trkpt lat="47.25809" lon="-1.65756">
        <ele>51</ele>
        <time>2013-03-02T08:07:21Z</time>
      </trkpt>
      <trkpt lat="47.25814" lon="-1.65746">
        <ele>51.8</ele>
        <time>2013-03-02T08:07:25Z</time>
      </trkpt>
      <trkpt lat="47.25832" lon="-1.65711">
        <ele>52.9</ele>
        <time>2013-03-02T08:07:36Z</time>
      </trkpt>
      <trkpt lat="47.25843" lon="-1.65686">
        <ele>52.7</ele>
        <time>2013-03-02T08:07:44Z</time>
      </trkpt>
      <trkpt lat="47.25846" lon="-1.65681">
        <ele>53.1</ele>
        <time>2013-03-02T08:07:46Z</time>
      </trkpt>
      <trkpt lat="47.25863" lon="-1.65645">
        <ele>54.3</ele>
        <time>2013-03-02T08:07:58Z</time>
      </trkpt>
      <trkpt lat="47.25926" lon="-1.65519">
        <ele>56.5</ele>
        <time>2013-03-02T08:08:39Z</time>
      </trkpt>
      <trkpt lat="47.25927" lon="-1.65517">
        <ele>56.5</ele>
        <time>2013-03-02T08:08:40Z</time>
      </trkpt>
      <trkpt lat="47.25927" lon="-1.65515">
        <ele>56.4</ele>
        <time>2013-03-02T08:08:41Z</time>
      </trkpt>
      <trkpt lat="47.25927" lon="-1.65515">
        <ele>56.4</ele>
        <time>2013-03-02T08:08:42Z</time>
      </trkpt>
      <trkpt lat="47.25928" lon="-1.65515">
        <ele>57</ele>
        <time>2013-03-02T08:08:43Z</time>
      </trkpt>
      <trkpt lat="47.25928" lon="-1.65514">
        <ele>57.4</ele>
        <time>2013-03-02T08:08:44Z</time>
      </trkpt>
      <trkpt lat="47.25928" lon="-1.65513">
        <ele>57.7</ele>
        <time>2013-03-02T08:08:45Z</time>
      </trkpt>
      <trkpt lat="47.25928" lon="-1.65513">
        <ele>57.5</ele>
        <time>2013-03-02T08:08:46Z</time>
      </trkpt>
      <trkpt lat="47.25928" lon="-1.65513">
        <ele>57.7</ele>
        <time>2013-03-02T08:08:48Z</time>
      </trkpt>
      <trkpt lat="47.2593" lon="-1.65512">
        <ele>58</ele>
        <time>2013-03-02T08:08:49Z</time>
      </trkpt>
      <trkpt lat="47.2593" lon="-1.65512">
        <ele>58.1</ele>
        <time>2013-03-02T08:08:50Z</time>
      </trkpt>
      <trkpt lat="47.2593" lon="-1.65512">
        <ele>58.2</ele>
        <time>2013-03-02T08:08:51Z</time>
      </trkpt>
      <trkpt lat="47.2593" lon="-1.65511">
        <ele>58.2</ele>
        <time>2013-03-02T08:08:52Z</time>
      </trkpt>
      <trkpt lat="47.25931" lon="-1.65509">
        <ele>57.9</ele>
        <time>2013-03-02T08:08:53Z</time>
      </trkpt>
      <trkpt lat="47.25932" lon="-1.65508">
        <ele>57.7</ele>
        <time>2013-03-02T08:08:54Z</time>
      </trkpt>
      <trkpt lat="47.25932" lon="-1.65505">
        <ele>57.7</ele>
        <time>2013-03-02T08:08:55Z</time>
      </trkpt>
      <trkpt lat="47.25934" lon="-1.65503">
        <ele>57.7</ele>
        <time>2013-03-02T08:08:56Z</time>
      </trkpt>
      <trkpt lat="47.25936" lon="-1.65499">
        <ele>57.7</ele>
        <time>2013-03-02T08:08:57Z</time>
      </trkpt>
      <trkpt lat="47.2594" lon="-1.6549">
        <ele>57.9</ele>
        <time>2013-03-02T08:09:00Z</time>
      </trkpt>
      <trkpt lat="47.25943" lon="-1.65486">
        <ele>57.4</ele>
        <time>2013-03-02T08:09:02Z</time>
      </trkpt>
      <trkpt lat="47.25944" lon="-1.65483">
        <ele>57.1</ele>
        <time>2013-03-02T08:09:03Z</time>
      </trkpt>
      <trkpt lat="47.25945" lon="-1.65481">
        <ele>56.9</ele>
        <time>2013-03-02T08:09:04Z</time>
      </trkpt>
      <trkpt lat="47.25946" lon="-1.65474">
        <ele>57.3</ele>
        <time>2013-03-02T08:09:06Z</time>
      </trkpt>
      <trkpt lat="47.25946" lon="-1.6547">
        <ele>57.5</ele>
        <time>2013-03-02T08:09:07Z</time>
      </trkpt>
      <trkpt lat="47.25946" lon="-1.65466">
        <ele>57.7</ele>
        <time>2013-03-02T08:09:08Z</time>
      </trkpt>
      <trkpt lat="47.25946" lon="-1.65462">
        <ele>58</ele>
        <time>2013-03-02T08:09:09Z</time>
      </trkpt>
      <trkpt lat="47.25945" lon="-1.65458">
        <ele>58.3</ele>
        <time>2013-03-02T08:09:10Z</time>
      </trkpt>
      <trkpt lat="47.25942" lon="-1.65438">
        <ele>58.3</ele>
        <time>2013-03-02T08:09:14Z</time>
      </trkpt>
      <trkpt lat="47.25944" lon="-1.65434">
        <ele>58.3</ele>
        <time>2013-03-02T08:09:15Z</time>
      </trkpt>
      <trkpt lat="47.25947" lon="-1.65432">
        <ele>58.3</ele>
        <time>2013-03-02T08:09:16Z</time>
      </trkpt>
      <trkpt lat="47.25949" lon="-1.65429">
        <ele>58.5</ele>
        <time>2013-03-02T08:09:17Z</time>
      </trkpt>
      <trkpt lat="47.25951" lon="-1.65425">
        <ele>58.6</ele>
        <time>2013-03-02T08:09:18Z</time>
      </trkpt>
      <trkpt lat="47.25953" lon="-1.65421">
        <ele>58.4</ele>
        <time>2013-03-02T08:09:19Z</time>
      </trkpt>
      <trkpt lat="47.25954" lon="-1.65417">
        <ele>58.2</ele>
        <time>2013-03-02T08:09:20Z</time>
      </trkpt>
      <trkpt lat="47.25959" lon="-1.65396">
        <ele>58.9</ele>
        <time>2013-03-02T08:09:25Z</time>
      </trkpt>
      <trkpt lat="47.25961" lon="-1.65393">
        <ele>58.6</ele>
        <time>2013-03-02T08:09:26Z</time>
      </trkpt>
      <trkpt lat="47.25964" lon="-1.65389">
        <ele>58.5</ele>
        <time>2013-03-02T08:09:27Z</time>
      </trkpt>
      <trkpt lat="47.25967" lon="-1.65387">
        <ele>58.4</ele>
        <time>2013-03-02T08:09:28Z</time>
      </trkpt>
      <trkpt lat="47.2597" lon="-1.65385">
        <ele>58.3</ele>
        <time>2013-03-02T08:09:29Z</time>
      </trkpt>
      <trkpt lat="47.25972" lon="-1.65382">
        <ele>58.3</ele>
        <time>2013-03-02T08:09:30Z</time>
      </trkpt>
      <trkpt lat="47.25978" lon="-1.65377">
        <ele>58.6</ele>
        <time>2013-03-02T08:09:32Z</time>
      </trkpt>
      <trkpt lat="47.2598" lon="-1.65373">
        <ele>58.7</ele>
        <time>2013-03-02T08:09:33Z</time>
      </trkpt>
      <trkpt lat="47.25981" lon="-1.65369">
        <ele>58.7</ele>
        <time>2013-03-02T08:09:34Z</time>
      </trkpt>
      <trkpt lat="47.25982" lon="-1.65364">
        <ele>58.7</ele>
        <time>2013-03-02T08:09:35Z</time>
      </trkpt>
      <trkpt lat="47.25984" lon="-1.65361">
        <ele>59.1</ele>
        <time>2013-03-02T08:09:36Z</time>
      </trkpt>
      <trkpt lat="47.25986" lon="-1.65357">
        <ele>59.5</ele>
        <time>2013-03-02T08:09:37Z</time>
      </trkpt>
      <trkpt lat="47.26001" lon="-1.65338">
        <ele>59.3</ele>
        <time>2013-03-02T08:09:43Z</time>
      </trkpt>
      <trkpt lat="47.26003" lon="-1.65334">
        <ele>59.2</ele>
        <time>2013-03-02T08:09:44Z</time>
      </trkpt>
      <trkpt lat="47.26011" lon="-1.65316">
        <ele>58.6</ele>
        <time>2013-03-02T08:09:49Z</time>
      </trkpt>
      <trkpt lat="47.26013" lon="-1.65313">
        <ele>58.6</ele>
        <time>2013-03-02T08:09:50Z</time>
      </trkpt>
      <trkpt lat="47.26023" lon="-1.653">
        <ele>59.4</ele>
        <time>2013-03-02T08:09:54Z</time>
      </trkpt>
      <trkpt lat="47.26026" lon="-1.65297">
        <ele>59.1</ele>
        <time>2013-03-02T08:09:55Z</time>
      </trkpt>
      <trkpt lat="47.2603" lon="-1.65295">
        <ele>58.9</ele>
        <time>2013-03-02T08:09:56Z</time>
      </trkpt>
      <trkpt lat="47.26037" lon="-1.65291">
        <ele>58.9</ele>
        <time>2013-03-02T08:09:58Z</time>
      </trkpt>
      <trkpt lat="47.26167" lon="-1.65241">
        <ele>58.5</ele>
        <time>2013-03-02T08:10:30Z</time>
      </trkpt>
      <trkpt lat="47.26195" lon="-1.65229">
        <ele>58.3</ele>
        <time>2013-03-02T08:10:37Z</time>
      </trkpt>
      <trkpt lat="47.26199" lon="-1.65229">
        <ele>58.3</ele>
        <time>2013-03-02T08:10:38Z</time>
      </trkpt>
      <trkpt lat="47.26203" lon="-1.65229">
        <ele>58.4</ele>
        <time>2013-03-02T08:10:39Z</time>
      </trkpt>
      <trkpt lat="47.26207" lon="-1.65231">
        <ele>58.2</ele>
        <time>2013-03-02T08:10:40Z</time>
      </trkpt>
      <trkpt lat="47.26228" lon="-1.6524">
        <ele>57.3</ele>
        <time>2013-03-02T08:10:45Z</time>
      </trkpt>
      <trkpt lat="47.26232" lon="-1.6524">
        <ele>57</ele>
        <time>2013-03-02T08:10:46Z</time>
      </trkpt>
      <trkpt lat="47.26236" lon="-1.6524">
        <ele>57.1</ele>
        <time>2013-03-02T08:10:47Z</time>
      </trkpt>
      <trkpt lat="47.26244" lon="-1.65238">
        <ele>56.6</ele>
        <time>2013-03-02T08:10:49Z</time>
      </trkpt>
      <trkpt lat="47.26248" lon="-1.65237">
        <ele>56.3</ele>
        <time>2013-03-02T08:10:50Z</time>
      </trkpt>
      <trkpt lat="47.26259" lon="-1.65231">
        <ele>57.1</ele>
        <time>2013-03-02T08:10:53Z</time>
      </trkpt>
      <trkpt lat="47.26262" lon="-1.65231">
        <ele>57.2</ele>
        <time>2013-03-02T08:10:54Z</time>
      </trkpt>
      <trkpt lat="47.26265" lon="-1.65231">
        <ele>57.2</ele>
        <time>2013-03-02T08:10:55Z</time>
      </trkpt>
      <trkpt lat="47.26267" lon="-1.65231">
        <ele>56.8</ele>
        <time>2013-03-02T08:10:56Z</time>
      </trkpt>
      <trkpt lat="47.26268" lon="-1.65231">
        <ele>56.5</ele>
        <time>2013-03-02T08:10:57Z</time>
      </trkpt>
      <trkpt lat="47.26281" lon="-1.65226">
        <ele>55.8</ele>
        <time>2013-03-02T08:11:02Z</time>
      </trkpt>
      <trkpt lat="47.26294" lon="-1.65223">
        <ele>56.7</ele>
        <time>2013-03-02T08:11:06Z</time>
      </trkpt>
      <trkpt lat="47.26302" lon="-1.65222">
        <ele>56.9</ele>
        <time>2013-03-02T08:11:08Z</time>
      </trkpt>
      <trkpt lat="47.26314" lon="-1.6522">
        <ele>57.2</ele>
        <time>2013-03-02T08:11:11Z</time>
      </trkpt>
      <trkpt lat="47.26317" lon="-1.65219">
        <ele>57.3</ele>
        <time>2013-03-02T08:11:12Z</time>
      </trkpt>
      <trkpt lat="47.26321" lon="-1.65217">
        <ele>56.9</ele>
        <time>2013-03-02T08:11:13Z</time>
      </trkpt>
      <trkpt lat="47.26325" lon="-1.65217">
        <ele>56.7</ele>
        <time>2013-03-02T08:11:14Z</time>
      </trkpt>
      <trkpt lat="47.26328" lon="-1.65217">
        <ele>56.5</ele>
        <time>2013-03-02T08:11:15Z</time>
      </trkpt>
      <trkpt lat="47.26332" lon="-1.65217">
        <ele>56.3</ele>
        <time>2013-03-02T08:11:16Z</time>
      </trkpt>
      <trkpt lat="47.26395" lon="-1.65228">
        <ele>55.2</ele>
        <time>2013-03-02T08:11:32Z</time>
      </trkpt>
      <trkpt lat="47.26408" lon="-1.6523">
        <ele>55.3</ele>
        <time>2013-03-02T08:11:35Z</time>
      </trkpt>
      <trkpt lat="47.26426" lon="-1.65233">
        <ele>54.1</ele>
        <time>2013-03-02T08:11:39Z</time>
      </trkpt>
      <trkpt lat="47.265" lon="-1.65245">
        <ele>52.4</ele>
        <time>2013-03-02T08:11:54Z</time>
      </trkpt>
      <trkpt lat="47.26505" lon="-1.65247">
        <ele>52.5</ele>
        <time>2013-03-02T08:11:55Z</time>
      </trkpt>
      <trkpt lat="47.26523" lon="-1.65252">
        <ele>51.4</ele>
        <time>2013-03-02T08:11:59Z</time>
      </trkpt>
      <trkpt lat="47.26528" lon="-1.65253">
        <ele>51.6</ele>
        <time>2013-03-02T08:12:00Z</time>
      </trkpt>
      <trkpt lat="47.26557" lon="-1.65256">
        <ele>50.4</ele>
        <time>2013-03-02T08:12:06Z</time>
      </trkpt>
      <trkpt lat="47.2656" lon="-1.65256">
        <ele>50.1</ele>
        <time>2013-03-02T08:12:07Z</time>
      </trkpt>
      <trkpt lat="47.26562" lon="-1.65255">
        <ele>50</ele>
        <time>2013-03-02T08:12:08Z</time>
      </trkpt>
      <trkpt lat="47.26565" lon="-1.65254">
        <ele>49.6</ele>
        <time>2013-03-02T08:12:10Z</time>
      </trkpt>
      <trkpt lat="47.26566" lon="-1.65252">
        <ele>49.5</ele>
        <time>2013-03-02T08:12:11Z</time>
      </trkpt>
      <trkpt lat="47.26567" lon="-1.65251">
        <ele>49</ele>
        <time>2013-03-02T08:12:12Z</time>
      </trkpt>
      <trkpt lat="47.26569" lon="-1.6525">
        <ele>48.7</ele>
        <time>2013-03-02T08:12:13Z</time>
      </trkpt>
      <trkpt lat="47.26571" lon="-1.65249">
        <ele>48.5</ele>
        <time>2013-03-02T08:12:14Z</time>
      </trkpt>
      <trkpt lat="47.26573" lon="-1.65249">
        <ele>48.3</ele>
        <time>2013-03-02T08:12:15Z</time>
      </trkpt>
      <trkpt lat="47.26576" lon="-1.65249">
        <ele>48.2</ele>
        <time>2013-03-02T08:12:16Z</time>
      </trkpt>
      <trkpt lat="47.26578" lon="-1.65249">
        <ele>48.1</ele>
        <time>2013-03-02T08:12:17Z</time>
      </trkpt>
      <trkpt lat="47.26583" lon="-1.6525">
        <ele>47.7</ele>
        <time>2013-03-02T08:12:19Z</time>
      </trkpt>
      <trkpt lat="47.26586" lon="-1.6525">
        <ele>47.5</ele>
        <time>2013-03-02T08:12:20Z</time>
      </trkpt>
      <trkpt lat="47.26589" lon="-1.6525">
        <ele>47.4</ele>
        <time>2013-03-02T08:12:21Z</time>
      </trkpt>
      <trkpt lat="47.26591" lon="-1.65251">
        <ele>47.5</ele>
        <time>2013-03-02T08:12:22Z</time>
      </trkpt>
      <trkpt lat="47.26601" lon="-1.65254">
        <ele>47.2</ele>
        <time>2013-03-02T08:12:25Z</time>
      </trkpt>
      <trkpt lat="47.26603" lon="-1.65256">
        <ele>46.7</ele>
        <time>2013-03-02T08:12:26Z</time>
      </trkpt>
      <trkpt lat="47.26605" lon="-1.65258">
        <ele>46.2</ele>
        <time>2013-03-02T08:12:27Z</time>
      </trkpt>
      <trkpt lat="47.26606" lon="-1.6526">
        <ele>45.9</ele>
        <time>2013-03-02T08:12:28Z</time>
      </trkpt>
      <trkpt lat="47.26607" lon="-1.65261">
        <ele>46</ele>
        <time>2013-03-02T08:12:29Z</time>
      </trkpt>
      <trkpt lat="47.26608" lon="-1.65261">
        <ele>46</ele>
        <time>2013-03-02T08:12:30Z</time>
      </trkpt>
      <trkpt lat="47.26611" lon="-1.65261">
        <ele>45.5</ele>
        <time>2013-03-02T08:12:32Z</time>
      </trkpt>
      <trkpt lat="47.26614" lon="-1.65263">
        <ele>45.4</ele>
        <time>2013-03-02T08:12:34Z</time>
      </trkpt>
      <trkpt lat="47.26616" lon="-1.65264">
        <ele>45.4</ele>
        <time>2013-03-02T08:12:35Z</time>
      </trkpt>
      <trkpt lat="47.26618" lon="-1.65266">
        <ele>44.9</ele>
        <time>2013-03-02T08:12:36Z</time>
      </trkpt>
      <trkpt lat="47.2662" lon="-1.65268">
        <ele>44.6</ele>
        <time>2013-03-02T08:12:37Z</time>
      </trkpt>
      <trkpt lat="47.26622" lon="-1.65269">
        <ele>44.5</ele>
        <time>2013-03-02T08:12:38Z</time>
      </trkpt>
      <trkpt lat="47.26624" lon="-1.65269">
        <ele>44.4</ele>
        <time>2013-03-02T08:12:39Z</time>
      </trkpt>
      <trkpt lat="47.26626" lon="-1.6527">
        <ele>44.3</ele>
        <time>2013-03-02T08:12:40Z</time>
      </trkpt>
      <trkpt lat="47.26628" lon="-1.65269">
        <ele>43.9</ele>
        <time>2013-03-02T08:12:41Z</time>
      </trkpt>
      <trkpt lat="47.26631" lon="-1.65268">
        <ele>43.6</ele>
        <time>2013-03-02T08:12:42Z</time>
      </trkpt>
      <trkpt lat="47.26636" lon="-1.65265">
        <ele>43.2</ele>
        <time>2013-03-02T08:12:44Z</time>
      </trkpt>
      <trkpt lat="47.26639" lon="-1.65264">
        <ele>42.9</ele>
        <time>2013-03-02T08:12:45Z</time>
      </trkpt>
      <trkpt lat="47.26641" lon="-1.65261">
        <ele>42.7</ele>
        <time>2013-03-02T08:12:46Z</time>
      </trkpt>
      <trkpt lat="47.26644" lon="-1.65259">
        <ele>42.5</ele>
        <time>2013-03-02T08:12:47Z</time>
      </trkpt>
      <trkpt lat="47.26646" lon="-1.65256">
        <ele>42.2</ele>
        <time>2013-03-02T08:12:48Z</time>
      </trkpt>
      <trkpt lat="47.26648" lon="-1.65255">
        <ele>42</ele>
        <time>2013-03-02T08:12:49Z</time>
      </trkpt>
      <trkpt lat="47.26651" lon="-1.65254">
        <ele>42</ele>
        <time>2013-03-02T08:12:50Z</time>
      </trkpt>
      <trkpt lat="47.26657" lon="-1.65253">
        <ele>41.7</ele>
        <time>2013-03-02T08:12:52Z</time>
      </trkpt>
      <trkpt lat="47.2666" lon="-1.65251">
        <ele>41.5</ele>
        <time>2013-03-02T08:12:53Z</time>
      </trkpt>
      <trkpt lat="47.26667" lon="-1.65246">
        <ele>40.7</ele>
        <time>2013-03-02T08:12:55Z</time>
      </trkpt>
      <trkpt lat="47.2667" lon="-1.65243">
        <ele>40.3</ele>
        <time>2013-03-02T08:12:56Z</time>
      </trkpt>
      <trkpt lat="47.26671" lon="-1.65239">
        <ele>40</ele>
        <time>2013-03-02T08:12:57Z</time>
      </trkpt>
      <trkpt lat="47.26677" lon="-1.65225">
        <ele>39.1</ele>
        <time>2013-03-02T08:13:01Z</time>
      </trkpt>
      <trkpt lat="47.26679" lon="-1.65221">
        <ele>39</ele>
        <time>2013-03-02T08:13:02Z</time>
      </trkpt>
      <trkpt lat="47.26683" lon="-1.65215">
        <ele>38.7</ele>
        <time>2013-03-02T08:13:04Z</time>
      </trkpt>
      <trkpt lat="47.26685" lon="-1.65212">
        <ele>38.6</ele>
        <time>2013-03-02T08:13:05Z</time>
      </trkpt>
      <trkpt lat="47.26686" lon="-1.65208">
        <ele>38.5</ele>
        <time>2013-03-02T08:13:06Z</time>
      </trkpt>
      <trkpt lat="47.26688" lon="-1.65205">
        <ele>38.3</ele>
        <time>2013-03-02T08:13:07Z</time>
      </trkpt>
      <trkpt lat="47.26691" lon="-1.65203">
        <ele>38.1</ele>
        <time>2013-03-02T08:13:08Z</time>
      </trkpt>
      <trkpt lat="47.26701" lon="-1.65198">
        <ele>37.7</ele>
        <time>2013-03-02T08:13:11Z</time>
      </trkpt>
      <trkpt lat="47.26703" lon="-1.65195">
        <ele>37</ele>
        <time>2013-03-02T08:13:12Z</time>
      </trkpt>
      <trkpt lat="47.26705" lon="-1.65191">
        <ele>36.5</ele>
        <time>2013-03-02T08:13:13Z</time>
      </trkpt>
      <trkpt lat="47.26706" lon="-1.65183">
        <ele>35.8</ele>
        <time>2013-03-02T08:13:15Z</time>
      </trkpt>
      <trkpt lat="47.26708" lon="-1.65181">
        <ele>35.1</ele>
        <time>2013-03-02T08:13:16Z</time>
      </trkpt>
      <trkpt lat="47.26709" lon="-1.6518">
        <ele>34.5</ele>
        <time>2013-03-02T08:13:17Z</time>
      </trkpt>
      <trkpt lat="47.26711" lon="-1.6518">
        <ele>34.1</ele>
        <time>2013-03-02T08:13:18Z</time>
      </trkpt>
      <trkpt lat="47.26712" lon="-1.6518">
        <ele>34.3</ele>
        <time>2013-03-02T08:13:19Z</time>
      </trkpt>
      <trkpt lat="47.26714" lon="-1.65179">
        <ele>34.4</ele>
        <time>2013-03-02T08:13:20Z</time>
      </trkpt>
      <trkpt lat="47.26715" lon="-1.65177">
        <ele>33.9</ele>
        <time>2013-03-02T08:13:21Z</time>
      </trkpt>
      <trkpt lat="47.26716" lon="-1.65176">
        <ele>33.5</ele>
        <time>2013-03-02T08:13:22Z</time>
      </trkpt>
      <trkpt lat="47.26717" lon="-1.65174">
        <ele>33.3</ele>
        <time>2013-03-02T08:13:23Z</time>
      </trkpt>
      <trkpt lat="47.26718" lon="-1.65173">
        <ele>33.2</ele>
        <time>2013-03-02T08:13:24Z</time>
      </trkpt>
      <trkpt lat="47.26719" lon="-1.65172">
        <ele>33</ele>
        <time>2013-03-02T08:13:25Z</time>
      </trkpt>
      <trkpt lat="47.2672" lon="-1.6517">
        <ele>33.4</ele>
        <time>2013-03-02T08:13:27Z</time>
      </trkpt>
      <trkpt lat="47.26721" lon="-1.65169">
        <ele>33.3</ele>
        <time>2013-03-02T08:13:28Z</time>
      </trkpt>
      <trkpt lat="47.26723" lon="-1.65168">
        <ele>33.3</ele>
        <time>2013-03-02T08:13:30Z</time>
      </trkpt>
      <trkpt lat="47.26724" lon="-1.65167">
        <ele>33.6</ele>
        <time>2013-03-02T08:13:31Z</time>
      </trkpt>
      <trkpt lat="47.26725" lon="-1.65167">
        <ele>33.9</ele>
        <time>2013-03-02T08:13:32Z</time>
      </trkpt>
      <trkpt lat="47.26725" lon="-1.65167">
        <ele>34.2</ele>
        <time>2013-03-02T08:13:33Z</time>
      </trkpt>
      <trkpt lat="47.26726" lon="-1.65167">
        <ele>34.5</ele>
        <time>2013-03-02T08:13:34Z</time>
      </trkpt>
      <trkpt lat="47.26726" lon="-1.65168">
        <ele>34.6</ele>
        <time>2013-03-02T08:13:35Z</time>
      </trkpt>
      <trkpt lat="47.26727" lon="-1.65168">
        <ele>34.7</ele>
        <time>2013-03-02T08:13:36Z</time>
      </trkpt>
      <trkpt lat="47.26728" lon="-1.65167">
        <ele>34.7</ele>
        <time>2013-03-02T08:13:37Z</time>
      </trkpt>
      <trkpt lat="47.26728" lon="-1.65166">
        <ele>34.8</ele>
        <time>2013-03-02T08:13:38Z</time>
      </trkpt>
      <trkpt lat="47.26731" lon="-1.65164">
        <ele>34.7</ele>
        <time>2013-03-02T08:13:40Z</time>
      </trkpt>
      <trkpt lat="47.26733" lon="-1.65162">
        <ele>35.3</ele>
        <time>2013-03-02T08:13:42Z</time>
      </trkpt>
      <trkpt lat="47.26746" lon="-1.65152">
        <ele>36.1</ele>
        <time>2013-03-02T08:13:47Z</time>
      </trkpt>
      <trkpt lat="47.26748" lon="-1.65149">
        <ele>36.1</ele>
        <time>2013-03-02T08:13:48Z</time>
      </trkpt>
      <trkpt lat="47.26752" lon="-1.65141">
        <ele>36.3</ele>
        <time>2013-03-02T08:13:50Z</time>
      </trkpt>
      <trkpt lat="47.26754" lon="-1.65139">
        <ele>39.3</ele>
        <time>2013-03-02T08:13:51Z</time>
      </trkpt>
      <trkpt lat="47.26762" lon="-1.65129">
        <ele>43.9</ele>
        <time>2013-03-02T08:13:54Z</time>
      </trkpt>
      <trkpt lat="47.26765" lon="-1.65125">
        <ele>44.9</ele>
        <time>2013-03-02T08:13:55Z</time>
      </trkpt>
      <trkpt lat="47.26767" lon="-1.65121">
        <ele>45.7</ele>
        <time>2013-03-02T08:13:56Z</time>
      </trkpt>
      <trkpt lat="47.26769" lon="-1.65116">
        <ele>46.3</ele>
        <time>2013-03-02T08:13:57Z</time>
      </trkpt>
      <trkpt lat="47.2678" lon="-1.65098">
        <ele>47</ele>
        <time>2013-03-02T08:14:02Z</time>
      </trkpt>
      <trkpt lat="47.26781" lon="-1.65094">
        <ele>46.9</ele>
        <time>2013-03-02T08:14:03Z</time>
      </trkpt>
      <trkpt lat="47.26785" lon="-1.65083">
        <ele>46.5</ele>
        <time>2013-03-02T08:14:08Z</time>
      </trkpt>
      <trkpt lat="47.26787" lon="-1.65077">
        <ele>46.9</ele>
        <time>2013-03-02T08:14:11Z</time>
      </trkpt>
      <trkpt lat="47.26792" lon="-1.65055">
        <ele>46.7</ele>
        <time>2013-03-02T08:14:21Z</time>
      </trkpt>
      <trkpt lat="47.26793" lon="-1.65053">
        <ele>46.5</ele>
        <time>2013-03-02T08:14:22Z</time>
      </trkpt>
      <trkpt lat="47.26794" lon="-1.65052">
        <ele>46.5</ele>
        <time>2013-03-02T08:14:23Z</time>
      </trkpt>
      <trkpt lat="47.26794" lon="-1.6505">
        <ele>46.5</ele>
        <time>2013-03-02T08:14:24Z</time>
      </trkpt>
      <trkpt lat="47.26795" lon="-1.65046">
        <ele>46</ele>
        <time>2013-03-02T08:14:31Z</time>
      </trkpt>
      <trkpt lat="47.26795" lon="-1.65045">
        <ele>45.9</ele>
        <time>2013-03-02T08:14:32Z</time>
      </trkpt>
      <trkpt lat="47.26796" lon="-1.65045">
        <ele>45.9</ele>
        <time>2013-03-02T08:14:33Z</time>
      </trkpt>
      <trkpt lat="47.26796" lon="-1.65045">
        <ele>45.9</ele>
        <time>2013-03-02T08:14:34Z</time>
      </trkpt>
      <trkpt lat="47.26796" lon="-1.65044">
        <ele>45.9</ele>
        <time>2013-03-02T08:14:35Z</time>
      </trkpt>
      <trkpt lat="47.26796" lon="-1.65044">
        <ele>46</ele>
        <time>2013-03-02T08:14:36Z</time>
      </trkpt>
      <trkpt lat="47.26796" lon="-1.65044">
        <ele>45.9</ele>
        <time>2013-03-02T08:14:37Z</time>
      </trkpt>
      <trkpt lat="47.26796" lon="-1.65044">
        <ele>45.8</ele>
        <time>2013-03-02T08:14:38Z</time>
      </trkpt>
      <trkpt lat="47.26797" lon="-1.65043">
        <ele>46</ele>
        <time>2013-03-02T08:14:39Z</time>
      </trkpt>
      <trkpt lat="47.26797" lon="-1.65043">
        <ele>46.2</ele>
        <time>2013-03-02T08:14:40Z</time>
      </trkpt>
      <trkpt lat="47.26797" lon="-1.65043">
        <ele>46.3</ele>
        <time>2013-03-02T08:14:41Z</time>
      </trkpt>
      <trkpt lat="47.26797" lon="-1.65042">
        <ele>46.3</ele>
        <time>2013-03-02T08:14:43Z</time>
      </trkpt>
      <trkpt lat="47.26797" lon="-1.65042">
        <ele>46.1</ele>
        <time>2013-03-02T08:14:44Z</time>
      </trkpt>
      <trkpt lat="47.26798" lon="-1.65041">
        <ele>46</ele>
        <time>2013-03-02T08:14:45Z</time>
      </trkpt>
      <trkpt lat="47.26798" lon="-1.6504">
        <ele>45.9</ele>
        <time>2013-03-02T08:14:46Z</time>
      </trkpt>
      <trkpt lat="47.26798" lon="-1.65038">
        <ele>45.8</ele>
        <time>2013-03-02T08:14:47Z</time>
      </trkpt>
      <trkpt lat="47.26798" lon="-1.65035">
        <ele>45.7</ele>
        <time>2013-03-02T08:14:48Z</time>
      </trkpt>
      <trkpt lat="47.26798" lon="-1.65032">
        <ele>45.8</ele>
        <time>2013-03-02T08:14:49Z</time>
      </trkpt>
      <trkpt lat="47.26797" lon="-1.6503">
        <ele>45.8</ele>
        <time>2013-03-02T08:14:50Z</time>
      </trkpt>
      <trkpt lat="47.26797" lon="-1.65028">
        <ele>45.2</ele>
        <time>2013-03-02T08:14:51Z</time>
      </trkpt>
      <trkpt lat="47.26798" lon="-1.65026">
        <ele>44.8</ele>
        <time>2013-03-02T08:14:52Z</time>
      </trkpt>
      <trkpt lat="47.26799" lon="-1.65021">
        <ele>44.5</ele>
        <time>2013-03-02T08:14:54Z</time>
      </trkpt>
      <trkpt lat="47.26799" lon="-1.65019">
        <ele>44.5</ele>
        <time>2013-03-02T08:14:55Z</time>
      </trkpt>
      <trkpt lat="47.268" lon="-1.65017">
        <ele>43.9</ele>
        <time>2013-03-02T08:14:56Z</time>
      </trkpt>
      <trkpt lat="47.26801" lon="-1.65015">
        <ele>43.4</ele>
        <time>2013-03-02T08:14:57Z</time>
      </trkpt>
      <trkpt lat="47.26802" lon="-1.65014">
        <ele>42.8</ele>
        <time>2013-03-02T08:14:58Z</time>
      </trkpt>
      <trkpt lat="47.26803" lon="-1.65013">
        <ele>42.4</ele>
        <time>2013-03-02T08:14:59Z</time>
      </trkpt>
      <trkpt lat="47.26804" lon="-1.65012">
        <ele>42.1</ele>
        <time>2013-03-02T08:15:00Z</time>
      </trkpt>
      <trkpt lat="47.26807" lon="-1.65008">
        <ele>41.1</ele>
        <time>2013-03-02T08:15:02Z</time>
      </trkpt>
      <trkpt lat="47.26809" lon="-1.65007">
        <ele>40.1</ele>
        <time>2013-03-02T08:15:03Z</time>
      </trkpt>
      <trkpt lat="47.2681" lon="-1.65006">
        <ele>39.4</ele>
        <time>2013-03-02T08:15:04Z</time>
      </trkpt>
      <trkpt lat="47.26815" lon="-1.65006">
        <ele>37.9</ele>
        <time>2013-03-02T08:15:07Z</time>
      </trkpt>
      <trkpt lat="47.26817" lon="-1.65007">
        <ele>37.4</ele>
        <time>2013-03-02T08:15:08Z</time>
      </trkpt>
      <trkpt lat="47.26818" lon="-1.65008">
        <ele>37</ele>
        <time>2013-03-02T08:15:09Z</time>
      </trkpt>
      <trkpt lat="47.2682" lon="-1.65009">
        <ele>36.4</ele>
        <time>2013-03-02T08:15:10Z</time>
      </trkpt>
      <trkpt lat="47.26822" lon="-1.65012">
        <ele>35.6</ele>
        <time>2013-03-02T08:15:12Z</time>
      </trkpt>
      <trkpt lat="47.26825" lon="-1.65015">
        <ele>34.9</ele>
        <time>2013-03-02T08:15:14Z</time>
      </trkpt>
      <trkpt lat="47.26827" lon="-1.6502">
        <ele>34</ele>
        <time>2013-03-02T08:15:16Z</time>
      </trkpt>
      <trkpt lat="47.26829" lon="-1.65022">
        <ele>33.4</ele>
        <time>2013-03-02T08:15:17Z</time>
      </trkpt>
      <trkpt lat="47.26833" lon="-1.65027">
        <ele>32.5</ele>
        <time>2013-03-02T08:15:19Z</time>
      </trkpt>
      <trkpt lat="47.26835" lon="-1.6503">
        <ele>31.8</ele>
        <time>2013-03-02T08:15:20Z</time>
      </trkpt>
      <trkpt lat="47.26836" lon="-1.65033">
        <ele>31.2</ele>
        <time>2013-03-02T08:15:21Z</time>
      </trkpt>
      <trkpt lat="47.26837" lon="-1.65036">
        <ele>30.8</ele>
        <time>2013-03-02T08:15:22Z</time>
      </trkpt>
      <trkpt lat="47.26837" lon="-1.65039">
        <ele>30.6</ele>
        <time>2013-03-02T08:15:23Z</time>
      </trkpt>
      <trkpt lat="47.26837" lon="-1.65049">
        <ele>29.1</ele>
        <time>2013-03-02T08:15:27Z</time>
      </trkpt>
      <trkpt lat="47.26837" lon="-1.65051">
        <ele>29.1</ele>
        <time>2013-03-02T08:15:28Z</time>
      </trkpt>
      <trkpt lat="47.26836" lon="-1.65053">
        <ele>29.2</ele>
        <time>2013-03-02T08:15:29Z</time>
      </trkpt>
      <trkpt lat="47.26836" lon="-1.65055">
        <ele>29.3</ele>
        <time>2013-03-02T08:15:30Z</time>
      </trkpt>
      <trkpt lat="47.26836" lon="-1.6506">
        <ele>29.2</ele>
        <time>2013-03-02T08:15:32Z</time>
      </trkpt>
      <trkpt lat="47.26836" lon="-1.65062">
        <ele>29.1</ele>
        <time>2013-03-02T08:15:33Z</time>
      </trkpt>
      <trkpt lat="47.26837" lon="-1.6507">
        <ele>28.6</ele>
        <time>2013-03-02T08:15:36Z</time>
      </trkpt>
      <trkpt lat="47.26837" lon="-1.65074">
        <ele>28.5</ele>
        <time>2013-03-02T08:15:37Z</time>
      </trkpt>
      <trkpt lat="47.26836" lon="-1.65081">
        <ele>28.7</ele>
        <time>2013-03-02T08:15:39Z</time>
      </trkpt>
      <trkpt lat="47.26835" lon="-1.65084">
        <ele>28.9</ele>
        <time>2013-03-02T08:15:40Z</time>
      </trkpt>
      <trkpt lat="47.26833" lon="-1.65092">
        <ele>28</ele>
        <time>2013-03-02T08:15:43Z</time>
      </trkpt>
      <trkpt lat="47.26831" lon="-1.65103">
        <ele>27.5</ele>
        <time>2013-03-02T08:15:47Z</time>
      </trkpt>
      <trkpt lat="47.26831" lon="-1.65108">
        <ele>28</ele>
        <time>2013-03-02T08:15:49Z</time>
      </trkpt>
      <trkpt lat="47.2683" lon="-1.6511">
        <ele>27.9</ele>
        <time>2013-03-02T08:15:50Z</time>
      </trkpt>
      <trkpt lat="47.26829" lon="-1.65112">
        <ele>27.8</ele>
        <time>2013-03-02T08:15:51Z</time>
      </trkpt>
      <trkpt lat="47.26828" lon="-1.65114">
        <ele>27.7</ele>
        <time>2013-03-02T08:15:52Z</time>
      </trkpt>
      <trkpt lat="47.26828" lon="-1.65116">
        <ele>27.6</ele>
        <time>2013-03-02T08:15:53Z</time>
      </trkpt>
      <trkpt lat="47.26827" lon="-1.65118">
        <ele>27.5</ele>
        <time>2013-03-02T08:15:54Z</time>
      </trkpt>
      <trkpt lat="47.26827" lon="-1.6512">
        <ele>27.9</ele>
        <time>2013-03-02T08:15:55Z</time>
      </trkpt>
      <trkpt lat="47.26826" lon="-1.6512">
        <ele>28.2</ele>
        <time>2013-03-02T08:15:56Z</time>
      </trkpt>
      <trkpt lat="47.26825" lon="-1.65121">
        <ele>28.5</ele>
        <time>2013-03-02T08:15:57Z</time>
      </trkpt>
      <trkpt lat="47.26823" lon="-1.65124">
        <ele>28.1</ele>
        <time>2013-03-02T08:15:59Z</time>
      </trkpt>
      <trkpt lat="47.26822" lon="-1.65126">
        <ele>28.1</ele>
        <time>2013-03-02T08:16:00Z</time>
      </trkpt>
      <trkpt lat="47.26823" lon="-1.65128">
        <ele>28.2</ele>
        <time>2013-03-02T08:16:01Z</time>
      </trkpt>
      <trkpt lat="47.26824" lon="-1.65127">
        <ele>28.2</ele>
        <time>2013-03-02T08:16:02Z</time>
      </trkpt>
      <trkpt lat="47.26824" lon="-1.65126">
        <ele>28.2</ele>
        <time>2013-03-02T08:16:03Z</time>
      </trkpt>
      <trkpt lat="47.26825" lon="-1.65125">
        <ele>28.2</ele>
        <time>2013-03-02T08:16:04Z</time>
      </trkpt>
      <trkpt lat="47.26826" lon="-1.65124">
        <ele>28.2</ele>
        <time>2013-03-02T08:16:05Z</time>
      </trkpt>
      <trkpt lat="47.26827" lon="-1.65122">
        <ele>28.3</ele>
        <time>2013-03-02T08:16:06Z</time>
      </trkpt>
      <trkpt lat="47.26827" lon="-1.65121">
        <ele>28.5</ele>
        <time>2013-03-02T08:16:07Z</time>
      </trkpt>
      <trkpt lat="47.26826" lon="-1.6512">
        <ele>28.7</ele>
        <time>2013-03-02T08:16:08Z</time>
      </trkpt>
      <trkpt lat="47.26826" lon="-1.65119">
        <ele>28.5</ele>
        <time>2013-03-02T08:16:09Z</time>
      </trkpt>
      <trkpt lat="47.26825" lon="-1.65118">
        <ele>28.4</ele>
        <time>2013-03-02T08:16:10Z</time>
      </trkpt>
      <trkpt lat="47.26824" lon="-1.65119">
        <ele>28.3</ele>
        <time>2013-03-02T08:16:11Z</time>
      </trkpt>
      <trkpt lat="47.26824" lon="-1.6512">
        <ele>28.7</ele>
        <time>2013-03-02T08:16:12Z</time>
      </trkpt>
      <trkpt lat="47.26824" lon="-1.65122">
        <ele>28.9</ele>
        <time>2013-03-02T08:16:13Z</time>
      </trkpt>
      <trkpt lat="47.26824" lon="-1.65124">
        <ele>28.5</ele>
        <time>2013-03-02T08:16:14Z</time>
      </trkpt>
      <trkpt lat="47.26824" lon="-1.65126">
        <ele>28.2</ele>
        <time>2013-03-02T08:16:15Z</time>
      </trkpt>
      <trkpt lat="47.26824" lon="-1.65127">
        <ele>28</ele>
        <time>2013-03-02T08:16:16Z</time>
      </trkpt>
      <trkpt lat="47.26823" lon="-1.65128">
        <ele>27.8</ele>
        <time>2013-03-02T08:16:17Z</time>
      </trkpt>
      <trkpt lat="47.26822" lon="-1.65129">
        <ele>27.7</ele>
        <time>2013-03-02T08:16:18Z</time>
      </trkpt>
      <trkpt lat="47.26821" lon="-1.6513">
        <ele>28</ele>
        <time>2013-03-02T08:16:19Z</time>
      </trkpt>
      <trkpt lat="47.2682" lon="-1.65132">
        <ele>28.2</ele>
        <time>2013-03-02T08:16:20Z</time>
      </trkpt>
      <trkpt lat="47.26819" lon="-1.65133">
        <ele>28.1</ele>
        <time>2013-03-02T08:16:21Z</time>
      </trkpt>
      <trkpt lat="47.26817" lon="-1.65136">
        <ele>28</ele>
        <time>2013-03-02T08:16:23Z</time>
      </trkpt>
      <trkpt lat="47.26816" lon="-1.65138">
        <ele>27.7</ele>
        <time>2013-03-02T08:16:24Z</time>
      </trkpt>
      <trkpt lat="47.26813" lon="-1.65145">
        <ele>27.2</ele>
        <time>2013-03-02T08:16:27Z</time>
      </trkpt>
      <trkpt lat="47.26811" lon="-1.6515">
        <ele>27.2</ele>
        <time>2013-03-02T08:16:30Z</time>
      </trkpt>
      <trkpt lat="47.2681" lon="-1.65152">
        <ele>27.2</ele>
        <time>2013-03-02T08:16:31Z</time>
      </trkpt>
      <trkpt lat="47.26807" lon="-1.65158">
        <ele>27.7</ele>
        <time>2013-03-02T08:16:34Z</time>
      </trkpt>
      <trkpt lat="47.26803" lon="-1.65165">
        <ele>28.8</ele>
        <time>2013-03-02T08:16:37Z</time>
      </trkpt>
      <trkpt lat="47.26793" lon="-1.65178">
        <ele>29</ele>
        <time>2013-03-02T08:16:44Z</time>
      </trkpt>
      <trkpt lat="47.26792" lon="-1.6518">
        <ele>28.8</ele>
        <time>2013-03-02T08:16:45Z</time>
      </trkpt>
      <trkpt lat="47.2679" lon="-1.65182">
        <ele>28.7</ele>
        <time>2013-03-02T08:16:46Z</time>
      </trkpt>
      <trkpt lat="47.26789" lon="-1.65185">
        <ele>28.9</ele>
        <time>2013-03-02T08:16:47Z</time>
      </trkpt>
      <trkpt lat="47.26787" lon="-1.65191">
        <ele>29.1</ele>
        <time>2013-03-02T08:16:49Z</time>
      </trkpt>
      <trkpt lat="47.26787" lon="-1.65194">
        <ele>29</ele>
        <time>2013-03-02T08:16:50Z</time>
      </trkpt>
      <trkpt lat="47.26787" lon="-1.65196">
        <ele>28.9</ele>
        <time>2013-03-02T08:16:51Z</time>
      </trkpt>
      <trkpt lat="47.26787" lon="-1.65199">
        <ele>28.8</ele>
        <time>2013-03-02T08:16:52Z</time>
      </trkpt>
      <trkpt lat="47.26788" lon="-1.65202">
        <ele>28.7</ele>
        <time>2013-03-02T08:16:53Z</time>
      </trkpt>
      <trkpt lat="47.26789" lon="-1.65211">
        <ele>28.6</ele>
        <time>2013-03-02T08:16:56Z</time>
      </trkpt>
      <trkpt lat="47.26789" lon="-1.65214">
        <ele>28.5</ele>
        <time>2013-03-02T08:16:57Z</time>
      </trkpt>
      <trkpt lat="47.2679" lon="-1.65221">
        <ele>28</ele>
        <time>2013-03-02T08:16:59Z</time>
      </trkpt>
      <trkpt lat="47.26789" lon="-1.6523">
        <ele>27.8</ele>
        <time>2013-03-02T08:17:02Z</time>
      </trkpt>
      <trkpt lat="47.26788" lon="-1.65233">
        <ele>28.1</ele>
        <time>2013-03-02T08:17:03Z</time>
      </trkpt>
      <trkpt lat="47.26787" lon="-1.65235">
        <ele>28</ele>
        <time>2013-03-02T08:17:04Z</time>
      </trkpt>
      <trkpt lat="47.26786" lon="-1.65238">
        <ele>27.9</ele>
        <time>2013-03-02T08:17:05Z</time>
      </trkpt>
      <trkpt lat="47.26784" lon="-1.6524">
        <ele>28</ele>
        <time>2013-03-02T08:17:06Z</time>
      </trkpt>
      <trkpt lat="47.2678" lon="-1.65244">
        <ele>28</ele>
        <time>2013-03-02T08:17:08Z</time>
      </trkpt>
      <trkpt lat="47.26775" lon="-1.6525">
        <ele>27.7</ele>
        <time>2013-03-02T08:17:11Z</time>
      </trkpt>
      <trkpt lat="47.26774" lon="-1.65252">
        <ele>27.8</ele>
        <time>2013-03-02T08:17:12Z</time>
      </trkpt>
      <trkpt lat="47.26771" lon="-1.65257">
        <ele>28.2</ele>
        <time>2013-03-02T08:17:14Z</time>
      </trkpt>
      <trkpt lat="47.26769" lon="-1.6526">
        <ele>28.3</ele>
        <time>2013-03-02T08:17:15Z</time>
      </trkpt>
      <trkpt lat="47.26769" lon="-1.65263">
        <ele>28.6</ele>
        <time>2013-03-02T08:17:16Z</time>
      </trkpt>
      <trkpt lat="47.26767" lon="-1.65276">
        <ele>29</ele>
        <time>2013-03-02T08:17:20Z</time>
      </trkpt>
      <trkpt lat="47.26767" lon="-1.65287">
        <ele>29.7</ele>
        <time>2013-03-02T08:17:23Z</time>
      </trkpt>
      <trkpt lat="47.26767" lon="-1.65293">
        <ele>30.4</ele>
        <time>2013-03-02T08:17:25Z</time>
      </trkpt>
      <trkpt lat="47.26767" lon="-1.65307">
        <ele>31.2</ele>
        <time>2013-03-02T08:17:29Z</time>
      </trkpt>
      <trkpt lat="47.26766" lon="-1.65311">
        <ele>31.3</ele>
        <time>2013-03-02T08:17:30Z</time>
      </trkpt>
      <trkpt lat="47.26764" lon="-1.65314">
        <ele>31.5</ele>
        <time>2013-03-02T08:17:31Z</time>
      </trkpt>
      <trkpt lat="47.26763" lon="-1.65316">
        <ele>31.5</ele>
        <time>2013-03-02T08:17:32Z</time>
      </trkpt>
      <trkpt lat="47.26762" lon="-1.65317">
        <ele>31.7</ele>
        <time>2013-03-02T08:17:33Z</time>
      </trkpt>
      <trkpt lat="47.26762" lon="-1.65319">
        <ele>31.8</ele>
        <time>2013-03-02T08:17:34Z</time>
      </trkpt>
      <trkpt lat="47.26761" lon="-1.65323">
        <ele>33.6</ele>
        <time>2013-03-02T08:17:36Z</time>
      </trkpt>
      <trkpt lat="47.2676" lon="-1.65324">
        <ele>34</ele>
        <time>2013-03-02T08:17:37Z</time>
      </trkpt>
      <trkpt lat="47.26759" lon="-1.65326">
        <ele>34.2</ele>
        <time>2013-03-02T08:17:38Z</time>
      </trkpt>
      <trkpt lat="47.26755" lon="-1.65328">
        <ele>34.3</ele>
        <time>2013-03-02T08:17:40Z</time>
      </trkpt>
      <trkpt lat="47.26755" lon="-1.6533">
        <ele>34.2</ele>
        <time>2013-03-02T08:17:41Z</time>
      </trkpt>
      <trkpt lat="47.26754" lon="-1.65332">
        <ele>34.8</ele>
        <time>2013-03-02T08:17:42Z</time>
      </trkpt>
      <trkpt lat="47.26753" lon="-1.65334">
        <ele>35.3</ele>
        <time>2013-03-02T08:17:43Z</time>
      </trkpt>
      <trkpt lat="47.26753" lon="-1.65336">
        <ele>35.9</ele>
        <time>2013-03-02T08:17:44Z</time>
      </trkpt>
      <trkpt lat="47.26753" lon="-1.65338">
        <ele>36.4</ele>
        <time>2013-03-02T08:17:45Z</time>
      </trkpt>
      <trkpt lat="47.26754" lon="-1.65341">
        <ele>36.7</ele>
        <time>2013-03-02T08:17:46Z</time>
      </trkpt>
      <trkpt lat="47.26754" lon="-1.65345">
        <ele>37</ele>
        <time>2013-03-02T08:17:47Z</time>
      </trkpt>
      <trkpt lat="47.26754" lon="-1.65349">
        <ele>37.3</ele>
        <time>2013-03-02T08:17:48Z</time>
      </trkpt>
      <trkpt lat="47.26755" lon="-1.65353">
        <ele>37.2</ele>
        <time>2013-03-02T08:17:49Z</time>
      </trkpt>
      <trkpt lat="47.26756" lon="-1.65357">
        <ele>37.1</ele>
        <time>2013-03-02T08:17:50Z</time>
      </trkpt>
      <trkpt lat="47.2676" lon="-1.65365">
        <ele>36.9</ele>
        <time>2013-03-02T08:17:52Z</time>
      </trkpt>
      <trkpt lat="47.26761" lon="-1.65369">
        <ele>36.8</ele>
        <time>2013-03-02T08:17:53Z</time>
      </trkpt>
      <trkpt lat="47.26764" lon="-1.65399">
        <ele>35.4</ele>
        <time>2013-03-02T08:17:58Z</time>
      </trkpt>
      <trkpt lat="47.26764" lon="-1.65405">
        <ele>35.3</ele>
        <time>2013-03-02T08:17:59Z</time>
      </trkpt>
      <trkpt lat="47.26764" lon="-1.65426">
        <ele>34.8</ele>
        <time>2013-03-02T08:18:03Z</time>
      </trkpt>
      <trkpt lat="47.26763" lon="-1.6543">
        <ele>34.7</ele>
        <time>2013-03-02T08:18:04Z</time>
      </trkpt>
      <trkpt lat="47.26763" lon="-1.65435">
        <ele>34.8</ele>
        <time>2013-03-02T08:18:06Z</time>
      </trkpt>
      <trkpt lat="47.26763" lon="-1.65438">
        <ele>34.9</ele>
        <time>2013-03-02T08:18:07Z</time>
      </trkpt>
      <trkpt lat="47.26764" lon="-1.65449">
        <ele>35.7</ele>
        <time>2013-03-02T08:18:10Z</time>
      </trkpt>
      <trkpt lat="47.26766" lon="-1.65464">
        <ele>35.2</ele>
        <time>2013-03-02T08:18:14Z</time>
      </trkpt>
      <trkpt lat="47.26767" lon="-1.65472">
        <ele>34.8</ele>
        <time>2013-03-02T08:18:17Z</time>
      </trkpt>
      <trkpt lat="47.26767" lon="-1.65481">
        <ele>35.6</ele>
        <time>2013-03-02T08:18:20Z</time>
      </trkpt>
      <trkpt lat="47.26767" lon="-1.65484">
        <ele>35.7</ele>
        <time>2013-03-02T08:18:21Z</time>
      </trkpt>
      <trkpt lat="47.26767" lon="-1.65487">
        <ele>35.9</ele>
        <time>2013-03-02T08:18:22Z</time>
      </trkpt>
      <trkpt lat="47.26766" lon="-1.65492">
        <ele>36.3</ele>
        <time>2013-03-02T08:18:24Z</time>
      </trkpt>
      <trkpt lat="47.26767" lon="-1.65495">
        <ele>36</ele>
        <time>2013-03-02T08:18:25Z</time>
      </trkpt>
      <trkpt lat="47.26768" lon="-1.65499">
        <ele>35.8</ele>
        <time>2013-03-02T08:18:26Z</time>
      </trkpt>
      <trkpt lat="47.26768" lon="-1.65503">
        <ele>35.7</ele>
        <time>2013-03-02T08:18:27Z</time>
      </trkpt>
      <trkpt lat="47.26768" lon="-1.65507">
        <ele>35.7</ele>
        <time>2013-03-02T08:18:28Z</time>
      </trkpt>
      <trkpt lat="47.26769" lon="-1.6551">
        <ele>35.7</ele>
        <time>2013-03-02T08:18:29Z</time>
      </trkpt>
      <trkpt lat="47.2677" lon="-1.65512">
        <ele>35.9</ele>
        <time>2013-03-02T08:18:30Z</time>
      </trkpt>
      <trkpt lat="47.26771" lon="-1.65513">
        <ele>36</ele>
        <time>2013-03-02T08:18:31Z</time>
      </trkpt>
      <trkpt lat="47.26773" lon="-1.65515">
        <ele>35.9</ele>
        <time>2013-03-02T08:18:32Z</time>
      </trkpt>
      <trkpt lat="47.26775" lon="-1.65516">
        <ele>35.9</ele>
        <time>2013-03-02T08:18:33Z</time>
      </trkpt>
      <trkpt lat="47.26777" lon="-1.65517">
        <ele>35.8</ele>
        <time>2013-03-02T08:18:34Z</time>
      </trkpt>
      <trkpt lat="47.26779" lon="-1.65518">
        <ele>35.7</ele>
        <time>2013-03-02T08:18:35Z</time>
      </trkpt>
      <trkpt lat="47.26784" lon="-1.65519">
        <ele>35.4</ele>
        <time>2013-03-02T08:18:37Z</time>
      </trkpt>
      <trkpt lat="47.26786" lon="-1.65519">
        <ele>35.3</ele>
        <time>2013-03-02T08:18:38Z</time>
      </trkpt>
      <trkpt lat="47.26789" lon="-1.65519">
        <ele>35.1</ele>
        <time>2013-03-02T08:18:39Z</time>
      </trkpt>
      <trkpt lat="47.26791" lon="-1.65518">
        <ele>35</ele>
        <time>2013-03-02T08:18:40Z</time>
      </trkpt>
      <trkpt lat="47.26793" lon="-1.65517">
        <ele>35</ele>
        <time>2013-03-02T08:18:41Z</time>
      </trkpt>
      <trkpt lat="47.26795" lon="-1.65518">
        <ele>35.1</ele>
        <time>2013-03-02T08:18:42Z</time>
      </trkpt>
      <trkpt lat="47.26797" lon="-1.65517">
        <ele>35.1</ele>
        <time>2013-03-02T08:18:43Z</time>
      </trkpt>
      <trkpt lat="47.268" lon="-1.65517">
        <ele>34.7</ele>
        <time>2013-03-02T08:18:44Z</time>
      </trkpt>
      <trkpt lat="47.26802" lon="-1.65518">
        <ele>34.5</ele>
        <time>2013-03-02T08:18:45Z</time>
      </trkpt>
      <trkpt lat="47.26805" lon="-1.65518">
        <ele>34.4</ele>
        <time>2013-03-02T08:18:46Z</time>
      </trkpt>
      <trkpt lat="47.26808" lon="-1.65519">
        <ele>34.3</ele>
        <time>2013-03-02T08:18:47Z</time>
      </trkpt>
      <trkpt lat="47.26826" lon="-1.65526">
        <ele>32.9</ele>
        <time>2013-03-02T08:18:51Z</time>
      </trkpt>
      <trkpt lat="47.2683" lon="-1.65528">
        <ele>31.9</ele>
        <time>2013-03-02T08:18:53Z</time>
      </trkpt>
      <trkpt lat="47.2683" lon="-1.65529">
        <ele>31.7</ele>
        <time>2013-03-02T08:18:54Z</time>
      </trkpt>
      <trkpt lat="47.2683" lon="-1.65529">
        <ele>31.5</ele>
        <time>2013-03-02T08:18:55Z</time>
      </trkpt>
      <trkpt lat="47.26831" lon="-1.65529">
        <ele>31.2</ele>
        <time>2013-03-02T08:18:56Z</time>
      </trkpt>
      <trkpt lat="47.26831" lon="-1.65529">
        <ele>31</ele>
        <time>2013-03-02T08:18:57Z</time>
      </trkpt>
      <trkpt lat="47.26832" lon="-1.65529">
        <ele>30.6</ele>
        <time>2013-03-02T08:18:58Z</time>
      </trkpt>
      <trkpt lat="47.26833" lon="-1.6553">
        <ele>30.3</ele>
        <time>2013-03-02T08:19:00Z</time>
      </trkpt>
      <trkpt lat="47.26834" lon="-1.65529">
        <ele>30.4</ele>
        <time>2013-03-02T08:19:01Z</time>
      </trkpt>
      <trkpt lat="47.26835" lon="-1.65529">
        <ele>30.4</ele>
        <time>2013-03-02T08:19:02Z</time>
      </trkpt>
      <trkpt lat="47.26837" lon="-1.65529">
        <ele>30.2</ele>
        <time>2013-03-02T08:19:04Z</time>
      </trkpt>
      <trkpt lat="47.26838" lon="-1.65529">
        <ele>30.1</ele>
        <time>2013-03-02T08:19:05Z</time>
      </trkpt>
      <trkpt lat="47.2684" lon="-1.6553">
        <ele>30</ele>
        <time>2013-03-02T08:19:07Z</time>
      </trkpt>
      <trkpt lat="47.26841" lon="-1.65531">
        <ele>29.8</ele>
        <time>2013-03-02T08:19:08Z</time>
      </trkpt>
      <trkpt lat="47.26844" lon="-1.65535">
        <ele>29.7</ele>
        <time>2013-03-02T08:19:10Z</time>
      </trkpt>
      <trkpt lat="47.26845" lon="-1.65537">
        <ele>29.7</ele>
        <time>2013-03-02T08:19:11Z</time>
      </trkpt>
      <trkpt lat="47.26846" lon="-1.65538">
        <ele>29.7</ele>
        <time>2013-03-02T08:19:12Z</time>
      </trkpt>
      <trkpt lat="47.26847" lon="-1.65539">
        <ele>29.7</ele>
        <time>2013-03-02T08:19:13Z</time>
      </trkpt>
      <trkpt lat="47.26849" lon="-1.65541">
        <ele>29.7</ele>
        <time>2013-03-02T08:19:14Z</time>
      </trkpt>
      <trkpt lat="47.26849" lon="-1.65542">
        <ele>29.7</ele>
        <time>2013-03-02T08:19:15Z</time>
      </trkpt>
      <trkpt lat="47.26849" lon="-1.65544">
        <ele>29.7</ele>
        <time>2013-03-02T08:19:16Z</time>
      </trkpt>
      <trkpt lat="47.26848" lon="-1.65545">
        <ele>29.8</ele>
        <time>2013-03-02T08:19:17Z</time>
      </trkpt>
      <trkpt lat="47.26848" lon="-1.65546">
        <ele>29.9</ele>
        <time>2013-03-02T08:19:18Z</time>
      </trkpt>
      <trkpt lat="47.26848" lon="-1.65548">
        <ele>29.8</ele>
        <time>2013-03-02T08:19:19Z</time>
      </trkpt>
      <trkpt lat="47.26849" lon="-1.65551">
        <ele>29.8</ele>
        <time>2013-03-02T08:19:20Z</time>
      </trkpt>
      <trkpt lat="47.2685" lon="-1.65553">
        <ele>29.8</ele>
        <time>2013-03-02T08:19:21Z</time>
      </trkpt>
      <trkpt lat="47.26851" lon="-1.65554">
        <ele>29.9</ele>
        <time>2013-03-02T08:19:22Z</time>
      </trkpt>
      <trkpt lat="47.26852" lon="-1.65555">
        <ele>29.9</ele>
        <time>2013-03-02T08:19:23Z</time>
      </trkpt>
      <trkpt lat="47.26853" lon="-1.65557">
        <ele>30.2</ele>
        <time>2013-03-02T08:19:24Z</time>
      </trkpt>
      <trkpt lat="47.26854" lon="-1.65558">
        <ele>30.3</ele>
        <time>2013-03-02T08:19:25Z</time>
      </trkpt>
      <trkpt lat="47.26855" lon="-1.65559">
        <ele>30.1</ele>
        <time>2013-03-02T08:19:26Z</time>
      </trkpt>
      <trkpt lat="47.26858" lon="-1.65561">
        <ele>29.8</ele>
        <time>2013-03-02T08:19:28Z</time>
      </trkpt>
      <trkpt lat="47.2686" lon="-1.65562">
        <ele>30.2</ele>
        <time>2013-03-02T08:19:29Z</time>
      </trkpt>
      <trkpt lat="47.26861" lon="-1.65565">
        <ele>30.4</ele>
        <time>2013-03-02T08:19:30Z</time>
      </trkpt>
      <trkpt lat="47.26861" lon="-1.65567">
        <ele>30.4</ele>
        <time>2013-03-02T08:19:31Z</time>
      </trkpt>
      <trkpt lat="47.26861" lon="-1.6557">
        <ele>30.5</ele>
        <time>2013-03-02T08:19:32Z</time>
      </trkpt>
      <trkpt lat="47.26862" lon="-1.65573">
        <ele>30.5</ele>
        <time>2013-03-02T08:19:33Z</time>
      </trkpt>
      <trkpt lat="47.26864" lon="-1.65575">
        <ele>30.5</ele>
        <time>2013-03-02T08:19:34Z</time>
      </trkpt>
      <trkpt lat="47.26865" lon="-1.65577">
        <ele>30.5</ele>
        <time>2013-03-02T08:19:35Z</time>
      </trkpt>
      <trkpt lat="47.26869" lon="-1.65581">
        <ele>31.1</ele>
        <time>2013-03-02T08:19:38Z</time>
      </trkpt>
      <trkpt lat="47.26873" lon="-1.65585">
        <ele>31.5</ele>
        <time>2013-03-02T08:19:40Z</time>
      </trkpt>
      <trkpt lat="47.26874" lon="-1.65587">
        <ele>31.5</ele>
        <time>2013-03-02T08:19:41Z</time>
      </trkpt>
      <trkpt lat="47.26876" lon="-1.65591">
        <ele>31.7</ele>
        <time>2013-03-02T08:19:43Z</time>
      </trkpt>
      <trkpt lat="47.26878" lon="-1.65592">
        <ele>31.8</ele>
        <time>2013-03-02T08:19:44Z</time>
      </trkpt>
      <trkpt lat="47.26886" lon="-1.65601">
        <ele>33.1</ele>
        <time>2013-03-02T08:19:50Z</time>
      </trkpt>
      <trkpt lat="47.26887" lon="-1.65602">
        <ele>33.1</ele>
        <time>2013-03-02T08:19:51Z</time>
      </trkpt>
      <trkpt lat="47.26889" lon="-1.65603">
        <ele>33.1</ele>
        <time>2013-03-02T08:19:52Z</time>
      </trkpt>
      <trkpt lat="47.26889" lon="-1.65605">
        <ele>33</ele>
        <time>2013-03-02T08:19:53Z</time>
      </trkpt>
      <trkpt lat="47.2689" lon="-1.65607">
        <ele>32.9</ele>
        <time>2013-03-02T08:19:54Z</time>
      </trkpt>
      <trkpt lat="47.26892" lon="-1.65608">
        <ele>33.4</ele>
        <time>2013-03-02T08:19:55Z</time>
      </trkpt>
      <trkpt lat="47.26892" lon="-1.6561">
        <ele>33.8</ele>
        <time>2013-03-02T08:19:56Z</time>
      </trkpt>
      <trkpt lat="47.26895" lon="-1.65617">
        <ele>34.4</ele>
        <time>2013-03-02T08:19:59Z</time>
      </trkpt>
      <trkpt lat="47.26896" lon="-1.6562">
        <ele>35.2</ele>
        <time>2013-03-02T08:20:01Z</time>
      </trkpt>
      <trkpt lat="47.26896" lon="-1.65622">
        <ele>34.9</ele>
        <time>2013-03-02T08:20:02Z</time>
      </trkpt>
      <trkpt lat="47.26896" lon="-1.65623">
        <ele>34.7</ele>
        <time>2013-03-02T08:20:03Z</time>
      </trkpt>
      <trkpt lat="47.26896" lon="-1.65625">
        <ele>34.7</ele>
        <time>2013-03-02T08:20:04Z</time>
      </trkpt>
      <trkpt lat="47.26897" lon="-1.65627">
        <ele>34.7</ele>
        <time>2013-03-02T08:20:05Z</time>
      </trkpt>
      <trkpt lat="47.26897" lon="-1.65629">
        <ele>34.7</ele>
        <time>2013-03-02T08:20:06Z</time>
      </trkpt>
      <trkpt lat="47.26897" lon="-1.65632">
        <ele>34.2</ele>
        <time>2013-03-02T08:20:07Z</time>
      </trkpt>
      <trkpt lat="47.26897" lon="-1.65634">
        <ele>33.9</ele>
        <time>2013-03-02T08:20:08Z</time>
      </trkpt>
      <trkpt lat="47.26897" lon="-1.65635">
        <ele>33.8</ele>
        <time>2013-03-02T08:20:09Z</time>
      </trkpt>
      <trkpt lat="47.26897" lon="-1.65637">
        <ele>33.6</ele>
        <time>2013-03-02T08:20:10Z</time>
      </trkpt>
      <trkpt lat="47.26897" lon="-1.65638">
        <ele>33.6</ele>
        <time>2013-03-02T08:20:11Z</time>
      </trkpt>
      <trkpt lat="47.26897" lon="-1.65639">
        <ele>33.9</ele>
        <time>2013-03-02T08:20:12Z</time>
      </trkpt>
      <trkpt lat="47.26898" lon="-1.6564">
        <ele>34.2</ele>
        <time>2013-03-02T08:20:13Z</time>
      </trkpt>
      <trkpt lat="47.26897" lon="-1.6564">
        <ele>34.2</ele>
        <time>2013-03-02T08:20:14Z</time>
      </trkpt>
      <trkpt lat="47.26897" lon="-1.65641">
        <ele>34.1</ele>
        <time>2013-03-02T08:20:15Z</time>
      </trkpt>
      <trkpt lat="47.26897" lon="-1.65642">
        <ele>34.4</ele>
        <time>2013-03-02T08:20:16Z</time>
      </trkpt>
      <trkpt lat="47.26896" lon="-1.65644">
        <ele>34.5</ele>
        <time>2013-03-02T08:20:17Z</time>
      </trkpt>
      <trkpt lat="47.26896" lon="-1.65645">
        <ele>34.7</ele>
        <time>2013-03-02T08:20:18Z</time>
      </trkpt>
      <trkpt lat="47.26896" lon="-1.65645">
        <ele>34.6</ele>
        <time>2013-03-02T08:20:19Z</time>
      </trkpt>
      <trkpt lat="47.26896" lon="-1.65646">
        <ele>34.6</ele>
        <time>2013-03-02T08:20:20Z</time>
      </trkpt>
      <trkpt lat="47.26896" lon="-1.65647">
        <ele>34.9</ele>
        <time>2013-03-02T08:20:21Z</time>
      </trkpt>
      <trkpt lat="47.26896" lon="-1.65647">
        <ele>35.1</ele>
        <time>2013-03-02T08:20:22Z</time>
      </trkpt>
      <trkpt lat="47.26896" lon="-1.65648">
        <ele>34.9</ele>
        <time>2013-03-02T08:20:23Z</time>
      </trkpt>
      <trkpt lat="47.26897" lon="-1.65652">
        <ele>34.5</ele>
        <time>2013-03-02T08:20:32Z</time>
      </trkpt>
      <trkpt lat="47.26897" lon="-1.65652">
        <ele>34.5</ele>
        <time>2013-03-02T08:20:33Z</time>
      </trkpt>
      <trkpt lat="47.26897" lon="-1.65653">
        <ele>34.7</ele>
        <time>2013-03-02T08:20:35Z</time>
      </trkpt>
      <trkpt lat="47.26897" lon="-1.65654">
        <ele>34.8</ele>
        <time>2013-03-02T08:20:36Z</time>
      </trkpt>
      <trkpt lat="47.26897" lon="-1.65655">
        <ele>34.9</ele>
        <time>2013-03-02T08:20:37Z</time>
      </trkpt>
      <trkpt lat="47.26896" lon="-1.65656">
        <ele>34.9</ele>
        <time>2013-03-02T08:20:38Z</time>
      </trkpt>
      <trkpt lat="47.26893" lon="-1.65663">
        <ele>34.2</ele>
        <time>2013-03-02T08:20:42Z</time>
      </trkpt>
      <trkpt lat="47.26893" lon="-1.65665">
        <ele>34.2</ele>
        <time>2013-03-02T08:20:43Z</time>
      </trkpt>
      <trkpt lat="47.26892" lon="-1.65668">
        <ele>34.2</ele>
        <time>2013-03-02T08:20:44Z</time>
      </trkpt>
      <trkpt lat="47.26892" lon="-1.65671">
        <ele>34.5</ele>
        <time>2013-03-02T08:20:45Z</time>
      </trkpt>
      <trkpt lat="47.26892" lon="-1.65673">
        <ele>34.7</ele>
        <time>2013-03-02T08:20:46Z</time>
      </trkpt>
      <trkpt lat="47.26892" lon="-1.65675">
        <ele>35</ele>
        <time>2013-03-02T08:20:47Z</time>
      </trkpt>
      <trkpt lat="47.26891" lon="-1.65676">
        <ele>35.3</ele>
        <time>2013-03-02T08:20:48Z</time>
      </trkpt>
      <trkpt lat="47.26889" lon="-1.65677">
        <ele>35.4</ele>
        <time>2013-03-02T08:20:49Z</time>
      </trkpt>
      <trkpt lat="47.26888" lon="-1.65678">
        <ele>36.1</ele>
        <time>2013-03-02T08:20:50Z</time>
      </trkpt>
      <trkpt lat="47.26887" lon="-1.65679">
        <ele>36.6</ele>
        <time>2013-03-02T08:20:51Z</time>
      </trkpt>
      <trkpt lat="47.26886" lon="-1.6568">
        <ele>36.4</ele>
        <time>2013-03-02T08:20:52Z</time>
      </trkpt>
      <trkpt lat="47.26885" lon="-1.65681">
        <ele>36.4</ele>
        <time>2013-03-02T08:20:53Z</time>
      </trkpt>
      <trkpt lat="47.26885" lon="-1.65683">
        <ele>36.6</ele>
        <time>2013-03-02T08:20:54Z</time>
      </trkpt>
      <trkpt lat="47.2688" lon="-1.65702">
        <ele>37.3</ele>
        <time>2013-03-02T08:21:00Z</time>
      </trkpt>
      <trkpt lat="47.26879" lon="-1.65705">
        <ele>37.5</ele>
        <time>2013-03-02T08:21:01Z</time>
      </trkpt>
      <trkpt lat="47.26879" lon="-1.65712">
        <ele>37.7</ele>
        <time>2013-03-02T08:21:03Z</time>
      </trkpt>
      <trkpt lat="47.26879" lon="-1.65715">
        <ele>37.6</ele>
        <time>2013-03-02T08:21:04Z</time>
      </trkpt>
      <trkpt lat="47.2688" lon="-1.65717">
        <ele>37.5</ele>
        <time>2013-03-02T08:21:05Z</time>
      </trkpt>
      <trkpt lat="47.26881" lon="-1.65719">
        <ele>38.3</ele>
        <time>2013-03-02T08:21:06Z</time>
      </trkpt>
      <trkpt lat="47.26881" lon="-1.6572">
        <ele>38.8</ele>
        <time>2013-03-02T08:21:07Z</time>
      </trkpt>
      <trkpt lat="47.26883" lon="-1.65723">
        <ele>39.2</ele>
        <time>2013-03-02T08:21:09Z</time>
      </trkpt>
      <trkpt lat="47.26886" lon="-1.65725">
        <ele>39.3</ele>
        <time>2013-03-02T08:21:11Z</time>
      </trkpt>
      <trkpt lat="47.26887" lon="-1.65727">
        <ele>39.5</ele>
        <time>2013-03-02T08:21:12Z</time>
      </trkpt>
      <trkpt lat="47.26888" lon="-1.65729">
        <ele>39.9</ele>
        <time>2013-03-02T08:21:13Z</time>
      </trkpt>
      <trkpt lat="47.26889" lon="-1.65731">
        <ele>40.2</ele>
        <time>2013-03-02T08:21:14Z</time>
      </trkpt>
      <trkpt lat="47.2689" lon="-1.65744">
        <ele>41.1</ele>
        <time>2013-03-02T08:21:19Z</time>
      </trkpt>
      <trkpt lat="47.2689" lon="-1.65747">
        <ele>41.2</ele>
        <time>2013-03-02T08:21:20Z</time>
      </trkpt>
      <trkpt lat="47.2689" lon="-1.65752">
        <ele>41.3</ele>
        <time>2013-03-02T08:21:22Z</time>
      </trkpt>
      <trkpt lat="47.26891" lon="-1.65757">
        <ele>41.4</ele>
        <time>2013-03-02T08:21:24Z</time>
      </trkpt>
      <trkpt lat="47.26892" lon="-1.65759">
        <ele>41.7</ele>
        <time>2013-03-02T08:21:25Z</time>
      </trkpt>
      <trkpt lat="47.26893" lon="-1.65762">
        <ele>41.9</ele>
        <time>2013-03-02T08:21:26Z</time>
      </trkpt>
      <trkpt lat="47.26894" lon="-1.65764">
        <ele>42.6</ele>
        <time>2013-03-02T08:21:27Z</time>
      </trkpt>
      <trkpt lat="47.26894" lon="-1.65767">
        <ele>43</ele>
        <time>2013-03-02T08:21:28Z</time>
      </trkpt>
      <trkpt lat="47.26897" lon="-1.65794">
        <ele>43.3</ele>
        <time>2013-03-02T08:21:37Z</time>
      </trkpt>
      <trkpt lat="47.26899" lon="-1.65803">
        <ele>42.7</ele>
        <time>2013-03-02T08:21:41Z</time>
      </trkpt>
      <trkpt lat="47.26899" lon="-1.65807">
        <ele>43.4</ele>
        <time>2013-03-02T08:21:43Z</time>
      </trkpt>
      <trkpt lat="47.26899" lon="-1.65812">
        <ele>44</ele>
        <time>2013-03-02T08:21:45Z</time>
      </trkpt>
      <trkpt lat="47.26899" lon="-1.65822">
        <ele>44.4</ele>
        <time>2013-03-02T08:21:49Z</time>
      </trkpt>
      <trkpt lat="47.269" lon="-1.65825">
        <ele>44.6</ele>
        <time>2013-03-02T08:21:50Z</time>
      </trkpt>
      <trkpt lat="47.269" lon="-1.65828">
        <ele>45</ele>
        <time>2013-03-02T08:21:51Z</time>
      </trkpt>
      <trkpt lat="47.269" lon="-1.65831">
        <ele>45.2</ele>
        <time>2013-03-02T08:21:52Z</time>
      </trkpt>
      <trkpt lat="47.26899" lon="-1.65833">
        <ele>45.4</ele>
        <time>2013-03-02T08:21:53Z</time>
      </trkpt>
      <trkpt lat="47.26896" lon="-1.65842">
        <ele>45.3</ele>
        <time>2013-03-02T08:21:56Z</time>
      </trkpt>
      <trkpt lat="47.26894" lon="-1.65845">
        <ele>45.3</ele>
        <time>2013-03-02T08:21:57Z</time>
      </trkpt>
      <trkpt lat="47.26891" lon="-1.65848">
        <ele>44.7</ele>
        <time>2013-03-02T08:21:58Z</time>
      </trkpt>
      <trkpt lat="47.26888" lon="-1.65851">
        <ele>44.3</ele>
        <time>2013-03-02T08:21:59Z</time>
      </trkpt>
      <trkpt lat="47.26876" lon="-1.65862">
        <ele>44.6</ele>
        <time>2013-03-02T08:22:04Z</time>
      </trkpt>
      <trkpt lat="47.26874" lon="-1.65863">
        <ele>44.2</ele>
        <time>2013-03-02T08:22:05Z</time>
      </trkpt>
      <trkpt lat="47.2687" lon="-1.65865">
        <ele>43.7</ele>
        <time>2013-03-02T08:22:07Z</time>
      </trkpt>
      <trkpt lat="47.26868" lon="-1.65866">
        <ele>43.4</ele>
        <time>2013-03-02T08:22:08Z</time>
      </trkpt>
      <trkpt lat="47.26856" lon="-1.65872">
        <ele>44.7</ele>
        <time>2013-03-02T08:22:14Z</time>
      </trkpt>
      <trkpt lat="47.26849" lon="-1.65874">
        <ele>46.1</ele>
        <time>2013-03-02T08:22:18Z</time>
      </trkpt>
      <trkpt lat="47.26848" lon="-1.65875">
        <ele>46.2</ele>
        <time>2013-03-02T08:22:19Z</time>
      </trkpt>
      <trkpt lat="47.26847" lon="-1.65875">
        <ele>46</ele>
        <time>2013-03-02T08:22:20Z</time>
      </trkpt>
      <trkpt lat="47.26845" lon="-1.65876">
        <ele>45.8</ele>
        <time>2013-03-02T08:22:21Z</time>
      </trkpt>
      <trkpt lat="47.26844" lon="-1.65876">
        <ele>46.1</ele>
        <time>2013-03-02T08:22:22Z</time>
      </trkpt>
      <trkpt lat="47.26842" lon="-1.65877">
        <ele>46.5</ele>
        <time>2013-03-02T08:22:24Z</time>
      </trkpt>
      <trkpt lat="47.2684" lon="-1.65878">
        <ele>46.6</ele>
        <time>2013-03-02T08:22:25Z</time>
      </trkpt>
      <trkpt lat="47.26839" lon="-1.65879">
        <ele>46.6</ele>
        <time>2013-03-02T08:22:26Z</time>
      </trkpt>
      <trkpt lat="47.26837" lon="-1.65879">
        <ele>47</ele>
        <time>2013-03-02T08:22:27Z</time>
      </trkpt>
      <trkpt lat="47.26835" lon="-1.6588">
        <ele>47.2</ele>
        <time>2013-03-02T08:22:28Z</time>
      </trkpt>
      <trkpt lat="47.26828" lon="-1.65881">
        <ele>48</ele>
        <time>2013-03-02T08:22:32Z</time>
      </trkpt>
      <trkpt lat="47.26826" lon="-1.65882">
        <ele>48.1</ele>
        <time>2013-03-02T08:22:33Z</time>
      </trkpt>
      <trkpt lat="47.26825" lon="-1.65883">
        <ele>48.2</ele>
        <time>2013-03-02T08:22:34Z</time>
      </trkpt>
      <trkpt lat="47.26823" lon="-1.65883">
        <ele>48.3</ele>
        <time>2013-03-02T08:22:35Z</time>
      </trkpt>
      <trkpt lat="47.26821" lon="-1.65884">
        <ele>48.7</ele>
        <time>2013-03-02T08:22:36Z</time>
      </trkpt>
      <trkpt lat="47.26818" lon="-1.65884">
        <ele>49.3</ele>
        <time>2013-03-02T08:22:38Z</time>
      </trkpt>
      <trkpt lat="47.26816" lon="-1.65885">
        <ele>49.4</ele>
        <time>2013-03-02T08:22:39Z</time>
      </trkpt>
      <trkpt lat="47.26812" lon="-1.65887">
        <ele>49.5</ele>
        <time>2013-03-02T08:22:41Z</time>
      </trkpt>
      <trkpt lat="47.2681" lon="-1.65887">
        <ele>49.5</ele>
        <time>2013-03-02T08:22:42Z</time>
      </trkpt>
      <trkpt lat="47.26806" lon="-1.65889">
        <ele>49.2</ele>
        <time>2013-03-02T08:22:44Z</time>
      </trkpt>
      <trkpt lat="47.26797" lon="-1.65891">
        <ele>49.9</ele>
        <time>2013-03-02T08:22:48Z</time>
      </trkpt>
      <trkpt lat="47.26777" lon="-1.65896">
        <ele>49.7</ele>
        <time>2013-03-02T08:22:58Z</time>
      </trkpt>
      <trkpt lat="47.26775" lon="-1.65896">
        <ele>49.5</ele>
        <time>2013-03-02T08:22:59Z</time>
      </trkpt>
      <trkpt lat="47.26726" lon="-1.65894">
        <ele>49.3</ele>
        <time>2013-03-02T08:23:16Z</time>
      </trkpt>
      <trkpt lat="47.26723" lon="-1.65895">
        <ele>49.3</ele>
        <time>2013-03-02T08:23:17Z</time>
      </trkpt>
      <trkpt lat="47.26694" lon="-1.65902">
        <ele>48.3</ele>
        <time>2013-03-02T08:23:27Z</time>
      </trkpt>
      <trkpt lat="47.2669" lon="-1.65904">
        <ele>48</ele>
        <time>2013-03-02T08:23:29Z</time>
      </trkpt>
      <trkpt lat="47.26689" lon="-1.65905">
        <ele>47.9</ele>
        <time>2013-03-02T08:23:30Z</time>
      </trkpt>
      <trkpt lat="47.26687" lon="-1.65904">
        <ele>48.8</ele>
        <time>2013-03-02T08:23:36Z</time>
      </trkpt>
      <trkpt lat="47.26687" lon="-1.65904">
        <ele>49.5</ele>
        <time>2013-03-02T08:23:37Z</time>
      </trkpt>
      <trkpt lat="47.26686" lon="-1.65904">
        <ele>49.3</ele>
        <time>2013-03-02T08:23:38Z</time>
      </trkpt>
      <trkpt lat="47.26686" lon="-1.65905">
        <ele>49.1</ele>
        <time>2013-03-02T08:23:39Z</time>
      </trkpt>
      <trkpt lat="47.26675" lon="-1.65916">
        <ele>46</ele>
        <time>2013-03-02T08:24:36Z</time>
      </trkpt>
      <trkpt lat="47.26675" lon="-1.65916">
        <ele>46.8</ele>
        <time>2013-03-02T08:24:37Z</time>
      </trkpt>
      <trkpt lat="47.26672" lon="-1.65921">
        <ele>47.1</ele>
        <time>2013-03-02T08:25:36Z</time>
      </trkpt>
      <trkpt lat="47.26672" lon="-1.6592">
        <ele>47.2</ele>
        <time>2013-03-02T08:25:37Z</time>
      </trkpt>
      <trkpt lat="47.26672" lon="-1.6592">
        <ele>47.2</ele>
        <time>2013-03-02T08:25:38Z</time>
      </trkpt>
      <trkpt lat="47.26672" lon="-1.6592">
        <ele>47.2</ele>
        <time>2013-03-02T08:25:39Z</time>
      </trkpt>
      <trkpt lat="47.26672" lon="-1.6592">
        <ele>47.2</ele>
        <time>2013-03-02T08:25:40Z</time>
      </trkpt>
      <trkpt lat="47.26672" lon="-1.6592">
        <ele>47.4</ele>
        <time>2013-03-02T08:25:41Z</time>
      </trkpt>
      <trkpt lat="47.26672" lon="-1.6592">
        <ele>47.5</ele>
        <time>2013-03-02T08:25:42Z</time>
      </trkpt>
      <trkpt lat="47.26671" lon="-1.6592">
        <ele>47.8</ele>
        <time>2013-03-02T08:25:44Z</time>
      </trkpt>
      <trkpt lat="47.26671" lon="-1.65921">
        <ele>48</ele>
        <time>2013-03-02T08:25:45Z</time>
      </trkpt>
      <trkpt lat="47.2667" lon="-1.65922">
        <ele>48</ele>
        <time>2013-03-02T08:25:46Z</time>
      </trkpt>
      <trkpt lat="47.26669" lon="-1.65922">
        <ele>48.1</ele>
        <time>2013-03-02T08:25:47Z</time>
      </trkpt>
      <trkpt lat="47.26668" lon="-1.65923">
        <ele>48.2</ele>
        <time>2013-03-02T08:25:48Z</time>
      </trkpt>
      <trkpt lat="47.26667" lon="-1.65924">
        <ele>47.8</ele>
        <time>2013-03-02T08:25:49Z</time>
      </trkpt>
      <trkpt lat="47.26666" lon="-1.65925">
        <ele>47.4</ele>
        <time>2013-03-02T08:25:50Z</time>
      </trkpt>
      <trkpt lat="47.26665" lon="-1.65925">
        <ele>47</ele>
        <time>2013-03-02T08:25:51Z</time>
      </trkpt>
      <trkpt lat="47.26663" lon="-1.65926">
        <ele>46.7</ele>
        <time>2013-03-02T08:25:52Z</time>
      </trkpt>
      <trkpt lat="47.26658" lon="-1.65927">
        <ele>46.6</ele>
        <time>2013-03-02T08:25:54Z</time>
      </trkpt>
      <trkpt lat="47.26628" lon="-1.6593">
        <ele>43.6</ele>
        <time>2013-03-02T08:26:02Z</time>
      </trkpt>
      <trkpt lat="47.26623" lon="-1.65932">
        <ele>43.4</ele>
        <time>2013-03-02T08:26:03Z</time>
      </trkpt>
      <trkpt lat="47.26564" lon="-1.65955">
        <ele>35.9</ele>
        <time>2013-03-02T08:26:16Z</time>
      </trkpt>
      <trkpt lat="47.26562" lon="-1.65957">
        <ele>35</ele>
        <time>2013-03-02T08:26:17Z</time>
      </trkpt>
      <trkpt lat="47.26561" lon="-1.65959">
        <ele>34.3</ele>
        <time>2013-03-02T08:26:18Z</time>
      </trkpt>
      <trkpt lat="47.26558" lon="-1.65962">
        <ele>33.2</ele>
        <time>2013-03-02T08:26:20Z</time>
      </trkpt>
      <trkpt lat="47.26558" lon="-1.65964">
        <ele>32.9</ele>
        <time>2013-03-02T08:26:21Z</time>
      </trkpt>
      <trkpt lat="47.26557" lon="-1.65965">
        <ele>32.5</ele>
        <time>2013-03-02T08:26:22Z</time>
      </trkpt>
      <trkpt lat="47.26555" lon="-1.65967">
        <ele>32.2</ele>
        <time>2013-03-02T08:26:23Z</time>
      </trkpt>
      <trkpt lat="47.26554" lon="-1.6597">
        <ele>32</ele>
        <time>2013-03-02T08:26:25Z</time>
      </trkpt>
      <trkpt lat="47.26552" lon="-1.65974">
        <ele>32.4</ele>
        <time>2013-03-02T08:26:27Z</time>
      </trkpt>
      <trkpt lat="47.26551" lon="-1.65977">
        <ele>32.7</ele>
        <time>2013-03-02T08:26:28Z</time>
      </trkpt>
      <trkpt lat="47.26551" lon="-1.65979">
        <ele>32.8</ele>
        <time>2013-03-02T08:26:29Z</time>
      </trkpt>
      <trkpt lat="47.2655" lon="-1.65985">
        <ele>32.7</ele>
        <time>2013-03-02T08:26:31Z</time>
      </trkpt>
      <trkpt lat="47.26549" lon="-1.65992">
        <ele>32.6</ele>
        <time>2013-03-02T08:26:33Z</time>
      </trkpt>
      <trkpt lat="47.26547" lon="-1.66006">
        <ele>32.7</ele>
        <time>2013-03-02T08:26:37Z</time>
      </trkpt>
      <trkpt lat="47.26547" lon="-1.6601">
        <ele>33.1</ele>
        <time>2013-03-02T08:26:38Z</time>
      </trkpt>
      <trkpt lat="47.26548" lon="-1.66013">
        <ele>33.3</ele>
        <time>2013-03-02T08:26:39Z</time>
      </trkpt>
      <trkpt lat="47.26548" lon="-1.66017">
        <ele>33.5</ele>
        <time>2013-03-02T08:26:40Z</time>
      </trkpt>
      <trkpt lat="47.2655" lon="-1.6602">
        <ele>33.2</ele>
        <time>2013-03-02T08:26:41Z</time>
      </trkpt>
      <trkpt lat="47.26551" lon="-1.66023">
        <ele>32.9</ele>
        <time>2013-03-02T08:26:42Z</time>
      </trkpt>
      <trkpt lat="47.26553" lon="-1.66026">
        <ele>33.1</ele>
        <time>2013-03-02T08:26:43Z</time>
      </trkpt>
      <trkpt lat="47.26556" lon="-1.66029">
        <ele>33.3</ele>
        <time>2013-03-02T08:26:44Z</time>
      </trkpt>
      <trkpt lat="47.2656" lon="-1.66032">
        <ele>32.9</ele>
        <time>2013-03-02T08:26:46Z</time>
      </trkpt>
      <trkpt lat="47.26562" lon="-1.66033">
        <ele>32.5</ele>
        <time>2013-03-02T08:26:47Z</time>
      </trkpt>
      <trkpt lat="47.26564" lon="-1.66034">
        <ele>32.2</ele>
        <time>2013-03-02T08:26:48Z</time>
      </trkpt>
      <trkpt lat="47.26589" lon="-1.66043">
        <ele>31.9</ele>
        <time>2013-03-02T08:26:58Z</time>
      </trkpt>
      <trkpt lat="47.26591" lon="-1.66045">
        <ele>31.9</ele>
        <time>2013-03-02T08:26:59Z</time>
      </trkpt>
      <trkpt lat="47.26618" lon="-1.66066">
        <ele>32.3</ele>
        <time>2013-03-02T08:27:09Z</time>
      </trkpt>
      <trkpt lat="47.2662" lon="-1.66068">
        <ele>32.4</ele>
        <time>2013-03-02T08:27:10Z</time>
      </trkpt>
      <trkpt lat="47.26629" lon="-1.66081">
        <ele>32.8</ele>
        <time>2013-03-02T08:27:14Z</time>
      </trkpt>
      <trkpt lat="47.26631" lon="-1.66085">
        <ele>32.8</ele>
        <time>2013-03-02T08:27:15Z</time>
      </trkpt>
      <trkpt lat="47.26632" lon="-1.66089">
        <ele>32.9</ele>
        <time>2013-03-02T08:27:16Z</time>
      </trkpt>
      <trkpt lat="47.26636" lon="-1.66106">
        <ele>32.6</ele>
        <time>2013-03-02T08:27:20Z</time>
      </trkpt>
      <trkpt lat="47.26638" lon="-1.66114">
        <ele>32.5</ele>
        <time>2013-03-02T08:27:22Z</time>
      </trkpt>
      <trkpt lat="47.26639" lon="-1.66128">
        <ele>32.9</ele>
        <time>2013-03-02T08:27:25Z</time>
      </trkpt>
      <trkpt lat="47.26639" lon="-1.6614">
        <ele>33</ele>
        <time>2013-03-02T08:27:28Z</time>
      </trkpt>
      <trkpt lat="47.2664" lon="-1.66143">
        <ele>32.8</ele>
        <time>2013-03-02T08:27:29Z</time>
      </trkpt>
      <trkpt lat="47.26642" lon="-1.66145">
        <ele>32.7</ele>
        <time>2013-03-02T08:27:30Z</time>
      </trkpt>
      <trkpt lat="47.26642" lon="-1.66146">
        <ele>32.8</ele>
        <time>2013-03-02T08:27:31Z</time>
      </trkpt>
      <trkpt lat="47.26642" lon="-1.66147">
        <ele>33.3</ele>
        <time>2013-03-02T08:27:33Z</time>
      </trkpt>
      <trkpt lat="47.26642" lon="-1.66147">
        <ele>33.7</ele>
        <time>2013-03-02T08:27:34Z</time>
      </trkpt>
      <trkpt lat="47.26643" lon="-1.66148">
        <ele>33.5</ele>
        <time>2013-03-02T08:27:35Z</time>
      </trkpt>
      <trkpt lat="47.26643" lon="-1.66149">
        <ele>33.4</ele>
        <time>2013-03-02T08:27:36Z</time>
      </trkpt>
      <trkpt lat="47.26644" lon="-1.66149">
        <ele>33.3</ele>
        <time>2013-03-02T08:27:37Z</time>
      </trkpt>
      <trkpt lat="47.26644" lon="-1.6615">
        <ele>33.1</ele>
        <time>2013-03-02T08:27:38Z</time>
      </trkpt>
      <trkpt lat="47.26644" lon="-1.6615">
        <ele>33</ele>
        <time>2013-03-02T08:27:39Z</time>
      </trkpt>
      <trkpt lat="47.26644" lon="-1.66151">
        <ele>33.2</ele>
        <time>2013-03-02T08:27:40Z</time>
      </trkpt>
      <trkpt lat="47.26644" lon="-1.66152">
        <ele>33.3</ele>
        <time>2013-03-02T08:27:41Z</time>
      </trkpt>
      <trkpt lat="47.26645" lon="-1.66152">
        <ele>33.6</ele>
        <time>2013-03-02T08:27:42Z</time>
      </trkpt>
      <trkpt lat="47.26645" lon="-1.66152">
        <ele>33.8</ele>
        <time>2013-03-02T08:27:43Z</time>
      </trkpt>
      <trkpt lat="47.26645" lon="-1.66152">
        <ele>34</ele>
        <time>2013-03-02T08:27:44Z</time>
      </trkpt>
      <trkpt lat="47.26646" lon="-1.66151">
        <ele>34</ele>
        <time>2013-03-02T08:27:45Z</time>
      </trkpt>
      <trkpt lat="47.26646" lon="-1.66152">
        <ele>34</ele>
        <time>2013-03-02T08:27:46Z</time>
      </trkpt>
      <trkpt lat="47.26646" lon="-1.66152">
        <ele>33.6</ele>
        <time>2013-03-02T08:27:47Z</time>
      </trkpt>
      <trkpt lat="47.26646" lon="-1.66152">
        <ele>33.2</ele>
        <time>2013-03-02T08:27:48Z</time>
      </trkpt>
      <trkpt lat="47.26646" lon="-1.66152">
        <ele>33</ele>
        <time>2013-03-02T08:27:49Z</time>
      </trkpt>
      <trkpt lat="47.26646" lon="-1.66152">
        <ele>33.3</ele>
        <time>2013-03-02T08:27:50Z</time>
      </trkpt>
      <trkpt lat="47.26646" lon="-1.66152">
        <ele>33.5</ele>
        <time>2013-03-02T08:27:51Z</time>
      </trkpt>
      <trkpt lat="47.26646" lon="-1.66152">
        <ele>33.5</ele>
        <time>2013-03-02T08:27:52Z</time>
      </trkpt>
      <trkpt lat="47.26646" lon="-1.66152">
        <ele>33.5</ele>
        <time>2013-03-02T08:27:53Z</time>
      </trkpt>
      <trkpt lat="47.26646" lon="-1.66152">
        <ele>33.6</ele>
        <time>2013-03-02T08:27:54Z</time>
      </trkpt>
      <trkpt lat="47.26646" lon="-1.66152">
        <ele>33.7</ele>
        <time>2013-03-02T08:27:55Z</time>
      </trkpt>
      <trkpt lat="47.26646" lon="-1.66152">
        <ele>33.7</ele>
        <time>2013-03-02T08:27:56Z</time>
      </trkpt>
      <trkpt lat="47.26646" lon="-1.66152">
        <ele>33.8</ele>
        <time>2013-03-02T08:27:57Z</time>
      </trkpt>
      <trkpt lat="47.26646" lon="-1.66152">
        <ele>33.8</ele>
        <time>2013-03-02T08:27:58Z</time>
      </trkpt>
      <trkpt lat="47.26646" lon="-1.66152">
        <ele>33.6</ele>
        <time>2013-03-02T08:27:59Z</time>
      </trkpt>
      <trkpt lat="47.26646" lon="-1.66152">
        <ele>33.3</ele>
        <time>2013-03-02T08:28:00Z</time>
      </trkpt>
      <trkpt lat="47.26646" lon="-1.66152">
        <ele>33.4</ele>
        <time>2013-03-02T08:28:01Z</time>
      </trkpt>
      <trkpt lat="47.26646" lon="-1.66152">
        <ele>33.5</ele>
        <time>2013-03-02T08:28:02Z</time>
      </trkpt>
      <trkpt lat="47.26646" lon="-1.66151">
        <ele>33.5</ele>
        <time>2013-03-02T08:28:04Z</time>
      </trkpt>
      <trkpt lat="47.26646" lon="-1.66151">
        <ele>33.7</ele>
        <time>2013-03-02T08:28:06Z</time>
      </trkpt>
      <trkpt lat="47.26645" lon="-1.66151">
        <ele>33.9</ele>
        <time>2013-03-02T08:28:07Z</time>
      </trkpt>
      <trkpt lat="47.26646" lon="-1.66151">
        <ele>34</ele>
        <time>2013-03-02T08:28:08Z</time>
      </trkpt>
      <trkpt lat="47.26646" lon="-1.66151">
        <ele>34.1</ele>
        <time>2013-03-02T08:28:09Z</time>
      </trkpt>
      <trkpt lat="47.26646" lon="-1.66151">
        <ele>34.1</ele>
        <time>2013-03-02T08:28:10Z</time>
      </trkpt>
      <trkpt lat="47.26645" lon="-1.66151">
        <ele>34.2</ele>
        <time>2013-03-02T08:28:11Z</time>
      </trkpt>
      <trkpt lat="47.26645" lon="-1.6615">
        <ele>34.3</ele>
        <time>2013-03-02T08:28:12Z</time>
      </trkpt>
      <trkpt lat="47.26645" lon="-1.6615">
        <ele>34.2</ele>
        <time>2013-03-02T08:28:13Z</time>
      </trkpt>
      <trkpt lat="47.26645" lon="-1.6615">
        <ele>34.2</ele>
        <time>2013-03-02T08:28:14Z</time>
      </trkpt>
      <trkpt lat="47.26645" lon="-1.6615">
        <ele>34.2</ele>
        <time>2013-03-02T08:28:15Z</time>
      </trkpt>
      <trkpt lat="47.26645" lon="-1.6615">
        <ele>34</ele>
        <time>2013-03-02T08:28:16Z</time>
      </trkpt>
      <trkpt lat="47.26645" lon="-1.6615">
        <ele>33.9</ele>
        <time>2013-03-02T08:28:17Z</time>
      </trkpt>
      <trkpt lat="47.26646" lon="-1.6615">
        <ele>33.7</ele>
        <time>2013-03-02T08:28:18Z</time>
      </trkpt>
      <trkpt lat="47.26646" lon="-1.6615">
        <ele>33.6</ele>
        <time>2013-03-02T08:28:19Z</time>
      </trkpt>
      <trkpt lat="47.26646" lon="-1.66149">
        <ele>33.6</ele>
        <time>2013-03-02T08:28:20Z</time>
      </trkpt>
      <trkpt lat="47.26646" lon="-1.66149">
        <ele>33.6</ele>
        <time>2013-03-02T08:28:21Z</time>
      </trkpt>
      <trkpt lat="47.26646" lon="-1.66149">
        <ele>33.6</ele>
        <time>2013-03-02T08:28:22Z</time>
      </trkpt>
      <trkpt lat="47.26646" lon="-1.66149">
        <ele>33.7</ele>
        <time>2013-03-02T08:28:23Z</time>
      </trkpt>
      <trkpt lat="47.26646" lon="-1.66147">
        <ele>33.5</ele>
        <time>2013-03-02T08:28:40Z</time>
      </trkpt>
      <trkpt lat="47.26646" lon="-1.66147">
        <ele>33.6</ele>
        <time>2013-03-02T08:28:41Z</time>
      </trkpt>
      <trkpt lat="47.26646" lon="-1.66147">
        <ele>33.7</ele>
        <time>2013-03-02T08:28:42Z</time>
      </trkpt>
      <trkpt lat="47.26646" lon="-1.66147">
        <ele>33.8</ele>
        <time>2013-03-02T08:28:43Z</time>
      </trkpt>
      <trkpt lat="47.26646" lon="-1.66147">
        <ele>33.6</ele>
        <time>2013-03-02T08:28:44Z</time>
      </trkpt>
      <trkpt lat="47.26646" lon="-1.66147">
        <ele>33.5</ele>
        <time>2013-03-02T08:28:45Z</time>
      </trkpt>
      <trkpt lat="47.26646" lon="-1.66147">
        <ele>33.5</ele>
        <time>2013-03-02T08:28:46Z</time>
      </trkpt>
      <trkpt lat="47.26646" lon="-1.66147">
        <ele>33.6</ele>
        <time>2013-03-02T08:28:47Z</time>
      </trkpt>
      <trkpt lat="47.26646" lon="-1.66147">
        <ele>33.7</ele>
        <time>2013-03-02T08:28:48Z</time>
      </trkpt>
      <trkpt lat="47.26646" lon="-1.66147">
        <ele>33.7</ele>
        <time>2013-03-02T08:28:49Z</time>
      </trkpt>
      <trkpt lat="47.26646" lon="-1.66147">
        <ele>33.7</ele>
        <time>2013-03-02T08:28:50Z</time>
      </trkpt>
      <trkpt lat="47.26646" lon="-1.66147">
        <ele>34</ele>
        <time>2013-03-02T08:28:51Z</time>
      </trkpt>
      <trkpt lat="47.26646" lon="-1.66147">
        <ele>34.3</ele>
        <time>2013-03-02T08:28:52Z</time>
      </trkpt>
      <trkpt lat="47.26646" lon="-1.66147">
        <ele>34.5</ele>
        <time>2013-03-02T08:28:53Z</time>
      </trkpt>
      <trkpt lat="47.26647" lon="-1.66147">
        <ele>34</ele>
        <time>2013-03-02T08:28:54Z</time>
      </trkpt>
      <trkpt lat="47.26647" lon="-1.66147">
        <ele>33.6</ele>
        <time>2013-03-02T08:28:55Z</time>
      </trkpt>
      <trkpt lat="47.26647" lon="-1.66147">
        <ele>33.7</ele>
        <time>2013-03-02T08:28:56Z</time>
      </trkpt>
      <trkpt lat="47.26647" lon="-1.66147">
        <ele>33.8</ele>
        <time>2013-03-02T08:28:57Z</time>
      </trkpt>
      <trkpt lat="47.26647" lon="-1.66147">
        <ele>33.7</ele>
        <time>2013-03-02T08:28:58Z</time>
      </trkpt>
      <trkpt lat="47.26647" lon="-1.66147">
        <ele>33.5</ele>
        <time>2013-03-02T08:28:59Z</time>
      </trkpt>
      <trkpt lat="47.26647" lon="-1.66147">
        <ele>33.4</ele>
        <time>2013-03-02T08:29:00Z</time>
      </trkpt>
      <trkpt lat="47.26647" lon="-1.66147">
        <ele>33.7</ele>
        <time>2013-03-02T08:29:01Z</time>
      </trkpt>
      <trkpt lat="47.26648" lon="-1.66147">
        <ele>33.9</ele>
        <time>2013-03-02T08:29:02Z</time>
      </trkpt>
      <trkpt lat="47.26648" lon="-1.66147">
        <ele>34</ele>
        <time>2013-03-02T08:29:03Z</time>
      </trkpt>
      <trkpt lat="47.26649" lon="-1.66148">
        <ele>34</ele>
        <time>2013-03-02T08:29:04Z</time>
      </trkpt>
      <trkpt lat="47.2665" lon="-1.66148">
        <ele>34.1</ele>
        <time>2013-03-02T08:29:05Z</time>
      </trkpt>
      <trkpt lat="47.26651" lon="-1.66148">
        <ele>34</ele>
        <time>2013-03-02T08:29:06Z</time>
      </trkpt>
      <trkpt lat="47.26653" lon="-1.66148">
        <ele>34</ele>
        <time>2013-03-02T08:29:07Z</time>
      </trkpt>
      <trkpt lat="47.26654" lon="-1.6615">
        <ele>33.8</ele>
        <time>2013-03-02T08:29:08Z</time>
      </trkpt>
      <trkpt lat="47.26655" lon="-1.66151">
        <ele>33.7</ele>
        <time>2013-03-02T08:29:09Z</time>
      </trkpt>
      <trkpt lat="47.26656" lon="-1.66152">
        <ele>34.2</ele>
        <time>2013-03-02T08:29:10Z</time>
      </trkpt>
      <trkpt lat="47.26659" lon="-1.66155">
        <ele>34.9</ele>
        <time>2013-03-02T08:29:13Z</time>
      </trkpt>
      <trkpt lat="47.2666" lon="-1.66157">
        <ele>35</ele>
        <time>2013-03-02T08:29:14Z</time>
      </trkpt>
      <trkpt lat="47.26661" lon="-1.66159">
        <ele>35.5</ele>
        <time>2013-03-02T08:29:15Z</time>
      </trkpt>
      <trkpt lat="47.26663" lon="-1.6616">
        <ele>35.8</ele>
        <time>2013-03-02T08:29:16Z</time>
      </trkpt>
      <trkpt lat="47.26664" lon="-1.66162">
        <ele>36.4</ele>
        <time>2013-03-02T08:29:17Z</time>
      </trkpt>
      <trkpt lat="47.26666" lon="-1.66164">
        <ele>36.8</ele>
        <time>2013-03-02T08:29:18Z</time>
      </trkpt>
      <trkpt lat="47.26666" lon="-1.66167">
        <ele>37</ele>
        <time>2013-03-02T08:29:19Z</time>
      </trkpt>
      <trkpt lat="47.26667" lon="-1.6617">
        <ele>37.5</ele>
        <time>2013-03-02T08:29:20Z</time>
      </trkpt>
      <trkpt lat="47.26668" lon="-1.66176">
        <ele>38.5</ele>
        <time>2013-03-02T08:29:22Z</time>
      </trkpt>
      <trkpt lat="47.26669" lon="-1.6619">
        <ele>39.1</ele>
        <time>2013-03-02T08:29:26Z</time>
      </trkpt>
      <trkpt lat="47.26674" lon="-1.66215">
        <ele>40</ele>
        <time>2013-03-02T08:29:33Z</time>
      </trkpt>
      <trkpt lat="47.26675" lon="-1.66223">
        <ele>40</ele>
        <time>2013-03-02T08:29:35Z</time>
      </trkpt>
      <trkpt lat="47.26677" lon="-1.66239">
        <ele>40.3</ele>
        <time>2013-03-02T08:29:40Z</time>
      </trkpt>
      <trkpt lat="47.26678" lon="-1.66242">
        <ele>40.3</ele>
        <time>2013-03-02T08:29:41Z</time>
      </trkpt>
      <trkpt lat="47.2668" lon="-1.66244">
        <ele>40.2</ele>
        <time>2013-03-02T08:29:42Z</time>
      </trkpt>
      <trkpt lat="47.26682" lon="-1.66246">
        <ele>40.2</ele>
        <time>2013-03-02T08:29:43Z</time>
      </trkpt>
      <trkpt lat="47.26692" lon="-1.66253">
        <ele>43.3</ele>
        <time>2013-03-02T08:29:50Z</time>
      </trkpt>
      <trkpt lat="47.26693" lon="-1.66253">
        <ele>43.7</ele>
        <time>2013-03-02T08:29:51Z</time>
      </trkpt>
      <trkpt lat="47.26696" lon="-1.66255">
        <ele>44.5</ele>
        <time>2013-03-02T08:29:56Z</time>
      </trkpt>
      <trkpt lat="47.26696" lon="-1.66255">
        <ele>44.3</ele>
        <time>2013-03-02T08:29:57Z</time>
      </trkpt>
      <trkpt lat="47.26697" lon="-1.66256">
        <ele>45.3</ele>
        <time>2013-03-02T08:29:58Z</time>
      </trkpt>
      <trkpt lat="47.26697" lon="-1.66256">
        <ele>46</ele>
        <time>2013-03-02T08:29:59Z</time>
      </trkpt>
      <trkpt lat="47.26698" lon="-1.66257">
        <ele>45.7</ele>
        <time>2013-03-02T08:30:00Z</time>
      </trkpt>
      <trkpt lat="47.26698" lon="-1.66258">
        <ele>45.5</ele>
        <time>2013-03-02T08:30:01Z</time>
      </trkpt>
      <trkpt lat="47.267" lon="-1.6626">
        <ele>45.3</ele>
        <time>2013-03-02T08:30:03Z</time>
      </trkpt>
      <trkpt lat="47.26702" lon="-1.66262">
        <ele>45.3</ele>
        <time>2013-03-02T08:30:04Z</time>
      </trkpt>
      <trkpt lat="47.26703" lon="-1.66262">
        <ele>45.3</ele>
        <time>2013-03-02T08:30:05Z</time>
      </trkpt>
      <trkpt lat="47.26708" lon="-1.66265">
        <ele>46</ele>
        <time>2013-03-02T08:30:08Z</time>
      </trkpt>
      <trkpt lat="47.26712" lon="-1.66267">
        <ele>46.7</ele>
        <time>2013-03-02T08:30:10Z</time>
      </trkpt>
      <trkpt lat="47.26714" lon="-1.66269">
        <ele>47.1</ele>
        <time>2013-03-02T08:30:11Z</time>
      </trkpt>
      <trkpt lat="47.26716" lon="-1.6627">
        <ele>47</ele>
        <time>2013-03-02T08:30:12Z</time>
      </trkpt>
      <trkpt lat="47.26727" lon="-1.66279">
        <ele>47.7</ele>
        <time>2013-03-02T08:30:18Z</time>
      </trkpt>
      <trkpt lat="47.26728" lon="-1.66282">
        <ele>47.9</ele>
        <time>2013-03-02T08:30:19Z</time>
      </trkpt>
      <trkpt lat="47.26732" lon="-1.66291">
        <ele>49</ele>
        <time>2013-03-02T08:30:22Z</time>
      </trkpt>
      <trkpt lat="47.26732" lon="-1.66293">
        <ele>49.2</ele>
        <time>2013-03-02T08:30:23Z</time>
      </trkpt>
      <trkpt lat="47.26734" lon="-1.66295">
        <ele>49.5</ele>
        <time>2013-03-02T08:30:24Z</time>
      </trkpt>
      <trkpt lat="47.26736" lon="-1.66298">
        <ele>49.7</ele>
        <time>2013-03-02T08:30:25Z</time>
      </trkpt>
      <trkpt lat="47.26737" lon="-1.663">
        <ele>50.1</ele>
        <time>2013-03-02T08:30:26Z</time>
      </trkpt>
      <trkpt lat="47.26739" lon="-1.66303">
        <ele>50.3</ele>
        <time>2013-03-02T08:30:27Z</time>
      </trkpt>
      <trkpt lat="47.2674" lon="-1.66306">
        <ele>50.5</ele>
        <time>2013-03-02T08:30:28Z</time>
      </trkpt>
      <trkpt lat="47.26742" lon="-1.66308">
        <ele>50.7</ele>
        <time>2013-03-02T08:30:29Z</time>
      </trkpt>
      <trkpt lat="47.26745" lon="-1.66309">
        <ele>50.8</ele>
        <time>2013-03-02T08:30:30Z</time>
      </trkpt>
      <trkpt lat="47.26747" lon="-1.6631">
        <ele>51.1</ele>
        <time>2013-03-02T08:30:31Z</time>
      </trkpt>
      <trkpt lat="47.26749" lon="-1.66311">
        <ele>51.3</ele>
        <time>2013-03-02T08:30:32Z</time>
      </trkpt>
      <trkpt lat="47.26752" lon="-1.66313">
        <ele>51.5</ele>
        <time>2013-03-02T08:30:33Z</time>
      </trkpt>
      <trkpt lat="47.2677" lon="-1.66326">
        <ele>52.2</ele>
        <time>2013-03-02T08:30:41Z</time>
      </trkpt>
      <trkpt lat="47.26771" lon="-1.66327">
        <ele>52.5</ele>
        <time>2013-03-02T08:30:42Z</time>
      </trkpt>
      <trkpt lat="47.26773" lon="-1.66328">
        <ele>52.7</ele>
        <time>2013-03-02T08:30:43Z</time>
      </trkpt>
      <trkpt lat="47.26776" lon="-1.66329">
        <ele>52.9</ele>
        <time>2013-03-02T08:30:45Z</time>
      </trkpt>
      <trkpt lat="47.26784" lon="-1.66334">
        <ele>53.6</ele>
        <time>2013-03-02T08:30:49Z</time>
      </trkpt>
      <trkpt lat="47.2679" lon="-1.66338">
        <ele>53.3</ele>
        <time>2013-03-02T08:30:52Z</time>
      </trkpt>
      <trkpt lat="47.26796" lon="-1.66341">
        <ele>53.6</ele>
        <time>2013-03-02T08:30:55Z</time>
      </trkpt>
      <trkpt lat="47.26798" lon="-1.66342">
        <ele>53.8</ele>
        <time>2013-03-02T08:30:56Z</time>
      </trkpt>
      <trkpt lat="47.26803" lon="-1.66344">
        <ele>55</ele>
        <time>2013-03-02T08:30:59Z</time>
      </trkpt>
      <trkpt lat="47.26805" lon="-1.66345">
        <ele>55.4</ele>
        <time>2013-03-02T08:31:00Z</time>
      </trkpt>
      <trkpt lat="47.26806" lon="-1.66346">
        <ele>55.7</ele>
        <time>2013-03-02T08:31:01Z</time>
      </trkpt>
      <trkpt lat="47.26811" lon="-1.6635">
        <ele>55.2</ele>
        <time>2013-03-02T08:31:05Z</time>
      </trkpt>
      <trkpt lat="47.26812" lon="-1.6635">
        <ele>55.1</ele>
        <time>2013-03-02T08:31:06Z</time>
      </trkpt>
      <trkpt lat="47.26814" lon="-1.6635">
        <ele>55.6</ele>
        <time>2013-03-02T08:31:07Z</time>
      </trkpt>
      <trkpt lat="47.26815" lon="-1.6635">
        <ele>56</ele>
        <time>2013-03-02T08:31:08Z</time>
      </trkpt>
      <trkpt lat="47.26816" lon="-1.6635">
        <ele>56</ele>
        <time>2013-03-02T08:31:09Z</time>
      </trkpt>
      <trkpt lat="47.26817" lon="-1.66351">
        <ele>56.1</ele>
        <time>2013-03-02T08:31:10Z</time>
      </trkpt>
      <trkpt lat="47.26823" lon="-1.66354">
        <ele>56.2</ele>
        <time>2013-03-02T08:31:14Z</time>
      </trkpt>
      <trkpt lat="47.26825" lon="-1.66355">
        <ele>56</ele>
        <time>2013-03-02T08:31:15Z</time>
      </trkpt>
      <trkpt lat="47.2683" lon="-1.66356">
        <ele>56.4</ele>
        <time>2013-03-02T08:31:18Z</time>
      </trkpt>
      <trkpt lat="47.26831" lon="-1.66356">
        <ele>56.7</ele>
        <time>2013-03-02T08:31:19Z</time>
      </trkpt>
      <trkpt lat="47.26833" lon="-1.66357">
        <ele>56.8</ele>
        <time>2013-03-02T08:31:20Z</time>
      </trkpt>
      <trkpt lat="47.26834" lon="-1.66357">
        <ele>57.1</ele>
        <time>2013-03-02T08:31:21Z</time>
      </trkpt>
      <trkpt lat="47.26836" lon="-1.66358">
        <ele>57.2</ele>
        <time>2013-03-02T08:31:22Z</time>
      </trkpt>
      <trkpt lat="47.26839" lon="-1.6636">
        <ele>56.9</ele>
        <time>2013-03-02T08:31:24Z</time>
      </trkpt>
      <trkpt lat="47.26845" lon="-1.66361">
        <ele>57.3</ele>
        <time>2013-03-02T08:31:27Z</time>
      </trkpt>
      <trkpt lat="47.26848" lon="-1.66362">
        <ele>57.6</ele>
        <time>2013-03-02T08:31:29Z</time>
      </trkpt>
      <trkpt lat="47.26855" lon="-1.66366">
        <ele>57.7</ele>
        <time>2013-03-02T08:31:33Z</time>
      </trkpt>
      <trkpt lat="47.26862" lon="-1.66369">
        <ele>57.9</ele>
        <time>2013-03-02T08:31:37Z</time>
      </trkpt>
      <trkpt lat="47.26864" lon="-1.66371">
        <ele>58</ele>
        <time>2013-03-02T08:31:38Z</time>
      </trkpt>
      <trkpt lat="47.26869" lon="-1.66375">
        <ele>58.4</ele>
        <time>2013-03-02T08:31:41Z</time>
      </trkpt>
      <trkpt lat="47.2687" lon="-1.66377">
        <ele>58.3</ele>
        <time>2013-03-02T08:31:42Z</time>
      </trkpt>
      <trkpt lat="47.26871" lon="-1.6638">
        <ele>58.2</ele>
        <time>2013-03-02T08:31:43Z</time>
      </trkpt>
      <trkpt lat="47.26873" lon="-1.66382">
        <ele>58.1</ele>
        <time>2013-03-02T08:31:44Z</time>
      </trkpt>
      <trkpt lat="47.26876" lon="-1.66388">
        <ele>58.3</ele>
        <time>2013-03-02T08:31:46Z</time>
      </trkpt>
      <trkpt lat="47.26882" lon="-1.66396">
        <ele>58.2</ele>
        <time>2013-03-02T08:31:49Z</time>
      </trkpt>
      <trkpt lat="47.26884" lon="-1.66398">
        <ele>58.4</ele>
        <time>2013-03-02T08:31:50Z</time>
      </trkpt>
      <trkpt lat="47.26886" lon="-1.66401">
        <ele>58.5</ele>
        <time>2013-03-02T08:31:51Z</time>
      </trkpt>
      <trkpt lat="47.26888" lon="-1.66405">
        <ele>58.5</ele>
        <time>2013-03-02T08:31:52Z</time>
      </trkpt>
      <trkpt lat="47.26892" lon="-1.66416">
        <ele>59</ele>
        <time>2013-03-02T08:31:55Z</time>
      </trkpt>
      <trkpt lat="47.26893" lon="-1.6642">
        <ele>58.9</ele>
        <time>2013-03-02T08:31:56Z</time>
      </trkpt>
      <trkpt lat="47.26894" lon="-1.66425">
        <ele>58.8</ele>
        <time>2013-03-02T08:31:57Z</time>
      </trkpt>
      <trkpt lat="47.26902" lon="-1.66477">
        <ele>58.3</ele>
        <time>2013-03-02T08:32:08Z</time>
      </trkpt>
      <trkpt lat="47.26903" lon="-1.66482">
        <ele>58.4</ele>
        <time>2013-03-02T08:32:09Z</time>
      </trkpt>
      <trkpt lat="47.26905" lon="-1.66486">
        <ele>58.5</ele>
        <time>2013-03-02T08:32:10Z</time>
      </trkpt>
      <trkpt lat="47.26909" lon="-1.66494">
        <ele>58.2</ele>
        <time>2013-03-02T08:32:12Z</time>
      </trkpt>
      <trkpt lat="47.26911" lon="-1.66497">
        <ele>57.9</ele>
        <time>2013-03-02T08:32:13Z</time>
      </trkpt>
      <trkpt lat="47.26914" lon="-1.66501">
        <ele>57.7</ele>
        <time>2013-03-02T08:32:14Z</time>
      </trkpt>
      <trkpt lat="47.26917" lon="-1.66503">
        <ele>58</ele>
        <time>2013-03-02T08:32:15Z</time>
      </trkpt>
      <trkpt lat="47.2692" lon="-1.66505">
        <ele>58.2</ele>
        <time>2013-03-02T08:32:16Z</time>
      </trkpt>
      <trkpt lat="47.26923" lon="-1.66506">
        <ele>58.4</ele>
        <time>2013-03-02T08:32:17Z</time>
      </trkpt>
      <trkpt lat="47.26927" lon="-1.66507">
        <ele>57.9</ele>
        <time>2013-03-02T08:32:18Z</time>
      </trkpt>
      <trkpt lat="47.26943" lon="-1.66508">
        <ele>57.9</ele>
        <time>2013-03-02T08:32:23Z</time>
      </trkpt>
      <trkpt lat="47.26947" lon="-1.66508">
        <ele>58.3</ele>
        <time>2013-03-02T08:32:24Z</time>
      </trkpt>
      <trkpt lat="47.27004" lon="-1.66506">
        <ele>56.9</ele>
        <time>2013-03-02T08:32:41Z</time>
      </trkpt>
      <trkpt lat="47.2701" lon="-1.66507">
        <ele>58</ele>
        <time>2013-03-02T08:32:43Z</time>
      </trkpt>
      <trkpt lat="47.27013" lon="-1.66507">
        <ele>58</ele>
        <time>2013-03-02T08:32:44Z</time>
      </trkpt>
      <trkpt lat="47.27016" lon="-1.66507">
        <ele>57.9</ele>
        <time>2013-03-02T08:32:45Z</time>
      </trkpt>
      <trkpt lat="47.27024" lon="-1.66509">
        <ele>58.5</ele>
        <time>2013-03-02T08:32:48Z</time>
      </trkpt>
      <trkpt lat="47.27032" lon="-1.66512">
        <ele>59.3</ele>
        <time>2013-03-02T08:32:51Z</time>
      </trkpt>
      <trkpt lat="47.271" lon="-1.66552">
        <ele>61</ele>
        <time>2013-03-02T08:33:14Z</time>
      </trkpt>
      <trkpt lat="47.27114" lon="-1.66561">
        <ele>60.2</ele>
        <time>2013-03-02T08:33:19Z</time>
      </trkpt>
      <trkpt lat="47.27188" lon="-1.66615">
        <ele>63.2</ele>
        <time>2013-03-02T08:33:48Z</time>
      </trkpt>
      <trkpt lat="47.27191" lon="-1.66616">
        <ele>63.2</ele>
        <time>2013-03-02T08:33:49Z</time>
      </trkpt>
      <trkpt lat="47.27215" lon="-1.66627">
        <ele>64.4</ele>
        <time>2013-03-02T08:34:00Z</time>
      </trkpt>
      <trkpt lat="47.27227" lon="-1.66631">
        <ele>64.6</ele>
        <time>2013-03-02T08:34:06Z</time>
      </trkpt>
      <trkpt lat="47.27243" lon="-1.66637">
        <ele>65.2</ele>
        <time>2013-03-02T08:34:14Z</time>
      </trkpt>
      <trkpt lat="47.2725" lon="-1.66638">
        <ele>66.6</ele>
        <time>2013-03-02T08:34:17Z</time>
      </trkpt>
      <trkpt lat="47.27277" lon="-1.66642">
        <ele>66.7</ele>
        <time>2013-03-02T08:34:29Z</time>
      </trkpt>
      <trkpt lat="47.27279" lon="-1.66642">
        <ele>66.7</ele>
        <time>2013-03-02T08:34:30Z</time>
      </trkpt>
      <trkpt lat="47.27282" lon="-1.66642">
        <ele>66.3</ele>
        <time>2013-03-02T08:34:31Z</time>
      </trkpt>
      <trkpt lat="47.27285" lon="-1.66642">
        <ele>66</ele>
        <time>2013-03-02T08:34:32Z</time>
      </trkpt>
      <trkpt lat="47.27293" lon="-1.66644">
        <ele>66</ele>
        <time>2013-03-02T08:34:35Z</time>
      </trkpt>
      <trkpt lat="47.27297" lon="-1.66645">
        <ele>66.6</ele>
        <time>2013-03-02T08:34:37Z</time>
      </trkpt>
      <trkpt lat="47.27299" lon="-1.66646">
        <ele>66.4</ele>
        <time>2013-03-02T08:34:38Z</time>
      </trkpt>
      <trkpt lat="47.27307" lon="-1.66648">
        <ele>66.5</ele>
        <time>2013-03-02T08:34:41Z</time>
      </trkpt>
      <trkpt lat="47.27313" lon="-1.66648">
        <ele>66.7</ele>
        <time>2013-03-02T08:34:43Z</time>
      </trkpt>
      <trkpt lat="47.27344" lon="-1.66651">
        <ele>66.4</ele>
        <time>2013-03-02T08:34:53Z</time>
      </trkpt>
      <trkpt lat="47.27347" lon="-1.66651">
        <ele>66.5</ele>
        <time>2013-03-02T08:34:54Z</time>
      </trkpt>
      <trkpt lat="47.27353" lon="-1.66652">
        <ele>66.7</ele>
        <time>2013-03-02T08:34:56Z</time>
      </trkpt>
      <trkpt lat="47.27391" lon="-1.6665">
        <ele>66.5</ele>
        <time>2013-03-02T08:35:09Z</time>
      </trkpt>
      <trkpt lat="47.27394" lon="-1.6665">
        <ele>66.6</ele>
        <time>2013-03-02T08:35:10Z</time>
      </trkpt>
      <trkpt lat="47.27403" lon="-1.66651">
        <ele>66.6</ele>
        <time>2013-03-02T08:35:13Z</time>
      </trkpt>
      <trkpt lat="47.27406" lon="-1.66652">
        <ele>66.4</ele>
        <time>2013-03-02T08:35:14Z</time>
      </trkpt>
      <trkpt lat="47.27409" lon="-1.66653">
        <ele>66.3</ele>
        <time>2013-03-02T08:35:15Z</time>
      </trkpt>
      <trkpt lat="47.27412" lon="-1.66654">
        <ele>66</ele>
        <time>2013-03-02T08:35:16Z</time>
      </trkpt>
      <trkpt lat="47.27415" lon="-1.66656">
        <ele>65.7</ele>
        <time>2013-03-02T08:35:17Z</time>
      </trkpt>
      <trkpt lat="47.27417" lon="-1.66659">
        <ele>65.7</ele>
        <time>2013-03-02T08:35:18Z</time>
      </trkpt>
      <trkpt lat="47.27419" lon="-1.66662">
        <ele>65.7</ele>
        <time>2013-03-02T08:35:19Z</time>
      </trkpt>
      <trkpt lat="47.27427" lon="-1.66674">
        <ele>65.8</ele>
        <time>2013-03-02T08:35:23Z</time>
      </trkpt>
      <trkpt lat="47.27429" lon="-1.66677">
        <ele>65.9</ele>
        <time>2013-03-02T08:35:24Z</time>
      </trkpt>
      <trkpt lat="47.27435" lon="-1.66682">
        <ele>65.8</ele>
        <time>2013-03-02T08:35:26Z</time>
      </trkpt>
      <trkpt lat="47.27438" lon="-1.66684">
        <ele>65.7</ele>
        <time>2013-03-02T08:35:27Z</time>
      </trkpt>
      <trkpt lat="47.2744" lon="-1.66685">
        <ele>65.9</ele>
        <time>2013-03-02T08:35:28Z</time>
      </trkpt>
      <trkpt lat="47.27446" lon="-1.66687">
        <ele>66</ele>
        <time>2013-03-02T08:35:30Z</time>
      </trkpt>
      <trkpt lat="47.27455" lon="-1.66689">
        <ele>65.7</ele>
        <time>2013-03-02T08:35:33Z</time>
      </trkpt>
      <trkpt lat="47.27458" lon="-1.66689">
        <ele>65.6</ele>
        <time>2013-03-02T08:35:34Z</time>
      </trkpt>
      <trkpt lat="47.27481" lon="-1.66692">
        <ele>66.7</ele>
        <time>2013-03-02T08:35:42Z</time>
      </trkpt>
      <trkpt lat="47.27484" lon="-1.66692">
        <ele>66.8</ele>
        <time>2013-03-02T08:35:43Z</time>
      </trkpt>
      <trkpt lat="47.27495" lon="-1.66691">
        <ele>67</ele>
        <time>2013-03-02T08:35:47Z</time>
      </trkpt>
      <trkpt lat="47.27498" lon="-1.66691">
        <ele>67.1</ele>
        <time>2013-03-02T08:35:48Z</time>
      </trkpt>
      <trkpt lat="47.27501" lon="-1.66691">
        <ele>66.7</ele>
        <time>2013-03-02T08:35:49Z</time>
      </trkpt>
      <trkpt lat="47.27504" lon="-1.66691">
        <ele>66.3</ele>
        <time>2013-03-02T08:35:50Z</time>
      </trkpt>
      <trkpt lat="47.27509" lon="-1.66691">
        <ele>66.8</ele>
        <time>2013-03-02T08:35:52Z</time>
      </trkpt>
      <trkpt lat="47.27515" lon="-1.66691">
        <ele>66.8</ele>
        <time>2013-03-02T08:35:54Z</time>
      </trkpt>
      <trkpt lat="47.27518" lon="-1.66691">
        <ele>66.7</ele>
        <time>2013-03-02T08:35:55Z</time>
      </trkpt>
      <trkpt lat="47.27529" lon="-1.66692">
        <ele>67.1</ele>
        <time>2013-03-02T08:35:59Z</time>
      </trkpt>
      <trkpt lat="47.27535" lon="-1.66691">
        <ele>67.5</ele>
        <time>2013-03-02T08:36:01Z</time>
      </trkpt>
      <trkpt lat="47.27538" lon="-1.66692">
        <ele>67.9</ele>
        <time>2013-03-02T08:36:02Z</time>
      </trkpt>
      <trkpt lat="47.27543" lon="-1.66692">
        <ele>68.2</ele>
        <time>2013-03-02T08:36:04Z</time>
      </trkpt>
      <trkpt lat="47.27548" lon="-1.66693">
        <ele>68.7</ele>
        <time>2013-03-02T08:36:06Z</time>
      </trkpt>
      <trkpt lat="47.27554" lon="-1.66694">
        <ele>68.9</ele>
        <time>2013-03-02T08:36:08Z</time>
      </trkpt>
      <trkpt lat="47.27557" lon="-1.66693">
        <ele>68.8</ele>
        <time>2013-03-02T08:36:09Z</time>
      </trkpt>
      <trkpt lat="47.27606" lon="-1.66688">
        <ele>69.5</ele>
        <time>2013-03-02T08:36:27Z</time>
      </trkpt>
      <trkpt lat="47.27618" lon="-1.66685">
        <ele>69.1</ele>
        <time>2013-03-02T08:36:31Z</time>
      </trkpt>
      <trkpt lat="47.2769" lon="-1.66664">
        <ele>71.5</ele>
        <time>2013-03-02T08:36:57Z</time>
      </trkpt>
      <trkpt lat="47.27693" lon="-1.66663">
        <ele>71.5</ele>
        <time>2013-03-02T08:36:58Z</time>
      </trkpt>
      <trkpt lat="47.27698" lon="-1.6666">
        <ele>71.4</ele>
        <time>2013-03-02T08:37:00Z</time>
      </trkpt>
      <trkpt lat="47.27701" lon="-1.66657">
        <ele>71.4</ele>
        <time>2013-03-02T08:37:01Z</time>
      </trkpt>
      <trkpt lat="47.27817" lon="-1.66566">
        <ele>69.7</ele>
        <time>2013-03-02T08:37:36Z</time>
      </trkpt>
      <trkpt lat="47.27821" lon="-1.66564">
        <ele>69.6</ele>
        <time>2013-03-02T08:37:37Z</time>
      </trkpt>
      <trkpt lat="47.27833" lon="-1.66558">
        <ele>69.8</ele>
        <time>2013-03-02T08:37:40Z</time>
      </trkpt>
      <trkpt lat="47.27956" lon="-1.66508">
        <ele>67.2</ele>
        <time>2013-03-02T08:38:06Z</time>
      </trkpt>
      <trkpt lat="47.2796" lon="-1.66507">
        <ele>67.5</ele>
        <time>2013-03-02T08:38:07Z</time>
      </trkpt>
      <trkpt lat="47.2798" lon="-1.66502">
        <ele>67.3</ele>
        <time>2013-03-02T08:38:12Z</time>
      </trkpt>
      <trkpt lat="47.27984" lon="-1.66503">
        <ele>67.3</ele>
        <time>2013-03-02T08:38:13Z</time>
      </trkpt>
      <trkpt lat="47.27987" lon="-1.66505">
        <ele>67.2</ele>
        <time>2013-03-02T08:38:14Z</time>
      </trkpt>
      <trkpt lat="47.2799" lon="-1.66509">
        <ele>67.1</ele>
        <time>2013-03-02T08:38:15Z</time>
      </trkpt>
      <trkpt lat="47.28027" lon="-1.66551">
        <ele>65</ele>
        <time>2013-03-02T08:38:27Z</time>
      </trkpt>
      <trkpt lat="47.28029" lon="-1.66555">
        <ele>65.3</ele>
        <time>2013-03-02T08:38:28Z</time>
      </trkpt>
      <trkpt lat="47.28034" lon="-1.66563">
        <ele>65.3</ele>
        <time>2013-03-02T08:38:30Z</time>
      </trkpt>
      <trkpt lat="47.28036" lon="-1.66566">
        <ele>65.1</ele>
        <time>2013-03-02T08:38:31Z</time>
      </trkpt>
      <trkpt lat="47.28069" lon="-1.66603">
        <ele>64.2</ele>
        <time>2013-03-02T08:38:44Z</time>
      </trkpt>
      <trkpt lat="47.28071" lon="-1.66607">
        <ele>64.1</ele>
        <time>2013-03-02T08:38:45Z</time>
      </trkpt>
      <trkpt lat="47.28073" lon="-1.6661">
        <ele>64</ele>
        <time>2013-03-02T08:38:46Z</time>
      </trkpt>
      <trkpt lat="47.28075" lon="-1.66613">
        <ele>64.3</ele>
        <time>2013-03-02T08:38:47Z</time>
      </trkpt>
      <trkpt lat="47.28088" lon="-1.66628">
        <ele>64.9</ele>
        <time>2013-03-02T08:38:52Z</time>
      </trkpt>
      <trkpt lat="47.2809" lon="-1.66631">
        <ele>65.2</ele>
        <time>2013-03-02T08:38:53Z</time>
      </trkpt>
      <trkpt lat="47.28091" lon="-1.66636">
        <ele>65.1</ele>
        <time>2013-03-02T08:38:54Z</time>
      </trkpt>
      <trkpt lat="47.28092" lon="-1.6664">
        <ele>65.1</ele>
        <time>2013-03-02T08:38:55Z</time>
      </trkpt>
      <trkpt lat="47.28091" lon="-1.66644">
        <ele>65.1</ele>
        <time>2013-03-02T08:38:56Z</time>
      </trkpt>
      <trkpt lat="47.28091" lon="-1.66649">
        <ele>65</ele>
        <time>2013-03-02T08:38:57Z</time>
      </trkpt>
      <trkpt lat="47.2809" lon="-1.66652">
        <ele>65</ele>
        <time>2013-03-02T08:38:58Z</time>
      </trkpt>
      <trkpt lat="47.28085" lon="-1.66681">
        <ele>64.5</ele>
        <time>2013-03-02T08:39:05Z</time>
      </trkpt>
      <trkpt lat="47.28045" lon="-1.66955">
        <ele>64.6</ele>
        <time>2013-03-02T08:39:55Z</time>
      </trkpt>
      <trkpt lat="47.28043" lon="-1.66961">
        <ele>64.9</ele>
        <time>2013-03-02T08:39:56Z</time>
      </trkpt>
      <trkpt lat="47.28009" lon="-1.67107">
        <ele>65.6</ele>
        <time>2013-03-02T08:40:23Z</time>
      </trkpt>
      <trkpt lat="47.27985" lon="-1.67193">
        <ele>66</ele>
        <time>2013-03-02T08:40:38Z</time>
      </trkpt>
      <trkpt lat="47.27925" lon="-1.67393">
        <ele>63</ele>
        <time>2013-03-02T08:41:13Z</time>
      </trkpt>
      <trkpt lat="47.27923" lon="-1.67399">
        <ele>63</ele>
        <time>2013-03-02T08:41:14Z</time>
      </trkpt>
      <trkpt lat="47.27918" lon="-1.67422">
        <ele>62.6</ele>
        <time>2013-03-02T08:41:18Z</time>
      </trkpt>
      <trkpt lat="47.2792" lon="-1.67425">
        <ele>62.4</ele>
        <time>2013-03-02T08:41:19Z</time>
      </trkpt>
      <trkpt lat="47.27923" lon="-1.67427">
        <ele>62.3</ele>
        <time>2013-03-02T08:41:20Z</time>
      </trkpt>
      <trkpt lat="47.27926" lon="-1.67428">
        <ele>62.2</ele>
        <time>2013-03-02T08:41:21Z</time>
      </trkpt>
      <trkpt lat="47.27979" lon="-1.67447">
        <ele>62.4</ele>
        <time>2013-03-02T08:41:35Z</time>
      </trkpt>
      <trkpt lat="47.27983" lon="-1.6745">
        <ele>62.3</ele>
        <time>2013-03-02T08:41:36Z</time>
      </trkpt>
      <trkpt lat="47.28006" lon="-1.67464">
        <ele>62.2</ele>
        <time>2013-03-02T08:41:42Z</time>
      </trkpt>
      <trkpt lat="47.28009" lon="-1.67467">
        <ele>62.3</ele>
        <time>2013-03-02T08:41:43Z</time>
      </trkpt>
      <trkpt lat="47.28011" lon="-1.67471">
        <ele>62.3</ele>
        <time>2013-03-02T08:41:44Z</time>
      </trkpt>
      <trkpt lat="47.28012" lon="-1.67475">
        <ele>62.4</ele>
        <time>2013-03-02T08:41:45Z</time>
      </trkpt>
      <trkpt lat="47.28013" lon="-1.6748">
        <ele>62.5</ele>
        <time>2013-03-02T08:41:46Z</time>
      </trkpt>
      <trkpt lat="47.28013" lon="-1.67485">
        <ele>63.1</ele>
        <time>2013-03-02T08:41:47Z</time>
      </trkpt>
      <trkpt lat="47.28013" lon="-1.67493">
        <ele>63.9</ele>
        <time>2013-03-02T08:41:49Z</time>
      </trkpt>
      <trkpt lat="47.28009" lon="-1.67543">
        <ele>62.1</ele>
        <time>2013-03-02T08:41:59Z</time>
      </trkpt>
      <trkpt lat="47.27993" lon="-1.67743">
        <ele>58.9</ele>
        <time>2013-03-02T08:42:29Z</time>
      </trkpt>
      <trkpt lat="47.27993" lon="-1.67749">
        <ele>59.3</ele>
        <time>2013-03-02T08:42:30Z</time>
      </trkpt>
      <trkpt lat="47.27995" lon="-1.67755">
        <ele>59.5</ele>
        <time>2013-03-02T08:42:31Z</time>
      </trkpt>
      <trkpt lat="47.27996" lon="-1.67761">
        <ele>59.8</ele>
        <time>2013-03-02T08:42:32Z</time>
      </trkpt>
      <trkpt lat="47.27998" lon="-1.67766">
        <ele>60</ele>
        <time>2013-03-02T08:42:33Z</time>
      </trkpt>
      <trkpt lat="47.28002" lon="-1.67777">
        <ele>59.7</ele>
        <time>2013-03-02T08:42:35Z</time>
      </trkpt>
      <trkpt lat="47.28008" lon="-1.67789">
        <ele>59.6</ele>
        <time>2013-03-02T08:42:38Z</time>
      </trkpt>
      <trkpt lat="47.2801" lon="-1.67793">
        <ele>59.1</ele>
        <time>2013-03-02T08:42:39Z</time>
      </trkpt>
      <trkpt lat="47.28013" lon="-1.67796">
        <ele>58.7</ele>
        <time>2013-03-02T08:42:40Z</time>
      </trkpt>
      <trkpt lat="47.28015" lon="-1.67799">
        <ele>58.4</ele>
        <time>2013-03-02T08:42:41Z</time>
      </trkpt>
      <trkpt lat="47.28021" lon="-1.67803">
        <ele>58.7</ele>
        <time>2013-03-02T08:42:43Z</time>
      </trkpt>
      <trkpt lat="47.28026" lon="-1.67807">
        <ele>59.7</ele>
        <time>2013-03-02T08:42:45Z</time>
      </trkpt>
      <trkpt lat="47.28029" lon="-1.67809">
        <ele>60</ele>
        <time>2013-03-02T08:42:46Z</time>
      </trkpt>
      <trkpt lat="47.28032" lon="-1.6781">
        <ele>60.4</ele>
        <time>2013-03-02T08:42:47Z</time>
      </trkpt>
      <trkpt lat="47.28041" lon="-1.67812">
        <ele>60.2</ele>
        <time>2013-03-02T08:42:50Z</time>
      </trkpt>
      <trkpt lat="47.28043" lon="-1.67813">
        <ele>61</ele>
        <time>2013-03-02T08:42:51Z</time>
      </trkpt>
      <trkpt lat="47.28045" lon="-1.67815">
        <ele>61.6</ele>
        <time>2013-03-02T08:42:52Z</time>
      </trkpt>
      <trkpt lat="47.28045" lon="-1.67817">
        <ele>62</ele>
        <time>2013-03-02T08:42:53Z</time>
      </trkpt>
      <trkpt lat="47.28046" lon="-1.6782">
        <ele>62</ele>
        <time>2013-03-02T08:42:54Z</time>
      </trkpt>
      <trkpt lat="47.28046" lon="-1.67823">
        <ele>61.9</ele>
        <time>2013-03-02T08:42:55Z</time>
      </trkpt>
      <trkpt lat="47.28045" lon="-1.67826">
        <ele>61.6</ele>
        <time>2013-03-02T08:42:56Z</time>
      </trkpt>
      <trkpt lat="47.28028" lon="-1.6788">
        <ele>60.5</ele>
        <time>2013-03-02T08:43:10Z</time>
      </trkpt>
      <trkpt lat="47.28012" lon="-1.67938">
        <ele>59.9</ele>
        <time>2013-03-02T08:43:23Z</time>
      </trkpt>
      <trkpt lat="47.28006" lon="-1.67967">
        <ele>59.5</ele>
        <time>2013-03-02T08:43:29Z</time>
      </trkpt>
      <trkpt lat="47.28004" lon="-1.67983">
        <ele>59.6</ele>
        <time>2013-03-02T08:43:32Z</time>
      </trkpt>
      <trkpt lat="47.28003" lon="-1.67988">
        <ele>59.6</ele>
        <time>2013-03-02T08:43:33Z</time>
      </trkpt>
      <trkpt lat="47.27989" lon="-1.68141">
        <ele>58.5</ele>
        <time>2013-03-02T08:44:05Z</time>
      </trkpt>
      <trkpt lat="47.27987" lon="-1.6815">
        <ele>58</ele>
        <time>2013-03-02T08:44:07Z</time>
      </trkpt>
      <trkpt lat="47.27941" lon="-1.68348">
        <ele>56.5</ele>
        <time>2013-03-02T08:44:49Z</time>
      </trkpt>
      <trkpt lat="47.27939" lon="-1.68352">
        <ele>56.4</ele>
        <time>2013-03-02T08:44:50Z</time>
      </trkpt>
      <trkpt lat="47.27912" lon="-1.68447">
        <ele>56.8</ele>
        <time>2013-03-02T08:45:16Z</time>
      </trkpt>
      <trkpt lat="47.27912" lon="-1.68448">
        <ele>56.8</ele>
        <time>2013-03-02T08:45:17Z</time>
      </trkpt>
      <trkpt lat="47.27911" lon="-1.68449">
        <ele>57.6</ele>
        <time>2013-03-02T08:45:21Z</time>
      </trkpt>
      <trkpt lat="47.27912" lon="-1.68449">
        <ele>57.8</ele>
        <time>2013-03-02T08:45:22Z</time>
      </trkpt>
      <trkpt lat="47.27912" lon="-1.68449">
        <ele>57.7</ele>
        <time>2013-03-02T08:45:23Z</time>
      </trkpt>
      <trkpt lat="47.27911" lon="-1.68449">
        <ele>57.7</ele>
        <time>2013-03-02T08:45:24Z</time>
      </trkpt>
      <trkpt lat="47.27911" lon="-1.6845">
        <ele>57.4</ele>
        <time>2013-03-02T08:45:25Z</time>
      </trkpt>
      <trkpt lat="47.27905" lon="-1.68457">
        <ele>57.1</ele>
        <time>2013-03-02T08:45:29Z</time>
      </trkpt>
      <trkpt lat="47.27904" lon="-1.68459">
        <ele>57.8</ele>
        <time>2013-03-02T08:45:30Z</time>
      </trkpt>
      <trkpt lat="47.27902" lon="-1.68462">
        <ele>58.3</ele>
        <time>2013-03-02T08:45:31Z</time>
      </trkpt>
      <trkpt lat="47.27901" lon="-1.68465">
        <ele>58.7</ele>
        <time>2013-03-02T08:45:32Z</time>
      </trkpt>
      <trkpt lat="47.27896" lon="-1.68476">
        <ele>57.7</ele>
        <time>2013-03-02T08:45:35Z</time>
      </trkpt>
      <trkpt lat="47.27894" lon="-1.68479">
        <ele>57.6</ele>
        <time>2013-03-02T08:45:36Z</time>
      </trkpt>
      <trkpt lat="47.27892" lon="-1.68481">
        <ele>56.9</ele>
        <time>2013-03-02T08:45:37Z</time>
      </trkpt>
      <trkpt lat="47.2789" lon="-1.68482">
        <ele>56.3</ele>
        <time>2013-03-02T08:45:38Z</time>
      </trkpt>
      <trkpt lat="47.27888" lon="-1.68482">
        <ele>55.9</ele>
        <time>2013-03-02T08:45:39Z</time>
      </trkpt>
      <trkpt lat="47.27869" lon="-1.68482">
        <ele>57.5</ele>
        <time>2013-03-02T08:45:46Z</time>
      </trkpt>
      <trkpt lat="47.27864" lon="-1.68482">
        <ele>58</ele>
        <time>2013-03-02T08:45:48Z</time>
      </trkpt>
      <trkpt lat="47.27862" lon="-1.68482">
        <ele>57.5</ele>
        <time>2013-03-02T08:45:49Z</time>
      </trkpt>
      <trkpt lat="47.27858" lon="-1.68483">
        <ele>56.9</ele>
        <time>2013-03-02T08:45:51Z</time>
      </trkpt>
      <trkpt lat="47.27855" lon="-1.68483">
        <ele>56.6</ele>
        <time>2013-03-02T08:45:52Z</time>
      </trkpt>
      <trkpt lat="47.27853" lon="-1.68482">
        <ele>56.4</ele>
        <time>2013-03-02T08:45:53Z</time>
      </trkpt>
      <trkpt lat="47.27848" lon="-1.68479">
        <ele>56.2</ele>
        <time>2013-03-02T08:45:55Z</time>
      </trkpt>
      <trkpt lat="47.27846" lon="-1.68479">
        <ele>56</ele>
        <time>2013-03-02T08:45:56Z</time>
      </trkpt>
      <trkpt lat="47.27844" lon="-1.68479">
        <ele>55.9</ele>
        <time>2013-03-02T08:45:57Z</time>
      </trkpt>
      <trkpt lat="47.27842" lon="-1.68478">
        <ele>55.8</ele>
        <time>2013-03-02T08:45:58Z</time>
      </trkpt>
      <trkpt lat="47.2784" lon="-1.68477">
        <ele>55.1</ele>
        <time>2013-03-02T08:45:59Z</time>
      </trkpt>
      <trkpt lat="47.27838" lon="-1.68475">
        <ele>54.4</ele>
        <time>2013-03-02T08:46:01Z</time>
      </trkpt>
      <trkpt lat="47.27837" lon="-1.68473">
        <ele>54.3</ele>
        <time>2013-03-02T08:46:02Z</time>
      </trkpt>
      <trkpt lat="47.27836" lon="-1.68471">
        <ele>54.1</ele>
        <time>2013-03-02T08:46:03Z</time>
      </trkpt>
      <trkpt lat="47.27836" lon="-1.68469">
        <ele>53.9</ele>
        <time>2013-03-02T08:46:04Z</time>
      </trkpt>
      <trkpt lat="47.27835" lon="-1.68457">
        <ele>53.7</ele>
        <time>2013-03-02T08:46:09Z</time>
      </trkpt>
      <trkpt lat="47.27835" lon="-1.68451">
        <ele>54.3</ele>
        <time>2013-03-02T08:46:12Z</time>
      </trkpt>
      <trkpt lat="47.27835" lon="-1.6845">
        <ele>53.9</ele>
        <time>2013-03-02T08:46:13Z</time>
      </trkpt>
      <trkpt lat="47.27834" lon="-1.68449">
        <ele>53.7</ele>
        <time>2013-03-02T08:46:14Z</time>
      </trkpt>
      <trkpt lat="47.27831" lon="-1.68447">
        <ele>54.2</ele>
        <time>2013-03-02T08:46:16Z</time>
      </trkpt>
      <trkpt lat="47.2783" lon="-1.68445">
        <ele>54.4</ele>
        <time>2013-03-02T08:46:17Z</time>
      </trkpt>
      <trkpt lat="47.27827" lon="-1.6844">
        <ele>53.6</ele>
        <time>2013-03-02T08:46:19Z</time>
      </trkpt>
      <trkpt lat="47.27826" lon="-1.68438">
        <ele>53.6</ele>
        <time>2013-03-02T08:46:20Z</time>
      </trkpt>
      <trkpt lat="47.27824" lon="-1.68432">
        <ele>52.3</ele>
        <time>2013-03-02T08:46:23Z</time>
      </trkpt>
      <trkpt lat="47.27822" lon="-1.6843">
        <ele>51.9</ele>
        <time>2013-03-02T08:46:24Z</time>
      </trkpt>
      <trkpt lat="47.2782" lon="-1.68428">
        <ele>51.4</ele>
        <time>2013-03-02T08:46:25Z</time>
      </trkpt>
      <trkpt lat="47.27813" lon="-1.68421">
        <ele>50.1</ele>
        <time>2013-03-02T08:46:28Z</time>
      </trkpt>
      <trkpt lat="47.27811" lon="-1.6842">
        <ele>49.7</ele>
        <time>2013-03-02T08:46:29Z</time>
      </trkpt>
      <trkpt lat="47.2781" lon="-1.68419">
        <ele>49.4</ele>
        <time>2013-03-02T08:46:30Z</time>
      </trkpt>
      <trkpt lat="47.27808" lon="-1.68418">
        <ele>49.1</ele>
        <time>2013-03-02T08:46:31Z</time>
      </trkpt>
      <trkpt lat="47.27806" lon="-1.68417">
        <ele>48.2</ele>
        <time>2013-03-02T08:46:32Z</time>
      </trkpt>
      <trkpt lat="47.27802" lon="-1.68417">
        <ele>46.9</ele>
        <time>2013-03-02T08:46:34Z</time>
      </trkpt>
      <trkpt lat="47.27802" lon="-1.68417">
        <ele>46.4</ele>
        <time>2013-03-02T08:46:35Z</time>
      </trkpt>
      <trkpt lat="47.27801" lon="-1.68416">
        <ele>46</ele>
        <time>2013-03-02T08:46:36Z</time>
      </trkpt>
      <trkpt lat="47.27801" lon="-1.68416">
        <ele>45.6</ele>
        <time>2013-03-02T08:46:37Z</time>
      </trkpt>
      <trkpt lat="47.27801" lon="-1.68416">
        <ele>45.3</ele>
        <time>2013-03-02T08:46:38Z</time>
      </trkpt>
      <trkpt lat="47.27801" lon="-1.68416">
        <ele>45.6</ele>
        <time>2013-03-02T08:46:39Z</time>
      </trkpt>
      <trkpt lat="47.278" lon="-1.68415">
        <ele>45.8</ele>
        <time>2013-03-02T08:46:40Z</time>
      </trkpt>
      <trkpt lat="47.27799" lon="-1.68414">
        <ele>45.6</ele>
        <time>2013-03-02T08:46:41Z</time>
      </trkpt>
      <trkpt lat="47.27798" lon="-1.68413">
        <ele>45.3</ele>
        <time>2013-03-02T08:46:43Z</time>
      </trkpt>
      <trkpt lat="47.27797" lon="-1.68411">
        <ele>45.1</ele>
        <time>2013-03-02T08:46:45Z</time>
      </trkpt>
      <trkpt lat="47.27796" lon="-1.6841">
        <ele>44.6</ele>
        <time>2013-03-02T08:46:46Z</time>
      </trkpt>
      <trkpt lat="47.27795" lon="-1.68409">
        <ele>44.2</ele>
        <time>2013-03-02T08:46:47Z</time>
      </trkpt>
      <trkpt lat="47.27794" lon="-1.68408">
        <ele>43.9</ele>
        <time>2013-03-02T08:46:48Z</time>
      </trkpt>
      <trkpt lat="47.27794" lon="-1.68408">
        <ele>44.5</ele>
        <time>2013-03-02T08:46:49Z</time>
      </trkpt>
      <trkpt lat="47.27794" lon="-1.68407">
        <ele>44.9</ele>
        <time>2013-03-02T08:46:50Z</time>
      </trkpt>
      <trkpt lat="47.27793" lon="-1.68407">
        <ele>44.8</ele>
        <time>2013-03-02T08:46:51Z</time>
      </trkpt>
      <trkpt lat="47.27793" lon="-1.68406">
        <ele>44.7</ele>
        <time>2013-03-02T08:46:52Z</time>
      </trkpt>
      <trkpt lat="47.27792" lon="-1.68405">
        <ele>44.9</ele>
        <time>2013-03-02T08:46:53Z</time>
      </trkpt>
      <trkpt lat="47.27792" lon="-1.68404">
        <ele>45.1</ele>
        <time>2013-03-02T08:46:54Z</time>
      </trkpt>
      <trkpt lat="47.27792" lon="-1.68404">
        <ele>45.2</ele>
        <time>2013-03-02T08:46:55Z</time>
      </trkpt>
      <trkpt lat="47.27792" lon="-1.68404">
        <ele>45.2</ele>
        <time>2013-03-02T08:46:56Z</time>
      </trkpt>
      <trkpt lat="47.27792" lon="-1.68403">
        <ele>45.2</ele>
        <time>2013-03-02T08:46:57Z</time>
      </trkpt>
      <trkpt lat="47.27792" lon="-1.68403">
        <ele>45.2</ele>
        <time>2013-03-02T08:46:58Z</time>
      </trkpt>
      <trkpt lat="47.27791" lon="-1.68402">
        <ele>45.2</ele>
        <time>2013-03-02T08:46:59Z</time>
      </trkpt>
      <trkpt lat="47.27791" lon="-1.68402">
        <ele>45.2</ele>
        <time>2013-03-02T08:47:00Z</time>
      </trkpt>
      <trkpt lat="47.27791" lon="-1.68401">
        <ele>45.3</ele>
        <time>2013-03-02T08:47:01Z</time>
      </trkpt>
      <trkpt lat="47.27791" lon="-1.68401">
        <ele>45.3</ele>
        <time>2013-03-02T08:47:02Z</time>
      </trkpt>
      <trkpt lat="47.27791" lon="-1.684">
        <ele>45.1</ele>
        <time>2013-03-02T08:47:03Z</time>
      </trkpt>
      <trkpt lat="47.27791" lon="-1.684">
        <ele>45</ele>
        <time>2013-03-02T08:47:04Z</time>
      </trkpt>
      <trkpt lat="47.27791" lon="-1.684">
        <ele>45.2</ele>
        <time>2013-03-02T08:47:05Z</time>
      </trkpt>
      <trkpt lat="47.27791" lon="-1.68399">
        <ele>45.3</ele>
        <time>2013-03-02T08:47:06Z</time>
      </trkpt>
      <trkpt lat="47.27791" lon="-1.68399">
        <ele>45.4</ele>
        <time>2013-03-02T08:47:07Z</time>
      </trkpt>
      <trkpt lat="47.27791" lon="-1.68399">
        <ele>45.3</ele>
        <time>2013-03-02T08:47:08Z</time>
      </trkpt>
      <trkpt lat="47.27791" lon="-1.68399">
        <ele>45.3</ele>
        <time>2013-03-02T08:47:09Z</time>
      </trkpt>
      <trkpt lat="47.27791" lon="-1.68398">
        <ele>45.4</ele>
        <time>2013-03-02T08:47:10Z</time>
      </trkpt>
      <trkpt lat="47.27791" lon="-1.68398">
        <ele>45.4</ele>
        <time>2013-03-02T08:47:11Z</time>
      </trkpt>
      <trkpt lat="47.2779" lon="-1.68397">
        <ele>44.8</ele>
        <time>2013-03-02T08:47:13Z</time>
      </trkpt>
      <trkpt lat="47.2779" lon="-1.68397">
        <ele>44.6</ele>
        <time>2013-03-02T08:47:14Z</time>
      </trkpt>
      <trkpt lat="47.2779" lon="-1.68397">
        <ele>44.8</ele>
        <time>2013-03-02T08:47:15Z</time>
      </trkpt>
      <trkpt lat="47.27789" lon="-1.68397">
        <ele>44.9</ele>
        <time>2013-03-02T08:47:16Z</time>
      </trkpt>
      <trkpt lat="47.27789" lon="-1.68397">
        <ele>45</ele>
        <time>2013-03-02T08:47:17Z</time>
      </trkpt>
      <trkpt lat="47.27789" lon="-1.68397">
        <ele>45.1</ele>
        <time>2013-03-02T08:47:18Z</time>
      </trkpt>
      <trkpt lat="47.27789" lon="-1.68396">
        <ele>45</ele>
        <time>2013-03-02T08:47:19Z</time>
      </trkpt>
      <trkpt lat="47.27789" lon="-1.68396">
        <ele>45</ele>
        <time>2013-03-02T08:47:20Z</time>
      </trkpt>
      <trkpt lat="47.27789" lon="-1.68396">
        <ele>45</ele>
        <time>2013-03-02T08:47:21Z</time>
      </trkpt>
      <trkpt lat="47.27789" lon="-1.68396">
        <ele>44.8</ele>
        <time>2013-03-02T08:47:22Z</time>
      </trkpt>
      <trkpt lat="47.27789" lon="-1.68396">
        <ele>44.6</ele>
        <time>2013-03-02T08:47:23Z</time>
      </trkpt>
      <trkpt lat="47.27788" lon="-1.68396">
        <ele>45</ele>
        <time>2013-03-02T08:47:24Z</time>
      </trkpt>
      <trkpt lat="47.27788" lon="-1.68396">
        <ele>45.3</ele>
        <time>2013-03-02T08:47:25Z</time>
      </trkpt>
      <trkpt lat="47.27788" lon="-1.68396">
        <ele>45.6</ele>
        <time>2013-03-02T08:47:26Z</time>
      </trkpt>
      <trkpt lat="47.27788" lon="-1.68396">
        <ele>45.3</ele>
        <time>2013-03-02T08:47:27Z</time>
      </trkpt>
      <trkpt lat="47.27788" lon="-1.68396">
        <ele>45.2</ele>
        <time>2013-03-02T08:47:28Z</time>
      </trkpt>
      <trkpt lat="47.27788" lon="-1.68395">
        <ele>44.9</ele>
        <time>2013-03-02T08:47:29Z</time>
      </trkpt>
      <trkpt lat="47.27788" lon="-1.68395">
        <ele>44.7</ele>
        <time>2013-03-02T08:47:30Z</time>
      </trkpt>
      <trkpt lat="47.27788" lon="-1.68395">
        <ele>44.8</ele>
        <time>2013-03-02T08:47:31Z</time>
      </trkpt>
      <trkpt lat="47.27787" lon="-1.68395">
        <ele>44.8</ele>
        <time>2013-03-02T08:47:32Z</time>
      </trkpt>
      <trkpt lat="47.27787" lon="-1.68395">
        <ele>44.8</ele>
        <time>2013-03-02T08:47:33Z</time>
      </trkpt>
      <trkpt lat="47.27787" lon="-1.68395">
        <ele>44.6</ele>
        <time>2013-03-02T08:47:34Z</time>
      </trkpt>
      <trkpt lat="47.27787" lon="-1.68395">
        <ele>44.4</ele>
        <time>2013-03-02T08:47:35Z</time>
      </trkpt>
      <trkpt lat="47.27787" lon="-1.68395">
        <ele>44.8</ele>
        <time>2013-03-02T08:47:36Z</time>
      </trkpt>
      <trkpt lat="47.27787" lon="-1.68395">
        <ele>45.1</ele>
        <time>2013-03-02T08:47:37Z</time>
      </trkpt>
      <trkpt lat="47.27787" lon="-1.68395">
        <ele>45.4</ele>
        <time>2013-03-02T08:47:38Z</time>
      </trkpt>
      <trkpt lat="47.27787" lon="-1.68395">
        <ele>45.6</ele>
        <time>2013-03-02T08:47:39Z</time>
      </trkpt>
      <trkpt lat="47.27786" lon="-1.68396">
        <ele>45.7</ele>
        <time>2013-03-02T08:47:40Z</time>
      </trkpt>
      <trkpt lat="47.27786" lon="-1.68397">
        <ele>45.6</ele>
        <time>2013-03-02T08:47:41Z</time>
      </trkpt>
      <trkpt lat="47.27785" lon="-1.68398">
        <ele>45.6</ele>
        <time>2013-03-02T08:47:42Z</time>
      </trkpt>
      <trkpt lat="47.27783" lon="-1.68401">
        <ele>46</ele>
        <time>2013-03-02T08:47:44Z</time>
      </trkpt>
      <trkpt lat="47.27782" lon="-1.68404">
        <ele>45.8</ele>
        <time>2013-03-02T08:47:46Z</time>
      </trkpt>
      <trkpt lat="47.27781" lon="-1.68405">
        <ele>45.5</ele>
        <time>2013-03-02T08:47:47Z</time>
      </trkpt>
      <trkpt lat="47.2778" lon="-1.68408">
        <ele>45.4</ele>
        <time>2013-03-02T08:47:48Z</time>
      </trkpt>
      <trkpt lat="47.27779" lon="-1.68417">
        <ele>45.3</ele>
        <time>2013-03-02T08:47:51Z</time>
      </trkpt>
      <trkpt lat="47.27779" lon="-1.68419">
        <ele>45.2</ele>
        <time>2013-03-02T08:47:52Z</time>
      </trkpt>
      <trkpt lat="47.27779" lon="-1.68427">
        <ele>45.3</ele>
        <time>2013-03-02T08:47:55Z</time>
      </trkpt>
      <trkpt lat="47.27779" lon="-1.68429">
        <ele>45.4</ele>
        <time>2013-03-02T08:47:56Z</time>
      </trkpt>
      <trkpt lat="47.27778" lon="-1.68432">
        <ele>45</ele>
        <time>2013-03-02T08:47:57Z</time>
      </trkpt>
      <trkpt lat="47.27778" lon="-1.68435">
        <ele>44.8</ele>
        <time>2013-03-02T08:47:58Z</time>
      </trkpt>
      <trkpt lat="47.27778" lon="-1.68437">
        <ele>44.6</ele>
        <time>2013-03-02T08:47:59Z</time>
      </trkpt>
      <trkpt lat="47.27778" lon="-1.68441">
        <ele>44.3</ele>
        <time>2013-03-02T08:48:00Z</time>
      </trkpt>
      <trkpt lat="47.27778" lon="-1.68443">
        <ele>44.2</ele>
        <time>2013-03-02T08:48:01Z</time>
      </trkpt>
      <trkpt lat="47.27778" lon="-1.68452">
        <ele>44.8</ele>
        <time>2013-03-02T08:48:04Z</time>
      </trkpt>
      <trkpt lat="47.27777" lon="-1.68455">
        <ele>44.8</ele>
        <time>2013-03-02T08:48:05Z</time>
      </trkpt>
      <trkpt lat="47.27777" lon="-1.68458">
        <ele>44.8</ele>
        <time>2013-03-02T08:48:06Z</time>
      </trkpt>
      <trkpt lat="47.27777" lon="-1.68461">
        <ele>44.7</ele>
        <time>2013-03-02T08:48:07Z</time>
      </trkpt>
      <trkpt lat="47.27776" lon="-1.68462">
        <ele>44.7</ele>
        <time>2013-03-02T08:48:08Z</time>
      </trkpt>
      <trkpt lat="47.27776" lon="-1.68463">
        <ele>44.8</ele>
        <time>2013-03-02T08:48:09Z</time>
      </trkpt>
      <trkpt lat="47.27776" lon="-1.68463">
        <ele>44.9</ele>
        <time>2013-03-02T08:48:10Z</time>
      </trkpt>
      <trkpt lat="47.27776" lon="-1.68464">
        <ele>45</ele>
        <time>2013-03-02T08:48:11Z</time>
      </trkpt>
      <trkpt lat="47.27776" lon="-1.68466">
        <ele>45.1</ele>
        <time>2013-03-02T08:48:12Z</time>
      </trkpt>
      <trkpt lat="47.27776" lon="-1.68467">
        <ele>45.1</ele>
        <time>2013-03-02T08:48:13Z</time>
      </trkpt>
      <trkpt lat="47.27776" lon="-1.68469">
        <ele>44.9</ele>
        <time>2013-03-02T08:48:14Z</time>
      </trkpt>
      <trkpt lat="47.27776" lon="-1.68474">
        <ele>45.2</ele>
        <time>2013-03-02T08:48:16Z</time>
      </trkpt>
      <trkpt lat="47.27777" lon="-1.68476">
        <ele>45.5</ele>
        <time>2013-03-02T08:48:17Z</time>
      </trkpt>
      <trkpt lat="47.27777" lon="-1.68478">
        <ele>45.7</ele>
        <time>2013-03-02T08:48:18Z</time>
      </trkpt>
      <trkpt lat="47.27775" lon="-1.68496">
        <ele>45.2</ele>
        <time>2013-03-02T08:48:24Z</time>
      </trkpt>
      <trkpt lat="47.27776" lon="-1.68499">
        <ele>45.1</ele>
        <time>2013-03-02T08:48:25Z</time>
      </trkpt>
      <trkpt lat="47.27776" lon="-1.68506">
        <ele>45.2</ele>
        <time>2013-03-02T08:48:27Z</time>
      </trkpt>
      <trkpt lat="47.27776" lon="-1.6851">
        <ele>45.3</ele>
        <time>2013-03-02T08:48:28Z</time>
      </trkpt>
      <trkpt lat="47.27776" lon="-1.68522">
        <ele>45.2</ele>
        <time>2013-03-02T08:48:31Z</time>
      </trkpt>
      <trkpt lat="47.27774" lon="-1.68541">
        <ele>45.9</ele>
        <time>2013-03-02T08:48:37Z</time>
      </trkpt>
      <trkpt lat="47.27773" lon="-1.68543">
        <ele>45.7</ele>
        <time>2013-03-02T08:48:38Z</time>
      </trkpt>
      <trkpt lat="47.27771" lon="-1.68544">
        <ele>45.5</ele>
        <time>2013-03-02T08:48:39Z</time>
      </trkpt>
      <trkpt lat="47.27771" lon="-1.68545">
        <ele>45.7</ele>
        <time>2013-03-02T08:48:40Z</time>
      </trkpt>
      <trkpt lat="47.2777" lon="-1.68545">
        <ele>46</ele>
        <time>2013-03-02T08:48:42Z</time>
      </trkpt>
      <trkpt lat="47.2777" lon="-1.68546">
        <ele>46.5</ele>
        <time>2013-03-02T08:48:43Z</time>
      </trkpt>
      <trkpt lat="47.27769" lon="-1.68547">
        <ele>46.8</ele>
        <time>2013-03-02T08:48:44Z</time>
      </trkpt>
      <trkpt lat="47.27768" lon="-1.68548">
        <ele>47</ele>
        <time>2013-03-02T08:48:45Z</time>
      </trkpt>
      <trkpt lat="47.27767" lon="-1.68549">
        <ele>47</ele>
        <time>2013-03-02T08:48:46Z</time>
      </trkpt>
      <trkpt lat="47.27767" lon="-1.6855">
        <ele>47.2</ele>
        <time>2013-03-02T08:48:47Z</time>
      </trkpt>
      <trkpt lat="47.27766" lon="-1.68551">
        <ele>47.2</ele>
        <time>2013-03-02T08:48:48Z</time>
      </trkpt>
      <trkpt lat="47.27765" lon="-1.68552">
        <ele>47.3</ele>
        <time>2013-03-02T08:48:49Z</time>
      </trkpt>
      <trkpt lat="47.27764" lon="-1.68553">
        <ele>47.4</ele>
        <time>2013-03-02T08:48:50Z</time>
      </trkpt>
      <trkpt lat="47.27763" lon="-1.68554">
        <ele>47.4</ele>
        <time>2013-03-02T08:48:51Z</time>
      </trkpt>
      <trkpt lat="47.27763" lon="-1.68555">
        <ele>47.3</ele>
        <time>2013-03-02T08:48:52Z</time>
      </trkpt>
      <trkpt lat="47.27762" lon="-1.68555">
        <ele>47.2</ele>
        <time>2013-03-02T08:48:53Z</time>
      </trkpt>
      <trkpt lat="47.27762" lon="-1.68556">
        <ele>47.5</ele>
        <time>2013-03-02T08:48:54Z</time>
      </trkpt>
      <trkpt lat="47.27762" lon="-1.68557">
        <ele>47.8</ele>
        <time>2013-03-02T08:48:56Z</time>
      </trkpt>
      <trkpt lat="47.27761" lon="-1.68558">
        <ele>46.7</ele>
        <time>2013-03-02T08:48:58Z</time>
      </trkpt>
      <trkpt lat="47.27761" lon="-1.68558">
        <ele>47</ele>
        <time>2013-03-02T08:48:59Z</time>
      </trkpt>
      <trkpt lat="47.27761" lon="-1.68558">
        <ele>47.2</ele>
        <time>2013-03-02T08:49:00Z</time>
      </trkpt>
      <trkpt lat="47.27761" lon="-1.68559">
        <ele>47.5</ele>
        <time>2013-03-02T08:49:01Z</time>
      </trkpt>
      <trkpt lat="47.2776" lon="-1.68559">
        <ele>47.8</ele>
        <time>2013-03-02T08:49:02Z</time>
      </trkpt>
      <trkpt lat="47.27761" lon="-1.6856">
        <ele>48</ele>
        <time>2013-03-02T08:49:03Z</time>
      </trkpt>
      <trkpt lat="47.2776" lon="-1.68561">
        <ele>47.9</ele>
        <time>2013-03-02T08:49:04Z</time>
      </trkpt>
      <trkpt lat="47.2776" lon="-1.68561">
        <ele>47.9</ele>
        <time>2013-03-02T08:49:05Z</time>
      </trkpt>
      <trkpt lat="47.2776" lon="-1.68562">
        <ele>47.6</ele>
        <time>2013-03-02T08:49:06Z</time>
      </trkpt>
      <trkpt lat="47.2776" lon="-1.68562">
        <ele>47.3</ele>
        <time>2013-03-02T08:49:07Z</time>
      </trkpt>
      <trkpt lat="47.2776" lon="-1.68563">
        <ele>47.1</ele>
        <time>2013-03-02T08:49:08Z</time>
      </trkpt>
      <trkpt lat="47.2776" lon="-1.68563">
        <ele>47</ele>
        <time>2013-03-02T08:49:09Z</time>
      </trkpt>
      <trkpt lat="47.27759" lon="-1.68564">
        <ele>47</ele>
        <time>2013-03-02T08:49:10Z</time>
      </trkpt>
      <trkpt lat="47.27759" lon="-1.68564">
        <ele>47.6</ele>
        <time>2013-03-02T08:49:11Z</time>
      </trkpt>
      <trkpt lat="47.27759" lon="-1.68565">
        <ele>48</ele>
        <time>2013-03-02T08:49:12Z</time>
      </trkpt>
      <trkpt lat="47.27759" lon="-1.68565">
        <ele>47.7</ele>
        <time>2013-03-02T08:49:13Z</time>
      </trkpt>
      <trkpt lat="47.27758" lon="-1.68566">
        <ele>47.5</ele>
        <time>2013-03-02T08:49:14Z</time>
      </trkpt>
      <trkpt lat="47.27758" lon="-1.68566">
        <ele>47.4</ele>
        <time>2013-03-02T08:49:15Z</time>
      </trkpt>
      <trkpt lat="47.27758" lon="-1.68567">
        <ele>47.5</ele>
        <time>2013-03-02T08:49:16Z</time>
      </trkpt>
      <trkpt lat="47.27758" lon="-1.68567">
        <ele>47.6</ele>
        <time>2013-03-02T08:49:17Z</time>
      </trkpt>
      <trkpt lat="47.27757" lon="-1.68568">
        <ele>47.4</ele>
        <time>2013-03-02T08:49:18Z</time>
      </trkpt>
      <trkpt lat="47.27757" lon="-1.68568">
        <ele>47.3</ele>
        <time>2013-03-02T08:49:19Z</time>
      </trkpt>
      <trkpt lat="47.27757" lon="-1.68569">
        <ele>47.1</ele>
        <time>2013-03-02T08:49:20Z</time>
      </trkpt>
      <trkpt lat="47.27757" lon="-1.68569">
        <ele>47</ele>
        <time>2013-03-02T08:49:21Z</time>
      </trkpt>
      <trkpt lat="47.27756" lon="-1.68569">
        <ele>46.9</ele>
        <time>2013-03-02T08:49:22Z</time>
      </trkpt>
      <trkpt lat="47.27756" lon="-1.6857">
        <ele>46.9</ele>
        <time>2013-03-02T08:49:23Z</time>
      </trkpt>
      <trkpt lat="47.27756" lon="-1.6857">
        <ele>46.9</ele>
        <time>2013-03-02T08:49:24Z</time>
      </trkpt>
      <trkpt lat="47.27755" lon="-1.68571">
        <ele>47.1</ele>
        <time>2013-03-02T08:49:25Z</time>
      </trkpt>
      <trkpt lat="47.27755" lon="-1.68572">
        <ele>47.3</ele>
        <time>2013-03-02T08:49:26Z</time>
      </trkpt>
      <trkpt lat="47.27755" lon="-1.68573">
        <ele>47.4</ele>
        <time>2013-03-02T08:49:27Z</time>
      </trkpt>
      <trkpt lat="47.27754" lon="-1.68576">
        <ele>47.1</ele>
        <time>2013-03-02T08:49:28Z</time>
      </trkpt>
      <trkpt lat="47.27752" lon="-1.6858">
        <ele>46.8</ele>
        <time>2013-03-02T08:49:29Z</time>
      </trkpt>
      <trkpt lat="47.27749" lon="-1.68583">
        <ele>46.9</ele>
        <time>2013-03-02T08:49:30Z</time>
      </trkpt>
      <trkpt lat="47.27745" lon="-1.68588">
        <ele>46.5</ele>
        <time>2013-03-02T08:49:32Z</time>
      </trkpt>
      <trkpt lat="47.27743" lon="-1.68589">
        <ele>46.2</ele>
        <time>2013-03-02T08:49:33Z</time>
      </trkpt>
      <trkpt lat="47.27702" lon="-1.68616">
        <ele>42.5</ele>
        <time>2013-03-02T08:49:45Z</time>
      </trkpt>
      <trkpt lat="47.27692" lon="-1.68622">
        <ele>42.9</ele>
        <time>2013-03-02T08:49:48Z</time>
      </trkpt>
      <trkpt lat="47.2769" lon="-1.68625">
        <ele>42.6</ele>
        <time>2013-03-02T08:49:49Z</time>
      </trkpt>
      <trkpt lat="47.27685" lon="-1.68631">
        <ele>42.4</ele>
        <time>2013-03-02T08:49:51Z</time>
      </trkpt>
      <trkpt lat="47.27681" lon="-1.68633">
        <ele>42.5</ele>
        <time>2013-03-02T08:49:52Z</time>
      </trkpt>
      <trkpt lat="47.27678" lon="-1.68636">
        <ele>42.5</ele>
        <time>2013-03-02T08:49:53Z</time>
      </trkpt>
      <trkpt lat="47.27676" lon="-1.68638">
        <ele>42.6</ele>
        <time>2013-03-02T08:49:54Z</time>
      </trkpt>
      <trkpt lat="47.27672" lon="-1.68644">
        <ele>42.4</ele>
        <time>2013-03-02T08:49:57Z</time>
      </trkpt>
      <trkpt lat="47.27671" lon="-1.68645">
        <ele>42.2</ele>
        <time>2013-03-02T08:49:58Z</time>
      </trkpt>
      <trkpt lat="47.2767" lon="-1.68645">
        <ele>42.1</ele>
        <time>2013-03-02T08:49:59Z</time>
      </trkpt>
      <trkpt lat="47.27669" lon="-1.68646">
        <ele>42</ele>
        <time>2013-03-02T08:50:00Z</time>
      </trkpt>
      <trkpt lat="47.27668" lon="-1.68647">
        <ele>42</ele>
        <time>2013-03-02T08:50:01Z</time>
      </trkpt>
      <trkpt lat="47.27667" lon="-1.68647">
        <ele>42.1</ele>
        <time>2013-03-02T08:50:03Z</time>
      </trkpt>
      <trkpt lat="47.27667" lon="-1.68648">
        <ele>42.3</ele>
        <time>2013-03-02T08:50:04Z</time>
      </trkpt>
      <trkpt lat="47.27666" lon="-1.68649">
        <ele>42.3</ele>
        <time>2013-03-02T08:50:05Z</time>
      </trkpt>
      <trkpt lat="47.27661" lon="-1.68653">
        <ele>42.7</ele>
        <time>2013-03-02T08:50:08Z</time>
      </trkpt>
      <trkpt lat="47.27659" lon="-1.68656">
        <ele>42.5</ele>
        <time>2013-03-02T08:50:10Z</time>
      </trkpt>
      <trkpt lat="47.27658" lon="-1.68657">
        <ele>42.4</ele>
        <time>2013-03-02T08:50:11Z</time>
      </trkpt>
      <trkpt lat="47.27658" lon="-1.68658">
        <ele>42.3</ele>
        <time>2013-03-02T08:50:12Z</time>
      </trkpt>
      <trkpt lat="47.27656" lon="-1.68659">
        <ele>42.2</ele>
        <time>2013-03-02T08:50:13Z</time>
      </trkpt>
      <trkpt lat="47.27653" lon="-1.68661">
        <ele>41.8</ele>
        <time>2013-03-02T08:50:15Z</time>
      </trkpt>
      <trkpt lat="47.27651" lon="-1.68662">
        <ele>41.6</ele>
        <time>2013-03-02T08:50:16Z</time>
      </trkpt>
      <trkpt lat="47.27643" lon="-1.68666">
        <ele>41.1</ele>
        <time>2013-03-02T08:50:20Z</time>
      </trkpt>
      <trkpt lat="47.27641" lon="-1.68667">
        <ele>41</ele>
        <time>2013-03-02T08:50:21Z</time>
      </trkpt>
      <trkpt lat="47.2764" lon="-1.68669">
        <ele>41</ele>
        <time>2013-03-02T08:50:22Z</time>
      </trkpt>
      <trkpt lat="47.27637" lon="-1.6867">
        <ele>41</ele>
        <time>2013-03-02T08:50:23Z</time>
      </trkpt>
      <trkpt lat="47.27636" lon="-1.6867">
        <ele>40.9</ele>
        <time>2013-03-02T08:50:24Z</time>
      </trkpt>
      <trkpt lat="47.27629" lon="-1.68673">
        <ele>41.9</ele>
        <time>2013-03-02T08:50:27Z</time>
      </trkpt>
      <trkpt lat="47.27626" lon="-1.68673">
        <ele>42.1</ele>
        <time>2013-03-02T08:50:28Z</time>
      </trkpt>
      <trkpt lat="47.27622" lon="-1.68673">
        <ele>42.3</ele>
        <time>2013-03-02T08:50:29Z</time>
      </trkpt>
      <trkpt lat="47.27619" lon="-1.68672">
        <ele>42.5</ele>
        <time>2013-03-02T08:50:30Z</time>
      </trkpt>
      <trkpt lat="47.27613" lon="-1.68668">
        <ele>42.2</ele>
        <time>2013-03-02T08:50:32Z</time>
      </trkpt>
      <trkpt lat="47.2761" lon="-1.68665">
        <ele>41.9</ele>
        <time>2013-03-02T08:50:33Z</time>
      </trkpt>
      <trkpt lat="47.27607" lon="-1.68661">
        <ele>41.5</ele>
        <time>2013-03-02T08:50:34Z</time>
      </trkpt>
      <trkpt lat="47.27604" lon="-1.68657">
        <ele>40.9</ele>
        <time>2013-03-02T08:50:36Z</time>
      </trkpt>
      <trkpt lat="47.27603" lon="-1.68655">
        <ele>40.7</ele>
        <time>2013-03-02T08:50:37Z</time>
      </trkpt>
      <trkpt lat="47.27601" lon="-1.68655">
        <ele>40.5</ele>
        <time>2013-03-02T08:50:38Z</time>
      </trkpt>
      <trkpt lat="47.27601" lon="-1.68654">
        <ele>40.4</ele>
        <time>2013-03-02T08:50:39Z</time>
      </trkpt>
      <trkpt lat="47.27601" lon="-1.68654">
        <ele>40.3</ele>
        <time>2013-03-02T08:50:40Z</time>
      </trkpt>
      <trkpt lat="47.276" lon="-1.68654">
        <ele>40.3</ele>
        <time>2013-03-02T08:50:41Z</time>
      </trkpt>
      <trkpt lat="47.27599" lon="-1.68653">
        <ele>40.3</ele>
        <time>2013-03-02T08:50:42Z</time>
      </trkpt>
      <trkpt lat="47.27597" lon="-1.6865">
        <ele>40.2</ele>
        <time>2013-03-02T08:50:44Z</time>
      </trkpt>
      <trkpt lat="47.27597" lon="-1.6865">
        <ele>40.2</ele>
        <time>2013-03-02T08:50:45Z</time>
      </trkpt>
      <trkpt lat="47.27596" lon="-1.6865">
        <ele>40.5</ele>
        <time>2013-03-02T08:50:46Z</time>
      </trkpt>
      <trkpt lat="47.27596" lon="-1.6865">
        <ele>40.7</ele>
        <time>2013-03-02T08:50:47Z</time>
      </trkpt>
      <trkpt lat="47.27595" lon="-1.6865">
        <ele>40.9</ele>
        <time>2013-03-02T08:50:48Z</time>
      </trkpt>
      <trkpt lat="47.27595" lon="-1.68651">
        <ele>41.1</ele>
        <time>2013-03-02T08:50:49Z</time>
      </trkpt>
      <trkpt lat="47.27595" lon="-1.68651">
        <ele>41.2</ele>
        <time>2013-03-02T08:50:50Z</time>
      </trkpt>
      <trkpt lat="47.27595" lon="-1.68651">
        <ele>41</ele>
        <time>2013-03-02T08:50:51Z</time>
      </trkpt>
      <trkpt lat="47.27594" lon="-1.68651">
        <ele>40.9</ele>
        <time>2013-03-02T08:50:52Z</time>
      </trkpt>
      <trkpt lat="47.27594" lon="-1.68651">
        <ele>40.5</ele>
        <time>2013-03-02T08:50:53Z</time>
      </trkpt>
      <trkpt lat="47.27594" lon="-1.68651">
        <ele>40.2</ele>
        <time>2013-03-02T08:50:54Z</time>
      </trkpt>
      <trkpt lat="47.27594" lon="-1.68651">
        <ele>40.2</ele>
        <time>2013-03-02T08:50:55Z</time>
      </trkpt>
      <trkpt lat="47.27594" lon="-1.68651">
        <ele>40.2</ele>
        <time>2013-03-02T08:50:56Z</time>
      </trkpt>
      <trkpt lat="47.27594" lon="-1.6865">
        <ele>40.2</ele>
        <time>2013-03-02T08:50:57Z</time>
      </trkpt>
      <trkpt lat="47.27593" lon="-1.6865">
        <ele>39.8</ele>
        <time>2013-03-02T08:50:58Z</time>
      </trkpt>
      <trkpt lat="47.27593" lon="-1.6865">
        <ele>39.5</ele>
        <time>2013-03-02T08:50:59Z</time>
      </trkpt>
      <trkpt lat="47.27593" lon="-1.68649">
        <ele>39.8</ele>
        <time>2013-03-02T08:51:01Z</time>
      </trkpt>
      <trkpt lat="47.27593" lon="-1.68649">
        <ele>40</ele>
        <time>2013-03-02T08:51:02Z</time>
      </trkpt>
      <trkpt lat="47.27593" lon="-1.68649">
        <ele>40.1</ele>
        <time>2013-03-02T08:51:03Z</time>
      </trkpt>
      <trkpt lat="47.27592" lon="-1.68648">
        <ele>40.2</ele>
        <time>2013-03-02T08:51:04Z</time>
      </trkpt>
      <trkpt lat="47.27592" lon="-1.68647">
        <ele>40.7</ele>
        <time>2013-03-02T08:51:05Z</time>
      </trkpt>
      <trkpt lat="47.27591" lon="-1.68646">
        <ele>41.1</ele>
        <time>2013-03-02T08:51:06Z</time>
      </trkpt>
      <trkpt lat="47.27591" lon="-1.68645">
        <ele>41.2</ele>
        <time>2013-03-02T08:51:07Z</time>
      </trkpt>
      <trkpt lat="47.2759" lon="-1.68643">
        <ele>41.3</ele>
        <time>2013-03-02T08:51:08Z</time>
      </trkpt>
      <trkpt lat="47.27589" lon="-1.6864">
        <ele>41</ele>
        <time>2013-03-02T08:51:11Z</time>
      </trkpt>
      <trkpt lat="47.27588" lon="-1.68639">
        <ele>41.1</ele>
        <time>2013-03-02T08:51:12Z</time>
      </trkpt>
      <trkpt lat="47.27588" lon="-1.68638">
        <ele>41.1</ele>
        <time>2013-03-02T08:51:13Z</time>
      </trkpt>
      <trkpt lat="47.27588" lon="-1.68637">
        <ele>41.4</ele>
        <time>2013-03-02T08:51:15Z</time>
      </trkpt>
      <trkpt lat="47.27588" lon="-1.68636">
        <ele>41.5</ele>
        <time>2013-03-02T08:51:16Z</time>
      </trkpt>
      <trkpt lat="47.27588" lon="-1.68636">
        <ele>41.8</ele>
        <time>2013-03-02T08:51:17Z</time>
      </trkpt>
      <trkpt lat="47.27588" lon="-1.68635">
        <ele>42</ele>
        <time>2013-03-02T08:51:18Z</time>
      </trkpt>
      <trkpt lat="47.27588" lon="-1.68635">
        <ele>42</ele>
        <time>2013-03-02T08:51:19Z</time>
      </trkpt>
      <trkpt lat="47.27588" lon="-1.68633">
        <ele>41.8</ele>
        <time>2013-03-02T08:51:21Z</time>
      </trkpt>
      <trkpt lat="47.27587" lon="-1.68629">
        <ele>41.5</ele>
        <time>2013-03-02T08:51:23Z</time>
      </trkpt>
      <trkpt lat="47.27587" lon="-1.68626">
        <ele>41.7</ele>
        <time>2013-03-02T08:51:24Z</time>
      </trkpt>
      <trkpt lat="47.27585" lon="-1.68623">
        <ele>41.9</ele>
        <time>2013-03-02T08:51:25Z</time>
      </trkpt>
      <trkpt lat="47.27582" lon="-1.68616">
        <ele>40.9</ele>
        <time>2013-03-02T08:51:27Z</time>
      </trkpt>
      <trkpt lat="47.2758" lon="-1.68614">
        <ele>40.6</ele>
        <time>2013-03-02T08:51:28Z</time>
      </trkpt>
      <trkpt lat="47.27565" lon="-1.68592">
        <ele>39.9</ele>
        <time>2013-03-02T08:51:36Z</time>
      </trkpt>
      <trkpt lat="47.2756" lon="-1.68587">
        <ele>39.7</ele>
        <time>2013-03-02T08:51:38Z</time>
      </trkpt>
      <trkpt lat="47.27559" lon="-1.68584">
        <ele>39.7</ele>
        <time>2013-03-02T08:51:39Z</time>
      </trkpt>
      <trkpt lat="47.27557" lon="-1.68582">
        <ele>39.7</ele>
        <time>2013-03-02T08:51:40Z</time>
      </trkpt>
      <trkpt lat="47.27536" lon="-1.68567">
        <ele>40.1</ele>
        <time>2013-03-02T08:51:49Z</time>
      </trkpt>
      <trkpt lat="47.27532" lon="-1.68563">
        <ele>40.4</ele>
        <time>2013-03-02T08:51:51Z</time>
      </trkpt>
      <trkpt lat="47.27521" lon="-1.68551">
        <ele>40</ele>
        <time>2013-03-02T08:51:56Z</time>
      </trkpt>
      <trkpt lat="47.27512" lon="-1.68541">
        <ele>40.1</ele>
        <time>2013-03-02T08:52:01Z</time>
      </trkpt>
      <trkpt lat="47.2751" lon="-1.6854">
        <ele>40.4</ele>
        <time>2013-03-02T08:52:02Z</time>
      </trkpt>
      <trkpt lat="47.27507" lon="-1.68539">
        <ele>40.7</ele>
        <time>2013-03-02T08:52:03Z</time>
      </trkpt>
      <trkpt lat="47.27505" lon="-1.68538">
        <ele>40.8</ele>
        <time>2013-03-02T08:52:04Z</time>
      </trkpt>
      <trkpt lat="47.27504" lon="-1.68536">
        <ele>40.9</ele>
        <time>2013-03-02T08:52:05Z</time>
      </trkpt>
      <trkpt lat="47.27502" lon="-1.68534">
        <ele>40.9</ele>
        <time>2013-03-02T08:52:06Z</time>
      </trkpt>
      <trkpt lat="47.275" lon="-1.6853">
        <ele>40.6</ele>
        <time>2013-03-02T08:52:08Z</time>
      </trkpt>
      <trkpt lat="47.27499" lon="-1.68527">
        <ele>40.6</ele>
        <time>2013-03-02T08:52:09Z</time>
      </trkpt>
      <trkpt lat="47.27496" lon="-1.6852">
        <ele>40.7</ele>
        <time>2013-03-02T08:52:11Z</time>
      </trkpt>
      <trkpt lat="47.27494" lon="-1.68518">
        <ele>40.7</ele>
        <time>2013-03-02T08:52:12Z</time>
      </trkpt>
      <trkpt lat="47.27491" lon="-1.68516">
        <ele>40.7</ele>
        <time>2013-03-02T08:52:13Z</time>
      </trkpt>
      <trkpt lat="47.27488" lon="-1.68515">
        <ele>40.7</ele>
        <time>2013-03-02T08:52:14Z</time>
      </trkpt>
      <trkpt lat="47.27485" lon="-1.68513">
        <ele>40.7</ele>
        <time>2013-03-02T08:52:15Z</time>
      </trkpt>
      <trkpt lat="47.27482" lon="-1.6851">
        <ele>40.2</ele>
        <time>2013-03-02T08:52:17Z</time>
      </trkpt>
      <trkpt lat="47.2748" lon="-1.6851">
        <ele>40</ele>
        <time>2013-03-02T08:52:18Z</time>
      </trkpt>
      <trkpt lat="47.27479" lon="-1.6851">
        <ele>40.3</ele>
        <time>2013-03-02T08:52:19Z</time>
      </trkpt>
      <trkpt lat="47.27473" lon="-1.68513">
        <ele>41.4</ele>
        <time>2013-03-02T08:52:23Z</time>
      </trkpt>
      <trkpt lat="47.27472" lon="-1.68514">
        <ele>41.4</ele>
        <time>2013-03-02T08:52:24Z</time>
      </trkpt>
      <trkpt lat="47.27467" lon="-1.68517">
        <ele>41</ele>
        <time>2013-03-02T08:52:28Z</time>
      </trkpt>
      <trkpt lat="47.27466" lon="-1.68518">
        <ele>40.9</ele>
        <time>2013-03-02T08:52:29Z</time>
      </trkpt>
      <trkpt lat="47.27463" lon="-1.68518">
        <ele>40.3</ele>
        <time>2013-03-02T08:52:31Z</time>
      </trkpt>
      <trkpt lat="47.2746" lon="-1.68518">
        <ele>40.1</ele>
        <time>2013-03-02T08:52:33Z</time>
      </trkpt>
      <trkpt lat="47.2746" lon="-1.68518">
        <ele>40</ele>
        <time>2013-03-02T08:52:34Z</time>
      </trkpt>
      <trkpt lat="47.2746" lon="-1.68518">
        <ele>39.9</ele>
        <time>2013-03-02T08:52:35Z</time>
      </trkpt>
      <trkpt lat="47.27459" lon="-1.68517">
        <ele>39.8</ele>
        <time>2013-03-02T08:52:36Z</time>
      </trkpt>
      <trkpt lat="47.27459" lon="-1.68517">
        <ele>39.7</ele>
        <time>2013-03-02T08:52:37Z</time>
      </trkpt>
      <trkpt lat="47.27459" lon="-1.68516">
        <ele>39.7</ele>
        <time>2013-03-02T08:52:38Z</time>
      </trkpt>
      <trkpt lat="47.27459" lon="-1.68516">
        <ele>39.6</ele>
        <time>2013-03-02T08:52:39Z</time>
      </trkpt>
      <trkpt lat="47.27459" lon="-1.68516">
        <ele>39.1</ele>
        <time>2013-03-02T08:52:40Z</time>
      </trkpt>
      <trkpt lat="47.27458" lon="-1.68516">
        <ele>38.8</ele>
        <time>2013-03-02T08:52:41Z</time>
      </trkpt>
      <trkpt lat="47.27458" lon="-1.68516">
        <ele>38.6</ele>
        <time>2013-03-02T08:52:42Z</time>
      </trkpt>
      <trkpt lat="47.27458" lon="-1.68516">
        <ele>38.5</ele>
        <time>2013-03-02T08:52:43Z</time>
      </trkpt>
      <trkpt lat="47.27458" lon="-1.68515">
        <ele>38.5</ele>
        <time>2013-03-02T08:52:44Z</time>
      </trkpt>
      <trkpt lat="47.27457" lon="-1.68515">
        <ele>38.8</ele>
        <time>2013-03-02T08:52:45Z</time>
      </trkpt>
      <trkpt lat="47.27456" lon="-1.68515">
        <ele>39</ele>
        <time>2013-03-02T08:52:46Z</time>
      </trkpt>
      <trkpt lat="47.27456" lon="-1.68516">
        <ele>39.1</ele>
        <time>2013-03-02T08:52:47Z</time>
      </trkpt>
      <trkpt lat="47.27455" lon="-1.68516">
        <ele>39.2</ele>
        <time>2013-03-02T08:52:48Z</time>
      </trkpt>
      <trkpt lat="47.27454" lon="-1.68517">
        <ele>39.6</ele>
        <time>2013-03-02T08:52:49Z</time>
      </trkpt>
      <trkpt lat="47.27453" lon="-1.68518">
        <ele>39.9</ele>
        <time>2013-03-02T08:52:50Z</time>
      </trkpt>
      <trkpt lat="47.27451" lon="-1.6852">
        <ele>40.2</ele>
        <time>2013-03-02T08:52:52Z</time>
      </trkpt>
      <trkpt lat="47.27451" lon="-1.68521">
        <ele>40.2</ele>
        <time>2013-03-02T08:52:53Z</time>
      </trkpt>
      <trkpt lat="47.2745" lon="-1.68522">
        <ele>40</ele>
        <time>2013-03-02T08:52:54Z</time>
      </trkpt>
      <trkpt lat="47.2745" lon="-1.68523">
        <ele>39.8</ele>
        <time>2013-03-02T08:52:55Z</time>
      </trkpt>
      <trkpt lat="47.27449" lon="-1.68524">
        <ele>39.9</ele>
        <time>2013-03-02T08:52:56Z</time>
      </trkpt>
      <trkpt lat="47.27449" lon="-1.68525">
        <ele>40</ele>
        <time>2013-03-02T08:52:57Z</time>
      </trkpt>
      <trkpt lat="47.27448" lon="-1.68525">
        <ele>40</ele>
        <time>2013-03-02T08:52:58Z</time>
      </trkpt>
      <trkpt lat="47.27448" lon="-1.68526">
        <ele>40.2</ele>
        <time>2013-03-02T08:52:59Z</time>
      </trkpt>
      <trkpt lat="47.27448" lon="-1.68526">
        <ele>40.3</ele>
        <time>2013-03-02T08:53:00Z</time>
      </trkpt>
      <trkpt lat="47.27448" lon="-1.68527">
        <ele>40.5</ele>
        <time>2013-03-02T08:53:01Z</time>
      </trkpt>
      <trkpt lat="47.27448" lon="-1.68529">
        <ele>40.7</ele>
        <time>2013-03-02T08:53:02Z</time>
      </trkpt>
      <trkpt lat="47.27448" lon="-1.6853">
        <ele>40.8</ele>
        <time>2013-03-02T08:53:03Z</time>
      </trkpt>
      <trkpt lat="47.27448" lon="-1.68531">
        <ele>40.3</ele>
        <time>2013-03-02T08:53:04Z</time>
      </trkpt>
      <trkpt lat="47.27448" lon="-1.68533">
        <ele>39.9</ele>
        <time>2013-03-02T08:53:05Z</time>
      </trkpt>
      <trkpt lat="47.27448" lon="-1.68533">
        <ele>39.8</ele>
        <time>2013-03-02T08:53:06Z</time>
      </trkpt>
      <trkpt lat="47.27447" lon="-1.68534">
        <ele>39.2</ele>
        <time>2013-03-02T08:53:09Z</time>
      </trkpt>
      <trkpt lat="47.27447" lon="-1.68534">
        <ele>39</ele>
        <time>2013-03-02T08:53:10Z</time>
      </trkpt>
      <trkpt lat="47.27447" lon="-1.68535">
        <ele>39.2</ele>
        <time>2013-03-02T08:53:11Z</time>
      </trkpt>
      <trkpt lat="47.27447" lon="-1.68535">
        <ele>39.3</ele>
        <time>2013-03-02T08:53:12Z</time>
      </trkpt>
      <trkpt lat="47.27447" lon="-1.68535">
        <ele>39.3</ele>
        <time>2013-03-02T08:53:13Z</time>
      </trkpt>
      <trkpt lat="47.27447" lon="-1.68538">
        <ele>39.3</ele>
        <time>2013-03-02T08:53:15Z</time>
      </trkpt>
      <trkpt lat="47.27448" lon="-1.68539">
        <ele>39.4</ele>
        <time>2013-03-02T08:53:16Z</time>
      </trkpt>
      <trkpt lat="47.27448" lon="-1.6854">
        <ele>39.4</ele>
        <time>2013-03-02T08:53:17Z</time>
      </trkpt>
      <trkpt lat="47.27448" lon="-1.6854">
        <ele>39.4</ele>
        <time>2013-03-02T08:53:18Z</time>
      </trkpt>
      <trkpt lat="47.27448" lon="-1.68542">
        <ele>39.4</ele>
        <time>2013-03-02T08:53:19Z</time>
      </trkpt>
      <trkpt lat="47.27448" lon="-1.68542">
        <ele>39.5</ele>
        <time>2013-03-02T08:53:20Z</time>
      </trkpt>
      <trkpt lat="47.27448" lon="-1.68543">
        <ele>39.6</ele>
        <time>2013-03-02T08:53:21Z</time>
      </trkpt>
      <trkpt lat="47.27449" lon="-1.68543">
        <ele>39.7</ele>
        <time>2013-03-02T08:53:22Z</time>
      </trkpt>
      <trkpt lat="47.2745" lon="-1.68543">
        <ele>39.8</ele>
        <time>2013-03-02T08:53:23Z</time>
      </trkpt>
      <trkpt lat="47.27451" lon="-1.68542">
        <ele>39.9</ele>
        <time>2013-03-02T08:53:24Z</time>
      </trkpt>
      <trkpt lat="47.27452" lon="-1.68541">
        <ele>39.5</ele>
        <time>2013-03-02T08:53:25Z</time>
      </trkpt>
      <trkpt lat="47.27452" lon="-1.68541">
        <ele>39.2</ele>
        <time>2013-03-02T08:53:26Z</time>
      </trkpt>
      <trkpt lat="47.27453" lon="-1.68542">
        <ele>39.2</ele>
        <time>2013-03-02T08:53:27Z</time>
      </trkpt>
      <trkpt lat="47.27453" lon="-1.68542">
        <ele>39.1</ele>
        <time>2013-03-02T08:53:28Z</time>
      </trkpt>
      <trkpt lat="47.27453" lon="-1.68542">
        <ele>39.1</ele>
        <time>2013-03-02T08:53:29Z</time>
      </trkpt>
      <trkpt lat="47.27453" lon="-1.68542">
        <ele>39.5</ele>
        <time>2013-03-02T08:53:31Z</time>
      </trkpt>
      <trkpt lat="47.27453" lon="-1.68542">
        <ele>39.3</ele>
        <time>2013-03-02T08:53:32Z</time>
      </trkpt>
      <trkpt lat="47.27453" lon="-1.68541">
        <ele>39.1</ele>
        <time>2013-03-02T08:53:33Z</time>
      </trkpt>
      <trkpt lat="47.27453" lon="-1.68541">
        <ele>39.1</ele>
        <time>2013-03-02T08:53:34Z</time>
      </trkpt>
      <trkpt lat="47.27453" lon="-1.68541">
        <ele>39.2</ele>
        <time>2013-03-02T08:53:37Z</time>
      </trkpt>
      <trkpt lat="47.27454" lon="-1.68542">
        <ele>39.3</ele>
        <time>2013-03-02T08:53:38Z</time>
      </trkpt>
      <trkpt lat="47.27454" lon="-1.68542">
        <ele>39.4</ele>
        <time>2013-03-02T08:53:39Z</time>
      </trkpt>
      <trkpt lat="47.27455" lon="-1.68543">
        <ele>39.5</ele>
        <time>2013-03-02T08:53:40Z</time>
      </trkpt>
      <trkpt lat="47.27459" lon="-1.68546">
        <ele>39.8</ele>
        <time>2013-03-02T08:53:43Z</time>
      </trkpt>
      <trkpt lat="47.2746" lon="-1.68547">
        <ele>39.8</ele>
        <time>2013-03-02T08:53:44Z</time>
      </trkpt>
      <trkpt lat="47.27465" lon="-1.68554">
        <ele>38.8</ele>
        <time>2013-03-02T08:53:48Z</time>
      </trkpt>
      <trkpt lat="47.27467" lon="-1.68556">
        <ele>39.4</ele>
        <time>2013-03-02T08:53:49Z</time>
      </trkpt>
      <trkpt lat="47.27472" lon="-1.68567">
        <ele>39.5</ele>
        <time>2013-03-02T08:53:54Z</time>
      </trkpt>
      <trkpt lat="47.27474" lon="-1.68569">
        <ele>39.5</ele>
        <time>2013-03-02T08:53:55Z</time>
      </trkpt>
      <trkpt lat="47.27477" lon="-1.68572">
        <ele>40.3</ele>
        <time>2013-03-02T08:53:57Z</time>
      </trkpt>
      <trkpt lat="47.27479" lon="-1.68575">
        <ele>40.1</ele>
        <time>2013-03-02T08:53:58Z</time>
      </trkpt>
      <trkpt lat="47.27482" lon="-1.6858">
        <ele>39.9</ele>
        <time>2013-03-02T08:54:00Z</time>
      </trkpt>
      <trkpt lat="47.27482" lon="-1.68581">
        <ele>40.3</ele>
        <time>2013-03-02T08:54:01Z</time>
      </trkpt>
      <trkpt lat="47.27485" lon="-1.68582">
        <ele>40.9</ele>
        <time>2013-03-02T08:54:03Z</time>
      </trkpt>
      <trkpt lat="47.27488" lon="-1.68582">
        <ele>41.2</ele>
        <time>2013-03-02T08:54:04Z</time>
      </trkpt>
      <trkpt lat="47.27491" lon="-1.68583">
        <ele>40.9</ele>
        <time>2013-03-02T08:54:05Z</time>
      </trkpt>
      <trkpt lat="47.27493" lon="-1.68584">
        <ele>40.7</ele>
        <time>2013-03-02T08:54:06Z</time>
      </trkpt>
      <trkpt lat="47.27499" lon="-1.68589">
        <ele>39.8</ele>
        <time>2013-03-02T08:54:09Z</time>
      </trkpt>
      <trkpt lat="47.27501" lon="-1.6859">
        <ele>39.7</ele>
        <time>2013-03-02T08:54:10Z</time>
      </trkpt>
      <trkpt lat="47.27502" lon="-1.68592">
        <ele>39.6</ele>
        <time>2013-03-02T08:54:11Z</time>
      </trkpt>
      <trkpt lat="47.27503" lon="-1.68594">
        <ele>39.9</ele>
        <time>2013-03-02T08:54:12Z</time>
      </trkpt>
      <trkpt lat="47.27505" lon="-1.68595">
        <ele>40.2</ele>
        <time>2013-03-02T08:54:13Z</time>
      </trkpt>
      <trkpt lat="47.27512" lon="-1.68598">
        <ele>40</ele>
        <time>2013-03-02T08:54:16Z</time>
      </trkpt>
      <trkpt lat="47.27514" lon="-1.68599">
        <ele>39.9</ele>
        <time>2013-03-02T08:54:17Z</time>
      </trkpt>
      <trkpt lat="47.2752" lon="-1.68604">
        <ele>40</ele>
        <time>2013-03-02T08:54:20Z</time>
      </trkpt>
      <trkpt lat="47.27525" lon="-1.68609">
        <ele>40</ele>
        <time>2013-03-02T08:54:23Z</time>
      </trkpt>
      <trkpt lat="47.27527" lon="-1.68611">
        <ele>40</ele>
        <time>2013-03-02T08:54:24Z</time>
      </trkpt>
      <trkpt lat="47.27532" lon="-1.68618">
        <ele>40.2</ele>
        <time>2013-03-02T08:54:27Z</time>
      </trkpt>
      <trkpt lat="47.27533" lon="-1.68621">
        <ele>40.2</ele>
        <time>2013-03-02T08:54:28Z</time>
      </trkpt>
      <trkpt lat="47.27535" lon="-1.68623">
        <ele>40</ele>
        <time>2013-03-02T08:54:29Z</time>
      </trkpt>
      <trkpt lat="47.27538" lon="-1.68628">
        <ele>40.3</ele>
        <time>2013-03-02T08:54:31Z</time>
      </trkpt>
      <trkpt lat="47.27543" lon="-1.68637">
        <ele>40.6</ele>
        <time>2013-03-02T08:54:34Z</time>
      </trkpt>
      <trkpt lat="47.27547" lon="-1.68644">
        <ele>40.7</ele>
        <time>2013-03-02T08:54:37Z</time>
      </trkpt>
      <trkpt lat="47.27552" lon="-1.68654">
        <ele>41.3</ele>
        <time>2013-03-02T08:54:41Z</time>
      </trkpt>
      <trkpt lat="47.27553" lon="-1.68657">
        <ele>41.5</ele>
        <time>2013-03-02T08:54:42Z</time>
      </trkpt>
      <trkpt lat="47.27554" lon="-1.68659">
        <ele>41.3</ele>
        <time>2013-03-02T08:54:43Z</time>
      </trkpt>
      <trkpt lat="47.27555" lon="-1.68663">
        <ele>41.1</ele>
        <time>2013-03-02T08:54:44Z</time>
      </trkpt>
      <trkpt lat="47.27558" lon="-1.68673">
        <ele>41</ele>
        <time>2013-03-02T08:54:47Z</time>
      </trkpt>
      <trkpt lat="47.27567" lon="-1.68697">
        <ele>41.5</ele>
        <time>2013-03-02T08:54:55Z</time>
      </trkpt>
      <trkpt lat="47.27567" lon="-1.687">
        <ele>41.6</ele>
        <time>2013-03-02T08:54:56Z</time>
      </trkpt>
      <trkpt lat="47.27568" lon="-1.68703">
        <ele>41.6</ele>
        <time>2013-03-02T08:54:57Z</time>
      </trkpt>
      <trkpt lat="47.27568" lon="-1.68705">
        <ele>41.4</ele>
        <time>2013-03-02T08:54:58Z</time>
      </trkpt>
      <trkpt lat="47.27569" lon="-1.68707">
        <ele>41.3</ele>
        <time>2013-03-02T08:54:59Z</time>
      </trkpt>
      <trkpt lat="47.27571" lon="-1.68711">
        <ele>41.9</ele>
        <time>2013-03-02T08:55:02Z</time>
      </trkpt>
      <trkpt lat="47.27573" lon="-1.68713">
        <ele>42.1</ele>
        <time>2013-03-02T08:55:04Z</time>
      </trkpt>
      <trkpt lat="47.27574" lon="-1.68715">
        <ele>41.9</ele>
        <time>2013-03-02T08:55:05Z</time>
      </trkpt>
      <trkpt lat="47.27574" lon="-1.68715">
        <ele>41.8</ele>
        <time>2013-03-02T08:55:06Z</time>
      </trkpt>
      <trkpt lat="47.27576" lon="-1.68716">
        <ele>42.3</ele>
        <time>2013-03-02T08:55:08Z</time>
      </trkpt>
      <trkpt lat="47.27577" lon="-1.68717">
        <ele>42.4</ele>
        <time>2013-03-02T08:55:09Z</time>
      </trkpt>
      <trkpt lat="47.27578" lon="-1.68717">
        <ele>42.5</ele>
        <time>2013-03-02T08:55:10Z</time>
      </trkpt>
      <trkpt lat="47.27582" lon="-1.68719">
        <ele>42.2</ele>
        <time>2013-03-02T08:55:12Z</time>
      </trkpt>
      <trkpt lat="47.27584" lon="-1.68721">
        <ele>41.9</ele>
        <time>2013-03-02T08:55:13Z</time>
      </trkpt>
      <trkpt lat="47.27585" lon="-1.68722">
        <ele>41.8</ele>
        <time>2013-03-02T08:55:14Z</time>
      </trkpt>
      <trkpt lat="47.27587" lon="-1.68723">
        <ele>41.7</ele>
        <time>2013-03-02T08:55:15Z</time>
      </trkpt>
      <trkpt lat="47.2759" lon="-1.68724">
        <ele>41.2</ele>
        <time>2013-03-02T08:55:16Z</time>
      </trkpt>
      <trkpt lat="47.27593" lon="-1.68725">
        <ele>40.9</ele>
        <time>2013-03-02T08:55:17Z</time>
      </trkpt>
      <trkpt lat="47.27596" lon="-1.68727">
        <ele>40.6</ele>
        <time>2013-03-02T08:55:18Z</time>
      </trkpt>
      <trkpt lat="47.27599" lon="-1.68728">
        <ele>40.5</ele>
        <time>2013-03-02T08:55:19Z</time>
      </trkpt>
      <trkpt lat="47.27602" lon="-1.68729">
        <ele>40.4</ele>
        <time>2013-03-02T08:55:20Z</time>
      </trkpt>
      <trkpt lat="47.27615" lon="-1.68731">
        <ele>41</ele>
        <time>2013-03-02T08:55:25Z</time>
      </trkpt>
      <trkpt lat="47.27618" lon="-1.6873">
        <ele>41.1</ele>
        <time>2013-03-02T08:55:26Z</time>
      </trkpt>
      <trkpt lat="47.27622" lon="-1.68728">
        <ele>41.1</ele>
        <time>2013-03-02T08:55:28Z</time>
      </trkpt>
      <trkpt lat="47.27624" lon="-1.68727">
        <ele>41</ele>
        <time>2013-03-02T08:55:29Z</time>
      </trkpt>
      <trkpt lat="47.27631" lon="-1.68723">
        <ele>41.2</ele>
        <time>2013-03-02T08:55:32Z</time>
      </trkpt>
      <trkpt lat="47.27633" lon="-1.68723">
        <ele>41.5</ele>
        <time>2013-03-02T08:55:33Z</time>
      </trkpt>
      <trkpt lat="47.27638" lon="-1.68721">
        <ele>41.7</ele>
        <time>2013-03-02T08:55:35Z</time>
      </trkpt>
      <trkpt lat="47.27647" lon="-1.6872">
        <ele>41.2</ele>
        <time>2013-03-02T08:55:38Z</time>
      </trkpt>
      <trkpt lat="47.27653" lon="-1.68717">
        <ele>40.9</ele>
        <time>2013-03-02T08:55:41Z</time>
      </trkpt>
      <trkpt lat="47.27655" lon="-1.68718">
        <ele>40.9</ele>
        <time>2013-03-02T08:55:42Z</time>
      </trkpt>
      <trkpt lat="47.27656" lon="-1.68718">
        <ele>40.6</ele>
        <time>2013-03-02T08:55:43Z</time>
      </trkpt>
      <trkpt lat="47.27657" lon="-1.68718">
        <ele>40.5</ele>
        <time>2013-03-02T08:55:44Z</time>
      </trkpt>
      <trkpt lat="47.27658" lon="-1.68718">
        <ele>40.5</ele>
        <time>2013-03-02T08:55:45Z</time>
      </trkpt>
      <trkpt lat="47.27663" lon="-1.68717">
        <ele>40.5</ele>
        <time>2013-03-02T08:55:47Z</time>
      </trkpt>
      <trkpt lat="47.27665" lon="-1.68716">
        <ele>40.5</ele>
        <time>2013-03-02T08:55:48Z</time>
      </trkpt>
      <trkpt lat="47.27667" lon="-1.68714">
        <ele>40.6</ele>
        <time>2013-03-02T08:55:49Z</time>
      </trkpt>
      <trkpt lat="47.27669" lon="-1.68713">
        <ele>40.7</ele>
        <time>2013-03-02T08:55:50Z</time>
      </trkpt>
      <trkpt lat="47.27672" lon="-1.68709">
        <ele>40.2</ele>
        <time>2013-03-02T08:55:52Z</time>
      </trkpt>
      <trkpt lat="47.27674" lon="-1.68708">
        <ele>39.8</ele>
        <time>2013-03-02T08:55:53Z</time>
      </trkpt>
      <trkpt lat="47.27676" lon="-1.68709">
        <ele>39.7</ele>
        <time>2013-03-02T08:55:54Z</time>
      </trkpt>
      <trkpt lat="47.27677" lon="-1.6871">
        <ele>39.7</ele>
        <time>2013-03-02T08:55:55Z</time>
      </trkpt>
      <trkpt lat="47.27677" lon="-1.68711">
        <ele>39.6</ele>
        <time>2013-03-02T08:55:56Z</time>
      </trkpt>
      <trkpt lat="47.27677" lon="-1.68713">
        <ele>39.7</ele>
        <time>2013-03-02T08:55:57Z</time>
      </trkpt>
      <trkpt lat="47.27679" lon="-1.68725">
        <ele>40.9</ele>
        <time>2013-03-02T08:56:03Z</time>
      </trkpt>
      <trkpt lat="47.27679" lon="-1.68727">
        <ele>41.5</ele>
        <time>2013-03-02T08:56:04Z</time>
      </trkpt>
      <trkpt lat="47.27678" lon="-1.68727">
        <ele>42</ele>
        <time>2013-03-02T08:56:05Z</time>
      </trkpt>
      <trkpt lat="47.27677" lon="-1.68727">
        <ele>42.1</ele>
        <time>2013-03-02T08:56:06Z</time>
      </trkpt>
      <trkpt lat="47.27676" lon="-1.68727">
        <ele>42.3</ele>
        <time>2013-03-02T08:56:07Z</time>
      </trkpt>
      <trkpt lat="47.27675" lon="-1.68727">
        <ele>42.4</ele>
        <time>2013-03-02T08:56:08Z</time>
      </trkpt>
      <trkpt lat="47.27674" lon="-1.68727">
        <ele>42.7</ele>
        <time>2013-03-02T08:56:09Z</time>
      </trkpt>
      <trkpt lat="47.27672" lon="-1.68727">
        <ele>43</ele>
        <time>2013-03-02T08:56:10Z</time>
      </trkpt>
      <trkpt lat="47.27671" lon="-1.68728">
        <ele>43.4</ele>
        <time>2013-03-02T08:56:11Z</time>
      </trkpt>
      <trkpt lat="47.2767" lon="-1.68729">
        <ele>43.8</ele>
        <time>2013-03-02T08:56:12Z</time>
      </trkpt>
      <trkpt lat="47.2767" lon="-1.6873">
        <ele>44.6</ele>
        <time>2013-03-02T08:56:13Z</time>
      </trkpt>
      <trkpt lat="47.2767" lon="-1.68732">
        <ele>45.2</ele>
        <time>2013-03-02T08:56:14Z</time>
      </trkpt>
      <trkpt lat="47.27671" lon="-1.68732">
        <ele>45.6</ele>
        <time>2013-03-02T08:56:15Z</time>
      </trkpt>
      <trkpt lat="47.27671" lon="-1.68733">
        <ele>46</ele>
        <time>2013-03-02T08:56:16Z</time>
      </trkpt>
      <trkpt lat="47.27671" lon="-1.68733">
        <ele>46.4</ele>
        <time>2013-03-02T08:56:17Z</time>
      </trkpt>
      <trkpt lat="47.27672" lon="-1.68734">
        <ele>46.4</ele>
        <time>2013-03-02T08:56:18Z</time>
      </trkpt>
      <trkpt lat="47.27672" lon="-1.68734">
        <ele>46.3</ele>
        <time>2013-03-02T08:56:19Z</time>
      </trkpt>
      <trkpt lat="47.27672" lon="-1.68734">
        <ele>46.3</ele>
        <time>2013-03-02T08:56:20Z</time>
      </trkpt>
      <trkpt lat="47.27672" lon="-1.68734">
        <ele>47</ele>
        <time>2013-03-02T08:56:21Z</time>
      </trkpt>
      <trkpt lat="47.27672" lon="-1.68735">
        <ele>47.5</ele>
        <time>2013-03-02T08:56:22Z</time>
      </trkpt>
      <trkpt lat="47.27673" lon="-1.68735">
        <ele>47.7</ele>
        <time>2013-03-02T08:56:23Z</time>
      </trkpt>
      <trkpt lat="47.27673" lon="-1.68735">
        <ele>47.9</ele>
        <time>2013-03-02T08:56:24Z</time>
      </trkpt>
      <trkpt lat="47.27674" lon="-1.68735">
        <ele>48.2</ele>
        <time>2013-03-02T08:56:25Z</time>
      </trkpt>
      <trkpt lat="47.27674" lon="-1.68737">
        <ele>48.5</ele>
        <time>2013-03-02T08:56:26Z</time>
      </trkpt>
      <trkpt lat="47.27675" lon="-1.68739">
        <ele>48.7</ele>
        <time>2013-03-02T08:56:27Z</time>
      </trkpt>
      <trkpt lat="47.27676" lon="-1.6874">
        <ele>48.5</ele>
        <time>2013-03-02T08:56:28Z</time>
      </trkpt>
      <trkpt lat="47.27679" lon="-1.68744">
        <ele>48.1</ele>
        <time>2013-03-02T08:56:31Z</time>
      </trkpt>
      <trkpt lat="47.2768" lon="-1.68745">
        <ele>48.4</ele>
        <time>2013-03-02T08:56:33Z</time>
      </trkpt>
      <trkpt lat="47.27681" lon="-1.68746">
        <ele>49</ele>
        <time>2013-03-02T08:56:35Z</time>
      </trkpt>
      <trkpt lat="47.27681" lon="-1.68746">
        <ele>49.3</ele>
        <time>2013-03-02T08:56:36Z</time>
      </trkpt>
      <trkpt lat="47.27681" lon="-1.68746">
        <ele>49.3</ele>
        <time>2013-03-02T08:56:37Z</time>
      </trkpt>
      <trkpt lat="47.27682" lon="-1.68747">
        <ele>49.4</ele>
        <time>2013-03-02T08:56:38Z</time>
      </trkpt>
      <trkpt lat="47.27682" lon="-1.68748">
        <ele>49.4</ele>
        <time>2013-03-02T08:56:39Z</time>
      </trkpt>
      <trkpt lat="47.27683" lon="-1.68748">
        <ele>49.6</ele>
        <time>2013-03-02T08:56:40Z</time>
      </trkpt>
      <trkpt lat="47.27684" lon="-1.68748">
        <ele>49.8</ele>
        <time>2013-03-02T08:56:41Z</time>
      </trkpt>
      <trkpt lat="47.27684" lon="-1.68748">
        <ele>50.1</ele>
        <time>2013-03-02T08:56:42Z</time>
      </trkpt>
      <trkpt lat="47.27684" lon="-1.68749">
        <ele>51.4</ele>
        <time>2013-03-02T08:56:45Z</time>
      </trkpt>
      <trkpt lat="47.27685" lon="-1.68749">
        <ele>51.8</ele>
        <time>2013-03-02T08:56:46Z</time>
      </trkpt>
      <trkpt lat="47.27685" lon="-1.68749">
        <ele>51.6</ele>
        <time>2013-03-02T08:56:47Z</time>
      </trkpt>
      <trkpt lat="47.27685" lon="-1.68749">
        <ele>51.4</ele>
        <time>2013-03-02T08:56:48Z</time>
      </trkpt>
      <trkpt lat="47.27685" lon="-1.68749">
        <ele>51.2</ele>
        <time>2013-03-02T08:56:49Z</time>
      </trkpt>
      <trkpt lat="47.27685" lon="-1.68749">
        <ele>51</ele>
        <time>2013-03-02T08:56:50Z</time>
      </trkpt>
      <trkpt lat="47.27685" lon="-1.68749">
        <ele>50.8</ele>
        <time>2013-03-02T08:56:51Z</time>
      </trkpt>
      <trkpt lat="47.27685" lon="-1.68749">
        <ele>50.6</ele>
        <time>2013-03-02T08:56:52Z</time>
      </trkpt>
      <trkpt lat="47.27685" lon="-1.68749">
        <ele>50.5</ele>
        <time>2013-03-02T08:56:53Z</time>
      </trkpt>
      <trkpt lat="47.27686" lon="-1.68749">
        <ele>50.5</ele>
        <time>2013-03-02T08:56:54Z</time>
      </trkpt>
      <trkpt lat="47.27686" lon="-1.68749">
        <ele>50.5</ele>
        <time>2013-03-02T08:56:55Z</time>
      </trkpt>
      <trkpt lat="47.27686" lon="-1.68749">
        <ele>50.8</ele>
        <time>2013-03-02T08:56:56Z</time>
      </trkpt>
      <trkpt lat="47.27686" lon="-1.6875">
        <ele>50.9</ele>
        <time>2013-03-02T08:56:57Z</time>
      </trkpt>
      <trkpt lat="47.27686" lon="-1.6875">
        <ele>51.1</ele>
        <time>2013-03-02T08:56:58Z</time>
      </trkpt>
      <trkpt lat="47.27686" lon="-1.68749">
        <ele>51.4</ele>
        <time>2013-03-02T08:56:59Z</time>
      </trkpt>
      <trkpt lat="47.27686" lon="-1.68749">
        <ele>51.6</ele>
        <time>2013-03-02T08:57:00Z</time>
      </trkpt>
      <trkpt lat="47.27686" lon="-1.68749">
        <ele>51.4</ele>
        <time>2013-03-02T08:57:01Z</time>
      </trkpt>
      <trkpt lat="47.27686" lon="-1.68749">
        <ele>51.2</ele>
        <time>2013-03-02T08:57:02Z</time>
      </trkpt>
      <trkpt lat="47.27686" lon="-1.68749">
        <ele>50.8</ele>
        <time>2013-03-02T08:57:03Z</time>
      </trkpt>
      <trkpt lat="47.27686" lon="-1.68749">
        <ele>50.5</ele>
        <time>2013-03-02T08:57:04Z</time>
      </trkpt>
      <trkpt lat="47.27686" lon="-1.68748">
        <ele>50.3</ele>
        <time>2013-03-02T08:57:05Z</time>
      </trkpt>
      <trkpt lat="47.27686" lon="-1.68748">
        <ele>50.1</ele>
        <time>2013-03-02T08:57:06Z</time>
      </trkpt>
      <trkpt lat="47.27686" lon="-1.68748">
        <ele>49.9</ele>
        <time>2013-03-02T08:57:07Z</time>
      </trkpt>
      <trkpt lat="47.27686" lon="-1.68749">
        <ele>50</ele>
        <time>2013-03-02T08:57:08Z</time>
      </trkpt>
      <trkpt lat="47.27686" lon="-1.68748">
        <ele>50</ele>
        <time>2013-03-02T08:57:09Z</time>
      </trkpt>
      <trkpt lat="47.27686" lon="-1.68749">
        <ele>49.6</ele>
        <time>2013-03-02T08:57:10Z</time>
      </trkpt>
      <trkpt lat="47.27687" lon="-1.68749">
        <ele>49.3</ele>
        <time>2013-03-02T08:57:11Z</time>
      </trkpt>
      <trkpt lat="47.27687" lon="-1.68749">
        <ele>50</ele>
        <time>2013-03-02T08:57:13Z</time>
      </trkpt>
      <trkpt lat="47.27687" lon="-1.68749">
        <ele>50.6</ele>
        <time>2013-03-02T08:57:14Z</time>
      </trkpt>
      <trkpt lat="47.27688" lon="-1.68748">
        <ele>50.7</ele>
        <time>2013-03-02T08:57:15Z</time>
      </trkpt>
      <trkpt lat="47.27693" lon="-1.68747">
        <ele>50.3</ele>
        <time>2013-03-02T08:57:18Z</time>
      </trkpt>
      <trkpt lat="47.27696" lon="-1.68748">
        <ele>50</ele>
        <time>2013-03-02T08:57:19Z</time>
      </trkpt>
      <trkpt lat="47.277" lon="-1.68749">
        <ele>50.3</ele>
        <time>2013-03-02T08:57:21Z</time>
      </trkpt>
      <trkpt lat="47.27702" lon="-1.68748">
        <ele>50.3</ele>
        <time>2013-03-02T08:57:22Z</time>
      </trkpt>
      <trkpt lat="47.27703" lon="-1.68748">
        <ele>50.3</ele>
        <time>2013-03-02T08:57:23Z</time>
      </trkpt>
      <trkpt lat="47.27705" lon="-1.68749">
        <ele>50.3</ele>
        <time>2013-03-02T08:57:24Z</time>
      </trkpt>
      <trkpt lat="47.27706" lon="-1.68749">
        <ele>50.3</ele>
        <time>2013-03-02T08:57:25Z</time>
      </trkpt>
      <trkpt lat="47.27708" lon="-1.68749">
        <ele>50.3</ele>
        <time>2013-03-02T08:57:26Z</time>
      </trkpt>
      <trkpt lat="47.2771" lon="-1.68749">
        <ele>50.4</ele>
        <time>2013-03-02T08:57:27Z</time>
      </trkpt>
      <trkpt lat="47.27712" lon="-1.68749">
        <ele>50.5</ele>
        <time>2013-03-02T08:57:28Z</time>
      </trkpt>
      <trkpt lat="47.27716" lon="-1.68749">
        <ele>51.5</ele>
        <time>2013-03-02T08:57:30Z</time>
      </trkpt>
      <trkpt lat="47.27722" lon="-1.68748">
        <ele>51.7</ele>
        <time>2013-03-02T08:57:34Z</time>
      </trkpt>
      <trkpt lat="47.27727" lon="-1.68748">
        <ele>51.6</ele>
        <time>2013-03-02T08:57:37Z</time>
      </trkpt>
      <trkpt lat="47.27729" lon="-1.68749">
        <ele>51.7</ele>
        <time>2013-03-02T08:57:38Z</time>
      </trkpt>
      <trkpt lat="47.27731" lon="-1.6875">
        <ele>52</ele>
        <time>2013-03-02T08:57:39Z</time>
      </trkpt>
      <trkpt lat="47.27732" lon="-1.68752">
        <ele>52.3</ele>
        <time>2013-03-02T08:57:40Z</time>
      </trkpt>
      <trkpt lat="47.27738" lon="-1.68758">
        <ele>52.8</ele>
        <time>2013-03-02T08:57:43Z</time>
      </trkpt>
      <trkpt lat="47.27741" lon="-1.68761">
        <ele>52.2</ele>
        <time>2013-03-02T08:57:45Z</time>
      </trkpt>
      <trkpt lat="47.27743" lon="-1.68764">
        <ele>51.9</ele>
        <time>2013-03-02T08:57:46Z</time>
      </trkpt>
      <trkpt lat="47.27743" lon="-1.68768">
        <ele>51.7</ele>
        <time>2013-03-02T08:57:47Z</time>
      </trkpt>
      <trkpt lat="47.27743" lon="-1.68774">
        <ele>51.3</ele>
        <time>2013-03-02T08:57:49Z</time>
      </trkpt>
      <trkpt lat="47.27744" lon="-1.68776">
        <ele>51.2</ele>
        <time>2013-03-02T08:57:50Z</time>
      </trkpt>
      <trkpt lat="47.27745" lon="-1.68778">
        <ele>51.4</ele>
        <time>2013-03-02T08:57:51Z</time>
      </trkpt>
      <trkpt lat="47.27747" lon="-1.68779">
        <ele>51.6</ele>
        <time>2013-03-02T08:57:52Z</time>
      </trkpt>
      <trkpt lat="47.27748" lon="-1.6878">
        <ele>51.7</ele>
        <time>2013-03-02T08:57:53Z</time>
      </trkpt>
      <trkpt lat="47.2775" lon="-1.68782">
        <ele>51.9</ele>
        <time>2013-03-02T08:57:54Z</time>
      </trkpt>
      <trkpt lat="47.27752" lon="-1.68783">
        <ele>51.9</ele>
        <time>2013-03-02T08:57:55Z</time>
      </trkpt>
      <trkpt lat="47.27754" lon="-1.68784">
        <ele>52</ele>
        <time>2013-03-02T08:57:56Z</time>
      </trkpt>
      <trkpt lat="47.27755" lon="-1.68785">
        <ele>52</ele>
        <time>2013-03-02T08:57:57Z</time>
      </trkpt>
      <trkpt lat="47.27757" lon="-1.68786">
        <ele>52.1</ele>
        <time>2013-03-02T08:57:58Z</time>
      </trkpt>
      <trkpt lat="47.27763" lon="-1.68789">
        <ele>52</ele>
        <time>2013-03-02T08:58:01Z</time>
      </trkpt>
      <trkpt lat="47.27765" lon="-1.68791">
        <ele>51.9</ele>
        <time>2013-03-02T08:58:02Z</time>
      </trkpt>
      <trkpt lat="47.27769" lon="-1.68796">
        <ele>52.1</ele>
        <time>2013-03-02T08:58:04Z</time>
      </trkpt>
      <trkpt lat="47.27771" lon="-1.68797">
        <ele>52.4</ele>
        <time>2013-03-02T08:58:05Z</time>
      </trkpt>
      <trkpt lat="47.27773" lon="-1.68799">
        <ele>52.7</ele>
        <time>2013-03-02T08:58:06Z</time>
      </trkpt>
      <trkpt lat="47.27776" lon="-1.68801">
        <ele>52.6</ele>
        <time>2013-03-02T08:58:07Z</time>
      </trkpt>
      <trkpt lat="47.27778" lon="-1.68803">
        <ele>52.6</ele>
        <time>2013-03-02T08:58:08Z</time>
      </trkpt>
      <trkpt lat="47.2778" lon="-1.68806">
        <ele>52.5</ele>
        <time>2013-03-02T08:58:09Z</time>
      </trkpt>
      <trkpt lat="47.27781" lon="-1.68809">
        <ele>52.2</ele>
        <time>2013-03-02T08:58:10Z</time>
      </trkpt>
      <trkpt lat="47.27782" lon="-1.68813">
        <ele>52</ele>
        <time>2013-03-02T08:58:11Z</time>
      </trkpt>
      <trkpt lat="47.27782" lon="-1.68817">
        <ele>52.1</ele>
        <time>2013-03-02T08:58:12Z</time>
      </trkpt>
      <trkpt lat="47.27783" lon="-1.6882">
        <ele>52.1</ele>
        <time>2013-03-02T08:58:13Z</time>
      </trkpt>
      <trkpt lat="47.27782" lon="-1.68824">
        <ele>52.3</ele>
        <time>2013-03-02T08:58:14Z</time>
      </trkpt>
      <trkpt lat="47.2778" lon="-1.68833">
        <ele>52.8</ele>
        <time>2013-03-02T08:58:17Z</time>
      </trkpt>
      <trkpt lat="47.27779" lon="-1.68836">
        <ele>52.8</ele>
        <time>2013-03-02T08:58:18Z</time>
      </trkpt>
      <trkpt lat="47.27778" lon="-1.68838">
        <ele>53.2</ele>
        <time>2013-03-02T08:58:19Z</time>
      </trkpt>
      <trkpt lat="47.27776" lon="-1.68841">
        <ele>53.5</ele>
        <time>2013-03-02T08:58:20Z</time>
      </trkpt>
      <trkpt lat="47.27775" lon="-1.68843">
        <ele>53.7</ele>
        <time>2013-03-02T08:58:21Z</time>
      </trkpt>
      <trkpt lat="47.27773" lon="-1.68845">
        <ele>54.1</ele>
        <time>2013-03-02T08:58:22Z</time>
      </trkpt>
      <trkpt lat="47.27758" lon="-1.68858">
        <ele>54.9</ele>
        <time>2013-03-02T08:58:30Z</time>
      </trkpt>
      <trkpt lat="47.27757" lon="-1.68859">
        <ele>55.4</ele>
        <time>2013-03-02T08:58:31Z</time>
      </trkpt>
      <trkpt lat="47.27757" lon="-1.68862">
        <ele>55.8</ele>
        <time>2013-03-02T08:58:32Z</time>
      </trkpt>
      <trkpt lat="47.27756" lon="-1.68865">
        <ele>55.7</ele>
        <time>2013-03-02T08:58:33Z</time>
      </trkpt>
      <trkpt lat="47.27756" lon="-1.68868">
        <ele>55.7</ele>
        <time>2013-03-02T08:58:34Z</time>
      </trkpt>
      <trkpt lat="47.27756" lon="-1.68872">
        <ele>55.6</ele>
        <time>2013-03-02T08:58:35Z</time>
      </trkpt>
      <trkpt lat="47.27755" lon="-1.68875">
        <ele>56.1</ele>
        <time>2013-03-02T08:58:36Z</time>
      </trkpt>
      <trkpt lat="47.27755" lon="-1.68878">
        <ele>56.5</ele>
        <time>2013-03-02T08:58:37Z</time>
      </trkpt>
      <trkpt lat="47.27754" lon="-1.68881">
        <ele>57</ele>
        <time>2013-03-02T08:58:38Z</time>
      </trkpt>
      <trkpt lat="47.27746" lon="-1.68902">
        <ele>58.8</ele>
        <time>2013-03-02T08:58:45Z</time>
      </trkpt>
      <trkpt lat="47.27743" lon="-1.68908">
        <ele>59.2</ele>
        <time>2013-03-02T08:58:47Z</time>
      </trkpt>
      <trkpt lat="47.27742" lon="-1.6891">
        <ele>59.3</ele>
        <time>2013-03-02T08:58:48Z</time>
      </trkpt>
      <trkpt lat="47.2774" lon="-1.68912">
        <ele>59.4</ele>
        <time>2013-03-02T08:58:49Z</time>
      </trkpt>
      <trkpt lat="47.27738" lon="-1.68914">
        <ele>59.3</ele>
        <time>2013-03-02T08:58:50Z</time>
      </trkpt>
      <trkpt lat="47.27737" lon="-1.68917">
        <ele>59.2</ele>
        <time>2013-03-02T08:58:51Z</time>
      </trkpt>
      <trkpt lat="47.27735" lon="-1.6892">
        <ele>59.5</ele>
        <time>2013-03-02T08:58:52Z</time>
      </trkpt>
      <trkpt lat="47.27735" lon="-1.68923">
        <ele>59.8</ele>
        <time>2013-03-02T08:58:53Z</time>
      </trkpt>
      <trkpt lat="47.27735" lon="-1.6893">
        <ele>60.2</ele>
        <time>2013-03-02T08:58:55Z</time>
      </trkpt>
      <trkpt lat="47.27734" lon="-1.68931">
        <ele>60.3</ele>
        <time>2013-03-02T08:58:56Z</time>
      </trkpt>
      <trkpt lat="47.27733" lon="-1.68931">
        <ele>60</ele>
        <time>2013-03-02T08:58:57Z</time>
      </trkpt>
      <trkpt lat="47.2773" lon="-1.6893">
        <ele>59.6</ele>
        <time>2013-03-02T08:58:59Z</time>
      </trkpt>
      <trkpt lat="47.27728" lon="-1.68931">
        <ele>59.4</ele>
        <time>2013-03-02T08:59:00Z</time>
      </trkpt>
      <trkpt lat="47.2769" lon="-1.68953">
        <ele>60.9</ele>
        <time>2013-03-02T08:59:17Z</time>
      </trkpt>
      <trkpt lat="47.27687" lon="-1.68955">
        <ele>60.3</ele>
        <time>2013-03-02T08:59:18Z</time>
      </trkpt>
      <trkpt lat="47.27655" lon="-1.68983">
        <ele>62.4</ele>
        <time>2013-03-02T08:59:34Z</time>
      </trkpt>
      <trkpt lat="47.27653" lon="-1.68986">
        <ele>62.2</ele>
        <time>2013-03-02T08:59:35Z</time>
      </trkpt>
      <trkpt lat="47.27647" lon="-1.68992">
        <ele>62</ele>
        <time>2013-03-02T08:59:38Z</time>
      </trkpt>
      <trkpt lat="47.27645" lon="-1.68994">
        <ele>62</ele>
        <time>2013-03-02T08:59:39Z</time>
      </trkpt>
      <trkpt lat="47.27642" lon="-1.68996">
        <ele>62.3</ele>
        <time>2013-03-02T08:59:40Z</time>
      </trkpt>
      <trkpt lat="47.27639" lon="-1.68997">
        <ele>62.5</ele>
        <time>2013-03-02T08:59:41Z</time>
      </trkpt>
      <trkpt lat="47.27637" lon="-1.68997">
        <ele>62.4</ele>
        <time>2013-03-02T08:59:42Z</time>
      </trkpt>
      <trkpt lat="47.27625" lon="-1.68997">
        <ele>62</ele>
        <time>2013-03-02T08:59:46Z</time>
      </trkpt>
      <trkpt lat="47.27609" lon="-1.68994">
        <ele>62</ele>
        <time>2013-03-02T08:59:51Z</time>
      </trkpt>
      <trkpt lat="47.2757" lon="-1.68985">
        <ele>62.6</ele>
        <time>2013-03-02T09:00:04Z</time>
      </trkpt>
      <trkpt lat="47.27567" lon="-1.68985">
        <ele>63.4</ele>
        <time>2013-03-02T09:00:05Z</time>
      </trkpt>
      <trkpt lat="47.27563" lon="-1.68985">
        <ele>62.9</ele>
        <time>2013-03-02T09:00:06Z</time>
      </trkpt>
      <trkpt lat="47.27554" lon="-1.68988">
        <ele>63.2</ele>
        <time>2013-03-02T09:00:09Z</time>
      </trkpt>
      <trkpt lat="47.27516" lon="-1.68998">
        <ele>62.9</ele>
        <time>2013-03-02T09:00:23Z</time>
      </trkpt>
      <trkpt lat="47.27514" lon="-1.68998">
        <ele>62.8</ele>
        <time>2013-03-02T09:00:24Z</time>
      </trkpt>
      <trkpt lat="47.27427" lon="-1.69019">
        <ele>65.1</ele>
        <time>2013-03-02T09:00:53Z</time>
      </trkpt>
      <trkpt lat="47.27425" lon="-1.6902">
        <ele>65.1</ele>
        <time>2013-03-02T09:00:54Z</time>
      </trkpt>
      <trkpt lat="47.27424" lon="-1.69021">
        <ele>65.1</ele>
        <time>2013-03-02T09:00:55Z</time>
      </trkpt>
      <trkpt lat="47.27422" lon="-1.69021">
        <ele>65.4</ele>
        <time>2013-03-02T09:00:56Z</time>
      </trkpt>
      <trkpt lat="47.27418" lon="-1.69021">
        <ele>65.3</ele>
        <time>2013-03-02T09:00:58Z</time>
      </trkpt>
      <trkpt lat="47.27416" lon="-1.69022">
        <ele>65</ele>
        <time>2013-03-02T09:00:59Z</time>
      </trkpt>
      <trkpt lat="47.27415" lon="-1.69024">
        <ele>64.8</ele>
        <time>2013-03-02T09:01:00Z</time>
      </trkpt>
      <trkpt lat="47.27413" lon="-1.69026">
        <ele>64.7</ele>
        <time>2013-03-02T09:01:01Z</time>
      </trkpt>
      <trkpt lat="47.27411" lon="-1.69028">
        <ele>64.6</ele>
        <time>2013-03-02T09:01:02Z</time>
      </trkpt>
      <trkpt lat="47.27408" lon="-1.69029">
        <ele>64.6</ele>
        <time>2013-03-02T09:01:03Z</time>
      </trkpt>
      <trkpt lat="47.27397" lon="-1.69031">
        <ele>64.6</ele>
        <time>2013-03-02T09:01:08Z</time>
      </trkpt>
      <trkpt lat="47.27391" lon="-1.69034">
        <ele>65</ele>
        <time>2013-03-02T09:01:11Z</time>
      </trkpt>
      <trkpt lat="47.27348" lon="-1.69056">
        <ele>66.5</ele>
        <time>2013-03-02T09:01:26Z</time>
      </trkpt>
      <trkpt lat="47.27344" lon="-1.69058">
        <ele>66.6</ele>
        <time>2013-03-02T09:01:27Z</time>
      </trkpt>
      <trkpt lat="47.27332" lon="-1.69068">
        <ele>66.8</ele>
        <time>2013-03-02T09:01:31Z</time>
      </trkpt>
      <trkpt lat="47.27325" lon="-1.69074">
        <ele>66.9</ele>
        <time>2013-03-02T09:01:33Z</time>
      </trkpt>
      <trkpt lat="47.27323" lon="-1.69078">
        <ele>66.7</ele>
        <time>2013-03-02T09:01:34Z</time>
      </trkpt>
      <trkpt lat="47.27319" lon="-1.69085">
        <ele>66.5</ele>
        <time>2013-03-02T09:01:36Z</time>
      </trkpt>
      <trkpt lat="47.27317" lon="-1.69089">
        <ele>66.5</ele>
        <time>2013-03-02T09:01:37Z</time>
      </trkpt>
      <trkpt lat="47.27295" lon="-1.69148">
        <ele>69.3</ele>
        <time>2013-03-02T09:01:49Z</time>
      </trkpt>
      <trkpt lat="47.27282" lon="-1.69174">
        <ele>68.7</ele>
        <time>2013-03-02T09:01:54Z</time>
      </trkpt>
      <trkpt lat="47.27273" lon="-1.69195">
        <ele>67.9</ele>
        <time>2013-03-02T09:01:58Z</time>
      </trkpt>
      <trkpt lat="47.27269" lon="-1.69207">
        <ele>68</ele>
        <time>2013-03-02T09:02:00Z</time>
      </trkpt>
      <trkpt lat="47.27259" lon="-1.69244">
        <ele>69</ele>
        <time>2013-03-02T09:02:06Z</time>
      </trkpt>
      <trkpt lat="47.27255" lon="-1.69265">
        <ele>69</ele>
        <time>2013-03-02T09:02:10Z</time>
      </trkpt>
      <trkpt lat="47.27251" lon="-1.69287">
        <ele>69</ele>
        <time>2013-03-02T09:02:14Z</time>
      </trkpt>
      <trkpt lat="47.27249" lon="-1.6931">
        <ele>69</ele>
        <time>2013-03-02T09:02:18Z</time>
      </trkpt>
      <trkpt lat="47.27242" lon="-1.69327">
        <ele>69</ele>
        <time>2013-03-02T09:02:22Z</time>
      </trkpt>
      <trkpt lat="47.27229" lon="-1.69336">
        <ele>69</ele>
        <time>2013-03-02T09:02:26Z</time>
      </trkpt>
      <trkpt lat="47.27225" lon="-1.69341">
        <ele>69</ele>
        <time>2013-03-02T09:02:28Z</time>
      </trkpt>
      <trkpt lat="47.27228" lon="-1.69374">
        <ele>69</ele>
        <time>2013-03-02T09:02:34Z</time>
      </trkpt>
      <trkpt lat="47.27234" lon="-1.69394">
        <ele>69</ele>
        <time>2013-03-02T09:02:38Z</time>
      </trkpt>
      <trkpt lat="47.27242" lon="-1.69417">
        <ele>69</ele>
        <time>2013-03-02T09:02:42Z</time>
      </trkpt>
      <trkpt lat="47.27248" lon="-1.69441">
        <ele>68</ele>
        <time>2013-03-02T09:02:46Z</time>
      </trkpt>
      <trkpt lat="47.27252" lon="-1.69456">
        <ele>68.6</ele>
        <time>2013-03-02T09:02:49Z</time>
      </trkpt>
      <trkpt lat="47.27254" lon="-1.69462">
        <ele>68.6</ele>
        <time>2013-03-02T09:02:50Z</time>
      </trkpt>
      <trkpt lat="47.27271" lon="-1.69506">
        <ele>68.9</ele>
        <time>2013-03-02T09:02:58Z</time>
      </trkpt>
      <trkpt lat="47.27302" lon="-1.6959">
        <ele>69.6</ele>
        <time>2013-03-02T09:03:12Z</time>
      </trkpt>
      <trkpt lat="47.27306" lon="-1.69595">
        <ele>69.6</ele>
        <time>2013-03-02T09:03:13Z</time>
      </trkpt>
      <trkpt lat="47.2731" lon="-1.69601">
        <ele>69.1</ele>
        <time>2013-03-02T09:03:14Z</time>
      </trkpt>
      <trkpt lat="47.27314" lon="-1.69605">
        <ele>68.7</ele>
        <time>2013-03-02T09:03:15Z</time>
      </trkpt>
      <trkpt lat="47.27322" lon="-1.69614">
        <ele>68.9</ele>
        <time>2013-03-02T09:03:17Z</time>
      </trkpt>
      <trkpt lat="47.27325" lon="-1.69619">
        <ele>68.6</ele>
        <time>2013-03-02T09:03:18Z</time>
      </trkpt>
      <trkpt lat="47.27325" lon="-1.69625">
        <ele>68.4</ele>
        <time>2013-03-02T09:03:19Z</time>
      </trkpt>
      <trkpt lat="47.27323" lon="-1.6963">
        <ele>68.3</ele>
        <time>2013-03-02T09:03:20Z</time>
      </trkpt>
      <trkpt lat="47.2732" lon="-1.69632">
        <ele>68.1</ele>
        <time>2013-03-02T09:03:21Z</time>
      </trkpt>
      <trkpt lat="47.27305" lon="-1.69641">
        <ele>67.7</ele>
        <time>2013-03-02T09:03:26Z</time>
      </trkpt>
      <trkpt lat="47.2729" lon="-1.6965">
        <ele>68</ele>
        <time>2013-03-02T09:03:31Z</time>
      </trkpt>
      <trkpt lat="47.27287" lon="-1.69651">
        <ele>68.2</ele>
        <time>2013-03-02T09:03:32Z</time>
      </trkpt>
      <trkpt lat="47.27015" lon="-1.698">
        <ele>68.9</ele>
        <time>2013-03-02T09:04:42Z</time>
      </trkpt>
      <trkpt lat="47.27013" lon="-1.69802">
        <ele>68</ele>
        <time>2013-03-02T09:04:46Z</time>
      </trkpt>
      <trkpt lat="47.27013" lon="-1.69802">
        <ele>67</ele>
        <time>2013-03-02T09:04:47Z</time>
      </trkpt>
      <trkpt lat="47.27013" lon="-1.69802">
        <ele>67.4</ele>
        <time>2013-03-02T09:04:48Z</time>
      </trkpt>
      <trkpt lat="47.27013" lon="-1.69802">
        <ele>67.7</ele>
        <time>2013-03-02T09:04:49Z</time>
      </trkpt>
      <trkpt lat="47.27013" lon="-1.69803">
        <ele>67.9</ele>
        <time>2013-03-02T09:04:50Z</time>
      </trkpt>
      <trkpt lat="47.27013" lon="-1.69803">
        <ele>68.2</ele>
        <time>2013-03-02T09:04:51Z</time>
      </trkpt>
      <trkpt lat="47.27013" lon="-1.69803">
        <ele>68.4</ele>
        <time>2013-03-02T09:04:52Z</time>
      </trkpt>
      <trkpt lat="47.27013" lon="-1.69803">
        <ele>67.9</ele>
        <time>2013-03-02T09:04:53Z</time>
      </trkpt>
      <trkpt lat="47.27012" lon="-1.69803">
        <ele>67.6</ele>
        <time>2013-03-02T09:04:54Z</time>
      </trkpt>
      <trkpt lat="47.27012" lon="-1.69803">
        <ele>67.3</ele>
        <time>2013-03-02T09:04:55Z</time>
      </trkpt>
      <trkpt lat="47.27012" lon="-1.69803">
        <ele>68</ele>
        <time>2013-03-02T09:04:56Z</time>
      </trkpt>
      <trkpt lat="47.27012" lon="-1.69803">
        <ele>68.5</ele>
        <time>2013-03-02T09:04:57Z</time>
      </trkpt>
      <trkpt lat="47.27012" lon="-1.69803">
        <ele>68</ele>
        <time>2013-03-02T09:04:58Z</time>
      </trkpt>
      <trkpt lat="47.27012" lon="-1.69803">
        <ele>67.6</ele>
        <time>2013-03-02T09:04:59Z</time>
      </trkpt>
      <trkpt lat="47.27012" lon="-1.69803">
        <ele>67.8</ele>
        <time>2013-03-02T09:05:00Z</time>
      </trkpt>
      <trkpt lat="47.27012" lon="-1.69803">
        <ele>67.9</ele>
        <time>2013-03-02T09:05:01Z</time>
      </trkpt>
      <trkpt lat="47.27012" lon="-1.69803">
        <ele>68</ele>
        <time>2013-03-02T09:05:02Z</time>
      </trkpt>
      <trkpt lat="47.27012" lon="-1.69803">
        <ele>67.8</ele>
        <time>2013-03-02T09:05:03Z</time>
      </trkpt>
      <trkpt lat="47.27012" lon="-1.69803">
        <ele>67.7</ele>
        <time>2013-03-02T09:05:04Z</time>
      </trkpt>
      <trkpt lat="47.27012" lon="-1.69803">
        <ele>67.6</ele>
        <time>2013-03-02T09:05:05Z</time>
      </trkpt>
      <trkpt lat="47.27012" lon="-1.69803">
        <ele>66.6</ele>
        <time>2013-03-02T09:05:09Z</time>
      </trkpt>
      <trkpt lat="47.27012" lon="-1.69803">
        <ele>67.6</ele>
        <time>2013-03-02T09:05:10Z</time>
      </trkpt>
      <trkpt lat="47.27012" lon="-1.69803">
        <ele>68.3</ele>
        <time>2013-03-02T09:05:11Z</time>
      </trkpt>
      <trkpt lat="47.27011" lon="-1.69803">
        <ele>67.7</ele>
        <time>2013-03-02T09:05:12Z</time>
      </trkpt>
      <trkpt lat="47.27011" lon="-1.69803">
        <ele>67.2</ele>
        <time>2013-03-02T09:05:13Z</time>
      </trkpt>
      <trkpt lat="47.27011" lon="-1.69803">
        <ele>67.2</ele>
        <time>2013-03-02T09:05:14Z</time>
      </trkpt>
      <trkpt lat="47.27011" lon="-1.69803">
        <ele>67.3</ele>
        <time>2013-03-02T09:05:15Z</time>
      </trkpt>
      <trkpt lat="47.27011" lon="-1.69803">
        <ele>67.4</ele>
        <time>2013-03-02T09:05:16Z</time>
      </trkpt>
      <trkpt lat="47.27011" lon="-1.69803">
        <ele>67.8</ele>
        <time>2013-03-02T09:05:17Z</time>
      </trkpt>
      <trkpt lat="47.2701" lon="-1.69804">
        <ele>68.1</ele>
        <time>2013-03-02T09:05:18Z</time>
      </trkpt>
      <trkpt lat="47.2701" lon="-1.69805">
        <ele>68.5</ele>
        <time>2013-03-02T09:05:19Z</time>
      </trkpt>
      <trkpt lat="47.2701" lon="-1.69806">
        <ele>68.8</ele>
        <time>2013-03-02T09:05:20Z</time>
      </trkpt>
      <trkpt lat="47.27011" lon="-1.69808">
        <ele>69.1</ele>
        <time>2013-03-02T09:05:21Z</time>
      </trkpt>
      <trkpt lat="47.27013" lon="-1.69812">
        <ele>68.5</ele>
        <time>2013-03-02T09:05:24Z</time>
      </trkpt>
      <trkpt lat="47.27014" lon="-1.69814">
        <ele>68.4</ele>
        <time>2013-03-02T09:05:25Z</time>
      </trkpt>
      <trkpt lat="47.27061" lon="-1.69941">
        <ele>71.8</ele>
        <time>2013-03-02T09:05:55Z</time>
      </trkpt>
      <trkpt lat="47.27062" lon="-1.69947">
        <ele>72.1</ele>
        <time>2013-03-02T09:05:56Z</time>
      </trkpt>
      <trkpt lat="47.27095" lon="-1.7003">
        <ele>72.1</ele>
        <time>2013-03-02T09:06:15Z</time>
      </trkpt>
      <trkpt lat="47.27097" lon="-1.70032">
        <ele>72.7</ele>
        <time>2013-03-02T09:06:16Z</time>
      </trkpt>
      <trkpt lat="47.271" lon="-1.70032">
        <ele>73.2</ele>
        <time>2013-03-02T09:06:17Z</time>
      </trkpt>
      <trkpt lat="47.27103" lon="-1.70031">
        <ele>73.5</ele>
        <time>2013-03-02T09:06:18Z</time>
      </trkpt>
      <trkpt lat="47.27112" lon="-1.70028">
        <ele>73.6</ele>
        <time>2013-03-02T09:06:21Z</time>
      </trkpt>
      <trkpt lat="47.27124" lon="-1.70024">
        <ele>69.9</ele>
        <time>2013-03-02T09:06:26Z</time>
      </trkpt>
      <trkpt lat="47.27148" lon="-1.70012">
        <ele>72.6</ele>
        <time>2013-03-02T09:06:35Z</time>
      </trkpt>
      <trkpt lat="47.2715" lon="-1.70012">
        <ele>72.8</ele>
        <time>2013-03-02T09:06:36Z</time>
      </trkpt>
      <trkpt lat="47.27156" lon="-1.70011">
        <ele>73.2</ele>
        <time>2013-03-02T09:06:38Z</time>
      </trkpt>
      <trkpt lat="47.27159" lon="-1.7001">
        <ele>73.4</ele>
        <time>2013-03-02T09:06:39Z</time>
      </trkpt>
      <trkpt lat="47.27192" lon="-1.69996">
        <ele>72.8</ele>
        <time>2013-03-02T09:06:50Z</time>
      </trkpt>
      <trkpt lat="47.27194" lon="-1.69994">
        <ele>72.6</ele>
        <time>2013-03-02T09:06:51Z</time>
      </trkpt>
      <trkpt lat="47.27214" lon="-1.69981">
        <ele>72.4</ele>
        <time>2013-03-02T09:06:58Z</time>
      </trkpt>
      <trkpt lat="47.27217" lon="-1.6998">
        <ele>72.1</ele>
        <time>2013-03-02T09:06:59Z</time>
      </trkpt>
      <trkpt lat="47.27593" lon="-1.69807">
        <ele>55.6</ele>
        <time>2013-03-02T09:08:05Z</time>
      </trkpt>
      <trkpt lat="47.27598" lon="-1.69803">
        <ele>55.5</ele>
        <time>2013-03-02T09:08:06Z</time>
      </trkpt>
      <trkpt lat="47.27708" lon="-1.69759">
        <ele>58.1</ele>
        <time>2013-03-02T09:08:29Z</time>
      </trkpt>
      <trkpt lat="47.27712" lon="-1.69758">
        <ele>58.3</ele>
        <time>2013-03-02T09:08:30Z</time>
      </trkpt>
      <trkpt lat="47.27724" lon="-1.69757">
        <ele>59.1</ele>
        <time>2013-03-02T09:08:33Z</time>
      </trkpt>
      <trkpt lat="47.27727" lon="-1.69757">
        <ele>59.4</ele>
        <time>2013-03-02T09:08:34Z</time>
      </trkpt>
      <trkpt lat="47.2773" lon="-1.69758">
        <ele>59.6</ele>
        <time>2013-03-02T09:08:35Z</time>
      </trkpt>
      <trkpt lat="47.27733" lon="-1.69758">
        <ele>59.7</ele>
        <time>2013-03-02T09:08:36Z</time>
      </trkpt>
      <trkpt lat="47.27735" lon="-1.69758">
        <ele>59.8</ele>
        <time>2013-03-02T09:08:37Z</time>
      </trkpt>
      <trkpt lat="47.27739" lon="-1.69756">
        <ele>60</ele>
        <time>2013-03-02T09:08:39Z</time>
      </trkpt>
      <trkpt lat="47.27746" lon="-1.69755">
        <ele>61</ele>
        <time>2013-03-02T09:08:42Z</time>
      </trkpt>
      <trkpt lat="47.27758" lon="-1.69754">
        <ele>61.9</ele>
        <time>2013-03-02T09:08:46Z</time>
      </trkpt>
      <trkpt lat="47.27769" lon="-1.69754">
        <ele>62.7</ele>
        <time>2013-03-02T09:08:49Z</time>
      </trkpt>
      <trkpt lat="47.27773" lon="-1.69755">
        <ele>63</ele>
        <time>2013-03-02T09:08:50Z</time>
      </trkpt>
      <trkpt lat="47.27785" lon="-1.69755">
        <ele>63.6</ele>
        <time>2013-03-02T09:08:53Z</time>
      </trkpt>
      <trkpt lat="47.27789" lon="-1.69755">
        <ele>63.7</ele>
        <time>2013-03-02T09:08:54Z</time>
      </trkpt>
      <trkpt lat="47.27796" lon="-1.69754">
        <ele>63.4</ele>
        <time>2013-03-02T09:08:56Z</time>
      </trkpt>
      <trkpt lat="47.27799" lon="-1.69753">
        <ele>63.3</ele>
        <time>2013-03-02T09:08:57Z</time>
      </trkpt>
      <trkpt lat="47.27802" lon="-1.6975">
        <ele>63.8</ele>
        <time>2013-03-02T09:08:58Z</time>
      </trkpt>
      <trkpt lat="47.27803" lon="-1.69746">
        <ele>64.1</ele>
        <time>2013-03-02T09:08:59Z</time>
      </trkpt>
      <trkpt lat="47.27804" lon="-1.69742">
        <ele>64.1</ele>
        <time>2013-03-02T09:09:00Z</time>
      </trkpt>
      <trkpt lat="47.27804" lon="-1.69738">
        <ele>64.1</ele>
        <time>2013-03-02T09:09:01Z</time>
      </trkpt>
      <trkpt lat="47.27804" lon="-1.69706">
        <ele>63.6</ele>
        <time>2013-03-02T09:09:07Z</time>
      </trkpt>
      <trkpt lat="47.27805" lon="-1.697">
        <ele>63.4</ele>
        <time>2013-03-02T09:09:08Z</time>
      </trkpt>
      <trkpt lat="47.27807" lon="-1.69695">
        <ele>63.3</ele>
        <time>2013-03-02T09:09:09Z</time>
      </trkpt>
      <trkpt lat="47.27809" lon="-1.69691">
        <ele>63.2</ele>
        <time>2013-03-02T09:09:10Z</time>
      </trkpt>
      <trkpt lat="47.27812" lon="-1.69688">
        <ele>63.2</ele>
        <time>2013-03-02T09:09:11Z</time>
      </trkpt>
      <trkpt lat="47.27815" lon="-1.69685">
        <ele>62.9</ele>
        <time>2013-03-02T09:09:12Z</time>
      </trkpt>
      <trkpt lat="47.27824" lon="-1.6968">
        <ele>63.3</ele>
        <time>2013-03-02T09:09:15Z</time>
      </trkpt>
      <trkpt lat="47.27825" lon="-1.69678">
        <ele>63.4</ele>
        <time>2013-03-02T09:09:16Z</time>
      </trkpt>
      <trkpt lat="47.2783" lon="-1.69672">
        <ele>63.7</ele>
        <time>2013-03-02T09:09:19Z</time>
      </trkpt>
      <trkpt lat="47.27831" lon="-1.69671">
        <ele>63.9</ele>
        <time>2013-03-02T09:09:20Z</time>
      </trkpt>
      <trkpt lat="47.27831" lon="-1.69671">
        <ele>64.5</ele>
        <time>2013-03-02T09:09:22Z</time>
      </trkpt>
      <trkpt lat="47.27831" lon="-1.69671">
        <ele>64.7</ele>
        <time>2013-03-02T09:09:23Z</time>
      </trkpt>
      <trkpt lat="47.27831" lon="-1.6967">
        <ele>64.4</ele>
        <time>2013-03-02T09:09:24Z</time>
      </trkpt>
      <trkpt lat="47.27831" lon="-1.6967">
        <ele>64.1</ele>
        <time>2013-03-02T09:09:25Z</time>
      </trkpt>
      <trkpt lat="47.27831" lon="-1.6967">
        <ele>64.2</ele>
        <time>2013-03-02T09:09:26Z</time>
      </trkpt>
      <trkpt lat="47.27831" lon="-1.6967">
        <ele>64.3</ele>
        <time>2013-03-02T09:09:27Z</time>
      </trkpt>
      <trkpt lat="47.27831" lon="-1.6967">
        <ele>63.9</ele>
        <time>2013-03-02T09:09:28Z</time>
      </trkpt>
      <trkpt lat="47.27831" lon="-1.6967">
        <ele>63.6</ele>
        <time>2013-03-02T09:09:29Z</time>
      </trkpt>
      <trkpt lat="47.27832" lon="-1.6967">
        <ele>63.4</ele>
        <time>2013-03-02T09:09:30Z</time>
      </trkpt>
      <trkpt lat="47.27832" lon="-1.6967">
        <ele>64</ele>
        <time>2013-03-02T09:09:31Z</time>
      </trkpt>
      <trkpt lat="47.27832" lon="-1.6967">
        <ele>64.4</ele>
        <time>2013-03-02T09:09:32Z</time>
      </trkpt>
      <trkpt lat="47.27832" lon="-1.6967">
        <ele>64.4</ele>
        <time>2013-03-02T09:09:33Z</time>
      </trkpt>
      <trkpt lat="47.27832" lon="-1.6967">
        <ele>64.4</ele>
        <time>2013-03-02T09:09:34Z</time>
      </trkpt>
      <trkpt lat="47.27832" lon="-1.6967">
        <ele>64.4</ele>
        <time>2013-03-02T09:09:35Z</time>
      </trkpt>
      <trkpt lat="47.27832" lon="-1.6967">
        <ele>64.4</ele>
        <time>2013-03-02T09:09:36Z</time>
      </trkpt>
      <trkpt lat="47.27832" lon="-1.6967">
        <ele>64.3</ele>
        <time>2013-03-02T09:09:37Z</time>
      </trkpt>
      <trkpt lat="47.27832" lon="-1.6967">
        <ele>64.3</ele>
        <time>2013-03-02T09:09:38Z</time>
      </trkpt>
      <trkpt lat="47.27832" lon="-1.6967">
        <ele>64.3</ele>
        <time>2013-03-02T09:09:39Z</time>
      </trkpt>
      <trkpt lat="47.27832" lon="-1.6967">
        <ele>64.2</ele>
        <time>2013-03-02T09:09:40Z</time>
      </trkpt>
      <trkpt lat="47.27832" lon="-1.6967">
        <ele>64.1</ele>
        <time>2013-03-02T09:09:41Z</time>
      </trkpt>
      <trkpt lat="47.27832" lon="-1.6967">
        <ele>64</ele>
        <time>2013-03-02T09:09:42Z</time>
      </trkpt>
      <trkpt lat="47.27832" lon="-1.6967">
        <ele>63.8</ele>
        <time>2013-03-02T09:09:43Z</time>
      </trkpt>
      <trkpt lat="47.27832" lon="-1.6967">
        <ele>63.7</ele>
        <time>2013-03-02T09:09:44Z</time>
      </trkpt>
      <trkpt lat="47.27832" lon="-1.6967">
        <ele>63.9</ele>
        <time>2013-03-02T09:09:45Z</time>
      </trkpt>
      <trkpt lat="47.27832" lon="-1.6967">
        <ele>64</ele>
        <time>2013-03-02T09:09:46Z</time>
      </trkpt>
      <trkpt lat="47.27832" lon="-1.6967">
        <ele>64.3</ele>
        <time>2013-03-02T09:09:47Z</time>
      </trkpt>
      <trkpt lat="47.27832" lon="-1.6967">
        <ele>64.4</ele>
        <time>2013-03-02T09:09:48Z</time>
      </trkpt>
      <trkpt lat="47.27832" lon="-1.6967">
        <ele>64.6</ele>
        <time>2013-03-02T09:09:49Z</time>
      </trkpt>
      <trkpt lat="47.27832" lon="-1.6967">
        <ele>64.2</ele>
        <time>2013-03-02T09:09:50Z</time>
      </trkpt>
      <trkpt lat="47.27832" lon="-1.6967">
        <ele>63.9</ele>
        <time>2013-03-02T09:09:51Z</time>
      </trkpt>
      <trkpt lat="47.27833" lon="-1.6967">
        <ele>63.9</ele>
        <time>2013-03-02T09:09:52Z</time>
      </trkpt>
      <trkpt lat="47.27833" lon="-1.6967">
        <ele>63.9</ele>
        <time>2013-03-02T09:09:53Z</time>
      </trkpt>
      <trkpt lat="47.27833" lon="-1.6967">
        <ele>64</ele>
        <time>2013-03-02T09:09:54Z</time>
      </trkpt>
      <trkpt lat="47.27833" lon="-1.6967">
        <ele>64.1</ele>
        <time>2013-03-02T09:09:55Z</time>
      </trkpt>
      <trkpt lat="47.27833" lon="-1.6967">
        <ele>64.1</ele>
        <time>2013-03-02T09:09:56Z</time>
      </trkpt>
      <trkpt lat="47.27833" lon="-1.6967">
        <ele>64</ele>
        <time>2013-03-02T09:09:57Z</time>
      </trkpt>
      <trkpt lat="47.27833" lon="-1.6967">
        <ele>63.9</ele>
        <time>2013-03-02T09:09:58Z</time>
      </trkpt>
      <trkpt lat="47.27833" lon="-1.6967">
        <ele>64</ele>
        <time>2013-03-02T09:09:59Z</time>
      </trkpt>
      <trkpt lat="47.27833" lon="-1.6967">
        <ele>64</ele>
        <time>2013-03-02T09:10:00Z</time>
      </trkpt>
      <trkpt lat="47.27833" lon="-1.6967">
        <ele>64</ele>
        <time>2013-03-02T09:10:01Z</time>
      </trkpt>
      <trkpt lat="47.27833" lon="-1.6967">
        <ele>64.1</ele>
        <time>2013-03-02T09:10:02Z</time>
      </trkpt>
      <trkpt lat="47.27833" lon="-1.6967">
        <ele>64.1</ele>
        <time>2013-03-02T09:10:03Z</time>
      </trkpt>
      <trkpt lat="47.27833" lon="-1.6967">
        <ele>64.2</ele>
        <time>2013-03-02T09:10:04Z</time>
      </trkpt>
      <trkpt lat="47.27833" lon="-1.6967">
        <ele>64.3</ele>
        <time>2013-03-02T09:10:05Z</time>
      </trkpt>
      <trkpt lat="47.27833" lon="-1.6967">
        <ele>64.4</ele>
        <time>2013-03-02T09:10:06Z</time>
      </trkpt>
      <trkpt lat="47.27833" lon="-1.6967">
        <ele>64.4</ele>
        <time>2013-03-02T09:10:07Z</time>
      </trkpt>
      <trkpt lat="47.27833" lon="-1.6967">
        <ele>64.4</ele>
        <time>2013-03-02T09:10:08Z</time>
      </trkpt>
      <trkpt lat="47.27833" lon="-1.6967">
        <ele>64.5</ele>
        <time>2013-03-02T09:10:09Z</time>
      </trkpt>
      <trkpt lat="47.27833" lon="-1.6967">
        <ele>64.5</ele>
        <time>2013-03-02T09:10:10Z</time>
      </trkpt>
      <trkpt lat="47.27833" lon="-1.6967">
        <ele>64.5</ele>
        <time>2013-03-02T09:10:11Z</time>
      </trkpt>
      <trkpt lat="47.27833" lon="-1.6967">
        <ele>64.6</ele>
        <time>2013-03-02T09:10:12Z</time>
      </trkpt>
      <trkpt lat="47.27833" lon="-1.6967">
        <ele>64.7</ele>
        <time>2013-03-02T09:10:13Z</time>
      </trkpt>
      <trkpt lat="47.27833" lon="-1.6967">
        <ele>64.7</ele>
        <time>2013-03-02T09:10:14Z</time>
      </trkpt>
      <trkpt lat="47.27833" lon="-1.6967">
        <ele>64.8</ele>
        <time>2013-03-02T09:10:15Z</time>
      </trkpt>
      <trkpt lat="47.27833" lon="-1.6967">
        <ele>64.3</ele>
        <time>2013-03-02T09:10:17Z</time>
      </trkpt>
      <trkpt lat="47.27833" lon="-1.6967">
        <ele>64.3</ele>
        <time>2013-03-02T09:10:18Z</time>
      </trkpt>
      <trkpt lat="47.27833" lon="-1.6967">
        <ele>64.4</ele>
        <time>2013-03-02T09:10:19Z</time>
      </trkpt>
      <trkpt lat="47.27833" lon="-1.6967">
        <ele>64.4</ele>
        <time>2013-03-02T09:10:20Z</time>
      </trkpt>
      <trkpt lat="47.27833" lon="-1.6967">
        <ele>64.4</ele>
        <time>2013-03-02T09:10:21Z</time>
      </trkpt>
      <trkpt lat="47.27833" lon="-1.6967">
        <ele>64.3</ele>
        <time>2013-03-02T09:10:26Z</time>
      </trkpt>
      <trkpt lat="47.27833" lon="-1.6967">
        <ele>64.3</ele>
        <time>2013-03-02T09:10:27Z</time>
      </trkpt>
      <trkpt lat="47.27833" lon="-1.6967">
        <ele>64.4</ele>
        <time>2013-03-02T09:10:28Z</time>
      </trkpt>
      <trkpt lat="47.27833" lon="-1.6967">
        <ele>64.5</ele>
        <time>2013-03-02T09:10:29Z</time>
      </trkpt>
      <trkpt lat="47.27833" lon="-1.6967">
        <ele>64.4</ele>
        <time>2013-03-02T09:10:30Z</time>
      </trkpt>
      <trkpt lat="47.27833" lon="-1.6967">
        <ele>64.3</ele>
        <time>2013-03-02T09:10:31Z</time>
      </trkpt>
      <trkpt lat="47.27833" lon="-1.6967">
        <ele>64</ele>
        <time>2013-03-02T09:10:32Z</time>
      </trkpt>
      <trkpt lat="47.27833" lon="-1.6967">
        <ele>63.7</ele>
        <time>2013-03-02T09:10:33Z</time>
      </trkpt>
      <trkpt lat="47.27833" lon="-1.6967">
        <ele>63.5</ele>
        <time>2013-03-02T09:10:34Z</time>
      </trkpt>
      <trkpt lat="47.27833" lon="-1.6967">
        <ele>63.7</ele>
        <time>2013-03-02T09:10:35Z</time>
      </trkpt>
      <trkpt lat="47.27833" lon="-1.6967">
        <ele>63.7</ele>
        <time>2013-03-02T09:10:36Z</time>
      </trkpt>
      <trkpt lat="47.27833" lon="-1.6967">
        <ele>64.4</ele>
        <time>2013-03-02T09:10:37Z</time>
      </trkpt>
      <trkpt lat="47.27833" lon="-1.6967">
        <ele>64.8</ele>
        <time>2013-03-02T09:10:38Z</time>
      </trkpt>
      <trkpt lat="47.27833" lon="-1.6967">
        <ele>65.2</ele>
        <time>2013-03-02T09:10:39Z</time>
      </trkpt>
      <trkpt lat="47.27833" lon="-1.6967">
        <ele>64.7</ele>
        <time>2013-03-02T09:10:40Z</time>
      </trkpt>
      <trkpt lat="47.27833" lon="-1.6967">
        <ele>64.3</ele>
        <time>2013-03-02T09:10:41Z</time>
      </trkpt>
      <trkpt lat="47.27833" lon="-1.6967">
        <ele>64</ele>
        <time>2013-03-02T09:10:42Z</time>
      </trkpt>
      <trkpt lat="47.27833" lon="-1.6967">
        <ele>63.8</ele>
        <time>2013-03-02T09:10:43Z</time>
      </trkpt>
      <trkpt lat="47.27833" lon="-1.6967">
        <ele>64.1</ele>
        <time>2013-03-02T09:10:44Z</time>
      </trkpt>
      <trkpt lat="47.27833" lon="-1.6967">
        <ele>64.2</ele>
        <time>2013-03-02T09:10:45Z</time>
      </trkpt>
      <trkpt lat="47.27833" lon="-1.6967">
        <ele>64.4</ele>
        <time>2013-03-02T09:10:46Z</time>
      </trkpt>
      <trkpt lat="47.27833" lon="-1.6967">
        <ele>64.7</ele>
        <time>2013-03-02T09:10:47Z</time>
      </trkpt>
      <trkpt lat="47.27834" lon="-1.6967">
        <ele>65</ele>
        <time>2013-03-02T09:10:48Z</time>
      </trkpt>
      <trkpt lat="47.27834" lon="-1.6967">
        <ele>64.9</ele>
        <time>2013-03-02T09:10:49Z</time>
      </trkpt>
      <trkpt lat="47.27834" lon="-1.69671">
        <ele>64.8</ele>
        <time>2013-03-02T09:10:50Z</time>
      </trkpt>
      <trkpt lat="47.27834" lon="-1.6967">
        <ele>64.5</ele>
        <time>2013-03-02T09:10:51Z</time>
      </trkpt>
      <trkpt lat="47.27834" lon="-1.69671">
        <ele>64.3</ele>
        <time>2013-03-02T09:10:52Z</time>
      </trkpt>
      <trkpt lat="47.27834" lon="-1.69671">
        <ele>64.1</ele>
        <time>2013-03-02T09:10:53Z</time>
      </trkpt>
      <trkpt lat="47.27834" lon="-1.69671">
        <ele>64.2</ele>
        <time>2013-03-02T09:10:54Z</time>
      </trkpt>
      <trkpt lat="47.27834" lon="-1.69671">
        <ele>64.3</ele>
        <time>2013-03-02T09:10:55Z</time>
      </trkpt>
      <trkpt lat="47.27834" lon="-1.69671">
        <ele>64.2</ele>
        <time>2013-03-02T09:10:56Z</time>
      </trkpt>
      <trkpt lat="47.27834" lon="-1.6967">
        <ele>64.1</ele>
        <time>2013-03-02T09:10:57Z</time>
      </trkpt>
      <trkpt lat="47.27834" lon="-1.6967">
        <ele>64.1</ele>
        <time>2013-03-02T09:10:59Z</time>
      </trkpt>
      <trkpt lat="47.27834" lon="-1.6967">
        <ele>64.1</ele>
        <time>2013-03-02T09:11:00Z</time>
      </trkpt>
      <trkpt lat="47.27834" lon="-1.69671">
        <ele>64.2</ele>
        <time>2013-03-02T09:11:01Z</time>
      </trkpt>
      <trkpt lat="47.27834" lon="-1.69671">
        <ele>64.2</ele>
        <time>2013-03-02T09:11:02Z</time>
      </trkpt>
      <trkpt lat="47.27834" lon="-1.69671">
        <ele>64.3</ele>
        <time>2013-03-02T09:11:03Z</time>
      </trkpt>
      <trkpt lat="47.27834" lon="-1.69671">
        <ele>64.3</ele>
        <time>2013-03-02T09:11:04Z</time>
      </trkpt>
      <trkpt lat="47.27834" lon="-1.69671">
        <ele>64.3</ele>
        <time>2013-03-02T09:11:05Z</time>
      </trkpt>
      <trkpt lat="47.27834" lon="-1.69671">
        <ele>64.4</ele>
        <time>2013-03-02T09:11:06Z</time>
      </trkpt>
      <trkpt lat="47.27834" lon="-1.69671">
        <ele>64.5</ele>
        <time>2013-03-02T09:11:07Z</time>
      </trkpt>
      <trkpt lat="47.27834" lon="-1.69671">
        <ele>64.7</ele>
        <time>2013-03-02T09:11:08Z</time>
      </trkpt>
      <trkpt lat="47.27834" lon="-1.69671">
        <ele>64.9</ele>
        <time>2013-03-02T09:11:09Z</time>
      </trkpt>
      <trkpt lat="47.27833" lon="-1.69671">
        <ele>64.7</ele>
        <time>2013-03-02T09:11:10Z</time>
      </trkpt>
      <trkpt lat="47.27833" lon="-1.69671">
        <ele>64.5</ele>
        <time>2013-03-02T09:11:11Z</time>
      </trkpt>
      <trkpt lat="47.27833" lon="-1.69671">
        <ele>64.4</ele>
        <time>2013-03-02T09:11:12Z</time>
      </trkpt>
      <trkpt lat="47.27833" lon="-1.69671">
        <ele>64</ele>
        <time>2013-03-02T09:11:13Z</time>
      </trkpt>
      <trkpt lat="47.27833" lon="-1.69671">
        <ele>63.8</ele>
        <time>2013-03-02T09:11:14Z</time>
      </trkpt>
      <trkpt lat="47.27833" lon="-1.69671">
        <ele>63.8</ele>
        <time>2013-03-02T09:11:15Z</time>
      </trkpt>
      <trkpt lat="47.27833" lon="-1.69671">
        <ele>64.3</ele>
        <time>2013-03-02T09:11:34Z</time>
      </trkpt>
      <trkpt lat="47.27834" lon="-1.69671">
        <ele>64.2</ele>
        <time>2013-03-02T09:11:35Z</time>
      </trkpt>
      <trkpt lat="47.27834" lon="-1.69671">
        <ele>64.1</ele>
        <time>2013-03-02T09:11:36Z</time>
      </trkpt>
      <trkpt lat="47.27834" lon="-1.69671">
        <ele>64.2</ele>
        <time>2013-03-02T09:11:37Z</time>
      </trkpt>
      <trkpt lat="47.27834" lon="-1.69671">
        <ele>64.3</ele>
        <time>2013-03-02T09:11:38Z</time>
      </trkpt>
      <trkpt lat="47.27834" lon="-1.69671">
        <ele>64.7</ele>
        <time>2013-03-02T09:11:39Z</time>
      </trkpt>
      <trkpt lat="47.27834" lon="-1.69671">
        <ele>65</ele>
        <time>2013-03-02T09:11:40Z</time>
      </trkpt>
      <trkpt lat="47.27834" lon="-1.69671">
        <ele>64.9</ele>
        <time>2013-03-02T09:11:41Z</time>
      </trkpt>
      <trkpt lat="47.27834" lon="-1.69671">
        <ele>64.9</ele>
        <time>2013-03-02T09:11:42Z</time>
      </trkpt>
      <trkpt lat="47.27834" lon="-1.69671">
        <ele>64.8</ele>
        <time>2013-03-02T09:11:43Z</time>
      </trkpt>
      <trkpt lat="47.27834" lon="-1.69671">
        <ele>64.7</ele>
        <time>2013-03-02T09:11:44Z</time>
      </trkpt>
      <trkpt lat="47.27834" lon="-1.69671">
        <ele>64.6</ele>
        <time>2013-03-02T09:11:45Z</time>
      </trkpt>
      <trkpt lat="47.27834" lon="-1.69671">
        <ele>64.5</ele>
        <time>2013-03-02T09:11:46Z</time>
      </trkpt>
      <trkpt lat="47.27834" lon="-1.69671">
        <ele>64.4</ele>
        <time>2013-03-02T09:11:47Z</time>
      </trkpt>
      <trkpt lat="47.27834" lon="-1.69671">
        <ele>64.1</ele>
        <time>2013-03-02T09:11:48Z</time>
      </trkpt>
      <trkpt lat="47.27834" lon="-1.69671">
        <ele>63.8</ele>
        <time>2013-03-02T09:11:49Z</time>
      </trkpt>
      <trkpt lat="47.27834" lon="-1.69671">
        <ele>63.6</ele>
        <time>2013-03-02T09:11:50Z</time>
      </trkpt>
      <trkpt lat="47.27834" lon="-1.69671">
        <ele>63.6</ele>
        <time>2013-03-02T09:11:51Z</time>
      </trkpt>
      <trkpt lat="47.27834" lon="-1.69671">
        <ele>63.6</ele>
        <time>2013-03-02T09:11:52Z</time>
      </trkpt>
      <trkpt lat="47.27834" lon="-1.69671">
        <ele>63.9</ele>
        <time>2013-03-02T09:11:53Z</time>
      </trkpt>
      <trkpt lat="47.27834" lon="-1.69671">
        <ele>64.1</ele>
        <time>2013-03-02T09:11:54Z</time>
      </trkpt>
      <trkpt lat="47.27834" lon="-1.69671">
        <ele>64.2</ele>
        <time>2013-03-02T09:11:55Z</time>
      </trkpt>
      <trkpt lat="47.27834" lon="-1.69671">
        <ele>64.3</ele>
        <time>2013-03-02T09:11:56Z</time>
      </trkpt>
      <trkpt lat="47.27834" lon="-1.69671">
        <ele>64.4</ele>
        <time>2013-03-02T09:11:57Z</time>
      </trkpt>
      <trkpt lat="47.27834" lon="-1.69671">
        <ele>64.3</ele>
        <time>2013-03-02T09:12:01Z</time>
      </trkpt>
      <trkpt lat="47.27834" lon="-1.69671">
        <ele>64.2</ele>
        <time>2013-03-02T09:12:02Z</time>
      </trkpt>
      <trkpt lat="47.27834" lon="-1.69671">
        <ele>64.5</ele>
        <time>2013-03-02T09:12:03Z</time>
      </trkpt>
      <trkpt lat="47.27834" lon="-1.69671">
        <ele>64.7</ele>
        <time>2013-03-02T09:12:04Z</time>
      </trkpt>
      <trkpt lat="47.27834" lon="-1.69671">
        <ele>64.8</ele>
        <time>2013-03-02T09:12:05Z</time>
      </trkpt>
      <trkpt lat="47.27834" lon="-1.69671">
        <ele>65</ele>
        <time>2013-03-02T09:12:06Z</time>
      </trkpt>
      <trkpt lat="47.27834" lon="-1.69671">
        <ele>64.8</ele>
        <time>2013-03-02T09:12:07Z</time>
      </trkpt>
      <trkpt lat="47.27834" lon="-1.69671">
        <ele>64.7</ele>
        <time>2013-03-02T09:12:08Z</time>
      </trkpt>
      <trkpt lat="47.27834" lon="-1.69671">
        <ele>64.6</ele>
        <time>2013-03-02T09:12:09Z</time>
      </trkpt>
      <trkpt lat="47.27834" lon="-1.69671">
        <ele>64.6</ele>
        <time>2013-03-02T09:12:10Z</time>
      </trkpt>
      <trkpt lat="47.27834" lon="-1.69671">
        <ele>64.7</ele>
        <time>2013-03-02T09:12:11Z</time>
      </trkpt>
      <trkpt lat="47.27834" lon="-1.69671">
        <ele>64.6</ele>
        <time>2013-03-02T09:12:12Z</time>
      </trkpt>
      <trkpt lat="47.27834" lon="-1.69671">
        <ele>64.6</ele>
        <time>2013-03-02T09:12:13Z</time>
      </trkpt>
      <trkpt lat="47.27834" lon="-1.69671">
        <ele>64.6</ele>
        <time>2013-03-02T09:12:14Z</time>
      </trkpt>
      <trkpt lat="47.27834" lon="-1.69671">
        <ele>64.7</ele>
        <time>2013-03-02T09:12:15Z</time>
      </trkpt>
      <trkpt lat="47.27834" lon="-1.69671">
        <ele>64.7</ele>
        <time>2013-03-02T09:12:16Z</time>
      </trkpt>
      <trkpt lat="47.27834" lon="-1.69671">
        <ele>64.7</ele>
        <time>2013-03-02T09:12:17Z</time>
      </trkpt>
      <trkpt lat="47.27834" lon="-1.69671">
        <ele>64.8</ele>
        <time>2013-03-02T09:12:18Z</time>
      </trkpt>
      <trkpt lat="47.27834" lon="-1.69671">
        <ele>64.7</ele>
        <time>2013-03-02T09:12:19Z</time>
      </trkpt>
      <trkpt lat="47.27834" lon="-1.69671">
        <ele>64.7</ele>
        <time>2013-03-02T09:12:20Z</time>
      </trkpt>
      <trkpt lat="47.27834" lon="-1.69671">
        <ele>64.6</ele>
        <time>2013-03-02T09:12:21Z</time>
      </trkpt>
      <trkpt lat="47.27834" lon="-1.69671">
        <ele>64.6</ele>
        <time>2013-03-02T09:12:22Z</time>
      </trkpt>
      <trkpt lat="47.27834" lon="-1.69671">
        <ele>64.6</ele>
        <time>2013-03-02T09:12:23Z</time>
      </trkpt>
      <trkpt lat="47.27834" lon="-1.69671">
        <ele>64.3</ele>
        <time>2013-03-02T09:12:24Z</time>
      </trkpt>
      <trkpt lat="47.27834" lon="-1.69671">
        <ele>64.1</ele>
        <time>2013-03-02T09:12:25Z</time>
      </trkpt>
      <trkpt lat="47.27834" lon="-1.69671">
        <ele>64.1</ele>
        <time>2013-03-02T09:12:26Z</time>
      </trkpt>
      <trkpt lat="47.27834" lon="-1.69671">
        <ele>64.1</ele>
        <time>2013-03-02T09:12:27Z</time>
      </trkpt>
      <trkpt lat="47.27834" lon="-1.69671">
        <ele>64.1</ele>
        <time>2013-03-02T09:12:28Z</time>
      </trkpt>
      <trkpt lat="47.27834" lon="-1.69671">
        <ele>64.3</ele>
        <time>2013-03-02T09:12:29Z</time>
      </trkpt>
      <trkpt lat="47.27834" lon="-1.69671">
        <ele>64.4</ele>
        <time>2013-03-02T09:12:30Z</time>
      </trkpt>
      <trkpt lat="47.27834" lon="-1.69671">
        <ele>64.5</ele>
        <time>2013-03-02T09:12:31Z</time>
      </trkpt>
      <trkpt lat="47.27834" lon="-1.69671">
        <ele>64.5</ele>
        <time>2013-03-02T09:12:32Z</time>
      </trkpt>
      <trkpt lat="47.27834" lon="-1.69671">
        <ele>64.4</ele>
        <time>2013-03-02T09:12:33Z</time>
      </trkpt>
      <trkpt lat="47.27834" lon="-1.69671">
        <ele>64.2</ele>
        <time>2013-03-02T09:12:34Z</time>
      </trkpt>
      <trkpt lat="47.27834" lon="-1.69671">
        <ele>64.2</ele>
        <time>2013-03-02T09:12:35Z</time>
      </trkpt>
      <trkpt lat="47.27834" lon="-1.69671">
        <ele>64.1</ele>
        <time>2013-03-02T09:12:36Z</time>
      </trkpt>
      <trkpt lat="47.27834" lon="-1.69671">
        <ele>64</ele>
        <time>2013-03-02T09:12:37Z</time>
      </trkpt>
      <trkpt lat="47.27834" lon="-1.69671">
        <ele>64.1</ele>
        <time>2013-03-02T09:12:38Z</time>
      </trkpt>
      <trkpt lat="47.27834" lon="-1.69671">
        <ele>64.2</ele>
        <time>2013-03-02T09:12:39Z</time>
      </trkpt>
      <trkpt lat="47.27834" lon="-1.69672">
        <ele>64.3</ele>
        <time>2013-03-02T09:12:40Z</time>
      </trkpt>
      <trkpt lat="47.27834" lon="-1.69672">
        <ele>64.4</ele>
        <time>2013-03-02T09:12:41Z</time>
      </trkpt>
      <trkpt lat="47.27834" lon="-1.69672">
        <ele>64.5</ele>
        <time>2013-03-02T09:12:42Z</time>
      </trkpt>
      <trkpt lat="47.27834" lon="-1.69672">
        <ele>64.6</ele>
        <time>2013-03-02T09:12:43Z</time>
      </trkpt>
      <trkpt lat="47.27834" lon="-1.69672">
        <ele>64.6</ele>
        <time>2013-03-02T09:12:44Z</time>
      </trkpt>
      <trkpt lat="47.27834" lon="-1.69672">
        <ele>64.6</ele>
        <time>2013-03-02T09:12:45Z</time>
      </trkpt>
      <trkpt lat="47.27834" lon="-1.69672">
        <ele>64.6</ele>
        <time>2013-03-02T09:12:46Z</time>
      </trkpt>
      <trkpt lat="47.27834" lon="-1.69672">
        <ele>64.6</ele>
        <time>2013-03-02T09:12:47Z</time>
      </trkpt>
      <trkpt lat="47.27834" lon="-1.69672">
        <ele>64.5</ele>
        <time>2013-03-02T09:12:48Z</time>
      </trkpt>
      <trkpt lat="47.27834" lon="-1.69672">
        <ele>64.3</ele>
        <time>2013-03-02T09:12:49Z</time>
      </trkpt>
      <trkpt lat="47.27834" lon="-1.69672">
        <ele>64.4</ele>
        <time>2013-03-02T09:12:50Z</time>
      </trkpt>
      <trkpt lat="47.27834" lon="-1.69672">
        <ele>64.5</ele>
        <time>2013-03-02T09:12:51Z</time>
      </trkpt>
      <trkpt lat="47.27834" lon="-1.69672">
        <ele>64.7</ele>
        <time>2013-03-02T09:12:52Z</time>
      </trkpt>
      <trkpt lat="47.27834" lon="-1.69672">
        <ele>64.8</ele>
        <time>2013-03-02T09:12:53Z</time>
      </trkpt>
      <trkpt lat="47.27834" lon="-1.69672">
        <ele>65</ele>
        <time>2013-03-02T09:12:54Z</time>
      </trkpt>
      <trkpt lat="47.27834" lon="-1.69672">
        <ele>64.8</ele>
        <time>2013-03-02T09:12:55Z</time>
      </trkpt>
      <trkpt lat="47.27834" lon="-1.69672">
        <ele>64.7</ele>
        <time>2013-03-02T09:12:56Z</time>
      </trkpt>
      <trkpt lat="47.27834" lon="-1.69672">
        <ele>64.5</ele>
        <time>2013-03-02T09:12:57Z</time>
      </trkpt>
      <trkpt lat="47.27835" lon="-1.69671">
        <ele>64.4</ele>
        <time>2013-03-02T09:12:58Z</time>
      </trkpt>
      <trkpt lat="47.27836" lon="-1.69671">
        <ele>64.3</ele>
        <time>2013-03-02T09:12:59Z</time>
      </trkpt>
      <trkpt lat="47.27838" lon="-1.69672">
        <ele>64.3</ele>
        <time>2013-03-02T09:13:00Z</time>
      </trkpt>
      <trkpt lat="47.27845" lon="-1.69675">
        <ele>64.2</ele>
        <time>2013-03-02T09:13:04Z</time>
      </trkpt>
      <trkpt lat="47.27848" lon="-1.69676">
        <ele>64.3</ele>
        <time>2013-03-02T09:13:05Z</time>
      </trkpt>
      <trkpt lat="47.2785" lon="-1.69679">
        <ele>64.3</ele>
        <time>2013-03-02T09:13:06Z</time>
      </trkpt>
      <trkpt lat="47.27854" lon="-1.69685">
        <ele>64.8</ele>
        <time>2013-03-02T09:13:08Z</time>
      </trkpt>
      <trkpt lat="47.27857" lon="-1.69687">
        <ele>64.7</ele>
        <time>2013-03-02T09:13:09Z</time>
      </trkpt>
      <trkpt lat="47.27861" lon="-1.69687">
        <ele>64.6</ele>
        <time>2013-03-02T09:13:10Z</time>
      </trkpt>
      <trkpt lat="47.27864" lon="-1.69687">
        <ele>64.8</ele>
        <time>2013-03-02T09:13:11Z</time>
      </trkpt>
      <trkpt lat="47.27867" lon="-1.69687">
        <ele>64.9</ele>
        <time>2013-03-02T09:13:12Z</time>
      </trkpt>
      <trkpt lat="47.27884" lon="-1.69683">
        <ele>65.1</ele>
        <time>2013-03-02T09:13:17Z</time>
      </trkpt>
      <trkpt lat="47.2793" lon="-1.69666">
        <ele>63.4</ele>
        <time>2013-03-02T09:13:30Z</time>
      </trkpt>
      <trkpt lat="47.27934" lon="-1.69666">
        <ele>63</ele>
        <time>2013-03-02T09:13:31Z</time>
      </trkpt>
      <trkpt lat="47.27936" lon="-1.69667">
        <ele>62.7</ele>
        <time>2013-03-02T09:13:32Z</time>
      </trkpt>
      <trkpt lat="47.27938" lon="-1.69669">
        <ele>62.6</ele>
        <time>2013-03-02T09:13:33Z</time>
      </trkpt>
      <trkpt lat="47.2794" lon="-1.69672">
        <ele>62.4</ele>
        <time>2013-03-02T09:13:34Z</time>
      </trkpt>
      <trkpt lat="47.27943" lon="-1.69676">
        <ele>62.6</ele>
        <time>2013-03-02T09:13:35Z</time>
      </trkpt>
      <trkpt lat="47.27944" lon="-1.6968">
        <ele>62.8</ele>
        <time>2013-03-02T09:13:36Z</time>
      </trkpt>
      <trkpt lat="47.27955" lon="-1.69711">
        <ele>63</ele>
        <time>2013-03-02T09:13:43Z</time>
      </trkpt>
      <trkpt lat="47.27958" lon="-1.69715">
        <ele>62.9</ele>
        <time>2013-03-02T09:13:44Z</time>
      </trkpt>
      <trkpt lat="47.2796" lon="-1.69717">
        <ele>63.1</ele>
        <time>2013-03-02T09:13:45Z</time>
      </trkpt>
      <trkpt lat="47.27963" lon="-1.69717">
        <ele>63.2</ele>
        <time>2013-03-02T09:13:46Z</time>
      </trkpt>
      <trkpt lat="47.27967" lon="-1.69717">
        <ele>63.1</ele>
        <time>2013-03-02T09:13:47Z</time>
      </trkpt>
      <trkpt lat="47.27974" lon="-1.69716">
        <ele>63.4</ele>
        <time>2013-03-02T09:13:49Z</time>
      </trkpt>
      <trkpt lat="47.27978" lon="-1.69716">
        <ele>63.6</ele>
        <time>2013-03-02T09:13:50Z</time>
      </trkpt>
      <trkpt lat="47.27991" lon="-1.69718">
        <ele>64.1</ele>
        <time>2013-03-02T09:13:53Z</time>
      </trkpt>
      <trkpt lat="47.27996" lon="-1.69717">
        <ele>63.9</ele>
        <time>2013-03-02T09:13:54Z</time>
      </trkpt>
      <trkpt lat="47.28" lon="-1.69716">
        <ele>63.8</ele>
        <time>2013-03-02T09:13:55Z</time>
      </trkpt>
      <trkpt lat="47.28004" lon="-1.69714">
        <ele>63.8</ele>
        <time>2013-03-02T09:13:56Z</time>
      </trkpt>
      <trkpt lat="47.28008" lon="-1.69711">
        <ele>64</ele>
        <time>2013-03-02T09:13:57Z</time>
      </trkpt>
      <trkpt lat="47.28016" lon="-1.69704">
        <ele>64</ele>
        <time>2013-03-02T09:13:59Z</time>
      </trkpt>
      <trkpt lat="47.28019" lon="-1.697">
        <ele>63.9</ele>
        <time>2013-03-02T09:14:00Z</time>
      </trkpt>
      <trkpt lat="47.28022" lon="-1.69696">
        <ele>64</ele>
        <time>2013-03-02T09:14:01Z</time>
      </trkpt>
      <trkpt lat="47.28029" lon="-1.69684">
        <ele>64</ele>
        <time>2013-03-02T09:14:04Z</time>
      </trkpt>
      <trkpt lat="47.28033" lon="-1.69676">
        <ele>64.6</ele>
        <time>2013-03-02T09:14:06Z</time>
      </trkpt>
      <trkpt lat="47.28037" lon="-1.69667">
        <ele>65.2</ele>
        <time>2013-03-02T09:14:08Z</time>
      </trkpt>
      <trkpt lat="47.28042" lon="-1.69652">
        <ele>65.5</ele>
        <time>2013-03-02T09:14:11Z</time>
      </trkpt>
      <trkpt lat="47.28057" lon="-1.69604">
        <ele>66.3</ele>
        <time>2013-03-02T09:14:22Z</time>
      </trkpt>
      <trkpt lat="47.28059" lon="-1.696">
        <ele>66.7</ele>
        <time>2013-03-02T09:14:23Z</time>
      </trkpt>
      <trkpt lat="47.28065" lon="-1.69589">
        <ele>66.6</ele>
        <time>2013-03-02T09:14:26Z</time>
      </trkpt>
      <trkpt lat="47.28077" lon="-1.69569">
        <ele>66.7</ele>
        <time>2013-03-02T09:14:31Z</time>
      </trkpt>
      <trkpt lat="47.28079" lon="-1.69566">
        <ele>66.9</ele>
        <time>2013-03-02T09:14:32Z</time>
      </trkpt>
      <trkpt lat="47.28082" lon="-1.69563">
        <ele>67.1</ele>
        <time>2013-03-02T09:14:33Z</time>
      </trkpt>
      <trkpt lat="47.28085" lon="-1.69559">
        <ele>67.3</ele>
        <time>2013-03-02T09:14:34Z</time>
      </trkpt>
      <trkpt lat="47.28089" lon="-1.69551">
        <ele>67.6</ele>
        <time>2013-03-02T09:14:36Z</time>
      </trkpt>
      <trkpt lat="47.28091" lon="-1.69547">
        <ele>67.3</ele>
        <time>2013-03-02T09:14:37Z</time>
      </trkpt>
      <trkpt lat="47.28092" lon="-1.69543">
        <ele>67</ele>
        <time>2013-03-02T09:14:38Z</time>
      </trkpt>
      <trkpt lat="47.28096" lon="-1.69529">
        <ele>66.5</ele>
        <time>2013-03-02T09:14:41Z</time>
      </trkpt>
      <trkpt lat="47.28099" lon="-1.69513">
        <ele>66.1</ele>
        <time>2013-03-02T09:14:44Z</time>
      </trkpt>
      <trkpt lat="47.281" lon="-1.69507">
        <ele>65.9</ele>
        <time>2013-03-02T09:14:45Z</time>
      </trkpt>
      <trkpt lat="47.281" lon="-1.69501">
        <ele>65.5</ele>
        <time>2013-03-02T09:14:46Z</time>
      </trkpt>
      <trkpt lat="47.28098" lon="-1.6947">
        <ele>65.3</ele>
        <time>2013-03-02T09:14:51Z</time>
      </trkpt>
      <trkpt lat="47.28099" lon="-1.69464">
        <ele>65.3</ele>
        <time>2013-03-02T09:14:52Z</time>
      </trkpt>
      <trkpt lat="47.281" lon="-1.69452">
        <ele>65.5</ele>
        <time>2013-03-02T09:14:54Z</time>
      </trkpt>
      <trkpt lat="47.28101" lon="-1.69446">
        <ele>65.6</ele>
        <time>2013-03-02T09:14:55Z</time>
      </trkpt>
      <trkpt lat="47.28104" lon="-1.69441">
        <ele>65.4</ele>
        <time>2013-03-02T09:14:56Z</time>
      </trkpt>
      <trkpt lat="47.28106" lon="-1.69435">
        <ele>65.2</ele>
        <time>2013-03-02T09:14:57Z</time>
      </trkpt>
      <trkpt lat="47.28109" lon="-1.6943">
        <ele>64.8</ele>
        <time>2013-03-02T09:14:58Z</time>
      </trkpt>
      <trkpt lat="47.28121" lon="-1.69416">
        <ele>64</ele>
        <time>2013-03-02T09:15:01Z</time>
      </trkpt>
      <trkpt lat="47.28154" lon="-1.69377">
        <ele>62.1</ele>
        <time>2013-03-02T09:15:09Z</time>
      </trkpt>
      <trkpt lat="47.28157" lon="-1.69371">
        <ele>61.9</ele>
        <time>2013-03-02T09:15:10Z</time>
      </trkpt>
      <trkpt lat="47.28166" lon="-1.69351">
        <ele>60.9</ele>
        <time>2013-03-02T09:15:13Z</time>
      </trkpt>
      <trkpt lat="47.28172" lon="-1.69332">
        <ele>59.8</ele>
        <time>2013-03-02T09:15:16Z</time>
      </trkpt>
      <trkpt lat="47.28175" lon="-1.69329">
        <ele>59.6</ele>
        <time>2013-03-02T09:15:17Z</time>
      </trkpt>
      <trkpt lat="47.28179" lon="-1.69328">
        <ele>59.5</ele>
        <time>2013-03-02T09:15:18Z</time>
      </trkpt>
      <trkpt lat="47.28182" lon="-1.6933">
        <ele>59.4</ele>
        <time>2013-03-02T09:15:19Z</time>
      </trkpt>
      <trkpt lat="47.28184" lon="-1.69333">
        <ele>59.4</ele>
        <time>2013-03-02T09:15:20Z</time>
      </trkpt>
      <trkpt lat="47.28186" lon="-1.69336">
        <ele>59.4</ele>
        <time>2013-03-02T09:15:21Z</time>
      </trkpt>
      <trkpt lat="47.28188" lon="-1.69339">
        <ele>59.6</ele>
        <time>2013-03-02T09:15:22Z</time>
      </trkpt>
      <trkpt lat="47.28191" lon="-1.69346">
        <ele>59.6</ele>
        <time>2013-03-02T09:15:24Z</time>
      </trkpt>
      <trkpt lat="47.28192" lon="-1.69349">
        <ele>59.5</ele>
        <time>2013-03-02T09:15:25Z</time>
      </trkpt>
      <trkpt lat="47.28195" lon="-1.6936">
        <ele>59.2</ele>
        <time>2013-03-02T09:15:28Z</time>
      </trkpt>
      <trkpt lat="47.28198" lon="-1.6938">
        <ele>59.3</ele>
        <time>2013-03-02T09:15:33Z</time>
      </trkpt>
      <trkpt lat="47.282" lon="-1.69392">
        <ele>59.7</ele>
        <time>2013-03-02T09:15:36Z</time>
      </trkpt>
      <trkpt lat="47.28201" lon="-1.69396">
        <ele>59.9</ele>
        <time>2013-03-02T09:15:37Z</time>
      </trkpt>
      <trkpt lat="47.28203" lon="-1.694">
        <ele>60</ele>
        <time>2013-03-02T09:15:38Z</time>
      </trkpt>
      <trkpt lat="47.28204" lon="-1.69402">
        <ele>60.1</ele>
        <time>2013-03-02T09:15:39Z</time>
      </trkpt>
      <trkpt lat="47.28208" lon="-1.69408">
        <ele>60.4</ele>
        <time>2013-03-02T09:15:41Z</time>
      </trkpt>
      <trkpt lat="47.2821" lon="-1.6941">
        <ele>60.6</ele>
        <time>2013-03-02T09:15:42Z</time>
      </trkpt>
      <trkpt lat="47.28217" lon="-1.69418">
        <ele>61.1</ele>
        <time>2013-03-02T09:15:45Z</time>
      </trkpt>
      <trkpt lat="47.28219" lon="-1.69421">
        <ele>61.1</ele>
        <time>2013-03-02T09:15:46Z</time>
      </trkpt>
      <trkpt lat="47.2822" lon="-1.69425">
        <ele>61.2</ele>
        <time>2013-03-02T09:15:47Z</time>
      </trkpt>
      <trkpt lat="47.2822" lon="-1.69428">
        <ele>61.6</ele>
        <time>2013-03-02T09:15:48Z</time>
      </trkpt>
      <trkpt lat="47.28219" lon="-1.69432">
        <ele>61.9</ele>
        <time>2013-03-02T09:15:49Z</time>
      </trkpt>
      <trkpt lat="47.28217" lon="-1.69439">
        <ele>61.8</ele>
        <time>2013-03-02T09:15:51Z</time>
      </trkpt>
      <trkpt lat="47.28216" lon="-1.69443">
        <ele>61.7</ele>
        <time>2013-03-02T09:15:52Z</time>
      </trkpt>
      <trkpt lat="47.28217" lon="-1.69447">
        <ele>61.9</ele>
        <time>2013-03-02T09:15:53Z</time>
      </trkpt>
      <trkpt lat="47.28219" lon="-1.6945">
        <ele>62</ele>
        <time>2013-03-02T09:15:54Z</time>
      </trkpt>
      <trkpt lat="47.28221" lon="-1.69452">
        <ele>62</ele>
        <time>2013-03-02T09:15:55Z</time>
      </trkpt>
      <trkpt lat="47.2823" lon="-1.6946">
        <ele>62.7</ele>
        <time>2013-03-02T09:15:59Z</time>
      </trkpt>
      <trkpt lat="47.28234" lon="-1.69464">
        <ele>62.3</ele>
        <time>2013-03-02T09:16:01Z</time>
      </trkpt>
      <trkpt lat="47.28239" lon="-1.69467">
        <ele>62.7</ele>
        <time>2013-03-02T09:16:03Z</time>
      </trkpt>
      <trkpt lat="47.28243" lon="-1.69472">
        <ele>62.7</ele>
        <time>2013-03-02T09:16:05Z</time>
      </trkpt>
      <trkpt lat="47.28291" lon="-1.69512">
        <ele>63.2</ele>
        <time>2013-03-02T09:16:23Z</time>
      </trkpt>
      <trkpt lat="47.28311" lon="-1.69526">
        <ele>62</ele>
        <time>2013-03-02T09:16:31Z</time>
      </trkpt>
      <trkpt lat="47.28313" lon="-1.69528">
        <ele>61.8</ele>
        <time>2013-03-02T09:16:32Z</time>
      </trkpt>
      <trkpt lat="47.28339" lon="-1.69541">
        <ele>61.2</ele>
        <time>2013-03-02T09:16:40Z</time>
      </trkpt>
      <trkpt lat="47.28348" lon="-1.69544">
        <ele>61</ele>
        <time>2013-03-02T09:16:42Z</time>
      </trkpt>
      <trkpt lat="47.28357" lon="-1.69546">
        <ele>61.4</ele>
        <time>2013-03-02T09:16:44Z</time>
      </trkpt>
      <trkpt lat="47.28365" lon="-1.69546">
        <ele>61.1</ele>
        <time>2013-03-02T09:16:46Z</time>
      </trkpt>
      <trkpt lat="47.28374" lon="-1.69547">
        <ele>60.4</ele>
        <time>2013-03-02T09:16:49Z</time>
      </trkpt>
      <trkpt lat="47.28376" lon="-1.69548">
        <ele>60.2</ele>
        <time>2013-03-02T09:16:50Z</time>
      </trkpt>
      <trkpt lat="47.2838" lon="-1.69549">
        <ele>59.8</ele>
        <time>2013-03-02T09:16:53Z</time>
      </trkpt>
      <trkpt lat="47.28381" lon="-1.69549">
        <ele>59.8</ele>
        <time>2013-03-02T09:16:54Z</time>
      </trkpt>
      <trkpt lat="47.28381" lon="-1.69549">
        <ele>59.8</ele>
        <time>2013-03-02T09:16:55Z</time>
      </trkpt>
      <trkpt lat="47.28382" lon="-1.6955">
        <ele>59.8</ele>
        <time>2013-03-02T09:16:56Z</time>
      </trkpt>
      <trkpt lat="47.28382" lon="-1.69551">
        <ele>59.6</ele>
        <time>2013-03-02T09:16:57Z</time>
      </trkpt>
      <trkpt lat="47.28383" lon="-1.69553">
        <ele>59.3</ele>
        <time>2013-03-02T09:16:58Z</time>
      </trkpt>
      <trkpt lat="47.28385" lon="-1.69563">
        <ele>60.1</ele>
        <time>2013-03-02T09:17:01Z</time>
      </trkpt>
      <trkpt lat="47.28386" lon="-1.69568">
        <ele>59.6</ele>
        <time>2013-03-02T09:17:02Z</time>
      </trkpt>
      <trkpt lat="47.28387" lon="-1.69587">
        <ele>59.5</ele>
        <time>2013-03-02T09:17:06Z</time>
      </trkpt>
      <trkpt lat="47.28387" lon="-1.69592">
        <ele>59.9</ele>
        <time>2013-03-02T09:17:07Z</time>
      </trkpt>
      <trkpt lat="47.28387" lon="-1.6962">
        <ele>60.6</ele>
        <time>2013-03-02T09:17:13Z</time>
      </trkpt>
      <trkpt lat="47.28386" lon="-1.69626">
        <ele>60.9</ele>
        <time>2013-03-02T09:17:14Z</time>
      </trkpt>
      <trkpt lat="47.28383" lon="-1.69643">
        <ele>60.7</ele>
        <time>2013-03-02T09:17:17Z</time>
      </trkpt>
      <trkpt lat="47.28382" lon="-1.69649">
        <ele>60.9</ele>
        <time>2013-03-02T09:17:18Z</time>
      </trkpt>
      <trkpt lat="47.28378" lon="-1.6966">
        <ele>61.1</ele>
        <time>2013-03-02T09:17:20Z</time>
      </trkpt>
      <trkpt lat="47.28372" lon="-1.69677">
        <ele>60.7</ele>
        <time>2013-03-02T09:17:23Z</time>
      </trkpt>
      <trkpt lat="47.28357" lon="-1.69715">
        <ele>61.2</ele>
        <time>2013-03-02T09:17:30Z</time>
      </trkpt>
      <trkpt lat="47.28351" lon="-1.69729">
        <ele>61.9</ele>
        <time>2013-03-02T09:17:33Z</time>
      </trkpt>
      <trkpt lat="47.28351" lon="-1.69734">
        <ele>62.1</ele>
        <time>2013-03-02T09:17:34Z</time>
      </trkpt>
      <trkpt lat="47.28352" lon="-1.69739">
        <ele>62.3</ele>
        <time>2013-03-02T09:17:35Z</time>
      </trkpt>
      <trkpt lat="47.28354" lon="-1.69742">
        <ele>62.4</ele>
        <time>2013-03-02T09:17:36Z</time>
      </trkpt>
      <trkpt lat="47.28359" lon="-1.69746">
        <ele>63.2</ele>
        <time>2013-03-02T09:17:38Z</time>
      </trkpt>
      <trkpt lat="47.28465" lon="-1.69837">
        <ele>67.5</ele>
        <time>2013-03-02T09:18:16Z</time>
      </trkpt>
      <trkpt lat="47.28468" lon="-1.69841">
        <ele>67.6</ele>
        <time>2013-03-02T09:18:17Z</time>
      </trkpt>
      <trkpt lat="47.2847" lon="-1.69845">
        <ele>67.4</ele>
        <time>2013-03-02T09:18:18Z</time>
      </trkpt>
      <trkpt lat="47.28471" lon="-1.69849">
        <ele>67.3</ele>
        <time>2013-03-02T09:18:19Z</time>
      </trkpt>
      <trkpt lat="47.28471" lon="-1.69854">
        <ele>67.7</ele>
        <time>2013-03-02T09:18:20Z</time>
      </trkpt>
      <trkpt lat="47.2847" lon="-1.69859">
        <ele>68</ele>
        <time>2013-03-02T09:18:21Z</time>
      </trkpt>
      <trkpt lat="47.28469" lon="-1.69864">
        <ele>68.1</ele>
        <time>2013-03-02T09:18:22Z</time>
      </trkpt>
      <trkpt lat="47.28461" lon="-1.69886">
        <ele>68.2</ele>
        <time>2013-03-02T09:18:27Z</time>
      </trkpt>
      <trkpt lat="47.28429" lon="-1.69979">
        <ele>70.9</ele>
        <time>2013-03-02T09:18:47Z</time>
      </trkpt>
      <trkpt lat="47.28428" lon="-1.69984">
        <ele>71.5</ele>
        <time>2013-03-02T09:18:48Z</time>
      </trkpt>
      <trkpt lat="47.28357" lon="-1.70174">
        <ele>76.7</ele>
        <time>2013-03-02T09:19:25Z</time>
      </trkpt>
      <trkpt lat="47.28356" lon="-1.70179">
        <ele>76.4</ele>
        <time>2013-03-02T09:19:26Z</time>
      </trkpt>
      <trkpt lat="47.28355" lon="-1.70183">
        <ele>76.2</ele>
        <time>2013-03-02T09:19:27Z</time>
      </trkpt>
      <trkpt lat="47.28353" lon="-1.70187">
        <ele>76.1</ele>
        <time>2013-03-02T09:19:28Z</time>
      </trkpt>
      <trkpt lat="47.2833" lon="-1.70241">
        <ele>76</ele>
        <time>2013-03-02T09:19:39Z</time>
      </trkpt>
      <trkpt lat="47.28328" lon="-1.70247">
        <ele>76.2</ele>
        <time>2013-03-02T09:19:40Z</time>
      </trkpt>
      <trkpt lat="47.28327" lon="-1.70253">
        <ele>75.8</ele>
        <time>2013-03-02T09:19:41Z</time>
      </trkpt>
      <trkpt lat="47.28328" lon="-1.70258">
        <ele>75.6</ele>
        <time>2013-03-02T09:19:42Z</time>
      </trkpt>
      <trkpt lat="47.28328" lon="-1.70264">
        <ele>75.6</ele>
        <time>2013-03-02T09:19:43Z</time>
      </trkpt>
      <trkpt lat="47.2833" lon="-1.70268">
        <ele>75.6</ele>
        <time>2013-03-02T09:19:44Z</time>
      </trkpt>
      <trkpt lat="47.28334" lon="-1.70275">
        <ele>75.2</ele>
        <time>2013-03-02T09:19:46Z</time>
      </trkpt>
      <trkpt lat="47.28409" lon="-1.70404">
        <ele>74.4</ele>
        <time>2013-03-02T09:20:13Z</time>
      </trkpt>
      <trkpt lat="47.2841" lon="-1.70409">
        <ele>74.5</ele>
        <time>2013-03-02T09:20:14Z</time>
      </trkpt>
      <trkpt lat="47.28409" lon="-1.70414">
        <ele>74.6</ele>
        <time>2013-03-02T09:20:15Z</time>
      </trkpt>
      <trkpt lat="47.28408" lon="-1.70418">
        <ele>74.5</ele>
        <time>2013-03-02T09:20:16Z</time>
      </trkpt>
      <trkpt lat="47.28406" lon="-1.70422">
        <ele>74.5</ele>
        <time>2013-03-02T09:20:17Z</time>
      </trkpt>
      <trkpt lat="47.28395" lon="-1.70441">
        <ele>74.2</ele>
        <time>2013-03-02T09:20:22Z</time>
      </trkpt>
      <trkpt lat="47.28391" lon="-1.70447">
        <ele>74</ele>
        <time>2013-03-02T09:20:24Z</time>
      </trkpt>
      <trkpt lat="47.28391" lon="-1.70449">
        <ele>73.9</ele>
        <time>2013-03-02T09:20:25Z</time>
      </trkpt>
      <trkpt lat="47.28391" lon="-1.70451">
        <ele>74</ele>
        <time>2013-03-02T09:20:26Z</time>
      </trkpt>
      <trkpt lat="47.28391" lon="-1.70452">
        <ele>74</ele>
        <time>2013-03-02T09:20:27Z</time>
      </trkpt>
      <trkpt lat="47.28392" lon="-1.70452">
        <ele>74.1</ele>
        <time>2013-03-02T09:20:28Z</time>
      </trkpt>
      <trkpt lat="47.28393" lon="-1.7045">
        <ele>74.1</ele>
        <time>2013-03-02T09:20:29Z</time>
      </trkpt>
      <trkpt lat="47.28394" lon="-1.70448">
        <ele>74.3</ele>
        <time>2013-03-02T09:20:30Z</time>
      </trkpt>
      <trkpt lat="47.28397" lon="-1.7044">
        <ele>74.5</ele>
        <time>2013-03-02T09:20:33Z</time>
      </trkpt>
      <trkpt lat="47.284" lon="-1.70434">
        <ele>74.6</ele>
        <time>2013-03-02T09:20:35Z</time>
      </trkpt>
      <trkpt lat="47.28434" lon="-1.7037">
        <ele>74.6</ele>
        <time>2013-03-02T09:20:54Z</time>
      </trkpt>
      <trkpt lat="47.28445" lon="-1.70345">
        <ele>74.9</ele>
        <time>2013-03-02T09:21:01Z</time>
      </trkpt>
      <trkpt lat="47.2845" lon="-1.70332">
        <ele>75</ele>
        <time>2013-03-02T09:21:04Z</time>
      </trkpt>
      <trkpt lat="47.28615" lon="-1.69943">
        <ele>72.2</ele>
        <time>2013-03-02T09:22:08Z</time>
      </trkpt>
      <trkpt lat="47.28616" lon="-1.69937">
        <ele>72.2</ele>
        <time>2013-03-02T09:22:09Z</time>
      </trkpt>
      <trkpt lat="47.2865" lon="-1.6981">
        <ele>73.9</ele>
        <time>2013-03-02T09:22:31Z</time>
      </trkpt>
      <trkpt lat="47.2865" lon="-1.69804">
        <ele>74.1</ele>
        <time>2013-03-02T09:22:32Z</time>
      </trkpt>
      <trkpt lat="47.28655" lon="-1.69763">
        <ele>74.2</ele>
        <time>2013-03-02T09:22:38Z</time>
      </trkpt>
      <trkpt lat="47.28656" lon="-1.69736">
        <ele>73.5</ele>
        <time>2013-03-02T09:22:42Z</time>
      </trkpt>
      <trkpt lat="47.28656" lon="-1.69729">
        <ele>73.4</ele>
        <time>2013-03-02T09:22:43Z</time>
      </trkpt>
      <trkpt lat="47.28649" lon="-1.69236">
        <ele>63.1</ele>
        <time>2013-03-02T09:23:42Z</time>
      </trkpt>
      <trkpt lat="47.28649" lon="-1.69231">
        <ele>63.1</ele>
        <time>2013-03-02T09:23:43Z</time>
      </trkpt>
      <trkpt lat="47.28651" lon="-1.69228">
        <ele>63.1</ele>
        <time>2013-03-02T09:23:44Z</time>
      </trkpt>
      <trkpt lat="47.28653" lon="-1.69225">
        <ele>62.7</ele>
        <time>2013-03-02T09:23:45Z</time>
      </trkpt>
      <trkpt lat="47.28656" lon="-1.69223">
        <ele>62.4</ele>
        <time>2013-03-02T09:23:46Z</time>
      </trkpt>
      <trkpt lat="47.28662" lon="-1.6922">
        <ele>61.7</ele>
        <time>2013-03-02T09:23:48Z</time>
      </trkpt>
      <trkpt lat="47.28671" lon="-1.69215">
        <ele>60.9</ele>
        <time>2013-03-02T09:23:51Z</time>
      </trkpt>
      <trkpt lat="47.28674" lon="-1.69214">
        <ele>61.1</ele>
        <time>2013-03-02T09:23:52Z</time>
      </trkpt>
      <trkpt lat="47.28676" lon="-1.69212">
        <ele>61.3</ele>
        <time>2013-03-02T09:23:53Z</time>
      </trkpt>
      <trkpt lat="47.28686" lon="-1.69203">
        <ele>60</ele>
        <time>2013-03-02T09:23:57Z</time>
      </trkpt>
      <trkpt lat="47.28701" lon="-1.69189">
        <ele>59.2</ele>
        <time>2013-03-02T09:24:03Z</time>
      </trkpt>
      <trkpt lat="47.28704" lon="-1.69187">
        <ele>58.8</ele>
        <time>2013-03-02T09:24:04Z</time>
      </trkpt>
      <trkpt lat="47.28712" lon="-1.69183">
        <ele>58.3</ele>
        <time>2013-03-02T09:24:06Z</time>
      </trkpt>
      <trkpt lat="47.28714" lon="-1.69182">
        <ele>58.2</ele>
        <time>2013-03-02T09:24:07Z</time>
      </trkpt>
      <trkpt lat="47.28717" lon="-1.69182">
        <ele>58</ele>
        <time>2013-03-02T09:24:08Z</time>
      </trkpt>
      <trkpt lat="47.28725" lon="-1.69181">
        <ele>57.3</ele>
        <time>2013-03-02T09:24:12Z</time>
      </trkpt>
      <trkpt lat="47.28728" lon="-1.69181">
        <ele>57.4</ele>
        <time>2013-03-02T09:24:14Z</time>
      </trkpt>
      <trkpt lat="47.2873" lon="-1.69181">
        <ele>57.5</ele>
        <time>2013-03-02T09:24:15Z</time>
      </trkpt>
      <trkpt lat="47.28732" lon="-1.69179">
        <ele>57.4</ele>
        <time>2013-03-02T09:24:16Z</time>
      </trkpt>
      <trkpt lat="47.28736" lon="-1.69176">
        <ele>57.5</ele>
        <time>2013-03-02T09:24:18Z</time>
      </trkpt>
      <trkpt lat="47.28738" lon="-1.69173">
        <ele>57.6</ele>
        <time>2013-03-02T09:24:19Z</time>
      </trkpt>
      <trkpt lat="47.2874" lon="-1.6917">
        <ele>57.7</ele>
        <time>2013-03-02T09:24:20Z</time>
      </trkpt>
      <trkpt lat="47.28761" lon="-1.6914">
        <ele>56.4</ele>
        <time>2013-03-02T09:24:28Z</time>
      </trkpt>
      <trkpt lat="47.28774" lon="-1.69121">
        <ele>56.1</ele>
        <time>2013-03-02T09:24:33Z</time>
      </trkpt>
      <trkpt lat="47.28799" lon="-1.69085">
        <ele>55</ele>
        <time>2013-03-02T09:24:40Z</time>
      </trkpt>
      <trkpt lat="47.28805" lon="-1.69074">
        <ele>53.8</ele>
        <time>2013-03-02T09:24:42Z</time>
      </trkpt>
      <trkpt lat="47.28819" lon="-1.69046">
        <ele>52.9</ele>
        <time>2013-03-02T09:24:46Z</time>
      </trkpt>
      <trkpt lat="47.28824" lon="-1.69042">
        <ele>52.6</ele>
        <time>2013-03-02T09:24:47Z</time>
      </trkpt>
      <trkpt lat="47.28829" lon="-1.69037">
        <ele>52.4</ele>
        <time>2013-03-02T09:24:48Z</time>
      </trkpt>
      <trkpt lat="47.28834" lon="-1.69034">
        <ele>51.7</ele>
        <time>2013-03-02T09:24:49Z</time>
      </trkpt>
      <trkpt lat="47.28839" lon="-1.69031">
        <ele>51.2</ele>
        <time>2013-03-02T09:24:50Z</time>
      </trkpt>
      <trkpt lat="47.28849" lon="-1.69029">
        <ele>50.6</ele>
        <time>2013-03-02T09:24:52Z</time>
      </trkpt>
      <trkpt lat="47.28853" lon="-1.69029">
        <ele>50.4</ele>
        <time>2013-03-02T09:24:53Z</time>
      </trkpt>
      <trkpt lat="47.28857" lon="-1.69032">
        <ele>49.9</ele>
        <time>2013-03-02T09:24:54Z</time>
      </trkpt>
      <trkpt lat="47.2886" lon="-1.69036">
        <ele>49.5</ele>
        <time>2013-03-02T09:24:55Z</time>
      </trkpt>
      <trkpt lat="47.28864" lon="-1.6904">
        <ele>49.3</ele>
        <time>2013-03-02T09:24:56Z</time>
      </trkpt>
      <trkpt lat="47.28867" lon="-1.69042">
        <ele>49.2</ele>
        <time>2013-03-02T09:24:57Z</time>
      </trkpt>
      <trkpt lat="47.28871" lon="-1.69044">
        <ele>49.1</ele>
        <time>2013-03-02T09:24:58Z</time>
      </trkpt>
      <trkpt lat="47.28875" lon="-1.69044">
        <ele>48.4</ele>
        <time>2013-03-02T09:24:59Z</time>
      </trkpt>
      <trkpt lat="47.28879" lon="-1.69044">
        <ele>47.9</ele>
        <time>2013-03-02T09:25:00Z</time>
      </trkpt>
      <trkpt lat="47.28883" lon="-1.69043">
        <ele>48</ele>
        <time>2013-03-02T09:25:01Z</time>
      </trkpt>
      <trkpt lat="47.28887" lon="-1.69042">
        <ele>48.1</ele>
        <time>2013-03-02T09:25:02Z</time>
      </trkpt>
      <trkpt lat="47.28891" lon="-1.6904">
        <ele>48.1</ele>
        <time>2013-03-02T09:25:03Z</time>
      </trkpt>
      <trkpt lat="47.28897" lon="-1.69037">
        <ele>48.2</ele>
        <time>2013-03-02T09:25:05Z</time>
      </trkpt>
      <trkpt lat="47.289" lon="-1.69034">
        <ele>47.7</ele>
        <time>2013-03-02T09:25:06Z</time>
      </trkpt>
      <trkpt lat="47.28903" lon="-1.69031">
        <ele>47.3</ele>
        <time>2013-03-02T09:25:07Z</time>
      </trkpt>
      <trkpt lat="47.28906" lon="-1.69027">
        <ele>47.2</ele>
        <time>2013-03-02T09:25:08Z</time>
      </trkpt>
      <trkpt lat="47.28919" lon="-1.69005">
        <ele>46.9</ele>
        <time>2013-03-02T09:25:15Z</time>
      </trkpt>
      <trkpt lat="47.28921" lon="-1.69003">
        <ele>46.9</ele>
        <time>2013-03-02T09:25:16Z</time>
      </trkpt>
      <trkpt lat="47.28925" lon="-1.69">
        <ele>47.2</ele>
        <time>2013-03-02T09:25:18Z</time>
      </trkpt>
      <trkpt lat="47.28927" lon="-1.68999">
        <ele>47.4</ele>
        <time>2013-03-02T09:25:19Z</time>
      </trkpt>
      <trkpt lat="47.2893" lon="-1.68999">
        <ele>47.6</ele>
        <time>2013-03-02T09:25:20Z</time>
      </trkpt>
      <trkpt lat="47.28932" lon="-1.69">
        <ele>47.8</ele>
        <time>2013-03-02T09:25:21Z</time>
      </trkpt>
      <trkpt lat="47.28934" lon="-1.69001">
        <ele>48.6</ele>
        <time>2013-03-02T09:25:22Z</time>
      </trkpt>
      <trkpt lat="47.28935" lon="-1.69003">
        <ele>49.2</ele>
        <time>2013-03-02T09:25:23Z</time>
      </trkpt>
      <trkpt lat="47.28938" lon="-1.69007">
        <ele>49.7</ele>
        <time>2013-03-02T09:25:25Z</time>
      </trkpt>
      <trkpt lat="47.2894" lon="-1.69009">
        <ele>49.8</ele>
        <time>2013-03-02T09:25:26Z</time>
      </trkpt>
      <trkpt lat="47.28943" lon="-1.6901">
        <ele>49.9</ele>
        <time>2013-03-02T09:25:27Z</time>
      </trkpt>
      <trkpt lat="47.28945" lon="-1.69009">
        <ele>50.1</ele>
        <time>2013-03-02T09:25:28Z</time>
      </trkpt>
      <trkpt lat="47.2895" lon="-1.69008">
        <ele>50.3</ele>
        <time>2013-03-02T09:25:30Z</time>
      </trkpt>
      <trkpt lat="47.28953" lon="-1.69009">
        <ele>50.4</ele>
        <time>2013-03-02T09:25:31Z</time>
      </trkpt>
      <trkpt lat="47.28956" lon="-1.69009">
        <ele>50.3</ele>
        <time>2013-03-02T09:25:32Z</time>
      </trkpt>
      <trkpt lat="47.28959" lon="-1.69009">
        <ele>50.2</ele>
        <time>2013-03-02T09:25:33Z</time>
      </trkpt>
      <trkpt lat="47.28981" lon="-1.69006">
        <ele>51.5</ele>
        <time>2013-03-02T09:25:40Z</time>
      </trkpt>
      <trkpt lat="47.29014" lon="-1.69003">
        <ele>54.4</ele>
        <time>2013-03-02T09:25:50Z</time>
      </trkpt>
      <trkpt lat="47.29017" lon="-1.69002">
        <ele>54.9</ele>
        <time>2013-03-02T09:25:51Z</time>
      </trkpt>
      <trkpt lat="47.29023" lon="-1.69">
        <ele>55.2</ele>
        <time>2013-03-02T09:25:53Z</time>
      </trkpt>
      <trkpt lat="47.29026" lon="-1.68999">
        <ele>55.1</ele>
        <time>2013-03-02T09:25:54Z</time>
      </trkpt>
      <trkpt lat="47.29056" lon="-1.68995">
        <ele>57.5</ele>
        <time>2013-03-02T09:26:04Z</time>
      </trkpt>
      <trkpt lat="47.29059" lon="-1.68993">
        <ele>57.6</ele>
        <time>2013-03-02T09:26:05Z</time>
      </trkpt>
      <trkpt lat="47.29062" lon="-1.68992">
        <ele>57.6</ele>
        <time>2013-03-02T09:26:06Z</time>
      </trkpt>
      <trkpt lat="47.29064" lon="-1.68992">
        <ele>57.6</ele>
        <time>2013-03-02T09:26:07Z</time>
      </trkpt>
      <trkpt lat="47.29067" lon="-1.68992">
        <ele>57.6</ele>
        <time>2013-03-02T09:26:08Z</time>
      </trkpt>
      <trkpt lat="47.29095" lon="-1.68998">
        <ele>58.1</ele>
        <time>2013-03-02T09:26:16Z</time>
      </trkpt>
      <trkpt lat="47.29103" lon="-1.69">
        <ele>58.4</ele>
        <time>2013-03-02T09:26:19Z</time>
      </trkpt>
      <trkpt lat="47.29106" lon="-1.69002">
        <ele>58.4</ele>
        <time>2013-03-02T09:26:20Z</time>
      </trkpt>
      <trkpt lat="47.29125" lon="-1.69013">
        <ele>58.4</ele>
        <time>2013-03-02T09:26:27Z</time>
      </trkpt>
      <trkpt lat="47.29132" lon="-1.69016">
        <ele>58.1</ele>
        <time>2013-03-02T09:26:29Z</time>
      </trkpt>
      <trkpt lat="47.29134" lon="-1.69016">
        <ele>57.8</ele>
        <time>2013-03-02T09:26:30Z</time>
      </trkpt>
      <trkpt lat="47.29143" lon="-1.69017">
        <ele>58.3</ele>
        <time>2013-03-02T09:26:33Z</time>
      </trkpt>
      <trkpt lat="47.29156" lon="-1.69018">
        <ele>58.5</ele>
        <time>2013-03-02T09:26:37Z</time>
      </trkpt>
      <trkpt lat="47.29159" lon="-1.69018">
        <ele>58.9</ele>
        <time>2013-03-02T09:26:38Z</time>
      </trkpt>
      <trkpt lat="47.29173" lon="-1.69017">
        <ele>59.4</ele>
        <time>2013-03-02T09:26:42Z</time>
      </trkpt>
      <trkpt lat="47.29186" lon="-1.69015">
        <ele>59.8</ele>
        <time>2013-03-02T09:26:46Z</time>
      </trkpt>
      <trkpt lat="47.29188" lon="-1.69014">
        <ele>59.8</ele>
        <time>2013-03-02T09:26:47Z</time>
      </trkpt>
      <trkpt lat="47.29201" lon="-1.69009">
        <ele>60.7</ele>
        <time>2013-03-02T09:26:51Z</time>
      </trkpt>
      <trkpt lat="47.29203" lon="-1.69008">
        <ele>60.7</ele>
        <time>2013-03-02T09:26:52Z</time>
      </trkpt>
      <trkpt lat="47.29237" lon="-1.69">
        <ele>62.1</ele>
        <time>2013-03-02T09:27:03Z</time>
      </trkpt>
      <trkpt lat="47.2924" lon="-1.68998">
        <ele>62.2</ele>
        <time>2013-03-02T09:27:04Z</time>
      </trkpt>
      <trkpt lat="47.29242" lon="-1.68997">
        <ele>62.2</ele>
        <time>2013-03-02T09:27:05Z</time>
      </trkpt>
      <trkpt lat="47.29256" lon="-1.68987">
        <ele>63.5</ele>
        <time>2013-03-02T09:27:11Z</time>
      </trkpt>
      <trkpt lat="47.29261" lon="-1.68983">
        <ele>63.9</ele>
        <time>2013-03-02T09:27:13Z</time>
      </trkpt>
      <trkpt lat="47.29269" lon="-1.68975">
        <ele>64.2</ele>
        <time>2013-03-02T09:27:16Z</time>
      </trkpt>
      <trkpt lat="47.29272" lon="-1.68974">
        <ele>64.3</ele>
        <time>2013-03-02T09:27:17Z</time>
      </trkpt>
      <trkpt lat="47.2928" lon="-1.68969">
        <ele>64.6</ele>
        <time>2013-03-02T09:27:21Z</time>
      </trkpt>
      <trkpt lat="47.29282" lon="-1.68967">
        <ele>64.6</ele>
        <time>2013-03-02T09:27:22Z</time>
      </trkpt>
      <trkpt lat="47.29285" lon="-1.68964">
        <ele>64.6</ele>
        <time>2013-03-02T09:27:24Z</time>
      </trkpt>
      <trkpt lat="47.29292" lon="-1.68958">
        <ele>65.1</ele>
        <time>2013-03-02T09:27:28Z</time>
      </trkpt>
      <trkpt lat="47.29312" lon="-1.68941">
        <ele>66.1</ele>
        <time>2013-03-02T09:27:39Z</time>
      </trkpt>
      <trkpt lat="47.29314" lon="-1.68939">
        <ele>66</ele>
        <time>2013-03-02T09:27:40Z</time>
      </trkpt>
      <trkpt lat="47.2932" lon="-1.68929">
        <ele>66.2</ele>
        <time>2013-03-02T09:27:45Z</time>
      </trkpt>
      <trkpt lat="47.29322" lon="-1.68928">
        <ele>66.3</ele>
        <time>2013-03-02T09:27:46Z</time>
      </trkpt>
      <trkpt lat="47.29334" lon="-1.68914">
        <ele>66.4</ele>
        <time>2013-03-02T09:27:54Z</time>
      </trkpt>
      <trkpt lat="47.29336" lon="-1.68913">
        <ele>66.2</ele>
        <time>2013-03-02T09:27:55Z</time>
      </trkpt>
      <trkpt lat="47.2934" lon="-1.68909">
        <ele>66.3</ele>
        <time>2013-03-02T09:27:57Z</time>
      </trkpt>
      <trkpt lat="47.29344" lon="-1.68903">
        <ele>66.5</ele>
        <time>2013-03-02T09:28:00Z</time>
      </trkpt>
      <trkpt lat="47.29346" lon="-1.68901">
        <ele>66.7</ele>
        <time>2013-03-02T09:28:01Z</time>
      </trkpt>
      <trkpt lat="47.29351" lon="-1.68897">
        <ele>66.9</ele>
        <time>2013-03-02T09:28:04Z</time>
      </trkpt>
      <trkpt lat="47.29353" lon="-1.68896">
        <ele>66.9</ele>
        <time>2013-03-02T09:28:05Z</time>
      </trkpt>
      <trkpt lat="47.29355" lon="-1.68894">
        <ele>67</ele>
        <time>2013-03-02T09:28:06Z</time>
      </trkpt>
      <trkpt lat="47.29356" lon="-1.68891">
        <ele>67</ele>
        <time>2013-03-02T09:28:07Z</time>
      </trkpt>
      <trkpt lat="47.29356" lon="-1.68889">
        <ele>67.2</ele>
        <time>2013-03-02T09:28:08Z</time>
      </trkpt>
      <trkpt lat="47.29357" lon="-1.68887">
        <ele>67.4</ele>
        <time>2013-03-02T09:28:09Z</time>
      </trkpt>
      <trkpt lat="47.29359" lon="-1.68885">
        <ele>67.5</ele>
        <time>2013-03-02T09:28:10Z</time>
      </trkpt>
      <trkpt lat="47.29368" lon="-1.68875">
        <ele>67.7</ele>
        <time>2013-03-02T09:28:15Z</time>
      </trkpt>
      <trkpt lat="47.29374" lon="-1.68869">
        <ele>68.1</ele>
        <time>2013-03-02T09:28:18Z</time>
      </trkpt>
      <trkpt lat="47.29389" lon="-1.68855">
        <ele>68.4</ele>
        <time>2013-03-02T09:28:25Z</time>
      </trkpt>
      <trkpt lat="47.29394" lon="-1.68849">
        <ele>68.4</ele>
        <time>2013-03-02T09:28:28Z</time>
      </trkpt>
      <trkpt lat="47.29404" lon="-1.68837">
        <ele>68.5</ele>
        <time>2013-03-02T09:28:33Z</time>
      </trkpt>
      <trkpt lat="47.29414" lon="-1.68828">
        <ele>67.8</ele>
        <time>2013-03-02T09:28:38Z</time>
      </trkpt>
      <trkpt lat="47.29432" lon="-1.68812">
        <ele>68.4</ele>
        <time>2013-03-02T09:28:46Z</time>
      </trkpt>
      <trkpt lat="47.29434" lon="-1.68811">
        <ele>68.4</ele>
        <time>2013-03-02T09:28:47Z</time>
      </trkpt>
      <trkpt lat="47.29436" lon="-1.6881">
        <ele>68.4</ele>
        <time>2013-03-02T09:28:48Z</time>
      </trkpt>
      <trkpt lat="47.29439" lon="-1.68809">
        <ele>68.3</ele>
        <time>2013-03-02T09:28:49Z</time>
      </trkpt>
      <trkpt lat="47.2944" lon="-1.68807">
        <ele>68.3</ele>
        <time>2013-03-02T09:28:50Z</time>
      </trkpt>
      <trkpt lat="47.29442" lon="-1.68805">
        <ele>68.3</ele>
        <time>2013-03-02T09:28:51Z</time>
      </trkpt>
      <trkpt lat="47.29447" lon="-1.68801">
        <ele>68.3</ele>
        <time>2013-03-02T09:28:53Z</time>
      </trkpt>
      <trkpt lat="47.29449" lon="-1.68799">
        <ele>68.1</ele>
        <time>2013-03-02T09:28:54Z</time>
      </trkpt>
      <trkpt lat="47.29453" lon="-1.68794">
        <ele>68.6</ele>
        <time>2013-03-02T09:28:56Z</time>
      </trkpt>
      <trkpt lat="47.29455" lon="-1.68793">
        <ele>69</ele>
        <time>2013-03-02T09:28:57Z</time>
      </trkpt>
      <trkpt lat="47.29457" lon="-1.68791">
        <ele>69.1</ele>
        <time>2013-03-02T09:28:58Z</time>
      </trkpt>
      <trkpt lat="47.29459" lon="-1.6879">
        <ele>69.2</ele>
        <time>2013-03-02T09:28:59Z</time>
      </trkpt>
      <trkpt lat="47.2946" lon="-1.68788">
        <ele>69.3</ele>
        <time>2013-03-02T09:29:00Z</time>
      </trkpt>
      <trkpt lat="47.29462" lon="-1.68785">
        <ele>69.1</ele>
        <time>2013-03-02T09:29:01Z</time>
      </trkpt>
      <trkpt lat="47.29464" lon="-1.68783">
        <ele>68.9</ele>
        <time>2013-03-02T09:29:02Z</time>
      </trkpt>
      <trkpt lat="47.29466" lon="-1.68782">
        <ele>66.9</ele>
        <time>2013-03-02T09:29:03Z</time>
      </trkpt>
      <trkpt lat="47.2947" lon="-1.68779">
        <ele>65.7</ele>
        <time>2013-03-02T09:29:05Z</time>
      </trkpt>
      <trkpt lat="47.29471" lon="-1.68778">
        <ele>66</ele>
        <time>2013-03-02T09:29:06Z</time>
      </trkpt>
      <trkpt lat="47.29475" lon="-1.68774">
        <ele>66.9</ele>
        <time>2013-03-02T09:29:08Z</time>
      </trkpt>
      <trkpt lat="47.29476" lon="-1.68772">
        <ele>67.5</ele>
        <time>2013-03-02T09:29:09Z</time>
      </trkpt>
      <trkpt lat="47.29477" lon="-1.6877">
        <ele>67</ele>
        <time>2013-03-02T09:29:10Z</time>
      </trkpt>
      <trkpt lat="47.29478" lon="-1.68769">
        <ele>66.7</ele>
        <time>2013-03-02T09:29:11Z</time>
      </trkpt>
      <trkpt lat="47.29484" lon="-1.68764">
        <ele>70.2</ele>
        <time>2013-03-02T09:29:14Z</time>
      </trkpt>
      <trkpt lat="47.29487" lon="-1.68761">
        <ele>70</ele>
        <time>2013-03-02T09:29:16Z</time>
      </trkpt>
      <trkpt lat="47.29489" lon="-1.6876">
        <ele>69.7</ele>
        <time>2013-03-02T09:29:17Z</time>
      </trkpt>
      <trkpt lat="47.29493" lon="-1.68758">
        <ele>69.2</ele>
        <time>2013-03-02T09:29:19Z</time>
      </trkpt>
      <trkpt lat="47.29494" lon="-1.68757">
        <ele>69.2</ele>
        <time>2013-03-02T09:29:20Z</time>
      </trkpt>
      <trkpt lat="47.29501" lon="-1.68749">
        <ele>68.2</ele>
        <time>2013-03-02T09:29:25Z</time>
      </trkpt>
      <trkpt lat="47.29503" lon="-1.68747">
        <ele>68.2</ele>
        <time>2013-03-02T09:29:26Z</time>
      </trkpt>
      <trkpt lat="47.29509" lon="-1.68742">
        <ele>67.5</ele>
        <time>2013-03-02T09:29:29Z</time>
      </trkpt>
      <trkpt lat="47.29511" lon="-1.68739">
        <ele>67.2</ele>
        <time>2013-03-02T09:29:30Z</time>
      </trkpt>
      <trkpt lat="47.29522" lon="-1.68728">
        <ele>68.1</ele>
        <time>2013-03-02T09:29:35Z</time>
      </trkpt>
      <trkpt lat="47.29529" lon="-1.68722">
        <ele>68.4</ele>
        <time>2013-03-02T09:29:38Z</time>
      </trkpt>
      <trkpt lat="47.29531" lon="-1.68719">
        <ele>68.6</ele>
        <time>2013-03-02T09:29:39Z</time>
      </trkpt>
      <trkpt lat="47.29533" lon="-1.68716">
        <ele>68.7</ele>
        <time>2013-03-02T09:29:40Z</time>
      </trkpt>
      <trkpt lat="47.29538" lon="-1.68706">
        <ele>68.7</ele>
        <time>2013-03-02T09:29:43Z</time>
      </trkpt>
      <trkpt lat="47.2954" lon="-1.68704">
        <ele>68.7</ele>
        <time>2013-03-02T09:29:44Z</time>
      </trkpt>
      <trkpt lat="47.29542" lon="-1.68703">
        <ele>68.7</ele>
        <time>2013-03-02T09:29:45Z</time>
      </trkpt>
      <trkpt lat="47.29545" lon="-1.68702">
        <ele>68.8</ele>
        <time>2013-03-02T09:29:46Z</time>
      </trkpt>
      <trkpt lat="47.29547" lon="-1.68702">
        <ele>68.8</ele>
        <time>2013-03-02T09:29:47Z</time>
      </trkpt>
      <trkpt lat="47.29549" lon="-1.68703">
        <ele>69.1</ele>
        <time>2013-03-02T09:29:48Z</time>
      </trkpt>
      <trkpt lat="47.29561" lon="-1.6871">
        <ele>69.6</ele>
        <time>2013-03-02T09:29:54Z</time>
      </trkpt>
      <trkpt lat="47.29563" lon="-1.68712">
        <ele>69.4</ele>
        <time>2013-03-02T09:29:55Z</time>
      </trkpt>
      <trkpt lat="47.29607" lon="-1.6875">
        <ele>70.8</ele>
        <time>2013-03-02T09:30:14Z</time>
      </trkpt>
      <trkpt lat="47.2961" lon="-1.68753">
        <ele>70.7</ele>
        <time>2013-03-02T09:30:15Z</time>
      </trkpt>
      <trkpt lat="47.29645" lon="-1.68787">
        <ele>68.6</ele>
        <time>2013-03-02T09:30:28Z</time>
      </trkpt>
      <trkpt lat="47.29648" lon="-1.68789">
        <ele>68.3</ele>
        <time>2013-03-02T09:30:29Z</time>
      </trkpt>
      <trkpt lat="47.29656" lon="-1.68793">
        <ele>68</ele>
        <time>2013-03-02T09:30:31Z</time>
      </trkpt>
      <trkpt lat="47.2966" lon="-1.68794">
        <ele>68</ele>
        <time>2013-03-02T09:30:32Z</time>
      </trkpt>
      <trkpt lat="47.29663" lon="-1.68795">
        <ele>68.2</ele>
        <time>2013-03-02T09:30:33Z</time>
      </trkpt>
      <trkpt lat="47.29666" lon="-1.68794">
        <ele>68.5</ele>
        <time>2013-03-02T09:30:34Z</time>
      </trkpt>
      <trkpt lat="47.2967" lon="-1.68793">
        <ele>68.6</ele>
        <time>2013-03-02T09:30:35Z</time>
      </trkpt>
      <trkpt lat="47.29674" lon="-1.68791">
        <ele>68</ele>
        <time>2013-03-02T09:30:36Z</time>
      </trkpt>
      <trkpt lat="47.29714" lon="-1.68768">
        <ele>67.3</ele>
        <time>2013-03-02T09:30:48Z</time>
      </trkpt>
      <trkpt lat="47.29716" lon="-1.68765">
        <ele>67.5</ele>
        <time>2013-03-02T09:30:49Z</time>
      </trkpt>
      <trkpt lat="47.29726" lon="-1.6876">
        <ele>67.9</ele>
        <time>2013-03-02T09:30:53Z</time>
      </trkpt>
      <trkpt lat="47.29732" lon="-1.68758">
        <ele>67.8</ele>
        <time>2013-03-02T09:30:55Z</time>
      </trkpt>
      <trkpt lat="47.29734" lon="-1.68756">
        <ele>67.8</ele>
        <time>2013-03-02T09:30:56Z</time>
      </trkpt>
      <trkpt lat="47.2975" lon="-1.68741">
        <ele>67.5</ele>
        <time>2013-03-02T09:31:03Z</time>
      </trkpt>
      <trkpt lat="47.29753" lon="-1.68736">
        <ele>68</ele>
        <time>2013-03-02T09:31:05Z</time>
      </trkpt>
      <trkpt lat="47.29755" lon="-1.68734">
        <ele>68.3</ele>
        <time>2013-03-02T09:31:06Z</time>
      </trkpt>
      <trkpt lat="47.29758" lon="-1.68732">
        <ele>68.6</ele>
        <time>2013-03-02T09:31:07Z</time>
      </trkpt>
      <trkpt lat="47.29761" lon="-1.68731">
        <ele>68.8</ele>
        <time>2013-03-02T09:31:08Z</time>
      </trkpt>
      <trkpt lat="47.29763" lon="-1.68729">
        <ele>68.7</ele>
        <time>2013-03-02T09:31:09Z</time>
      </trkpt>
      <trkpt lat="47.29778" lon="-1.68715">
        <ele>68.3</ele>
        <time>2013-03-02T09:31:19Z</time>
      </trkpt>
      <trkpt lat="47.29779" lon="-1.68715">
        <ele>68.2</ele>
        <time>2013-03-02T09:31:20Z</time>
      </trkpt>
      <trkpt lat="47.29779" lon="-1.68714">
        <ele>67.9</ele>
        <time>2013-03-02T09:31:21Z</time>
      </trkpt>
      <trkpt lat="47.29779" lon="-1.68714">
        <ele>67.7</ele>
        <time>2013-03-02T09:31:22Z</time>
      </trkpt>
      <trkpt lat="47.2978" lon="-1.68714">
        <ele>67.7</ele>
        <time>2013-03-02T09:31:23Z</time>
      </trkpt>
      <trkpt lat="47.2978" lon="-1.68714">
        <ele>67.7</ele>
        <time>2013-03-02T09:31:24Z</time>
      </trkpt>
      <trkpt lat="47.29781" lon="-1.68715">
        <ele>67.7</ele>
        <time>2013-03-02T09:31:26Z</time>
      </trkpt>
      <trkpt lat="47.29782" lon="-1.68715">
        <ele>67.6</ele>
        <time>2013-03-02T09:31:27Z</time>
      </trkpt>
      <trkpt lat="47.29782" lon="-1.68715">
        <ele>68.1</ele>
        <time>2013-03-02T09:31:28Z</time>
      </trkpt>
      <trkpt lat="47.29784" lon="-1.68715">
        <ele>68.4</ele>
        <time>2013-03-02T09:31:30Z</time>
      </trkpt>
      <trkpt lat="47.29785" lon="-1.68715">
        <ele>68.3</ele>
        <time>2013-03-02T09:31:31Z</time>
      </trkpt>
      <trkpt lat="47.29788" lon="-1.68714">
        <ele>68</ele>
        <time>2013-03-02T09:31:32Z</time>
      </trkpt>
      <trkpt lat="47.2979" lon="-1.68712">
        <ele>67.9</ele>
        <time>2013-03-02T09:31:33Z</time>
      </trkpt>
      <trkpt lat="47.29793" lon="-1.6871">
        <ele>67.7</ele>
        <time>2013-03-02T09:31:34Z</time>
      </trkpt>
      <trkpt lat="47.29794" lon="-1.68708">
        <ele>67.8</ele>
        <time>2013-03-02T09:31:35Z</time>
      </trkpt>
      <trkpt lat="47.29796" lon="-1.68708">
        <ele>67.8</ele>
        <time>2013-03-02T09:31:36Z</time>
      </trkpt>
      <trkpt lat="47.29798" lon="-1.68708">
        <ele>67.9</ele>
        <time>2013-03-02T09:31:37Z</time>
      </trkpt>
      <trkpt lat="47.298" lon="-1.68707">
        <ele>67.9</ele>
        <time>2013-03-02T09:31:38Z</time>
      </trkpt>
      <trkpt lat="47.29805" lon="-1.68705">
        <ele>68</ele>
        <time>2013-03-02T09:31:40Z</time>
      </trkpt>
      <trkpt lat="47.29808" lon="-1.68705">
        <ele>67.9</ele>
        <time>2013-03-02T09:31:41Z</time>
      </trkpt>
      <trkpt lat="47.29809" lon="-1.68707">
        <ele>67.4</ele>
        <time>2013-03-02T09:31:42Z</time>
      </trkpt>
      <trkpt lat="47.29818" lon="-1.68714">
        <ele>66.4</ele>
        <time>2013-03-02T09:31:46Z</time>
      </trkpt>
      <trkpt lat="47.2982" lon="-1.68715">
        <ele>66.6</ele>
        <time>2013-03-02T09:31:47Z</time>
      </trkpt>
      <trkpt lat="47.29821" lon="-1.68715">
        <ele>66.7</ele>
        <time>2013-03-02T09:31:48Z</time>
      </trkpt>
      <trkpt lat="47.29825" lon="-1.68717">
        <ele>66</ele>
        <time>2013-03-02T09:31:51Z</time>
      </trkpt>
      <trkpt lat="47.29827" lon="-1.68717">
        <ele>66.1</ele>
        <time>2013-03-02T09:31:52Z</time>
      </trkpt>
      <trkpt lat="47.29828" lon="-1.68716">
        <ele>66.2</ele>
        <time>2013-03-02T09:31:53Z</time>
      </trkpt>
      <trkpt lat="47.29829" lon="-1.68715">
        <ele>65.9</ele>
        <time>2013-03-02T09:31:54Z</time>
      </trkpt>
      <trkpt lat="47.2983" lon="-1.68714">
        <ele>65.6</ele>
        <time>2013-03-02T09:31:55Z</time>
      </trkpt>
      <trkpt lat="47.29831" lon="-1.68714">
        <ele>65.4</ele>
        <time>2013-03-02T09:31:56Z</time>
      </trkpt>
      <trkpt lat="47.29831" lon="-1.68713">
        <ele>65.2</ele>
        <time>2013-03-02T09:31:57Z</time>
      </trkpt>
      <trkpt lat="47.29832" lon="-1.68713">
        <ele>65.1</ele>
        <time>2013-03-02T09:31:58Z</time>
      </trkpt>
      <trkpt lat="47.29832" lon="-1.68713">
        <ele>64.8</ele>
        <time>2013-03-02T09:31:59Z</time>
      </trkpt>
      <trkpt lat="47.29832" lon="-1.68713">
        <ele>64.6</ele>
        <time>2013-03-02T09:32:00Z</time>
      </trkpt>
      <trkpt lat="47.29833" lon="-1.68713">
        <ele>64.5</ele>
        <time>2013-03-02T09:32:01Z</time>
      </trkpt>
      <trkpt lat="47.29833" lon="-1.68713">
        <ele>64.4</ele>
        <time>2013-03-02T09:32:02Z</time>
      </trkpt>
      <trkpt lat="47.29834" lon="-1.68713">
        <ele>64.4</ele>
        <time>2013-03-02T09:32:03Z</time>
      </trkpt>
      <trkpt lat="47.29834" lon="-1.68713">
        <ele>64.4</ele>
        <time>2013-03-02T09:32:04Z</time>
      </trkpt>
      <trkpt lat="47.29834" lon="-1.68712">
        <ele>64.4</ele>
        <time>2013-03-02T09:32:05Z</time>
      </trkpt>
      <trkpt lat="47.29835" lon="-1.68712">
        <ele>63.8</ele>
        <time>2013-03-02T09:32:06Z</time>
      </trkpt>
      <trkpt lat="47.29835" lon="-1.68712">
        <ele>63.3</ele>
        <time>2013-03-02T09:32:07Z</time>
      </trkpt>
      <trkpt lat="47.29835" lon="-1.68711">
        <ele>64.6</ele>
        <time>2013-03-02T09:32:08Z</time>
      </trkpt>
      <trkpt lat="47.29836" lon="-1.68711">
        <ele>65.6</ele>
        <time>2013-03-02T09:32:09Z</time>
      </trkpt>
      <trkpt lat="47.29836" lon="-1.6871">
        <ele>65.7</ele>
        <time>2013-03-02T09:32:10Z</time>
      </trkpt>
      <trkpt lat="47.29836" lon="-1.6871">
        <ele>65.8</ele>
        <time>2013-03-02T09:32:11Z</time>
      </trkpt>
      <trkpt lat="47.29836" lon="-1.6871">
        <ele>65.9</ele>
        <time>2013-03-02T09:32:12Z</time>
      </trkpt>
      <trkpt lat="47.29836" lon="-1.68709">
        <ele>65.4</ele>
        <time>2013-03-02T09:32:13Z</time>
      </trkpt>
      <trkpt lat="47.29837" lon="-1.68708">
        <ele>65.4</ele>
        <time>2013-03-02T09:32:16Z</time>
      </trkpt>
      <trkpt lat="47.29837" lon="-1.68708">
        <ele>65.5</ele>
        <time>2013-03-02T09:32:17Z</time>
      </trkpt>
      <trkpt lat="47.29837" lon="-1.68708">
        <ele>63.6</ele>
        <time>2013-03-02T09:32:18Z</time>
      </trkpt>
      <trkpt lat="47.29837" lon="-1.68708">
        <ele>62.2</ele>
        <time>2013-03-02T09:32:19Z</time>
      </trkpt>
      <trkpt lat="47.29837" lon="-1.68707">
        <ele>64.6</ele>
        <time>2013-03-02T09:32:20Z</time>
      </trkpt>
      <trkpt lat="47.29837" lon="-1.68707">
        <ele>66.4</ele>
        <time>2013-03-02T09:32:21Z</time>
      </trkpt>
      <trkpt lat="47.29837" lon="-1.68707">
        <ele>66.3</ele>
        <time>2013-03-02T09:32:22Z</time>
      </trkpt>
      <trkpt lat="47.29838" lon="-1.68707">
        <ele>66.2</ele>
        <time>2013-03-02T09:32:23Z</time>
      </trkpt>
      <trkpt lat="47.29838" lon="-1.68707">
        <ele>66.1</ele>
        <time>2013-03-02T09:32:24Z</time>
      </trkpt>
      <trkpt lat="47.29838" lon="-1.68707">
        <ele>65.6</ele>
        <time>2013-03-02T09:32:25Z</time>
      </trkpt>
      <trkpt lat="47.29838" lon="-1.68706">
        <ele>65.3</ele>
        <time>2013-03-02T09:32:26Z</time>
      </trkpt>
      <trkpt lat="47.29838" lon="-1.68706">
        <ele>63.7</ele>
        <time>2013-03-02T09:32:27Z</time>
      </trkpt>
      <trkpt lat="47.29838" lon="-1.68706">
        <ele>62.6</ele>
        <time>2013-03-02T09:32:28Z</time>
      </trkpt>
      <trkpt lat="47.29838" lon="-1.68706">
        <ele>62.7</ele>
        <time>2013-03-02T09:32:29Z</time>
      </trkpt>
      <trkpt lat="47.29838" lon="-1.68706">
        <ele>62.8</ele>
        <time>2013-03-02T09:32:30Z</time>
      </trkpt>
      <trkpt lat="47.29839" lon="-1.68706">
        <ele>62.9</ele>
        <time>2013-03-02T09:32:31Z</time>
      </trkpt>
      <trkpt lat="47.29839" lon="-1.68706">
        <ele>64</ele>
        <time>2013-03-02T09:32:32Z</time>
      </trkpt>
      <trkpt lat="47.29839" lon="-1.68706">
        <ele>64.8</ele>
        <time>2013-03-02T09:32:33Z</time>
      </trkpt>
      <trkpt lat="47.29839" lon="-1.68706">
        <ele>65.7</ele>
        <time>2013-03-02T09:32:34Z</time>
      </trkpt>
      <trkpt lat="47.29839" lon="-1.68707">
        <ele>66.4</ele>
        <time>2013-03-02T09:32:35Z</time>
      </trkpt>
      <trkpt lat="47.2984" lon="-1.68707">
        <ele>66.9</ele>
        <time>2013-03-02T09:32:36Z</time>
      </trkpt>
      <trkpt lat="47.2984" lon="-1.68707">
        <ele>67.4</ele>
        <time>2013-03-02T09:32:37Z</time>
      </trkpt>
      <trkpt lat="47.2984" lon="-1.68707">
        <ele>67.9</ele>
        <time>2013-03-02T09:32:38Z</time>
      </trkpt>
      <trkpt lat="47.2984" lon="-1.68707">
        <ele>67</ele>
        <time>2013-03-02T09:32:39Z</time>
      </trkpt>
      <trkpt lat="47.2984" lon="-1.68707">
        <ele>66.4</ele>
        <time>2013-03-02T09:32:40Z</time>
      </trkpt>
      <trkpt lat="47.2984" lon="-1.68707">
        <ele>66.7</ele>
        <time>2013-03-02T09:32:41Z</time>
      </trkpt>
      <trkpt lat="47.29841" lon="-1.68707">
        <ele>66.9</ele>
        <time>2013-03-02T09:32:42Z</time>
      </trkpt>
      <trkpt lat="47.29841" lon="-1.68708">
        <ele>67.1</ele>
        <time>2013-03-02T09:32:43Z</time>
      </trkpt>
      <trkpt lat="47.29841" lon="-1.68708">
        <ele>66.5</ele>
        <time>2013-03-02T09:32:44Z</time>
      </trkpt>
      <trkpt lat="47.29841" lon="-1.68708">
        <ele>66.1</ele>
        <time>2013-03-02T09:32:45Z</time>
      </trkpt>
      <trkpt lat="47.29841" lon="-1.68708">
        <ele>66</ele>
        <time>2013-03-02T09:32:46Z</time>
      </trkpt>
      <trkpt lat="47.29842" lon="-1.68708">
        <ele>65.8</ele>
        <time>2013-03-02T09:32:47Z</time>
      </trkpt>
      <trkpt lat="47.29842" lon="-1.68709">
        <ele>65.4</ele>
        <time>2013-03-02T09:32:48Z</time>
      </trkpt>
      <trkpt lat="47.29842" lon="-1.68709">
        <ele>65.1</ele>
        <time>2013-03-02T09:32:49Z</time>
      </trkpt>
      <trkpt lat="47.29842" lon="-1.68709">
        <ele>64.9</ele>
        <time>2013-03-02T09:32:50Z</time>
      </trkpt>
      <trkpt lat="47.29842" lon="-1.6871">
        <ele>65</ele>
        <time>2013-03-02T09:32:51Z</time>
      </trkpt>
      <trkpt lat="47.29842" lon="-1.6871">
        <ele>65.1</ele>
        <time>2013-03-02T09:32:52Z</time>
      </trkpt>
      <trkpt lat="47.29842" lon="-1.6871">
        <ele>65.3</ele>
        <time>2013-03-02T09:32:53Z</time>
      </trkpt>
      <trkpt lat="47.29842" lon="-1.6871">
        <ele>65.4</ele>
        <time>2013-03-02T09:32:54Z</time>
      </trkpt>
      <trkpt lat="47.29842" lon="-1.68708">
        <ele>64.8</ele>
        <time>2013-03-02T09:32:57Z</time>
      </trkpt>
      <trkpt lat="47.29842" lon="-1.68707">
        <ele>64.6</ele>
        <time>2013-03-02T09:32:58Z</time>
      </trkpt>
      <trkpt lat="47.29841" lon="-1.687">
        <ele>64.2</ele>
        <time>2013-03-02T09:33:03Z</time>
      </trkpt>
      <trkpt lat="47.29841" lon="-1.68695">
        <ele>64.7</ele>
        <time>2013-03-02T09:33:06Z</time>
      </trkpt>
      <trkpt lat="47.29841" lon="-1.68691">
        <ele>65.5</ele>
        <time>2013-03-02T09:33:09Z</time>
      </trkpt>
      <trkpt lat="47.29841" lon="-1.6869">
        <ele>65.6</ele>
        <time>2013-03-02T09:33:10Z</time>
      </trkpt>
      <trkpt lat="47.29841" lon="-1.68689">
        <ele>65.6</ele>
        <time>2013-03-02T09:33:11Z</time>
      </trkpt>
      <trkpt lat="47.29842" lon="-1.68688">
        <ele>65.7</ele>
        <time>2013-03-02T09:33:12Z</time>
      </trkpt>
      <trkpt lat="47.29845" lon="-1.68685">
        <ele>65.5</ele>
        <time>2013-03-02T09:33:16Z</time>
      </trkpt>
      <trkpt lat="47.29847" lon="-1.68682">
        <ele>65.7</ele>
        <time>2013-03-02T09:33:18Z</time>
      </trkpt>
      <trkpt lat="47.29847" lon="-1.68682">
        <ele>65.7</ele>
        <time>2013-03-02T09:33:19Z</time>
      </trkpt>
      <trkpt lat="47.29849" lon="-1.6868">
        <ele>65.7</ele>
        <time>2013-03-02T09:33:21Z</time>
      </trkpt>
      <trkpt lat="47.2985" lon="-1.6868">
        <ele>65.3</ele>
        <time>2013-03-02T09:33:22Z</time>
      </trkpt>
      <trkpt lat="47.29856" lon="-1.68677">
        <ele>65.1</ele>
        <time>2013-03-02T09:33:27Z</time>
      </trkpt>
      <trkpt lat="47.29858" lon="-1.68676">
        <ele>65.1</ele>
        <time>2013-03-02T09:33:28Z</time>
      </trkpt>
      <trkpt lat="47.29859" lon="-1.68674">
        <ele>65.1</ele>
        <time>2013-03-02T09:33:29Z</time>
      </trkpt>
      <trkpt lat="47.29862" lon="-1.6867">
        <ele>65.1</ele>
        <time>2013-03-02T09:33:32Z</time>
      </trkpt>
      <trkpt lat="47.29864" lon="-1.68668">
        <ele>64.7</ele>
        <time>2013-03-02T09:33:34Z</time>
      </trkpt>
      <trkpt lat="47.29866" lon="-1.68665">
        <ele>64.9</ele>
        <time>2013-03-02T09:33:36Z</time>
      </trkpt>
      <trkpt lat="47.29867" lon="-1.68663">
        <ele>65.2</ele>
        <time>2013-03-02T09:33:37Z</time>
      </trkpt>
      <trkpt lat="47.29869" lon="-1.68659">
        <ele>64</ele>
        <time>2013-03-02T09:33:40Z</time>
      </trkpt>
      <trkpt lat="47.2987" lon="-1.68658">
        <ele>64.2</ele>
        <time>2013-03-02T09:33:41Z</time>
      </trkpt>
      <trkpt lat="47.29871" lon="-1.68656">
        <ele>64.4</ele>
        <time>2013-03-02T09:33:42Z</time>
      </trkpt>
      <trkpt lat="47.29874" lon="-1.68649">
        <ele>64.3</ele>
        <time>2013-03-02T09:33:46Z</time>
      </trkpt>
      <trkpt lat="47.29875" lon="-1.68646">
        <ele>64.4</ele>
        <time>2013-03-02T09:33:51Z</time>
      </trkpt>
      <trkpt lat="47.29875" lon="-1.68646">
        <ele>64.4</ele>
        <time>2013-03-02T09:33:54Z</time>
      </trkpt>
      <trkpt lat="47.29875" lon="-1.68646">
        <ele>64.6</ele>
        <time>2013-03-02T09:33:55Z</time>
      </trkpt>
      <trkpt lat="47.29876" lon="-1.68646">
        <ele>64.6</ele>
        <time>2013-03-02T09:33:56Z</time>
      </trkpt>
      <trkpt lat="47.29876" lon="-1.68646">
        <ele>64.5</ele>
        <time>2013-03-02T09:33:57Z</time>
      </trkpt>
      <trkpt lat="47.29876" lon="-1.68646">
        <ele>64.4</ele>
        <time>2013-03-02T09:33:58Z</time>
      </trkpt>
      <trkpt lat="47.29876" lon="-1.68646">
        <ele>64.4</ele>
        <time>2013-03-02T09:33:59Z</time>
      </trkpt>
      <trkpt lat="47.29876" lon="-1.68646">
        <ele>64.3</ele>
        <time>2013-03-02T09:34:00Z</time>
      </trkpt>
      <trkpt lat="47.29877" lon="-1.68645">
        <ele>64.3</ele>
        <time>2013-03-02T09:34:01Z</time>
      </trkpt>
      <trkpt lat="47.29877" lon="-1.68645">
        <ele>64</ele>
        <time>2013-03-02T09:34:02Z</time>
      </trkpt>
      <trkpt lat="47.29877" lon="-1.68644">
        <ele>63.8</ele>
        <time>2013-03-02T09:34:03Z</time>
      </trkpt>
      <trkpt lat="47.29877" lon="-1.68643">
        <ele>64</ele>
        <time>2013-03-02T09:34:04Z</time>
      </trkpt>
      <trkpt lat="47.29877" lon="-1.68642">
        <ele>64.2</ele>
        <time>2013-03-02T09:34:05Z</time>
      </trkpt>
      <trkpt lat="47.29877" lon="-1.68641">
        <ele>64.3</ele>
        <time>2013-03-02T09:34:06Z</time>
      </trkpt>
      <trkpt lat="47.29877" lon="-1.68641">
        <ele>64</ele>
        <time>2013-03-02T09:34:07Z</time>
      </trkpt>
      <trkpt lat="47.29878" lon="-1.68641">
        <ele>63.8</ele>
        <time>2013-03-02T09:34:08Z</time>
      </trkpt>
      <trkpt lat="47.29878" lon="-1.68641">
        <ele>64.4</ele>
        <time>2013-03-02T09:34:09Z</time>
      </trkpt>
      <trkpt lat="47.29878" lon="-1.68641">
        <ele>64.8</ele>
        <time>2013-03-02T09:34:10Z</time>
      </trkpt>
      <trkpt lat="47.29878" lon="-1.68641">
        <ele>64.9</ele>
        <time>2013-03-02T09:34:13Z</time>
      </trkpt>
      <trkpt lat="47.29878" lon="-1.68641">
        <ele>64.7</ele>
        <time>2013-03-02T09:34:14Z</time>
      </trkpt>
      <trkpt lat="47.29878" lon="-1.68641">
        <ele>64.5</ele>
        <time>2013-03-02T09:34:15Z</time>
      </trkpt>
      <trkpt lat="47.29878" lon="-1.68641">
        <ele>64.7</ele>
        <time>2013-03-02T09:34:16Z</time>
      </trkpt>
      <trkpt lat="47.29878" lon="-1.6864">
        <ele>64.8</ele>
        <time>2013-03-02T09:34:17Z</time>
      </trkpt>
      <trkpt lat="47.29878" lon="-1.6864">
        <ele>64.9</ele>
        <time>2013-03-02T09:34:18Z</time>
      </trkpt>
      <trkpt lat="47.29879" lon="-1.6864">
        <ele>64.8</ele>
        <time>2013-03-02T09:34:19Z</time>
      </trkpt>
      <trkpt lat="47.29879" lon="-1.6864">
        <ele>64.7</ele>
        <time>2013-03-02T09:34:20Z</time>
      </trkpt>
      <trkpt lat="47.29879" lon="-1.6864">
        <ele>64.6</ele>
        <time>2013-03-02T09:34:21Z</time>
      </trkpt>
      <trkpt lat="47.29879" lon="-1.6864">
        <ele>64.6</ele>
        <time>2013-03-02T09:34:22Z</time>
      </trkpt>
      <trkpt lat="47.29879" lon="-1.6864">
        <ele>64.5</ele>
        <time>2013-03-02T09:34:23Z</time>
      </trkpt>
      <trkpt lat="47.29879" lon="-1.6864">
        <ele>64.4</ele>
        <time>2013-03-02T09:34:24Z</time>
      </trkpt>
      <trkpt lat="47.29879" lon="-1.6864">
        <ele>64.4</ele>
        <time>2013-03-02T09:34:25Z</time>
      </trkpt>
      <trkpt lat="47.29879" lon="-1.6864">
        <ele>64.1</ele>
        <time>2013-03-02T09:34:26Z</time>
      </trkpt>
      <trkpt lat="47.29879" lon="-1.6864">
        <ele>63.9</ele>
        <time>2013-03-02T09:34:27Z</time>
      </trkpt>
      <trkpt lat="47.29879" lon="-1.6864">
        <ele>63.6</ele>
        <time>2013-03-02T09:34:28Z</time>
      </trkpt>
      <trkpt lat="47.29879" lon="-1.6864">
        <ele>63.3</ele>
        <time>2013-03-02T09:34:29Z</time>
      </trkpt>
      <trkpt lat="47.2988" lon="-1.68641">
        <ele>64</ele>
        <time>2013-03-02T09:34:30Z</time>
      </trkpt>
      <trkpt lat="47.2988" lon="-1.68642">
        <ele>64.5</ele>
        <time>2013-03-02T09:34:31Z</time>
      </trkpt>
      <trkpt lat="47.29881" lon="-1.68643">
        <ele>64.8</ele>
        <time>2013-03-02T09:34:32Z</time>
      </trkpt>
      <trkpt lat="47.29883" lon="-1.68645">
        <ele>64.6</ele>
        <time>2013-03-02T09:34:34Z</time>
      </trkpt>
      <trkpt lat="47.29884" lon="-1.68646">
        <ele>64.9</ele>
        <time>2013-03-02T09:34:35Z</time>
      </trkpt>
      <trkpt lat="47.29889" lon="-1.6865">
        <ele>65.1</ele>
        <time>2013-03-02T09:34:38Z</time>
      </trkpt>
      <trkpt lat="47.2989" lon="-1.68652">
        <ele>65</ele>
        <time>2013-03-02T09:34:39Z</time>
      </trkpt>
      <trkpt lat="47.29891" lon="-1.68654">
        <ele>64.6</ele>
        <time>2013-03-02T09:34:40Z</time>
      </trkpt>
      <trkpt lat="47.29893" lon="-1.68656">
        <ele>64.3</ele>
        <time>2013-03-02T09:34:41Z</time>
      </trkpt>
      <trkpt lat="47.29896" lon="-1.68663">
        <ele>64.1</ele>
        <time>2013-03-02T09:34:44Z</time>
      </trkpt>
      <trkpt lat="47.29897" lon="-1.68665">
        <ele>63.8</ele>
        <time>2013-03-02T09:34:45Z</time>
      </trkpt>
      <trkpt lat="47.29901" lon="-1.68676">
        <ele>63.5</ele>
        <time>2013-03-02T09:34:49Z</time>
      </trkpt>
      <trkpt lat="47.29903" lon="-1.68683">
        <ele>63.6</ele>
        <time>2013-03-02T09:34:51Z</time>
      </trkpt>
      <trkpt lat="47.29905" lon="-1.68691">
        <ele>63.6</ele>
        <time>2013-03-02T09:34:53Z</time>
      </trkpt>
      <trkpt lat="47.29907" lon="-1.68704">
        <ele>62.8</ele>
        <time>2013-03-02T09:34:56Z</time>
      </trkpt>
      <trkpt lat="47.29908" lon="-1.68707">
        <ele>62.6</ele>
        <time>2013-03-02T09:34:57Z</time>
      </trkpt>
      <trkpt lat="47.29911" lon="-1.68714">
        <ele>62.2</ele>
        <time>2013-03-02T09:34:59Z</time>
      </trkpt>
      <trkpt lat="47.29913" lon="-1.68716">
        <ele>62</ele>
        <time>2013-03-02T09:35:00Z</time>
      </trkpt>
      <trkpt lat="47.29916" lon="-1.6872">
        <ele>62.4</ele>
        <time>2013-03-02T09:35:02Z</time>
      </trkpt>
      <trkpt lat="47.29923" lon="-1.68733">
        <ele>62.8</ele>
        <time>2013-03-02T09:35:07Z</time>
      </trkpt>
      <trkpt lat="47.29926" lon="-1.68735">
        <ele>62.5</ele>
        <time>2013-03-02T09:35:08Z</time>
      </trkpt>
      <trkpt lat="47.29928" lon="-1.68737">
        <ele>62.3</ele>
        <time>2013-03-02T09:35:09Z</time>
      </trkpt>
      <trkpt lat="47.29931" lon="-1.68738">
        <ele>62.2</ele>
        <time>2013-03-02T09:35:10Z</time>
      </trkpt>
      <trkpt lat="47.29933" lon="-1.68738">
        <ele>62.1</ele>
        <time>2013-03-02T09:35:11Z</time>
      </trkpt>
      <trkpt lat="47.29941" lon="-1.68738">
        <ele>61.8</ele>
        <time>2013-03-02T09:35:16Z</time>
      </trkpt>
      <trkpt lat="47.29943" lon="-1.68738">
        <ele>61.8</ele>
        <time>2013-03-02T09:35:17Z</time>
      </trkpt>
      <trkpt lat="47.29948" lon="-1.68736">
        <ele>62.4</ele>
        <time>2013-03-02T09:35:20Z</time>
      </trkpt>
      <trkpt lat="47.2995" lon="-1.68736">
        <ele>62.9</ele>
        <time>2013-03-02T09:35:22Z</time>
      </trkpt>
      <trkpt lat="47.29951" lon="-1.68736">
        <ele>62.7</ele>
        <time>2013-03-02T09:35:23Z</time>
      </trkpt>
      <trkpt lat="47.29951" lon="-1.68736">
        <ele>62.5</ele>
        <time>2013-03-02T09:35:24Z</time>
      </trkpt>
      <trkpt lat="47.29951" lon="-1.68736">
        <ele>62.4</ele>
        <time>2013-03-02T09:35:25Z</time>
      </trkpt>
      <trkpt lat="47.29952" lon="-1.68737">
        <ele>62.3</ele>
        <time>2013-03-02T09:35:27Z</time>
      </trkpt>
      <trkpt lat="47.29953" lon="-1.68737">
        <ele>62.3</ele>
        <time>2013-03-02T09:35:31Z</time>
      </trkpt>
      <trkpt lat="47.29985" lon="-1.68755">
        <ele>63.5</ele>
        <time>2013-03-02T09:35:45Z</time>
      </trkpt>
      <trkpt lat="47.29987" lon="-1.68755">
        <ele>64</ele>
        <time>2013-03-02T09:35:46Z</time>
      </trkpt>
      <trkpt lat="47.29988" lon="-1.68756">
        <ele>64.4</ele>
        <time>2013-03-02T09:35:47Z</time>
      </trkpt>
      <trkpt lat="47.29989" lon="-1.68756">
        <ele>64.6</ele>
        <time>2013-03-02T09:35:48Z</time>
      </trkpt>
      <trkpt lat="47.29994" lon="-1.68759">
        <ele>65</ele>
        <time>2013-03-02T09:35:52Z</time>
      </trkpt>
      <trkpt lat="47.30001" lon="-1.68761">
        <ele>65.5</ele>
        <time>2013-03-02T09:35:56Z</time>
      </trkpt>
      <trkpt lat="47.30002" lon="-1.68763">
        <ele>65.6</ele>
        <time>2013-03-02T09:35:57Z</time>
      </trkpt>
      <trkpt lat="47.30003" lon="-1.68765">
        <ele>65.4</ele>
        <time>2013-03-02T09:35:58Z</time>
      </trkpt>
      <trkpt lat="47.30004" lon="-1.68767">
        <ele>65.2</ele>
        <time>2013-03-02T09:35:59Z</time>
      </trkpt>
      <trkpt lat="47.30004" lon="-1.6877">
        <ele>65</ele>
        <time>2013-03-02T09:36:00Z</time>
      </trkpt>
      <trkpt lat="47.30004" lon="-1.68772">
        <ele>65.3</ele>
        <time>2013-03-02T09:36:01Z</time>
      </trkpt>
      <trkpt lat="47.30004" lon="-1.68774">
        <ele>65.6</ele>
        <time>2013-03-02T09:36:02Z</time>
      </trkpt>
      <trkpt lat="47.30003" lon="-1.68777">
        <ele>65.4</ele>
        <time>2013-03-02T09:36:03Z</time>
      </trkpt>
      <trkpt lat="47.30002" lon="-1.68782">
        <ele>65.4</ele>
        <time>2013-03-02T09:36:05Z</time>
      </trkpt>
      <trkpt lat="47.3" lon="-1.68786">
        <ele>65.7</ele>
        <time>2013-03-02T09:36:07Z</time>
      </trkpt>
      <trkpt lat="47.29999" lon="-1.68789">
        <ele>65.5</ele>
        <time>2013-03-02T09:36:08Z</time>
      </trkpt>
      <trkpt lat="47.29996" lon="-1.68811">
        <ele>64.4</ele>
        <time>2013-03-02T09:36:16Z</time>
      </trkpt>
      <trkpt lat="47.29995" lon="-1.68815">
        <ele>64.5</ele>
        <time>2013-03-02T09:36:17Z</time>
      </trkpt>
      <trkpt lat="47.29994" lon="-1.68822">
        <ele>64.8</ele>
        <time>2013-03-02T09:36:19Z</time>
      </trkpt>
      <trkpt lat="47.29993" lon="-1.68826">
        <ele>64.9</ele>
        <time>2013-03-02T09:36:20Z</time>
      </trkpt>
      <trkpt lat="47.29993" lon="-1.6883">
        <ele>64.9</ele>
        <time>2013-03-02T09:36:21Z</time>
      </trkpt>
      <trkpt lat="47.29995" lon="-1.68857">
        <ele>63.8</ele>
        <time>2013-03-02T09:36:28Z</time>
      </trkpt>
      <trkpt lat="47.29995" lon="-1.68861">
        <ele>63.9</ele>
        <time>2013-03-02T09:36:29Z</time>
      </trkpt>
      <trkpt lat="47.30002" lon="-1.68895">
        <ele>64.4</ele>
        <time>2013-03-02T09:36:39Z</time>
      </trkpt>
      <trkpt lat="47.30003" lon="-1.68897">
        <ele>64.5</ele>
        <time>2013-03-02T09:36:40Z</time>
      </trkpt>
      <trkpt lat="47.30005" lon="-1.68899">
        <ele>64.6</ele>
        <time>2013-03-02T09:36:41Z</time>
      </trkpt>
      <trkpt lat="47.30007" lon="-1.68901">
        <ele>64.9</ele>
        <time>2013-03-02T09:36:43Z</time>
      </trkpt>
      <trkpt lat="47.30007" lon="-1.68902">
        <ele>65</ele>
        <time>2013-03-02T09:36:44Z</time>
      </trkpt>
      <trkpt lat="47.30007" lon="-1.68904">
        <ele>65.1</ele>
        <time>2013-03-02T09:36:45Z</time>
      </trkpt>
      <trkpt lat="47.30006" lon="-1.68904">
        <ele>64.9</ele>
        <time>2013-03-02T09:36:46Z</time>
      </trkpt>
      <trkpt lat="47.30006" lon="-1.68904">
        <ele>64.7</ele>
        <time>2013-03-02T09:36:47Z</time>
      </trkpt>
      <trkpt lat="47.30006" lon="-1.68904">
        <ele>64.3</ele>
        <time>2013-03-02T09:36:48Z</time>
      </trkpt>
      <trkpt lat="47.30006" lon="-1.68904">
        <ele>63.9</ele>
        <time>2013-03-02T09:36:49Z</time>
      </trkpt>
      <trkpt lat="47.30006" lon="-1.68904">
        <ele>64</ele>
        <time>2013-03-02T09:36:50Z</time>
      </trkpt>
      <trkpt lat="47.30006" lon="-1.68904">
        <ele>64</ele>
        <time>2013-03-02T09:36:51Z</time>
      </trkpt>
      <trkpt lat="47.30006" lon="-1.68904">
        <ele>64.1</ele>
        <time>2013-03-02T09:36:52Z</time>
      </trkpt>
      <trkpt lat="47.30006" lon="-1.68904">
        <ele>64</ele>
        <time>2013-03-02T09:36:53Z</time>
      </trkpt>
      <trkpt lat="47.30007" lon="-1.68904">
        <ele>63.9</ele>
        <time>2013-03-02T09:36:54Z</time>
      </trkpt>
      <trkpt lat="47.30007" lon="-1.68904">
        <ele>63.8</ele>
        <time>2013-03-02T09:36:55Z</time>
      </trkpt>
      <trkpt lat="47.30007" lon="-1.68904">
        <ele>63.8</ele>
        <time>2013-03-02T09:36:56Z</time>
      </trkpt>
      <trkpt lat="47.30007" lon="-1.68905">
        <ele>64.4</ele>
        <time>2013-03-02T09:36:58Z</time>
      </trkpt>
      <trkpt lat="47.30008" lon="-1.68906">
        <ele>64.8</ele>
        <time>2013-03-02T09:36:59Z</time>
      </trkpt>
      <trkpt lat="47.30008" lon="-1.68906">
        <ele>64.4</ele>
        <time>2013-03-02T09:37:00Z</time>
      </trkpt>
      <trkpt lat="47.30009" lon="-1.68909">
        <ele>64.6</ele>
        <time>2013-03-02T09:37:04Z</time>
      </trkpt>
      <trkpt lat="47.30009" lon="-1.68909">
        <ele>64</ele>
        <time>2013-03-02T09:37:05Z</time>
      </trkpt>
      <trkpt lat="47.30009" lon="-1.68909">
        <ele>63.6</ele>
        <time>2013-03-02T09:37:06Z</time>
      </trkpt>
      <trkpt lat="47.30009" lon="-1.68909">
        <ele>64.1</ele>
        <time>2013-03-02T09:37:07Z</time>
      </trkpt>
      <trkpt lat="47.3001" lon="-1.68909">
        <ele>64.5</ele>
        <time>2013-03-02T09:37:08Z</time>
      </trkpt>
      <trkpt lat="47.30009" lon="-1.68909">
        <ele>64.3</ele>
        <time>2013-03-02T09:37:09Z</time>
      </trkpt>
      <trkpt lat="47.30009" lon="-1.68909">
        <ele>64.2</ele>
        <time>2013-03-02T09:37:10Z</time>
      </trkpt>
      <trkpt lat="47.3001" lon="-1.68909">
        <ele>64.2</ele>
        <time>2013-03-02T09:37:11Z</time>
      </trkpt>
      <trkpt lat="47.3001" lon="-1.68909">
        <ele>64.9</ele>
        <time>2013-03-02T09:37:12Z</time>
      </trkpt>
      <trkpt lat="47.3001" lon="-1.68909">
        <ele>65.4</ele>
        <time>2013-03-02T09:37:13Z</time>
      </trkpt>
      <trkpt lat="47.3001" lon="-1.68909">
        <ele>65.3</ele>
        <time>2013-03-02T09:37:14Z</time>
      </trkpt>
      <trkpt lat="47.3001" lon="-1.68909">
        <ele>65.3</ele>
        <time>2013-03-02T09:37:15Z</time>
      </trkpt>
      <trkpt lat="47.30011" lon="-1.68908">
        <ele>65.2</ele>
        <time>2013-03-02T09:37:16Z</time>
      </trkpt>
      <trkpt lat="47.30011" lon="-1.68907">
        <ele>65.1</ele>
        <time>2013-03-02T09:37:17Z</time>
      </trkpt>
      <trkpt lat="47.30012" lon="-1.68907">
        <ele>64.9</ele>
        <time>2013-03-02T09:37:18Z</time>
      </trkpt>
      <trkpt lat="47.30013" lon="-1.68906">
        <ele>64.6</ele>
        <time>2013-03-02T09:37:19Z</time>
      </trkpt>
      <trkpt lat="47.30014" lon="-1.68906">
        <ele>64.3</ele>
        <time>2013-03-02T09:37:20Z</time>
      </trkpt>
      <trkpt lat="47.30014" lon="-1.68906">
        <ele>64.5</ele>
        <time>2013-03-02T09:37:22Z</time>
      </trkpt>
      <trkpt lat="47.30015" lon="-1.68906">
        <ele>64.6</ele>
        <time>2013-03-02T09:37:23Z</time>
      </trkpt>
      <trkpt lat="47.30016" lon="-1.68905">
        <ele>64.6</ele>
        <time>2013-03-02T09:37:24Z</time>
      </trkpt>
      <trkpt lat="47.30017" lon="-1.68905">
        <ele>64.6</ele>
        <time>2013-03-02T09:37:25Z</time>
      </trkpt>
      <trkpt lat="47.3002" lon="-1.68903">
        <ele>64.6</ele>
        <time>2013-03-02T09:37:27Z</time>
      </trkpt>
      <trkpt lat="47.30021" lon="-1.68902">
        <ele>64.5</ele>
        <time>2013-03-02T09:37:28Z</time>
      </trkpt>
      <trkpt lat="47.30025" lon="-1.68898">
        <ele>64.2</ele>
        <time>2013-03-02T09:37:31Z</time>
      </trkpt>
      <trkpt lat="47.30027" lon="-1.68897">
        <ele>64.1</ele>
        <time>2013-03-02T09:37:32Z</time>
      </trkpt>
      <trkpt lat="47.30028" lon="-1.68898">
        <ele>63.8</ele>
        <time>2013-03-02T09:37:33Z</time>
      </trkpt>
      <trkpt lat="47.3003" lon="-1.689">
        <ele>63.4</ele>
        <time>2013-03-02T09:37:35Z</time>
      </trkpt>
      <trkpt lat="47.30032" lon="-1.689">
        <ele>64.2</ele>
        <time>2013-03-02T09:37:36Z</time>
      </trkpt>
      <trkpt lat="47.30034" lon="-1.689">
        <ele>64.8</ele>
        <time>2013-03-02T09:37:37Z</time>
      </trkpt>
      <trkpt lat="47.30036" lon="-1.68901">
        <ele>64.7</ele>
        <time>2013-03-02T09:37:39Z</time>
      </trkpt>
      <trkpt lat="47.30038" lon="-1.68901">
        <ele>64.7</ele>
        <time>2013-03-02T09:37:40Z</time>
      </trkpt>
      <trkpt lat="47.30041" lon="-1.689">
        <ele>64.8</ele>
        <time>2013-03-02T09:37:42Z</time>
      </trkpt>
      <trkpt lat="47.30043" lon="-1.689">
        <ele>64.9</ele>
        <time>2013-03-02T09:37:43Z</time>
      </trkpt>
      <trkpt lat="47.30052" lon="-1.68901">
        <ele>65.1</ele>
        <time>2013-03-02T09:37:47Z</time>
      </trkpt>
      <trkpt lat="47.30054" lon="-1.68901">
        <ele>65.3</ele>
        <time>2013-03-02T09:37:48Z</time>
      </trkpt>
      <trkpt lat="47.3006" lon="-1.68899">
        <ele>66.2</ele>
        <time>2013-03-02T09:37:51Z</time>
      </trkpt>
      <trkpt lat="47.30063" lon="-1.68898">
        <ele>66.3</ele>
        <time>2013-03-02T09:37:52Z</time>
      </trkpt>
      <trkpt lat="47.30065" lon="-1.68896">
        <ele>66.3</ele>
        <time>2013-03-02T09:37:53Z</time>
      </trkpt>
      <trkpt lat="47.30067" lon="-1.68893">
        <ele>66.3</ele>
        <time>2013-03-02T09:37:54Z</time>
      </trkpt>
      <trkpt lat="47.3007" lon="-1.68888">
        <ele>66.2</ele>
        <time>2013-03-02T09:37:56Z</time>
      </trkpt>
      <trkpt lat="47.30071" lon="-1.68885">
        <ele>66.5</ele>
        <time>2013-03-02T09:37:57Z</time>
      </trkpt>
      <trkpt lat="47.30072" lon="-1.68882">
        <ele>66.8</ele>
        <time>2013-03-02T09:37:58Z</time>
      </trkpt>
      <trkpt lat="47.3008" lon="-1.68867">
        <ele>66.6</ele>
        <time>2013-03-02T09:38:03Z</time>
      </trkpt>
      <trkpt lat="47.30096" lon="-1.68838">
        <ele>68</ele>
        <time>2013-03-02T09:38:14Z</time>
      </trkpt>
      <trkpt lat="47.30099" lon="-1.68833">
        <ele>68</ele>
        <time>2013-03-02T09:38:16Z</time>
      </trkpt>
      <trkpt lat="47.301" lon="-1.68832">
        <ele>67.9</ele>
        <time>2013-03-02T09:38:17Z</time>
      </trkpt>
      <trkpt lat="47.30102" lon="-1.6883">
        <ele>68.2</ele>
        <time>2013-03-02T09:38:18Z</time>
      </trkpt>
      <trkpt lat="47.30104" lon="-1.68829">
        <ele>68.4</ele>
        <time>2013-03-02T09:38:19Z</time>
      </trkpt>
      <trkpt lat="47.30105" lon="-1.6883">
        <ele>68.5</ele>
        <time>2013-03-02T09:38:20Z</time>
      </trkpt>
      <trkpt lat="47.30107" lon="-1.68832">
        <ele>68.2</ele>
        <time>2013-03-02T09:38:21Z</time>
      </trkpt>
      <trkpt lat="47.30116" lon="-1.68841">
        <ele>68.3</ele>
        <time>2013-03-02T09:38:25Z</time>
      </trkpt>
      <trkpt lat="47.30121" lon="-1.68847">
        <ele>68.6</ele>
        <time>2013-03-02T09:38:27Z</time>
      </trkpt>
      <trkpt lat="47.30133" lon="-1.68864">
        <ele>69.3</ele>
        <time>2013-03-02T09:38:32Z</time>
      </trkpt>
      <trkpt lat="47.30136" lon="-1.68868">
        <ele>69.5</ele>
        <time>2013-03-02T09:38:33Z</time>
      </trkpt>
      <trkpt lat="47.30146" lon="-1.68889">
        <ele>69.5</ele>
        <time>2013-03-02T09:38:38Z</time>
      </trkpt>
      <trkpt lat="47.3015" lon="-1.68898">
        <ele>69.2</ele>
        <time>2013-03-02T09:38:40Z</time>
      </trkpt>
      <trkpt lat="47.30187" lon="-1.69002">
        <ele>70.9</ele>
        <time>2013-03-02T09:39:01Z</time>
      </trkpt>
      <trkpt lat="47.30189" lon="-1.69008">
        <ele>70.6</ele>
        <time>2013-03-02T09:39:02Z</time>
      </trkpt>
      <trkpt lat="47.30191" lon="-1.69021">
        <ele>70.1</ele>
        <time>2013-03-02T09:39:04Z</time>
      </trkpt>
      <trkpt lat="47.30193" lon="-1.69034">
        <ele>70.1</ele>
        <time>2013-03-02T09:39:06Z</time>
      </trkpt>
      <trkpt lat="47.30193" lon="-1.69041">
        <ele>70.3</ele>
        <time>2013-03-02T09:39:07Z</time>
      </trkpt>
      <trkpt lat="47.30193" lon="-1.69048">
        <ele>70.2</ele>
        <time>2013-03-02T09:39:08Z</time>
      </trkpt>
      <trkpt lat="47.30193" lon="-1.69054">
        <ele>70.1</ele>
        <time>2013-03-02T09:39:09Z</time>
      </trkpt>
      <trkpt lat="47.30192" lon="-1.69066">
        <ele>69.9</ele>
        <time>2013-03-02T09:39:11Z</time>
      </trkpt>
      <trkpt lat="47.30192" lon="-1.69072">
        <ele>69.8</ele>
        <time>2013-03-02T09:39:12Z</time>
      </trkpt>
      <trkpt lat="47.30193" lon="-1.69091">
        <ele>70.1</ele>
        <time>2013-03-02T09:39:15Z</time>
      </trkpt>
      <trkpt lat="47.30194" lon="-1.69104">
        <ele>70.2</ele>
        <time>2013-03-02T09:39:17Z</time>
      </trkpt>
      <trkpt lat="47.30196" lon="-1.69116">
        <ele>70.4</ele>
        <time>2013-03-02T09:39:19Z</time>
      </trkpt>
      <trkpt lat="47.30197" lon="-1.69122">
        <ele>70.5</ele>
        <time>2013-03-02T09:39:20Z</time>
      </trkpt>
      <trkpt lat="47.3022" lon="-1.69208">
        <ele>71.5</ele>
        <time>2013-03-02T09:39:34Z</time>
      </trkpt>
      <trkpt lat="47.30223" lon="-1.69215">
        <ele>71.6</ele>
        <time>2013-03-02T09:39:35Z</time>
      </trkpt>
      <trkpt lat="47.30295" lon="-1.69453">
        <ele>66.3</ele>
        <time>2013-03-02T09:40:13Z</time>
      </trkpt>
      <trkpt lat="47.30299" lon="-1.69462">
        <ele>66.3</ele>
        <time>2013-03-02T09:40:14Z</time>
      </trkpt>
      <trkpt lat="47.30306" lon="-1.69476">
        <ele>66.3</ele>
        <time>2013-03-02T09:40:16Z</time>
      </trkpt>
      <trkpt lat="47.30308" lon="-1.69483">
        <ele>65.8</ele>
        <time>2013-03-02T09:40:17Z</time>
      </trkpt>
      <trkpt lat="47.30308" lon="-1.6949">
        <ele>65.5</ele>
        <time>2013-03-02T09:40:18Z</time>
      </trkpt>
      <trkpt lat="47.30306" lon="-1.69495">
        <ele>65.1</ele>
        <time>2013-03-02T09:40:19Z</time>
      </trkpt>
      <trkpt lat="47.30303" lon="-1.695">
        <ele>64.8</ele>
        <time>2013-03-02T09:40:20Z</time>
      </trkpt>
      <trkpt lat="47.30295" lon="-1.69514">
        <ele>63.7</ele>
        <time>2013-03-02T09:40:24Z</time>
      </trkpt>
      <trkpt lat="47.3029" lon="-1.69526">
        <ele>64.9</ele>
        <time>2013-03-02T09:40:28Z</time>
      </trkpt>
      <trkpt lat="47.30289" lon="-1.69527">
        <ele>64.7</ele>
        <time>2013-03-02T09:40:29Z</time>
      </trkpt>
      <trkpt lat="47.30289" lon="-1.69527">
        <ele>64.5</ele>
        <time>2013-03-02T09:40:30Z</time>
      </trkpt>
      <trkpt lat="47.30289" lon="-1.69528">
        <ele>64.6</ele>
        <time>2013-03-02T09:40:31Z</time>
      </trkpt>
      <trkpt lat="47.30289" lon="-1.69528">
        <ele>64.8</ele>
        <time>2013-03-02T09:40:32Z</time>
      </trkpt>
      <trkpt lat="47.30289" lon="-1.69529">
        <ele>64.8</ele>
        <time>2013-03-02T09:40:33Z</time>
      </trkpt>
      <trkpt lat="47.30289" lon="-1.69529">
        <ele>64.9</ele>
        <time>2013-03-02T09:40:34Z</time>
      </trkpt>
      <trkpt lat="47.3029" lon="-1.69529">
        <ele>64.9</ele>
        <time>2013-03-02T09:40:35Z</time>
      </trkpt>
      <trkpt lat="47.3029" lon="-1.69529">
        <ele>65.2</ele>
        <time>2013-03-02T09:40:36Z</time>
      </trkpt>
      <trkpt lat="47.3029" lon="-1.69528">
        <ele>65.4</ele>
        <time>2013-03-02T09:40:37Z</time>
      </trkpt>
      <trkpt lat="47.30294" lon="-1.69522">
        <ele>65.2</ele>
        <time>2013-03-02T09:40:40Z</time>
      </trkpt>
      <trkpt lat="47.30296" lon="-1.69519">
        <ele>65</ele>
        <time>2013-03-02T09:40:41Z</time>
      </trkpt>
      <trkpt lat="47.30301" lon="-1.69513">
        <ele>64.6</ele>
        <time>2013-03-02T09:40:43Z</time>
      </trkpt>
      <trkpt lat="47.30306" lon="-1.69508">
        <ele>64</ele>
        <time>2013-03-02T09:40:45Z</time>
      </trkpt>
      <trkpt lat="47.30309" lon="-1.69507">
        <ele>63.6</ele>
        <time>2013-03-02T09:40:46Z</time>
      </trkpt>
      <trkpt lat="47.30311" lon="-1.69507">
        <ele>63.3</ele>
        <time>2013-03-02T09:40:47Z</time>
      </trkpt>
      <trkpt lat="47.30313" lon="-1.69509">
        <ele>62.9</ele>
        <time>2013-03-02T09:40:48Z</time>
      </trkpt>
      <trkpt lat="47.30315" lon="-1.69511">
        <ele>62.5</ele>
        <time>2013-03-02T09:40:49Z</time>
      </trkpt>
      <trkpt lat="47.30317" lon="-1.69514">
        <ele>62.7</ele>
        <time>2013-03-02T09:40:50Z</time>
      </trkpt>
      <trkpt lat="47.30346" lon="-1.69569">
        <ele>60</ele>
        <time>2013-03-02T09:41:00Z</time>
      </trkpt>
      <trkpt lat="47.30348" lon="-1.69577">
        <ele>59.9</ele>
        <time>2013-03-02T09:41:01Z</time>
      </trkpt>
      <trkpt lat="47.30353" lon="-1.69594">
        <ele>58.8</ele>
        <time>2013-03-02T09:41:03Z</time>
      </trkpt>
      <trkpt lat="47.30355" lon="-1.69603">
        <ele>58.8</ele>
        <time>2013-03-02T09:41:04Z</time>
      </trkpt>
      <trkpt lat="47.30357" lon="-1.69612">
        <ele>58.8</ele>
        <time>2013-03-02T09:41:05Z</time>
      </trkpt>
      <trkpt lat="47.30358" lon="-1.69621">
        <ele>58.7</ele>
        <time>2013-03-02T09:41:06Z</time>
      </trkpt>
      <trkpt lat="47.30358" lon="-1.69637">
        <ele>58.4</ele>
        <time>2013-03-02T09:41:08Z</time>
      </trkpt>
      <trkpt lat="47.30358" lon="-1.69644">
        <ele>58.2</ele>
        <time>2013-03-02T09:41:09Z</time>
      </trkpt>
      <trkpt lat="47.30355" lon="-1.69669">
        <ele>58.5</ele>
        <time>2013-03-02T09:41:13Z</time>
      </trkpt>
      <trkpt lat="47.3035" lon="-1.69717">
        <ele>59.9</ele>
        <time>2013-03-02T09:41:23Z</time>
      </trkpt>
      <trkpt lat="47.30347" lon="-1.69732">
        <ele>60.9</ele>
        <time>2013-03-02T09:41:26Z</time>
      </trkpt>
      <trkpt lat="47.30342" lon="-1.69753">
        <ele>61.5</ele>
        <time>2013-03-02T09:41:30Z</time>
      </trkpt>
      <trkpt lat="47.30336" lon="-1.69773">
        <ele>62.1</ele>
        <time>2013-03-02T09:41:34Z</time>
      </trkpt>
      <trkpt lat="47.30323" lon="-1.69814">
        <ele>64.7</ele>
        <time>2013-03-02T09:41:43Z</time>
      </trkpt>
      <trkpt lat="47.30321" lon="-1.69818">
        <ele>64.9</ele>
        <time>2013-03-02T09:41:44Z</time>
      </trkpt>
      <trkpt lat="47.30314" lon="-1.69835">
        <ele>65.1</ele>
        <time>2013-03-02T09:41:48Z</time>
      </trkpt>
      <trkpt lat="47.30302" lon="-1.69857">
        <ele>63.2</ele>
        <time>2013-03-02T09:41:54Z</time>
      </trkpt>
      <trkpt lat="47.30288" lon="-1.69877">
        <ele>69.8</ele>
        <time>2013-03-02T09:42:00Z</time>
      </trkpt>
      <trkpt lat="47.30266" lon="-1.69905">
        <ele>67.8</ele>
        <time>2013-03-02T09:42:07Z</time>
      </trkpt>
      <trkpt lat="47.30151" lon="-1.70046">
        <ele>65.6</ele>
        <time>2013-03-02T09:42:41Z</time>
      </trkpt>
      <trkpt lat="47.30148" lon="-1.70051">
        <ele>65.7</ele>
        <time>2013-03-02T09:42:42Z</time>
      </trkpt>
      <trkpt lat="47.30054" lon="-1.70243">
        <ele>69.5</ele>
        <time>2013-03-02T09:43:16Z</time>
      </trkpt>
      <trkpt lat="47.30052" lon="-1.70247">
        <ele>70.1</ele>
        <time>2013-03-02T09:43:17Z</time>
      </trkpt>
      <trkpt lat="47.30047" lon="-1.7026">
        <ele>70.9</ele>
        <time>2013-03-02T09:43:20Z</time>
      </trkpt>
      <trkpt lat="47.30044" lon="-1.7027">
        <ele>71.9</ele>
        <time>2013-03-02T09:43:23Z</time>
      </trkpt>
      <trkpt lat="47.30044" lon="-1.70274">
        <ele>72.2</ele>
        <time>2013-03-02T09:43:24Z</time>
      </trkpt>
      <trkpt lat="47.30044" lon="-1.70278">
        <ele>72.4</ele>
        <time>2013-03-02T09:43:25Z</time>
      </trkpt>
      <trkpt lat="47.30044" lon="-1.70282">
        <ele>72.6</ele>
        <time>2013-03-02T09:43:26Z</time>
      </trkpt>
      <trkpt lat="47.30044" lon="-1.70286">
        <ele>72.9</ele>
        <time>2013-03-02T09:43:27Z</time>
      </trkpt>
      <trkpt lat="47.30046" lon="-1.70295">
        <ele>73.4</ele>
        <time>2013-03-02T09:43:29Z</time>
      </trkpt>
      <trkpt lat="47.30047" lon="-1.70299">
        <ele>73.6</ele>
        <time>2013-03-02T09:43:30Z</time>
      </trkpt>
      <trkpt lat="47.3005" lon="-1.70307">
        <ele>74.4</ele>
        <time>2013-03-02T09:43:32Z</time>
      </trkpt>
      <trkpt lat="47.30052" lon="-1.70311">
        <ele>74.7</ele>
        <time>2013-03-02T09:43:33Z</time>
      </trkpt>
      <trkpt lat="47.30055" lon="-1.70314">
        <ele>74.8</ele>
        <time>2013-03-02T09:43:34Z</time>
      </trkpt>
      <trkpt lat="47.30066" lon="-1.70331">
        <ele>75.6</ele>
        <time>2013-03-02T09:43:39Z</time>
      </trkpt>
      <trkpt lat="47.30115" lon="-1.70414">
        <ele>75.2</ele>
        <time>2013-03-02T09:43:58Z</time>
      </trkpt>
      <trkpt lat="47.30118" lon="-1.70419">
        <ele>75.1</ele>
        <time>2013-03-02T09:43:59Z</time>
      </trkpt>
      <trkpt lat="47.3012" lon="-1.70424">
        <ele>74.8</ele>
        <time>2013-03-02T09:44:00Z</time>
      </trkpt>
      <trkpt lat="47.30121" lon="-1.7043">
        <ele>74.6</ele>
        <time>2013-03-02T09:44:01Z</time>
      </trkpt>
      <trkpt lat="47.30127" lon="-1.70452">
        <ele>74.1</ele>
        <time>2013-03-02T09:44:05Z</time>
      </trkpt>
      <trkpt lat="47.3013" lon="-1.70471">
        <ele>73.6</ele>
        <time>2013-03-02T09:44:09Z</time>
      </trkpt>
      <trkpt lat="47.30133" lon="-1.70485">
        <ele>73.6</ele>
        <time>2013-03-02T09:44:12Z</time>
      </trkpt>
      <trkpt lat="47.30142" lon="-1.70526">
        <ele>75.9</ele>
        <time>2013-03-02T09:44:20Z</time>
      </trkpt>
      <trkpt lat="47.30142" lon="-1.70531">
        <ele>74.8</ele>
        <time>2013-03-02T09:44:21Z</time>
      </trkpt>
      <trkpt lat="47.30143" lon="-1.70541">
        <ele>73.5</ele>
        <time>2013-03-02T09:44:23Z</time>
      </trkpt>
      <trkpt lat="47.30147" lon="-1.7057">
        <ele>75</ele>
        <time>2013-03-02T09:44:29Z</time>
      </trkpt>
      <trkpt lat="47.3015" lon="-1.70584">
        <ele>75</ele>
        <time>2013-03-02T09:44:32Z</time>
      </trkpt>
      <trkpt lat="47.30151" lon="-1.70591">
        <ele>75</ele>
        <time>2013-03-02T09:44:34Z</time>
      </trkpt>
      <trkpt lat="47.30151" lon="-1.70594">
        <ele>75.1</ele>
        <time>2013-03-02T09:44:35Z</time>
      </trkpt>
      <trkpt lat="47.3015" lon="-1.70596">
        <ele>75.6</ele>
        <time>2013-03-02T09:44:36Z</time>
      </trkpt>
      <trkpt lat="47.3015" lon="-1.70598">
        <ele>76.1</ele>
        <time>2013-03-02T09:44:37Z</time>
      </trkpt>
      <trkpt lat="47.30149" lon="-1.70599">
        <ele>76.6</ele>
        <time>2013-03-02T09:44:38Z</time>
      </trkpt>
      <trkpt lat="47.30147" lon="-1.70603">
        <ele>76.9</ele>
        <time>2013-03-02T09:44:40Z</time>
      </trkpt>
      <trkpt lat="47.30146" lon="-1.70605">
        <ele>76.7</ele>
        <time>2013-03-02T09:44:41Z</time>
      </trkpt>
      <trkpt lat="47.30145" lon="-1.70608">
        <ele>76.6</ele>
        <time>2013-03-02T09:44:42Z</time>
      </trkpt>
      <trkpt lat="47.30142" lon="-1.70613">
        <ele>76</ele>
        <time>2013-03-02T09:44:44Z</time>
      </trkpt>
      <trkpt lat="47.3014" lon="-1.70616">
        <ele>76.5</ele>
        <time>2013-03-02T09:44:45Z</time>
      </trkpt>
      <trkpt lat="47.30073" lon="-1.70712">
        <ele>78.9</ele>
        <time>2013-03-02T09:45:15Z</time>
      </trkpt>
      <trkpt lat="47.3007" lon="-1.70717">
        <ele>79.3</ele>
        <time>2013-03-02T09:45:16Z</time>
      </trkpt>
      <trkpt lat="47.30069" lon="-1.70721">
        <ele>79.5</ele>
        <time>2013-03-02T09:45:17Z</time>
      </trkpt>
      <trkpt lat="47.30068" lon="-1.70726">
        <ele>79.5</ele>
        <time>2013-03-02T09:45:18Z</time>
      </trkpt>
      <trkpt lat="47.30066" lon="-1.70742">
        <ele>79.4</ele>
        <time>2013-03-02T09:45:21Z</time>
      </trkpt>
      <trkpt lat="47.30065" lon="-1.70748">
        <ele>79.3</ele>
        <time>2013-03-02T09:45:22Z</time>
      </trkpt>
      <trkpt lat="47.30065" lon="-1.70754">
        <ele>79.4</ele>
        <time>2013-03-02T09:45:23Z</time>
      </trkpt>
      <trkpt lat="47.30066" lon="-1.70759">
        <ele>79.5</ele>
        <time>2013-03-02T09:45:24Z</time>
      </trkpt>
      <trkpt lat="47.30067" lon="-1.70765">
        <ele>79.5</ele>
        <time>2013-03-02T09:45:25Z</time>
      </trkpt>
      <trkpt lat="47.30068" lon="-1.7077">
        <ele>79.5</ele>
        <time>2013-03-02T09:45:26Z</time>
      </trkpt>
      <trkpt lat="47.3007" lon="-1.70775">
        <ele>79.6</ele>
        <time>2013-03-02T09:45:27Z</time>
      </trkpt>
      <trkpt lat="47.30072" lon="-1.7078">
        <ele>79.5</ele>
        <time>2013-03-02T09:45:28Z</time>
      </trkpt>
      <trkpt lat="47.30158" lon="-1.70959">
        <ele>79.7</ele>
        <time>2013-03-02T09:46:05Z</time>
      </trkpt>
      <trkpt lat="47.30161" lon="-1.70963">
        <ele>79.8</ele>
        <time>2013-03-02T09:46:06Z</time>
      </trkpt>
      <trkpt lat="47.30176" lon="-1.70982">
        <ele>80.3</ele>
        <time>2013-03-02T09:46:11Z</time>
      </trkpt>
      <trkpt lat="47.30199" lon="-1.71008">
        <ele>79.4</ele>
        <time>2013-03-02T09:46:19Z</time>
      </trkpt>
      <trkpt lat="47.30201" lon="-1.71012">
        <ele>79.7</ele>
        <time>2013-03-02T09:46:20Z</time>
      </trkpt>
      <trkpt lat="47.30283" lon="-1.71151">
        <ele>79.8</ele>
        <time>2013-03-02T09:46:51Z</time>
      </trkpt>
      <trkpt lat="47.30285" lon="-1.71156">
        <ele>80</ele>
        <time>2013-03-02T09:46:52Z</time>
      </trkpt>
      <trkpt lat="47.30286" lon="-1.71161">
        <ele>79.4</ele>
        <time>2013-03-02T09:46:53Z</time>
      </trkpt>
      <trkpt lat="47.30286" lon="-1.71166">
        <ele>79.1</ele>
        <time>2013-03-02T09:46:54Z</time>
      </trkpt>
      <trkpt lat="47.30285" lon="-1.71169">
        <ele>78.8</ele>
        <time>2013-03-02T09:46:55Z</time>
      </trkpt>
      <trkpt lat="47.30284" lon="-1.7117">
        <ele>79</ele>
        <time>2013-03-02T09:46:56Z</time>
      </trkpt>
      <trkpt lat="47.30284" lon="-1.7117">
        <ele>79.1</ele>
        <time>2013-03-02T09:46:57Z</time>
      </trkpt>
      <trkpt lat="47.30284" lon="-1.7117">
        <ele>78.9</ele>
        <time>2013-03-02T09:46:58Z</time>
      </trkpt>
      <trkpt lat="47.30284" lon="-1.71171">
        <ele>78.8</ele>
        <time>2013-03-02T09:46:59Z</time>
      </trkpt>
      <trkpt lat="47.30284" lon="-1.71171">
        <ele>79</ele>
        <time>2013-03-02T09:47:00Z</time>
      </trkpt>
      <trkpt lat="47.30285" lon="-1.71171">
        <ele>79.1</ele>
        <time>2013-03-02T09:47:01Z</time>
      </trkpt>
      <trkpt lat="47.30285" lon="-1.71171">
        <ele>79.2</ele>
        <time>2013-03-02T09:47:02Z</time>
      </trkpt>
      <trkpt lat="47.30284" lon="-1.71172">
        <ele>78.8</ele>
        <time>2013-03-02T09:47:03Z</time>
      </trkpt>
      <trkpt lat="47.30283" lon="-1.71173">
        <ele>78.6</ele>
        <time>2013-03-02T09:47:04Z</time>
      </trkpt>
      <trkpt lat="47.30282" lon="-1.71174">
        <ele>78.3</ele>
        <time>2013-03-02T09:47:05Z</time>
      </trkpt>
      <trkpt lat="47.30278" lon="-1.71177">
        <ele>77.9</ele>
        <time>2013-03-02T09:47:08Z</time>
      </trkpt>
      <trkpt lat="47.30276" lon="-1.71178">
        <ele>77.8</ele>
        <time>2013-03-02T09:47:09Z</time>
      </trkpt>
      <trkpt lat="47.30272" lon="-1.71178">
        <ele>78.9</ele>
        <time>2013-03-02T09:47:11Z</time>
      </trkpt>
      <trkpt lat="47.30267" lon="-1.71179">
        <ele>78.9</ele>
        <time>2013-03-02T09:47:13Z</time>
      </trkpt>
      <trkpt lat="47.30262" lon="-1.71179">
        <ele>78.7</ele>
        <time>2013-03-02T09:47:15Z</time>
      </trkpt>
      <trkpt lat="47.30256" lon="-1.71178">
        <ele>78.7</ele>
        <time>2013-03-02T09:47:17Z</time>
      </trkpt>
      <trkpt lat="47.30251" lon="-1.71176">
        <ele>79</ele>
        <time>2013-03-02T09:47:19Z</time>
      </trkpt>
      <trkpt lat="47.30248" lon="-1.71176">
        <ele>79.2</ele>
        <time>2013-03-02T09:47:20Z</time>
      </trkpt>
      <trkpt lat="47.30245" lon="-1.71177">
        <ele>79.3</ele>
        <time>2013-03-02T09:47:21Z</time>
      </trkpt>
      <trkpt lat="47.30242" lon="-1.71178">
        <ele>79.3</ele>
        <time>2013-03-02T09:47:22Z</time>
      </trkpt>
      <trkpt lat="47.30239" lon="-1.71178">
        <ele>79.4</ele>
        <time>2013-03-02T09:47:23Z</time>
      </trkpt>
      <trkpt lat="47.30232" lon="-1.71179">
        <ele>79.6</ele>
        <time>2013-03-02T09:47:26Z</time>
      </trkpt>
      <trkpt lat="47.3023" lon="-1.71179">
        <ele>79.5</ele>
        <time>2013-03-02T09:47:27Z</time>
      </trkpt>
      <trkpt lat="47.30226" lon="-1.71179">
        <ele>79.5</ele>
        <time>2013-03-02T09:47:29Z</time>
      </trkpt>
      <trkpt lat="47.30221" lon="-1.71179">
        <ele>79.1</ele>
        <time>2013-03-02T09:47:31Z</time>
      </trkpt>
      <trkpt lat="47.30204" lon="-1.71179">
        <ele>79.6</ele>
        <time>2013-03-02T09:47:37Z</time>
      </trkpt>
      <trkpt lat="47.30202" lon="-1.7118">
        <ele>79.3</ele>
        <time>2013-03-02T09:47:38Z</time>
      </trkpt>
      <trkpt lat="47.30199" lon="-1.71181">
        <ele>79</ele>
        <time>2013-03-02T09:47:39Z</time>
      </trkpt>
      <trkpt lat="47.30197" lon="-1.71183">
        <ele>78.8</ele>
        <time>2013-03-02T09:47:40Z</time>
      </trkpt>
      <trkpt lat="47.30192" lon="-1.71186">
        <ele>79.2</ele>
        <time>2013-03-02T09:47:42Z</time>
      </trkpt>
      <trkpt lat="47.30189" lon="-1.71187">
        <ele>79</ele>
        <time>2013-03-02T09:47:43Z</time>
      </trkpt>
      <trkpt lat="47.30187" lon="-1.71188">
        <ele>78.9</ele>
        <time>2013-03-02T09:47:44Z</time>
      </trkpt>
      <trkpt lat="47.30174" lon="-1.71189">
        <ele>78.7</ele>
        <time>2013-03-02T09:47:49Z</time>
      </trkpt>
      <trkpt lat="47.30172" lon="-1.71188">
        <ele>78.8</ele>
        <time>2013-03-02T09:47:50Z</time>
      </trkpt>
      <trkpt lat="47.30163" lon="-1.71188">
        <ele>79</ele>
        <time>2013-03-02T09:47:53Z</time>
      </trkpt>
      <trkpt lat="47.3016" lon="-1.71189">
        <ele>79</ele>
        <time>2013-03-02T09:47:54Z</time>
      </trkpt>
      <trkpt lat="47.30121" lon="-1.71198">
        <ele>78.7</ele>
        <time>2013-03-02T09:48:06Z</time>
      </trkpt>
      <trkpt lat="47.30118" lon="-1.71201">
        <ele>78.7</ele>
        <time>2013-03-02T09:48:07Z</time>
      </trkpt>
      <trkpt lat="47.30116" lon="-1.71204">
        <ele>78.6</ele>
        <time>2013-03-02T09:48:08Z</time>
      </trkpt>
      <trkpt lat="47.30115" lon="-1.71208">
        <ele>78</ele>
        <time>2013-03-02T09:48:09Z</time>
      </trkpt>
      <trkpt lat="47.30114" lon="-1.7122">
        <ele>77.7</ele>
        <time>2013-03-02T09:48:12Z</time>
      </trkpt>
      <trkpt lat="47.30112" lon="-1.71224">
        <ele>77.8</ele>
        <time>2013-03-02T09:48:13Z</time>
      </trkpt>
      <trkpt lat="47.3011" lon="-1.71227">
        <ele>77.6</ele>
        <time>2013-03-02T09:48:14Z</time>
      </trkpt>
      <trkpt lat="47.30107" lon="-1.71229">
        <ele>77.4</ele>
        <time>2013-03-02T09:48:15Z</time>
      </trkpt>
      <trkpt lat="47.30103" lon="-1.71231">
        <ele>77.3</ele>
        <time>2013-03-02T09:48:16Z</time>
      </trkpt>
      <trkpt lat="47.29955" lon="-1.71308">
        <ele>73.6</ele>
        <time>2013-03-02T09:48:46Z</time>
      </trkpt>
      <trkpt lat="47.29951" lon="-1.71312">
        <ele>73.8</ele>
        <time>2013-03-02T09:48:47Z</time>
      </trkpt>
      <trkpt lat="47.29937" lon="-1.71323">
        <ele>73.9</ele>
        <time>2013-03-02T09:48:50Z</time>
      </trkpt>
      <trkpt lat="47.29932" lon="-1.71326">
        <ele>73.9</ele>
        <time>2013-03-02T09:48:51Z</time>
      </trkpt>
      <trkpt lat="47.29927" lon="-1.71328">
        <ele>73.9</ele>
        <time>2013-03-02T09:48:52Z</time>
      </trkpt>
      <trkpt lat="47.29922" lon="-1.71329">
        <ele>73.8</ele>
        <time>2013-03-02T09:48:53Z</time>
      </trkpt>
      <trkpt lat="47.29912" lon="-1.71331">
        <ele>73.6</ele>
        <time>2013-03-02T09:48:55Z</time>
      </trkpt>
      <trkpt lat="47.29907" lon="-1.71331">
        <ele>73.5</ele>
        <time>2013-03-02T09:48:56Z</time>
      </trkpt>
      <trkpt lat="47.29898" lon="-1.7133">
        <ele>73.6</ele>
        <time>2013-03-02T09:48:58Z</time>
      </trkpt>
      <trkpt lat="47.29893" lon="-1.71329">
        <ele>73.3</ele>
        <time>2013-03-02T09:48:59Z</time>
      </trkpt>
      <trkpt lat="47.29889" lon="-1.71326">
        <ele>73.1</ele>
        <time>2013-03-02T09:49:00Z</time>
      </trkpt>
      <trkpt lat="47.29885" lon="-1.71323">
        <ele>73.3</ele>
        <time>2013-03-02T09:49:01Z</time>
      </trkpt>
      <trkpt lat="47.2987" lon="-1.71311">
        <ele>73.6</ele>
        <time>2013-03-02T09:49:05Z</time>
      </trkpt>
      <trkpt lat="47.29866" lon="-1.71309">
        <ele>73.5</ele>
        <time>2013-03-02T09:49:06Z</time>
      </trkpt>
      <trkpt lat="47.29862" lon="-1.71308">
        <ele>73.4</ele>
        <time>2013-03-02T09:49:07Z</time>
      </trkpt>
      <trkpt lat="47.29858" lon="-1.71308">
        <ele>73.2</ele>
        <time>2013-03-02T09:49:08Z</time>
      </trkpt>
      <trkpt lat="47.29854" lon="-1.71309">
        <ele>73</ele>
        <time>2013-03-02T09:49:09Z</time>
      </trkpt>
      <trkpt lat="47.29837" lon="-1.71316">
        <ele>73.3</ele>
        <time>2013-03-02T09:49:13Z</time>
      </trkpt>
      <trkpt lat="47.29832" lon="-1.71316">
        <ele>73.2</ele>
        <time>2013-03-02T09:49:14Z</time>
      </trkpt>
      <trkpt lat="47.29828" lon="-1.71315">
        <ele>72.8</ele>
        <time>2013-03-02T09:49:15Z</time>
      </trkpt>
      <trkpt lat="47.29824" lon="-1.71313">
        <ele>72.5</ele>
        <time>2013-03-02T09:49:16Z</time>
      </trkpt>
      <trkpt lat="47.29821" lon="-1.7131">
        <ele>72.3</ele>
        <time>2013-03-02T09:49:17Z</time>
      </trkpt>
      <trkpt lat="47.29818" lon="-1.71305">
        <ele>72.3</ele>
        <time>2013-03-02T09:49:18Z</time>
      </trkpt>
      <trkpt lat="47.29816" lon="-1.71302">
        <ele>72.4</ele>
        <time>2013-03-02T09:49:19Z</time>
      </trkpt>
      <trkpt lat="47.29812" lon="-1.71299">
        <ele>72.2</ele>
        <time>2013-03-02T09:49:20Z</time>
      </trkpt>
      <trkpt lat="47.29808" lon="-1.71296">
        <ele>72.1</ele>
        <time>2013-03-02T09:49:21Z</time>
      </trkpt>
      <trkpt lat="47.29778" lon="-1.71282">
        <ele>70.5</ele>
        <time>2013-03-02T09:49:27Z</time>
      </trkpt>
      <trkpt lat="47.29773" lon="-1.71278">
        <ele>70.2</ele>
        <time>2013-03-02T09:49:28Z</time>
      </trkpt>
      <trkpt lat="47.29753" lon="-1.71259">
        <ele>67.8</ele>
        <time>2013-03-02T09:49:33Z</time>
      </trkpt>
      <trkpt lat="47.29749" lon="-1.71254">
        <ele>67</ele>
        <time>2013-03-02T09:49:34Z</time>
      </trkpt>
      <trkpt lat="47.29745" lon="-1.71248">
        <ele>66.5</ele>
        <time>2013-03-02T09:49:35Z</time>
      </trkpt>
      <trkpt lat="47.29734" lon="-1.71231">
        <ele>64.8</ele>
        <time>2013-03-02T09:49:39Z</time>
      </trkpt>
      <trkpt lat="47.29729" lon="-1.71222">
        <ele>63.7</ele>
        <time>2013-03-02T09:49:42Z</time>
      </trkpt>
      <trkpt lat="47.29728" lon="-1.7122">
        <ele>63</ele>
        <time>2013-03-02T09:49:43Z</time>
      </trkpt>
      <trkpt lat="47.29725" lon="-1.71217">
        <ele>61.7</ele>
        <time>2013-03-02T09:49:45Z</time>
      </trkpt>
      <trkpt lat="47.29724" lon="-1.71215">
        <ele>61.1</ele>
        <time>2013-03-02T09:49:46Z</time>
      </trkpt>
      <trkpt lat="47.29723" lon="-1.71213">
        <ele>60.6</ele>
        <time>2013-03-02T09:49:47Z</time>
      </trkpt>
      <trkpt lat="47.29721" lon="-1.71211">
        <ele>60.3</ele>
        <time>2013-03-02T09:49:48Z</time>
      </trkpt>
      <trkpt lat="47.29712" lon="-1.71198">
        <ele>58.6</ele>
        <time>2013-03-02T09:49:53Z</time>
      </trkpt>
      <trkpt lat="47.29709" lon="-1.71196">
        <ele>58.3</ele>
        <time>2013-03-02T09:49:54Z</time>
      </trkpt>
      <trkpt lat="47.29702" lon="-1.71189">
        <ele>57.1</ele>
        <time>2013-03-02T09:49:58Z</time>
      </trkpt>
      <trkpt lat="47.29701" lon="-1.71188">
        <ele>57</ele>
        <time>2013-03-02T09:49:59Z</time>
      </trkpt>
      <trkpt lat="47.29699" lon="-1.71186">
        <ele>55.7</ele>
        <time>2013-03-02T09:50:02Z</time>
      </trkpt>
      <trkpt lat="47.29699" lon="-1.71186">
        <ele>55.4</ele>
        <time>2013-03-02T09:50:03Z</time>
      </trkpt>
      <trkpt lat="47.29696" lon="-1.71182">
        <ele>55</ele>
        <time>2013-03-02T09:50:08Z</time>
      </trkpt>
      <trkpt lat="47.29696" lon="-1.71182">
        <ele>54.8</ele>
        <time>2013-03-02T09:50:09Z</time>
      </trkpt>
      <trkpt lat="47.29695" lon="-1.71181">
        <ele>54.9</ele>
        <time>2013-03-02T09:50:10Z</time>
      </trkpt>
      <trkpt lat="47.29695" lon="-1.7118">
        <ele>55</ele>
        <time>2013-03-02T09:50:11Z</time>
      </trkpt>
      <trkpt lat="47.29695" lon="-1.7118">
        <ele>55</ele>
        <time>2013-03-02T09:50:12Z</time>
      </trkpt>
      <trkpt lat="47.29694" lon="-1.71179">
        <ele>54.9</ele>
        <time>2013-03-02T09:50:13Z</time>
      </trkpt>
      <trkpt lat="47.29694" lon="-1.71179">
        <ele>54.9</ele>
        <time>2013-03-02T09:50:14Z</time>
      </trkpt>
      <trkpt lat="47.29693" lon="-1.71178">
        <ele>54.7</ele>
        <time>2013-03-02T09:50:16Z</time>
      </trkpt>
      <trkpt lat="47.29693" lon="-1.71177">
        <ele>54.5</ele>
        <time>2013-03-02T09:50:17Z</time>
      </trkpt>
      <trkpt lat="47.2969" lon="-1.71175">
        <ele>54</ele>
        <time>2013-03-02T09:50:23Z</time>
      </trkpt>
      <trkpt lat="47.2969" lon="-1.71175">
        <ele>54.3</ele>
        <time>2013-03-02T09:50:24Z</time>
      </trkpt>
      <trkpt lat="47.2969" lon="-1.71174">
        <ele>54.6</ele>
        <time>2013-03-02T09:50:26Z</time>
      </trkpt>
      <trkpt lat="47.29689" lon="-1.71174">
        <ele>54.4</ele>
        <time>2013-03-02T09:50:27Z</time>
      </trkpt>
      <trkpt lat="47.29689" lon="-1.71173">
        <ele>54.3</ele>
        <time>2013-03-02T09:50:28Z</time>
      </trkpt>
      <trkpt lat="47.29689" lon="-1.71171">
        <ele>54.3</ele>
        <time>2013-03-02T09:50:29Z</time>
      </trkpt>
      <trkpt lat="47.29689" lon="-1.71168">
        <ele>54.4</ele>
        <time>2013-03-02T09:50:31Z</time>
      </trkpt>
      <trkpt lat="47.29689" lon="-1.71168">
        <ele>54.5</ele>
        <time>2013-03-02T09:50:32Z</time>
      </trkpt>
      <trkpt lat="47.29689" lon="-1.71167">
        <ele>54.6</ele>
        <time>2013-03-02T09:50:33Z</time>
      </trkpt>
      <trkpt lat="47.29689" lon="-1.71166">
        <ele>54.3</ele>
        <time>2013-03-02T09:50:34Z</time>
      </trkpt>
      <trkpt lat="47.29688" lon="-1.71165">
        <ele>53.4</ele>
        <time>2013-03-02T09:50:36Z</time>
      </trkpt>
      <trkpt lat="47.29689" lon="-1.71165">
        <ele>52.9</ele>
        <time>2013-03-02T09:50:37Z</time>
      </trkpt>
      <trkpt lat="47.29688" lon="-1.71164">
        <ele>52.6</ele>
        <time>2013-03-02T09:50:38Z</time>
      </trkpt>
      <trkpt lat="47.29688" lon="-1.71163">
        <ele>53.2</ele>
        <time>2013-03-02T09:50:39Z</time>
      </trkpt>
      <trkpt lat="47.29687" lon="-1.71162">
        <ele>53.7</ele>
        <time>2013-03-02T09:50:40Z</time>
      </trkpt>
      <trkpt lat="47.29687" lon="-1.71161">
        <ele>54.1</ele>
        <time>2013-03-02T09:50:41Z</time>
      </trkpt>
      <trkpt lat="47.29686" lon="-1.7116">
        <ele>54.5</ele>
        <time>2013-03-02T09:50:42Z</time>
      </trkpt>
      <trkpt lat="47.29685" lon="-1.7116">
        <ele>54.4</ele>
        <time>2013-03-02T09:50:43Z</time>
      </trkpt>
      <trkpt lat="47.29684" lon="-1.71159">
        <ele>54.4</ele>
        <time>2013-03-02T09:50:44Z</time>
      </trkpt>
      <trkpt lat="47.29661" lon="-1.71154">
        <ele>53.7</ele>
        <time>2013-03-02T09:50:56Z</time>
      </trkpt>
      <trkpt lat="47.29659" lon="-1.71153">
        <ele>53.5</ele>
        <time>2013-03-02T09:50:57Z</time>
      </trkpt>
      <trkpt lat="47.29659" lon="-1.71151">
        <ele>53.7</ele>
        <time>2013-03-02T09:50:58Z</time>
      </trkpt>
      <trkpt lat="47.29657" lon="-1.71148">
        <ele>53.8</ele>
        <time>2013-03-02T09:51:00Z</time>
      </trkpt>
      <trkpt lat="47.29656" lon="-1.71147">
        <ele>53.8</ele>
        <time>2013-03-02T09:51:01Z</time>
      </trkpt>
      <trkpt lat="47.2965" lon="-1.71141">
        <ele>54.1</ele>
        <time>2013-03-02T09:51:06Z</time>
      </trkpt>
      <trkpt lat="47.29647" lon="-1.7114">
        <ele>53.9</ele>
        <time>2013-03-02T09:51:08Z</time>
      </trkpt>
      <trkpt lat="47.29646" lon="-1.71138">
        <ele>54.1</ele>
        <time>2013-03-02T09:51:09Z</time>
      </trkpt>
      <trkpt lat="47.29644" lon="-1.71136">
        <ele>54.4</ele>
        <time>2013-03-02T09:51:11Z</time>
      </trkpt>
      <trkpt lat="47.29643" lon="-1.71136">
        <ele>54.9</ele>
        <time>2013-03-02T09:51:12Z</time>
      </trkpt>
      <trkpt lat="47.29641" lon="-1.71134">
        <ele>55.3</ele>
        <time>2013-03-02T09:51:13Z</time>
      </trkpt>
      <trkpt lat="47.29638" lon="-1.71128">
        <ele>55.2</ele>
        <time>2013-03-02T09:51:16Z</time>
      </trkpt>
      <trkpt lat="47.29638" lon="-1.71126">
        <ele>55</ele>
        <time>2013-03-02T09:51:17Z</time>
      </trkpt>
      <trkpt lat="47.29636" lon="-1.71122">
        <ele>55.5</ele>
        <time>2013-03-02T09:51:19Z</time>
      </trkpt>
      <trkpt lat="47.29635" lon="-1.7112">
        <ele>56</ele>
        <time>2013-03-02T09:51:20Z</time>
      </trkpt>
      <trkpt lat="47.29628" lon="-1.71106">
        <ele>56.2</ele>
        <time>2013-03-02T09:51:26Z</time>
      </trkpt>
      <trkpt lat="47.29625" lon="-1.711">
        <ele>55.3</ele>
        <time>2013-03-02T09:51:29Z</time>
      </trkpt>
      <trkpt lat="47.29624" lon="-1.71098">
        <ele>55</ele>
        <time>2013-03-02T09:51:30Z</time>
      </trkpt>
      <trkpt lat="47.29623" lon="-1.71096">
        <ele>56.5</ele>
        <time>2013-03-02T09:51:31Z</time>
      </trkpt>
      <trkpt lat="47.29622" lon="-1.71093">
        <ele>57.5</ele>
        <time>2013-03-02T09:51:32Z</time>
      </trkpt>
      <trkpt lat="47.29619" lon="-1.71089">
        <ele>58.2</ele>
        <time>2013-03-02T09:51:34Z</time>
      </trkpt>
      <trkpt lat="47.29617" lon="-1.71085">
        <ele>58.3</ele>
        <time>2013-03-02T09:51:36Z</time>
      </trkpt>
      <trkpt lat="47.29613" lon="-1.71079">
        <ele>58.5</ele>
        <time>2013-03-02T09:51:39Z</time>
      </trkpt>
      <trkpt lat="47.29613" lon="-1.71077">
        <ele>58.7</ele>
        <time>2013-03-02T09:51:40Z</time>
      </trkpt>
      <trkpt lat="47.29612" lon="-1.71075">
        <ele>58.8</ele>
        <time>2013-03-02T09:51:41Z</time>
      </trkpt>
      <trkpt lat="47.29612" lon="-1.71073">
        <ele>58.9</ele>
        <time>2013-03-02T09:51:42Z</time>
      </trkpt>
      <trkpt lat="47.29611" lon="-1.71071">
        <ele>59.1</ele>
        <time>2013-03-02T09:51:43Z</time>
      </trkpt>
      <trkpt lat="47.29604" lon="-1.71058">
        <ele>59</ele>
        <time>2013-03-02T09:51:48Z</time>
      </trkpt>
      <trkpt lat="47.29604" lon="-1.71055">
        <ele>58.9</ele>
        <time>2013-03-02T09:51:49Z</time>
      </trkpt>
      <trkpt lat="47.29603" lon="-1.71052">
        <ele>59</ele>
        <time>2013-03-02T09:51:50Z</time>
      </trkpt>
      <trkpt lat="47.29601" lon="-1.71049">
        <ele>59.1</ele>
        <time>2013-03-02T09:51:51Z</time>
      </trkpt>
      <trkpt lat="47.29599" lon="-1.71043">
        <ele>59.2</ele>
        <time>2013-03-02T09:51:53Z</time>
      </trkpt>
      <trkpt lat="47.29597" lon="-1.71041">
        <ele>59.2</ele>
        <time>2013-03-02T09:51:54Z</time>
      </trkpt>
      <trkpt lat="47.29591" lon="-1.71032">
        <ele>58.6</ele>
        <time>2013-03-02T09:51:57Z</time>
      </trkpt>
      <trkpt lat="47.29587" lon="-1.71023">
        <ele>58.7</ele>
        <time>2013-03-02T09:52:00Z</time>
      </trkpt>
      <trkpt lat="47.29586" lon="-1.71021">
        <ele>58.7</ele>
        <time>2013-03-02T09:52:01Z</time>
      </trkpt>
      <trkpt lat="47.29585" lon="-1.71018">
        <ele>59</ele>
        <time>2013-03-02T09:52:02Z</time>
      </trkpt>
      <trkpt lat="47.29579" lon="-1.71002">
        <ele>60.2</ele>
        <time>2013-03-02T09:52:08Z</time>
      </trkpt>
      <trkpt lat="47.29579" lon="-1.71">
        <ele>60.2</ele>
        <time>2013-03-02T09:52:09Z</time>
      </trkpt>
      <trkpt lat="47.29577" lon="-1.70997">
        <ele>60.2</ele>
        <time>2013-03-02T09:52:10Z</time>
      </trkpt>
      <trkpt lat="47.29575" lon="-1.70994">
        <ele>60.6</ele>
        <time>2013-03-02T09:52:11Z</time>
      </trkpt>
      <trkpt lat="47.29574" lon="-1.7099">
        <ele>60.8</ele>
        <time>2013-03-02T09:52:12Z</time>
      </trkpt>
      <trkpt lat="47.29573" lon="-1.70987">
        <ele>61</ele>
        <time>2013-03-02T09:52:13Z</time>
      </trkpt>
      <trkpt lat="47.29572" lon="-1.70984">
        <ele>61</ele>
        <time>2013-03-02T09:52:14Z</time>
      </trkpt>
      <trkpt lat="47.29569" lon="-1.70979">
        <ele>61</ele>
        <time>2013-03-02T09:52:16Z</time>
      </trkpt>
      <trkpt lat="47.29556" lon="-1.70949">
        <ele>61.7</ele>
        <time>2013-03-02T09:52:26Z</time>
      </trkpt>
      <trkpt lat="47.29549" lon="-1.70934">
        <ele>61.9</ele>
        <time>2013-03-02T09:52:31Z</time>
      </trkpt>
      <trkpt lat="47.29548" lon="-1.70932">
        <ele>61.7</ele>
        <time>2013-03-02T09:52:32Z</time>
      </trkpt>
      <trkpt lat="47.29546" lon="-1.7093">
        <ele>61.6</ele>
        <time>2013-03-02T09:52:33Z</time>
      </trkpt>
      <trkpt lat="47.29545" lon="-1.70928">
        <ele>61.5</ele>
        <time>2013-03-02T09:52:34Z</time>
      </trkpt>
      <trkpt lat="47.29535" lon="-1.70908">
        <ele>62.1</ele>
        <time>2013-03-02T09:52:42Z</time>
      </trkpt>
      <trkpt lat="47.2953" lon="-1.70897">
        <ele>61.5</ele>
        <time>2013-03-02T09:52:47Z</time>
      </trkpt>
      <trkpt lat="47.29529" lon="-1.70896">
        <ele>61.2</ele>
        <time>2013-03-02T09:52:48Z</time>
      </trkpt>
      <trkpt lat="47.29528" lon="-1.70894">
        <ele>61</ele>
        <time>2013-03-02T09:52:49Z</time>
      </trkpt>
      <trkpt lat="47.29528" lon="-1.70893">
        <ele>60.9</ele>
        <time>2013-03-02T09:52:50Z</time>
      </trkpt>
      <trkpt lat="47.29527" lon="-1.70892">
        <ele>60.6</ele>
        <time>2013-03-02T09:52:51Z</time>
      </trkpt>
      <trkpt lat="47.29527" lon="-1.7089">
        <ele>60.4</ele>
        <time>2013-03-02T09:52:52Z</time>
      </trkpt>
      <trkpt lat="47.29526" lon="-1.70889">
        <ele>60.2</ele>
        <time>2013-03-02T09:52:53Z</time>
      </trkpt>
      <trkpt lat="47.29526" lon="-1.70888">
        <ele>59.6</ele>
        <time>2013-03-02T09:52:54Z</time>
      </trkpt>
      <trkpt lat="47.29526" lon="-1.70887">
        <ele>59.1</ele>
        <time>2013-03-02T09:52:55Z</time>
      </trkpt>
      <trkpt lat="47.29525" lon="-1.70886">
        <ele>59.6</ele>
        <time>2013-03-02T09:52:56Z</time>
      </trkpt>
      <trkpt lat="47.29525" lon="-1.70885">
        <ele>60</ele>
        <time>2013-03-02T09:52:57Z</time>
      </trkpt>
      <trkpt lat="47.29525" lon="-1.70883">
        <ele>60.3</ele>
        <time>2013-03-02T09:52:58Z</time>
      </trkpt>
      <trkpt lat="47.29525" lon="-1.70881">
        <ele>60.2</ele>
        <time>2013-03-02T09:52:59Z</time>
      </trkpt>
      <trkpt lat="47.29524" lon="-1.70879">
        <ele>60.1</ele>
        <time>2013-03-02T09:53:00Z</time>
      </trkpt>
      <trkpt lat="47.29524" lon="-1.70878">
        <ele>60</ele>
        <time>2013-03-02T09:53:01Z</time>
      </trkpt>
      <trkpt lat="47.29521" lon="-1.70869">
        <ele>59.7</ele>
        <time>2013-03-02T09:53:04Z</time>
      </trkpt>
      <trkpt lat="47.29519" lon="-1.70866">
        <ele>59.7</ele>
        <time>2013-03-02T09:53:05Z</time>
      </trkpt>
      <trkpt lat="47.29517" lon="-1.7086">
        <ele>60.1</ele>
        <time>2013-03-02T09:53:07Z</time>
      </trkpt>
      <trkpt lat="47.29516" lon="-1.70856">
        <ele>60.1</ele>
        <time>2013-03-02T09:53:08Z</time>
      </trkpt>
      <trkpt lat="47.29508" lon="-1.70832">
        <ele>62.2</ele>
        <time>2013-03-02T09:53:16Z</time>
      </trkpt>
      <trkpt lat="47.29507" lon="-1.70829">
        <ele>62.5</ele>
        <time>2013-03-02T09:53:17Z</time>
      </trkpt>
      <trkpt lat="47.29498" lon="-1.70808">
        <ele>65.1</ele>
        <time>2013-03-02T09:53:24Z</time>
      </trkpt>
      <trkpt lat="47.29498" lon="-1.70806">
        <ele>65.2</ele>
        <time>2013-03-02T09:53:25Z</time>
      </trkpt>
      <trkpt lat="47.29497" lon="-1.70803">
        <ele>65.3</ele>
        <time>2013-03-02T09:53:26Z</time>
      </trkpt>
      <trkpt lat="47.29496" lon="-1.708">
        <ele>65.6</ele>
        <time>2013-03-02T09:53:27Z</time>
      </trkpt>
      <trkpt lat="47.29495" lon="-1.70797">
        <ele>65.7</ele>
        <time>2013-03-02T09:53:28Z</time>
      </trkpt>
      <trkpt lat="47.29491" lon="-1.70787">
        <ele>65.4</ele>
        <time>2013-03-02T09:53:32Z</time>
      </trkpt>
      <trkpt lat="47.2949" lon="-1.70785">
        <ele>65.3</ele>
        <time>2013-03-02T09:53:33Z</time>
      </trkpt>
      <trkpt lat="47.29489" lon="-1.7078">
        <ele>65.3</ele>
        <time>2013-03-02T09:53:35Z</time>
      </trkpt>
      <trkpt lat="47.29488" lon="-1.70778">
        <ele>65.4</ele>
        <time>2013-03-02T09:53:36Z</time>
      </trkpt>
      <trkpt lat="47.29487" lon="-1.70775">
        <ele>65.5</ele>
        <time>2013-03-02T09:53:37Z</time>
      </trkpt>
      <trkpt lat="47.29486" lon="-1.70773">
        <ele>65.5</ele>
        <time>2013-03-02T09:53:38Z</time>
      </trkpt>
      <trkpt lat="47.29482" lon="-1.70766">
        <ele>65.4</ele>
        <time>2013-03-02T09:53:41Z</time>
      </trkpt>
      <trkpt lat="47.29481" lon="-1.70763">
        <ele>65.5</ele>
        <time>2013-03-02T09:53:42Z</time>
      </trkpt>
      <trkpt lat="47.2948" lon="-1.70761">
        <ele>65.5</ele>
        <time>2013-03-02T09:53:43Z</time>
      </trkpt>
      <trkpt lat="47.29479" lon="-1.70758">
        <ele>65.7</ele>
        <time>2013-03-02T09:53:44Z</time>
      </trkpt>
      <trkpt lat="47.29479" lon="-1.70753">
        <ele>65.7</ele>
        <time>2013-03-02T09:53:46Z</time>
      </trkpt>
      <trkpt lat="47.29478" lon="-1.7075">
        <ele>65.5</ele>
        <time>2013-03-02T09:53:47Z</time>
      </trkpt>
      <trkpt lat="47.29476" lon="-1.70748">
        <ele>65.7</ele>
        <time>2013-03-02T09:53:48Z</time>
      </trkpt>
      <trkpt lat="47.29473" lon="-1.7074">
        <ele>66</ele>
        <time>2013-03-02T09:53:51Z</time>
      </trkpt>
      <trkpt lat="47.29467" lon="-1.70729">
        <ele>66.7</ele>
        <time>2013-03-02T09:53:55Z</time>
      </trkpt>
      <trkpt lat="47.29465" lon="-1.70726">
        <ele>66.5</ele>
        <time>2013-03-02T09:53:56Z</time>
      </trkpt>
      <trkpt lat="47.29464" lon="-1.70724">
        <ele>66.4</ele>
        <time>2013-03-02T09:53:57Z</time>
      </trkpt>
      <trkpt lat="47.29461" lon="-1.70723">
        <ele>66.1</ele>
        <time>2013-03-02T09:53:58Z</time>
      </trkpt>
      <trkpt lat="47.29459" lon="-1.70721">
        <ele>65.8</ele>
        <time>2013-03-02T09:53:59Z</time>
      </trkpt>
      <trkpt lat="47.29457" lon="-1.70721">
        <ele>65.9</ele>
        <time>2013-03-02T09:54:00Z</time>
      </trkpt>
      <trkpt lat="47.29455" lon="-1.70722">
        <ele>65.9</ele>
        <time>2013-03-02T09:54:01Z</time>
      </trkpt>
      <trkpt lat="47.29454" lon="-1.70723">
        <ele>65.9</ele>
        <time>2013-03-02T09:54:02Z</time>
      </trkpt>
      <trkpt lat="47.29452" lon="-1.70725">
        <ele>66.2</ele>
        <time>2013-03-02T09:54:03Z</time>
      </trkpt>
      <trkpt lat="47.2945" lon="-1.70726">
        <ele>66.4</ele>
        <time>2013-03-02T09:54:04Z</time>
      </trkpt>
      <trkpt lat="47.29448" lon="-1.70726">
        <ele>66.6</ele>
        <time>2013-03-02T09:54:05Z</time>
      </trkpt>
      <trkpt lat="47.29446" lon="-1.70724">
        <ele>66.8</ele>
        <time>2013-03-02T09:54:06Z</time>
      </trkpt>
      <trkpt lat="47.29444" lon="-1.70723">
        <ele>66.7</ele>
        <time>2013-03-02T09:54:07Z</time>
      </trkpt>
      <trkpt lat="47.29442" lon="-1.70723">
        <ele>66.6</ele>
        <time>2013-03-02T09:54:08Z</time>
      </trkpt>
      <trkpt lat="47.29437" lon="-1.70724">
        <ele>66.6</ele>
        <time>2013-03-02T09:54:10Z</time>
      </trkpt>
      <trkpt lat="47.29435" lon="-1.70724">
        <ele>66.6</ele>
        <time>2013-03-02T09:54:11Z</time>
      </trkpt>
      <trkpt lat="47.29433" lon="-1.70722">
        <ele>67.2</ele>
        <time>2013-03-02T09:54:12Z</time>
      </trkpt>
      <trkpt lat="47.29431" lon="-1.7072">
        <ele>67.6</ele>
        <time>2013-03-02T09:54:13Z</time>
      </trkpt>
      <trkpt lat="47.29429" lon="-1.7072">
        <ele>67.7</ele>
        <time>2013-03-02T09:54:14Z</time>
      </trkpt>
      <trkpt lat="47.29426" lon="-1.7072">
        <ele>67.8</ele>
        <time>2013-03-02T09:54:15Z</time>
      </trkpt>
      <trkpt lat="47.29424" lon="-1.70722">
        <ele>67.9</ele>
        <time>2013-03-02T09:54:16Z</time>
      </trkpt>
      <trkpt lat="47.29423" lon="-1.70722">
        <ele>68.3</ele>
        <time>2013-03-02T09:54:17Z</time>
      </trkpt>
      <trkpt lat="47.29421" lon="-1.70723">
        <ele>68.6</ele>
        <time>2013-03-02T09:54:18Z</time>
      </trkpt>
      <trkpt lat="47.2942" lon="-1.70723">
        <ele>68.5</ele>
        <time>2013-03-02T09:54:19Z</time>
      </trkpt>
      <trkpt lat="47.29418" lon="-1.70722">
        <ele>68.4</ele>
        <time>2013-03-02T09:54:20Z</time>
      </trkpt>
      <trkpt lat="47.29417" lon="-1.70722">
        <ele>68.4</ele>
        <time>2013-03-02T09:54:21Z</time>
      </trkpt>
      <trkpt lat="47.29416" lon="-1.70721">
        <ele>68.7</ele>
        <time>2013-03-02T09:54:22Z</time>
      </trkpt>
      <trkpt lat="47.29416" lon="-1.7072">
        <ele>68.9</ele>
        <time>2013-03-02T09:54:23Z</time>
      </trkpt>
      <trkpt lat="47.29415" lon="-1.70718">
        <ele>68.9</ele>
        <time>2013-03-02T09:54:24Z</time>
      </trkpt>
      <trkpt lat="47.29414" lon="-1.70717">
        <ele>68.9</ele>
        <time>2013-03-02T09:54:25Z</time>
      </trkpt>
      <trkpt lat="47.29413" lon="-1.70716">
        <ele>68.8</ele>
        <time>2013-03-02T09:54:26Z</time>
      </trkpt>
      <trkpt lat="47.29411" lon="-1.70713">
        <ele>68.6</ele>
        <time>2013-03-02T09:54:28Z</time>
      </trkpt>
      <trkpt lat="47.29407" lon="-1.70711">
        <ele>69.5</ele>
        <time>2013-03-02T09:54:30Z</time>
      </trkpt>
      <trkpt lat="47.29406" lon="-1.7071">
        <ele>69.4</ele>
        <time>2013-03-02T09:54:31Z</time>
      </trkpt>
      <trkpt lat="47.29406" lon="-1.70707">
        <ele>69.4</ele>
        <time>2013-03-02T09:54:32Z</time>
      </trkpt>
      <trkpt lat="47.29405" lon="-1.70704">
        <ele>69.8</ele>
        <time>2013-03-02T09:54:33Z</time>
      </trkpt>
      <trkpt lat="47.29404" lon="-1.70702">
        <ele>70</ele>
        <time>2013-03-02T09:54:34Z</time>
      </trkpt>
      <trkpt lat="47.29402" lon="-1.707">
        <ele>70.3</ele>
        <time>2013-03-02T09:54:35Z</time>
      </trkpt>
      <trkpt lat="47.29401" lon="-1.70698">
        <ele>70.3</ele>
        <time>2013-03-02T09:54:36Z</time>
      </trkpt>
      <trkpt lat="47.29396" lon="-1.70693">
        <ele>70.1</ele>
        <time>2013-03-02T09:54:39Z</time>
      </trkpt>
      <trkpt lat="47.29391" lon="-1.70688">
        <ele>69.5</ele>
        <time>2013-03-02T09:54:42Z</time>
      </trkpt>
      <trkpt lat="47.29389" lon="-1.70687">
        <ele>69.5</ele>
        <time>2013-03-02T09:54:43Z</time>
      </trkpt>
      <trkpt lat="47.29388" lon="-1.70686">
        <ele>69.4</ele>
        <time>2013-03-02T09:54:44Z</time>
      </trkpt>
      <trkpt lat="47.29387" lon="-1.70685">
        <ele>69.6</ele>
        <time>2013-03-02T09:54:45Z</time>
      </trkpt>
      <trkpt lat="47.29382" lon="-1.7068">
        <ele>69.8</ele>
        <time>2013-03-02T09:54:49Z</time>
      </trkpt>
      <trkpt lat="47.2938" lon="-1.70679">
        <ele>69.7</ele>
        <time>2013-03-02T09:54:50Z</time>
      </trkpt>
      <trkpt lat="47.29375" lon="-1.70677">
        <ele>69.4</ele>
        <time>2013-03-02T09:54:53Z</time>
      </trkpt>
      <trkpt lat="47.29374" lon="-1.70675">
        <ele>69.3</ele>
        <time>2013-03-02T09:54:54Z</time>
      </trkpt>
      <trkpt lat="47.29372" lon="-1.70672">
        <ele>69.1</ele>
        <time>2013-03-02T09:54:55Z</time>
      </trkpt>
      <trkpt lat="47.29363" lon="-1.70656">
        <ele>69.3</ele>
        <time>2013-03-02T09:55:02Z</time>
      </trkpt>
      <trkpt lat="47.29355" lon="-1.70645">
        <ele>68.6</ele>
        <time>2013-03-02T09:55:06Z</time>
      </trkpt>
      <trkpt lat="47.29353" lon="-1.70642">
        <ele>68.3</ele>
        <time>2013-03-02T09:55:07Z</time>
      </trkpt>
      <trkpt lat="47.29349" lon="-1.70638">
        <ele>67.6</ele>
        <time>2013-03-02T09:55:09Z</time>
      </trkpt>
      <trkpt lat="47.29345" lon="-1.70635">
        <ele>67.1</ele>
        <time>2013-03-02T09:55:11Z</time>
      </trkpt>
      <trkpt lat="47.29344" lon="-1.70633">
        <ele>67.1</ele>
        <time>2013-03-02T09:55:12Z</time>
      </trkpt>
      <trkpt lat="47.29342" lon="-1.70631">
        <ele>67.1</ele>
        <time>2013-03-02T09:55:13Z</time>
      </trkpt>
      <trkpt lat="47.29341" lon="-1.7063">
        <ele>67.3</ele>
        <time>2013-03-02T09:55:14Z</time>
      </trkpt>
      <trkpt lat="47.29339" lon="-1.70629">
        <ele>67.5</ele>
        <time>2013-03-02T09:55:15Z</time>
      </trkpt>
      <trkpt lat="47.29337" lon="-1.70629">
        <ele>67.6</ele>
        <time>2013-03-02T09:55:16Z</time>
      </trkpt>
      <trkpt lat="47.29334" lon="-1.70628">
        <ele>67.7</ele>
        <time>2013-03-02T09:55:17Z</time>
      </trkpt>
      <trkpt lat="47.29332" lon="-1.70626">
        <ele>67.8</ele>
        <time>2013-03-02T09:55:18Z</time>
      </trkpt>
      <trkpt lat="47.2933" lon="-1.70624">
        <ele>67.7</ele>
        <time>2013-03-02T09:55:19Z</time>
      </trkpt>
      <trkpt lat="47.29329" lon="-1.70621">
        <ele>67.6</ele>
        <time>2013-03-02T09:55:20Z</time>
      </trkpt>
      <trkpt lat="47.29327" lon="-1.70617">
        <ele>67.3</ele>
        <time>2013-03-02T09:55:21Z</time>
      </trkpt>
      <trkpt lat="47.29325" lon="-1.70614">
        <ele>67.1</ele>
        <time>2013-03-02T09:55:22Z</time>
      </trkpt>
      <trkpt lat="47.29324" lon="-1.70609">
        <ele>67.2</ele>
        <time>2013-03-02T09:55:23Z</time>
      </trkpt>
      <trkpt lat="47.29321" lon="-1.70601">
        <ele>67.3</ele>
        <time>2013-03-02T09:55:25Z</time>
      </trkpt>
      <trkpt lat="47.29319" lon="-1.70597">
        <ele>66.7</ele>
        <time>2013-03-02T09:55:26Z</time>
      </trkpt>
      <trkpt lat="47.29316" lon="-1.70594">
        <ele>66.4</ele>
        <time>2013-03-02T09:55:27Z</time>
      </trkpt>
      <trkpt lat="47.29314" lon="-1.7059">
        <ele>66.1</ele>
        <time>2013-03-02T09:55:28Z</time>
      </trkpt>
      <trkpt lat="47.2931" lon="-1.70578">
        <ele>65.8</ele>
        <time>2013-03-02T09:55:31Z</time>
      </trkpt>
      <trkpt lat="47.29308" lon="-1.70576">
        <ele>65.7</ele>
        <time>2013-03-02T09:55:32Z</time>
      </trkpt>
      <trkpt lat="47.29306" lon="-1.70575">
        <ele>65.7</ele>
        <time>2013-03-02T09:55:33Z</time>
      </trkpt>
      <trkpt lat="47.29304" lon="-1.70575">
        <ele>65.7</ele>
        <time>2013-03-02T09:55:34Z</time>
      </trkpt>
      <trkpt lat="47.29301" lon="-1.70576">
        <ele>65.7</ele>
        <time>2013-03-02T09:55:35Z</time>
      </trkpt>
      <trkpt lat="47.29299" lon="-1.70578">
        <ele>65.6</ele>
        <time>2013-03-02T09:55:36Z</time>
      </trkpt>
      <trkpt lat="47.29294" lon="-1.70581">
        <ele>65.5</ele>
        <time>2013-03-02T09:55:38Z</time>
      </trkpt>
      <trkpt lat="47.29292" lon="-1.70581">
        <ele>65.5</ele>
        <time>2013-03-02T09:55:39Z</time>
      </trkpt>
      <trkpt lat="47.2929" lon="-1.70582">
        <ele>64.5</ele>
        <time>2013-03-02T09:55:40Z</time>
      </trkpt>
      <trkpt lat="47.29288" lon="-1.70585">
        <ele>63.8</ele>
        <time>2013-03-02T09:55:41Z</time>
      </trkpt>
      <trkpt lat="47.29285" lon="-1.70587">
        <ele>64.1</ele>
        <time>2013-03-02T09:55:42Z</time>
      </trkpt>
      <trkpt lat="47.29274" lon="-1.70596">
        <ele>64.4</ele>
        <time>2013-03-02T09:55:47Z</time>
      </trkpt>
      <trkpt lat="47.29272" lon="-1.70598">
        <ele>64</ele>
        <time>2013-03-02T09:55:48Z</time>
      </trkpt>
      <trkpt lat="47.2927" lon="-1.70601">
        <ele>63.7</ele>
        <time>2013-03-02T09:55:49Z</time>
      </trkpt>
      <trkpt lat="47.2924" lon="-1.70652">
        <ele>65.1</ele>
        <time>2013-03-02T09:56:06Z</time>
      </trkpt>
      <trkpt lat="47.29233" lon="-1.70665">
        <ele>66.5</ele>
        <time>2013-03-02T09:56:10Z</time>
      </trkpt>
      <trkpt lat="47.29232" lon="-1.70667">
        <ele>66.5</ele>
        <time>2013-03-02T09:56:11Z</time>
      </trkpt>
      <trkpt lat="47.29223" lon="-1.70681">
        <ele>67.4</ele>
        <time>2013-03-02T09:56:17Z</time>
      </trkpt>
      <trkpt lat="47.2922" lon="-1.70683">
        <ele>66.9</ele>
        <time>2013-03-02T09:56:18Z</time>
      </trkpt>
      <trkpt lat="47.29213" lon="-1.70689">
        <ele>66.7</ele>
        <time>2013-03-02T09:56:21Z</time>
      </trkpt>
      <trkpt lat="47.29211" lon="-1.7069">
        <ele>66.8</ele>
        <time>2013-03-02T09:56:22Z</time>
      </trkpt>
      <trkpt lat="47.29208" lon="-1.70691">
        <ele>67.2</ele>
        <time>2013-03-02T09:56:23Z</time>
      </trkpt>
      <trkpt lat="47.29206" lon="-1.70691">
        <ele>67.5</ele>
        <time>2013-03-02T09:56:24Z</time>
      </trkpt>
      <trkpt lat="47.29204" lon="-1.70693">
        <ele>67.6</ele>
        <time>2013-03-02T09:56:25Z</time>
      </trkpt>
      <trkpt lat="47.292" lon="-1.70696">
        <ele>67.6</ele>
        <time>2013-03-02T09:56:27Z</time>
      </trkpt>
      <trkpt lat="47.29197" lon="-1.70698">
        <ele>67.5</ele>
        <time>2013-03-02T09:56:28Z</time>
      </trkpt>
      <trkpt lat="47.2919" lon="-1.70701">
        <ele>68.2</ele>
        <time>2013-03-02T09:56:31Z</time>
      </trkpt>
      <trkpt lat="47.29177" lon="-1.70706">
        <ele>69</ele>
        <time>2013-03-02T09:56:37Z</time>
      </trkpt>
      <trkpt lat="47.29143" lon="-1.70722">
        <ele>72</ele>
        <time>2013-03-02T09:56:54Z</time>
      </trkpt>
      <trkpt lat="47.29135" lon="-1.70727">
        <ele>72.8</ele>
        <time>2013-03-02T09:56:58Z</time>
      </trkpt>
      <trkpt lat="47.29134" lon="-1.70729">
        <ele>72.9</ele>
        <time>2013-03-02T09:56:59Z</time>
      </trkpt>
      <trkpt lat="47.29132" lon="-1.7073">
        <ele>73</ele>
        <time>2013-03-02T09:57:00Z</time>
      </trkpt>
      <trkpt lat="47.2913" lon="-1.70731">
        <ele>73.2</ele>
        <time>2013-03-02T09:57:01Z</time>
      </trkpt>
      <trkpt lat="47.29128" lon="-1.70732">
        <ele>73.3</ele>
        <time>2013-03-02T09:57:02Z</time>
      </trkpt>
      <trkpt lat="47.29102" lon="-1.70747">
        <ele>75.4</ele>
        <time>2013-03-02T09:57:17Z</time>
      </trkpt>
      <trkpt lat="47.291" lon="-1.70749">
        <ele>75.5</ele>
        <time>2013-03-02T09:57:18Z</time>
      </trkpt>
      <trkpt lat="47.29096" lon="-1.70753">
        <ele>76</ele>
        <time>2013-03-02T09:57:20Z</time>
      </trkpt>
      <trkpt lat="47.29083" lon="-1.70767">
        <ele>77.1</ele>
        <time>2013-03-02T09:57:27Z</time>
      </trkpt>
      <trkpt lat="47.29082" lon="-1.7077">
        <ele>77</ele>
        <time>2013-03-02T09:57:28Z</time>
      </trkpt>
      <trkpt lat="47.29072" lon="-1.70786">
        <ele>77.1</ele>
        <time>2013-03-02T09:57:34Z</time>
      </trkpt>
      <trkpt lat="47.29065" lon="-1.70797">
        <ele>77.2</ele>
        <time>2013-03-02T09:57:38Z</time>
      </trkpt>
      <trkpt lat="47.29053" lon="-1.70814">
        <ele>76.4</ele>
        <time>2013-03-02T09:57:44Z</time>
      </trkpt>
      <trkpt lat="47.29051" lon="-1.70817">
        <ele>76.3</ele>
        <time>2013-03-02T09:57:45Z</time>
      </trkpt>
      <trkpt lat="47.29049" lon="-1.70819">
        <ele>76.6</ele>
        <time>2013-03-02T09:57:46Z</time>
      </trkpt>
      <trkpt lat="47.29037" lon="-1.70827">
        <ele>77.4</ele>
        <time>2013-03-02T09:57:51Z</time>
      </trkpt>
      <trkpt lat="47.29032" lon="-1.7083">
        <ele>77.6</ele>
        <time>2013-03-02T09:57:53Z</time>
      </trkpt>
      <trkpt lat="47.29012" lon="-1.70838">
        <ele>77.5</ele>
        <time>2013-03-02T09:58:00Z</time>
      </trkpt>
      <trkpt lat="47.29009" lon="-1.70838">
        <ele>77.7</ele>
        <time>2013-03-02T09:58:01Z</time>
      </trkpt>
      <trkpt lat="47.29004" lon="-1.70839">
        <ele>77.6</ele>
        <time>2013-03-02T09:58:03Z</time>
      </trkpt>
      <trkpt lat="47.29002" lon="-1.70839">
        <ele>77.5</ele>
        <time>2013-03-02T09:58:04Z</time>
      </trkpt>
      <trkpt lat="47.28997" lon="-1.70838">
        <ele>77.7</ele>
        <time>2013-03-02T09:58:07Z</time>
      </trkpt>
      <trkpt lat="47.28994" lon="-1.70839">
        <ele>77.5</ele>
        <time>2013-03-02T09:58:09Z</time>
      </trkpt>
      <trkpt lat="47.28994" lon="-1.70839">
        <ele>77.3</ele>
        <time>2013-03-02T09:58:10Z</time>
      </trkpt>
      <trkpt lat="47.28994" lon="-1.70839">
        <ele>77.1</ele>
        <time>2013-03-02T09:58:11Z</time>
      </trkpt>
      <trkpt lat="47.28993" lon="-1.7084">
        <ele>77.3</ele>
        <time>2013-03-02T09:58:12Z</time>
      </trkpt>
      <trkpt lat="47.28993" lon="-1.7084">
        <ele>77.4</ele>
        <time>2013-03-02T09:58:13Z</time>
      </trkpt>
      <trkpt lat="47.28993" lon="-1.7084">
        <ele>77.4</ele>
        <time>2013-03-02T09:58:14Z</time>
      </trkpt>
      <trkpt lat="47.28993" lon="-1.7084">
        <ele>77.4</ele>
        <time>2013-03-02T09:58:16Z</time>
      </trkpt>
      <trkpt lat="47.28992" lon="-1.7084">
        <ele>77.8</ele>
        <time>2013-03-02T09:58:17Z</time>
      </trkpt>
      <trkpt lat="47.28992" lon="-1.70841">
        <ele>78.1</ele>
        <time>2013-03-02T09:58:18Z</time>
      </trkpt>
      <trkpt lat="47.28992" lon="-1.70841">
        <ele>78.1</ele>
        <time>2013-03-02T09:58:19Z</time>
      </trkpt>
      <trkpt lat="47.28991" lon="-1.70841">
        <ele>78</ele>
        <time>2013-03-02T09:58:22Z</time>
      </trkpt>
      <trkpt lat="47.28991" lon="-1.70841">
        <ele>77.9</ele>
        <time>2013-03-02T09:58:23Z</time>
      </trkpt>
      <trkpt lat="47.2899" lon="-1.70841">
        <ele>77.8</ele>
        <time>2013-03-02T09:58:24Z</time>
      </trkpt>
      <trkpt lat="47.2899" lon="-1.70841">
        <ele>77.7</ele>
        <time>2013-03-02T09:58:25Z</time>
      </trkpt>
      <trkpt lat="47.28989" lon="-1.70841">
        <ele>77.5</ele>
        <time>2013-03-02T09:58:26Z</time>
      </trkpt>
      <trkpt lat="47.28988" lon="-1.70841">
        <ele>77.3</ele>
        <time>2013-03-02T09:58:27Z</time>
      </trkpt>
      <trkpt lat="47.28987" lon="-1.7084">
        <ele>77.4</ele>
        <time>2013-03-02T09:58:28Z</time>
      </trkpt>
      <trkpt lat="47.28977" lon="-1.70837">
        <ele>78.3</ele>
        <time>2013-03-02T09:58:35Z</time>
      </trkpt>
      <trkpt lat="47.28975" lon="-1.70837">
        <ele>78.3</ele>
        <time>2013-03-02T09:58:36Z</time>
      </trkpt>
      <trkpt lat="47.28973" lon="-1.70837">
        <ele>78.4</ele>
        <time>2013-03-02T09:58:37Z</time>
      </trkpt>
      <trkpt lat="47.28971" lon="-1.70837">
        <ele>78.4</ele>
        <time>2013-03-02T09:58:38Z</time>
      </trkpt>
      <trkpt lat="47.28969" lon="-1.70836">
        <ele>78.5</ele>
        <time>2013-03-02T09:58:39Z</time>
      </trkpt>
      <trkpt lat="47.28961" lon="-1.70834">
        <ele>79.3</ele>
        <time>2013-03-02T09:58:43Z</time>
      </trkpt>
      <trkpt lat="47.28948" lon="-1.70829">
        <ele>80.5</ele>
        <time>2013-03-02T09:58:49Z</time>
      </trkpt>
      <trkpt lat="47.28945" lon="-1.70828">
        <ele>80.6</ele>
        <time>2013-03-02T09:58:50Z</time>
      </trkpt>
      <trkpt lat="47.28943" lon="-1.70826">
        <ele>80.6</ele>
        <time>2013-03-02T09:58:51Z</time>
      </trkpt>
      <trkpt lat="47.28935" lon="-1.7082">
        <ele>81.3</ele>
        <time>2013-03-02T09:58:54Z</time>
      </trkpt>
      <trkpt lat="47.28933" lon="-1.70817">
        <ele>81</ele>
        <time>2013-03-02T09:58:55Z</time>
      </trkpt>
      <trkpt lat="47.28929" lon="-1.70811">
        <ele>80.9</ele>
        <time>2013-03-02T09:58:57Z</time>
      </trkpt>
      <trkpt lat="47.28921" lon="-1.70799">
        <ele>80.5</ele>
        <time>2013-03-02T09:59:01Z</time>
      </trkpt>
      <trkpt lat="47.28914" lon="-1.70786">
        <ele>80.2</ele>
        <time>2013-03-02T09:59:05Z</time>
      </trkpt>
      <trkpt lat="47.28909" lon="-1.70776">
        <ele>80.3</ele>
        <time>2013-03-02T09:59:08Z</time>
      </trkpt>
      <trkpt lat="47.28907" lon="-1.70769">
        <ele>79.5</ele>
        <time>2013-03-02T09:59:10Z</time>
      </trkpt>
      <trkpt lat="47.28901" lon="-1.70749">
        <ele>78.9</ele>
        <time>2013-03-02T09:59:15Z</time>
      </trkpt>
      <trkpt lat="47.28886" lon="-1.707">
        <ele>78</ele>
        <time>2013-03-02T09:59:26Z</time>
      </trkpt>
      <trkpt lat="47.28883" lon="-1.70696">
        <ele>77.9</ele>
        <time>2013-03-02T09:59:27Z</time>
      </trkpt>
      <trkpt lat="47.28879" lon="-1.70687">
        <ele>77.5</ele>
        <time>2013-03-02T09:59:29Z</time>
      </trkpt>
      <trkpt lat="47.28873" lon="-1.70679">
        <ele>77</ele>
        <time>2013-03-02T09:59:31Z</time>
      </trkpt>
      <trkpt lat="47.28859" lon="-1.70661">
        <ele>77.4</ele>
        <time>2013-03-02T09:59:36Z</time>
      </trkpt>
      <trkpt lat="47.2882" lon="-1.70616">
        <ele>74.9</ele>
        <time>2013-03-02T09:59:49Z</time>
      </trkpt>
      <trkpt lat="47.28817" lon="-1.70613">
        <ele>74.9</ele>
        <time>2013-03-02T09:59:50Z</time>
      </trkpt>
      <trkpt lat="47.28814" lon="-1.70611">
        <ele>74.9</ele>
        <time>2013-03-02T09:59:51Z</time>
      </trkpt>
      <trkpt lat="47.28801" lon="-1.70603">
        <ele>74.7</ele>
        <time>2013-03-02T09:59:54Z</time>
      </trkpt>
      <trkpt lat="47.28772" lon="-1.70584">
        <ele>73.4</ele>
        <time>2013-03-02T10:00:00Z</time>
      </trkpt>
      <trkpt lat="47.28766" lon="-1.70581">
        <ele>72.9</ele>
        <time>2013-03-02T10:00:01Z</time>
      </trkpt>
      <trkpt lat="47.28745" lon="-1.70573">
        <ele>72.2</ele>
        <time>2013-03-02T10:00:05Z</time>
      </trkpt>
      <trkpt lat="47.28696" lon="-1.70557">
        <ele>71.8</ele>
        <time>2013-03-02T10:00:17Z</time>
      </trkpt>
      <trkpt lat="47.28692" lon="-1.70556">
        <ele>71.7</ele>
        <time>2013-03-02T10:00:18Z</time>
      </trkpt>
      <trkpt lat="47.28688" lon="-1.70556">
        <ele>71.6</ele>
        <time>2013-03-02T10:00:19Z</time>
      </trkpt>
      <trkpt lat="47.28623" lon="-1.70552">
        <ele>73.6</ele>
        <time>2013-03-02T10:00:35Z</time>
      </trkpt>
      <trkpt lat="47.28619" lon="-1.70551">
        <ele>73.6</ele>
        <time>2013-03-02T10:00:36Z</time>
      </trkpt>
      <trkpt lat="47.28382" lon="-1.70531">
        <ele>74.7</ele>
        <time>2013-03-02T10:01:27Z</time>
      </trkpt>
      <trkpt lat="47.28347" lon="-1.7054">
        <ele>74.5</ele>
        <time>2013-03-02T10:01:33Z</time>
      </trkpt>
      <trkpt lat="47.2833" lon="-1.70547">
        <ele>74</ele>
        <time>2013-03-02T10:01:36Z</time>
      </trkpt>
      <trkpt lat="47.28324" lon="-1.7055">
        <ele>74.2</ele>
        <time>2013-03-02T10:01:37Z</time>
      </trkpt>
      <trkpt lat="47.28288" lon="-1.70573">
        <ele>73.9</ele>
        <time>2013-03-02T10:01:44Z</time>
      </trkpt>
      <trkpt lat="47.28252" lon="-1.70604">
        <ele>75.2</ele>
        <time>2013-03-02T10:01:52Z</time>
      </trkpt>
      <trkpt lat="47.27543" lon="-1.71237">
        <ele>73.8</ele>
        <time>2013-03-02T10:04:30Z</time>
      </trkpt>
      <trkpt lat="47.27541" lon="-1.7124">
        <ele>73.9</ele>
        <time>2013-03-02T10:04:31Z</time>
      </trkpt>
      <trkpt lat="47.27535" lon="-1.71247">
        <ele>74.1</ele>
        <time>2013-03-02T10:04:34Z</time>
      </trkpt>
      <trkpt lat="47.27534" lon="-1.71249">
        <ele>74.2</ele>
        <time>2013-03-02T10:04:35Z</time>
      </trkpt>
      <trkpt lat="47.27533" lon="-1.71252">
        <ele>74.5</ele>
        <time>2013-03-02T10:04:36Z</time>
      </trkpt>
      <trkpt lat="47.27533" lon="-1.71253">
        <ele>74.7</ele>
        <time>2013-03-02T10:04:37Z</time>
      </trkpt>
      <trkpt lat="47.27532" lon="-1.71256">
        <ele>74.6</ele>
        <time>2013-03-02T10:04:39Z</time>
      </trkpt>
      <trkpt lat="47.27532" lon="-1.71259">
        <ele>74.4</ele>
        <time>2013-03-02T10:04:40Z</time>
      </trkpt>
      <trkpt lat="47.2753" lon="-1.7126">
        <ele>75.2</ele>
        <time>2013-03-02T10:04:41Z</time>
      </trkpt>
      <trkpt lat="47.27528" lon="-1.7126">
        <ele>75.9</ele>
        <time>2013-03-02T10:04:42Z</time>
      </trkpt>
      <trkpt lat="47.27526" lon="-1.71259">
        <ele>76.1</ele>
        <time>2013-03-02T10:04:43Z</time>
      </trkpt>
      <trkpt lat="47.27524" lon="-1.71257">
        <ele>76.3</ele>
        <time>2013-03-02T10:04:44Z</time>
      </trkpt>
      <trkpt lat="47.27523" lon="-1.71254">
        <ele>76.5</ele>
        <time>2013-03-02T10:04:45Z</time>
      </trkpt>
      <trkpt lat="47.27514" lon="-1.71237">
        <ele>74.7</ele>
        <time>2013-03-02T10:04:49Z</time>
      </trkpt>
      <trkpt lat="47.27457" lon="-1.71109">
        <ele>73.5</ele>
        <time>2013-03-02T10:05:10Z</time>
      </trkpt>
      <trkpt lat="47.27453" lon="-1.71105">
        <ele>73.5</ele>
        <time>2013-03-02T10:05:11Z</time>
      </trkpt>
      <trkpt lat="47.27448" lon="-1.71104">
        <ele>73</ele>
        <time>2013-03-02T10:05:12Z</time>
      </trkpt>
      <trkpt lat="47.27443" lon="-1.71104">
        <ele>72.6</ele>
        <time>2013-03-02T10:05:13Z</time>
      </trkpt>
      <trkpt lat="47.27439" lon="-1.71106">
        <ele>72.8</ele>
        <time>2013-03-02T10:05:14Z</time>
      </trkpt>
      <trkpt lat="47.27318" lon="-1.71174">
        <ele>73</ele>
        <time>2013-03-02T10:05:43Z</time>
      </trkpt>
      <trkpt lat="47.27313" lon="-1.71177">
        <ele>73.1</ele>
        <time>2013-03-02T10:05:44Z</time>
      </trkpt>
      <trkpt lat="47.27282" lon="-1.71197">
        <ele>73.6</ele>
        <time>2013-03-02T10:05:53Z</time>
      </trkpt>
      <trkpt lat="47.27263" lon="-1.71214">
        <ele>74</ele>
        <time>2013-03-02T10:05:59Z</time>
      </trkpt>
      <trkpt lat="47.27259" lon="-1.71217">
        <ele>73.7</ele>
        <time>2013-03-02T10:06:00Z</time>
      </trkpt>
      <trkpt lat="47.26691" lon="-1.71589">
        <ele>69.3</ele>
        <time>2013-03-02T10:07:50Z</time>
      </trkpt>
      <trkpt lat="47.26686" lon="-1.71591">
        <ele>68.8</ele>
        <time>2013-03-02T10:07:51Z</time>
      </trkpt>
      <trkpt lat="47.26682" lon="-1.7159">
        <ele>68.4</ele>
        <time>2013-03-02T10:07:52Z</time>
      </trkpt>
      <trkpt lat="47.26678" lon="-1.71586">
        <ele>68.3</ele>
        <time>2013-03-02T10:07:53Z</time>
      </trkpt>
      <trkpt lat="47.26676" lon="-1.71581">
        <ele>68.2</ele>
        <time>2013-03-02T10:07:54Z</time>
      </trkpt>
      <trkpt lat="47.26675" lon="-1.71576">
        <ele>68.1</ele>
        <time>2013-03-02T10:07:55Z</time>
      </trkpt>
      <trkpt lat="47.26676" lon="-1.71571">
        <ele>68.1</ele>
        <time>2013-03-02T10:07:56Z</time>
      </trkpt>
      <trkpt lat="47.26676" lon="-1.71565">
        <ele>68.2</ele>
        <time>2013-03-02T10:07:57Z</time>
      </trkpt>
      <trkpt lat="47.26683" lon="-1.71528">
        <ele>68.5</ele>
        <time>2013-03-02T10:08:04Z</time>
      </trkpt>
      <trkpt lat="47.26716" lon="-1.71369">
        <ele>68.4</ele>
        <time>2013-03-02T10:08:34Z</time>
      </trkpt>
      <trkpt lat="47.26727" lon="-1.71331">
        <ele>68.2</ele>
        <time>2013-03-02T10:08:43Z</time>
      </trkpt>
      <trkpt lat="47.26729" lon="-1.71323">
        <ele>68.1</ele>
        <time>2013-03-02T10:08:45Z</time>
      </trkpt>
      <trkpt lat="47.2675" lon="-1.71255">
        <ele>67.6</ele>
        <time>2013-03-02T10:09:00Z</time>
      </trkpt>
      <trkpt lat="47.26751" lon="-1.71251">
        <ele>67.6</ele>
        <time>2013-03-02T10:09:01Z</time>
      </trkpt>
      <trkpt lat="47.26752" lon="-1.71242">
        <ele>67.8</ele>
        <time>2013-03-02T10:09:03Z</time>
      </trkpt>
      <trkpt lat="47.26753" lon="-1.71237">
        <ele>67.6</ele>
        <time>2013-03-02T10:09:04Z</time>
      </trkpt>
      <trkpt lat="47.26757" lon="-1.71223">
        <ele>67.1</ele>
        <time>2013-03-02T10:09:07Z</time>
      </trkpt>
      <trkpt lat="47.26757" lon="-1.71218">
        <ele>66.9</ele>
        <time>2013-03-02T10:09:08Z</time>
      </trkpt>
      <trkpt lat="47.26756" lon="-1.71215">
        <ele>66.5</ele>
        <time>2013-03-02T10:09:09Z</time>
      </trkpt>
      <trkpt lat="47.26755" lon="-1.71212">
        <ele>66.3</ele>
        <time>2013-03-02T10:09:10Z</time>
      </trkpt>
      <trkpt lat="47.26755" lon="-1.71212">
        <ele>66.6</ele>
        <time>2013-03-02T10:09:11Z</time>
      </trkpt>
      <trkpt lat="47.26755" lon="-1.71212">
        <ele>66.8</ele>
        <time>2013-03-02T10:09:12Z</time>
      </trkpt>
      <trkpt lat="47.26755" lon="-1.71211">
        <ele>67</ele>
        <time>2013-03-02T10:09:13Z</time>
      </trkpt>
      <trkpt lat="47.26755" lon="-1.71211">
        <ele>65.8</ele>
        <time>2013-03-02T10:09:14Z</time>
      </trkpt>
      <trkpt lat="47.26755" lon="-1.71211">
        <ele>64.8</ele>
        <time>2013-03-02T10:09:15Z</time>
      </trkpt>
      <trkpt lat="47.26755" lon="-1.7121">
        <ele>66.3</ele>
        <time>2013-03-02T10:09:16Z</time>
      </trkpt>
      <trkpt lat="47.26755" lon="-1.7121">
        <ele>67.4</ele>
        <time>2013-03-02T10:09:17Z</time>
      </trkpt>
      <trkpt lat="47.26755" lon="-1.7121">
        <ele>68.3</ele>
        <time>2013-03-02T10:09:18Z</time>
      </trkpt>
      <trkpt lat="47.26756" lon="-1.7121">
        <ele>67.8</ele>
        <time>2013-03-02T10:09:19Z</time>
      </trkpt>
      <trkpt lat="47.26756" lon="-1.7121">
        <ele>67.5</ele>
        <time>2013-03-02T10:09:20Z</time>
      </trkpt>
      <trkpt lat="47.26756" lon="-1.7121">
        <ele>67.6</ele>
        <time>2013-03-02T10:09:21Z</time>
      </trkpt>
      <trkpt lat="47.26756" lon="-1.71209">
        <ele>67.7</ele>
        <time>2013-03-02T10:09:22Z</time>
      </trkpt>
      <trkpt lat="47.26757" lon="-1.71208">
        <ele>67.6</ele>
        <time>2013-03-02T10:09:24Z</time>
      </trkpt>
      <trkpt lat="47.26757" lon="-1.71208">
        <ele>67.5</ele>
        <time>2013-03-02T10:09:25Z</time>
      </trkpt>
      <trkpt lat="47.26757" lon="-1.71208">
        <ele>67.8</ele>
        <time>2013-03-02T10:09:26Z</time>
      </trkpt>
      <trkpt lat="47.26759" lon="-1.7121">
        <ele>68</ele>
        <time>2013-03-02T10:09:28Z</time>
      </trkpt>
      <trkpt lat="47.2676" lon="-1.71212">
        <ele>68.1</ele>
        <time>2013-03-02T10:09:29Z</time>
      </trkpt>
      <trkpt lat="47.2676" lon="-1.71216">
        <ele>67.6</ele>
        <time>2013-03-02T10:09:30Z</time>
      </trkpt>
      <trkpt lat="47.2676" lon="-1.71219">
        <ele>67.2</ele>
        <time>2013-03-02T10:09:31Z</time>
      </trkpt>
      <trkpt lat="47.2676" lon="-1.71222">
        <ele>66.9</ele>
        <time>2013-03-02T10:09:32Z</time>
      </trkpt>
      <trkpt lat="47.26759" lon="-1.71225">
        <ele>66.6</ele>
        <time>2013-03-02T10:09:33Z</time>
      </trkpt>
      <trkpt lat="47.26754" lon="-1.71251">
        <ele>66.8</ele>
        <time>2013-03-02T10:09:42Z</time>
      </trkpt>
      <trkpt lat="47.26751" lon="-1.71263">
        <ele>66.8</ele>
        <time>2013-03-02T10:09:46Z</time>
      </trkpt>
      <trkpt lat="47.26708" lon="-1.71429">
        <ele>68</ele>
        <time>2013-03-02T10:10:28Z</time>
      </trkpt>
      <trkpt lat="47.26708" lon="-1.71434">
        <ele>68</ele>
        <time>2013-03-02T10:10:29Z</time>
      </trkpt>
      <trkpt lat="47.26683" lon="-1.71556">
        <ele>68.7</ele>
        <time>2013-03-02T10:10:57Z</time>
      </trkpt>
      <trkpt lat="47.26675" lon="-1.71595">
        <ele>68.9</ele>
        <time>2013-03-02T10:11:07Z</time>
      </trkpt>
      <trkpt lat="47.26673" lon="-1.71598">
        <ele>68.5</ele>
        <time>2013-03-02T10:11:08Z</time>
      </trkpt>
      <trkpt lat="47.26671" lon="-1.71601">
        <ele>68.3</ele>
        <time>2013-03-02T10:11:09Z</time>
      </trkpt>
      <trkpt lat="47.26665" lon="-1.71608">
        <ele>68.9</ele>
        <time>2013-03-02T10:11:12Z</time>
      </trkpt>
      <trkpt lat="47.26661" lon="-1.71612">
        <ele>69.1</ele>
        <time>2013-03-02T10:11:14Z</time>
      </trkpt>
      <trkpt lat="47.26659" lon="-1.71613">
        <ele>69.3</ele>
        <time>2013-03-02T10:11:15Z</time>
      </trkpt>
      <trkpt lat="47.26656" lon="-1.71614">
        <ele>69.5</ele>
        <time>2013-03-02T10:11:16Z</time>
      </trkpt>
      <trkpt lat="47.26654" lon="-1.71615">
        <ele>69.5</ele>
        <time>2013-03-02T10:11:17Z</time>
      </trkpt>
      <trkpt lat="47.26598" lon="-1.71655">
        <ele>70</ele>
        <time>2013-03-02T10:11:35Z</time>
      </trkpt>
      <trkpt lat="47.26594" lon="-1.71657">
        <ele>69.9</ele>
        <time>2013-03-02T10:11:36Z</time>
      </trkpt>
      <trkpt lat="47.26523" lon="-1.71687">
        <ele>70</ele>
        <time>2013-03-02T10:11:52Z</time>
      </trkpt>
      <trkpt lat="47.26297" lon="-1.71766">
        <ele>72.1</ele>
        <time>2013-03-02T10:12:45Z</time>
      </trkpt>
      <trkpt lat="47.26294" lon="-1.71767">
        <ele>71.9</ele>
        <time>2013-03-02T10:12:46Z</time>
      </trkpt>
      <trkpt lat="47.26261" lon="-1.71772">
        <ele>75</ele>
        <time>2013-03-02T10:12:57Z</time>
      </trkpt>
      <trkpt lat="47.26194" lon="-1.71776">
        <ele>78</ele>
        <time>2013-03-02T10:13:18Z</time>
      </trkpt>
      <trkpt lat="47.26191" lon="-1.71776">
        <ele>78.4</ele>
        <time>2013-03-02T10:13:19Z</time>
      </trkpt>
      <trkpt lat="47.26189" lon="-1.71775">
        <ele>78.6</ele>
        <time>2013-03-02T10:13:20Z</time>
      </trkpt>
      <trkpt lat="47.26187" lon="-1.71774">
        <ele>77.6</ele>
        <time>2013-03-02T10:13:21Z</time>
      </trkpt>
      <trkpt lat="47.26185" lon="-1.71772">
        <ele>76.8</ele>
        <time>2013-03-02T10:13:22Z</time>
      </trkpt>
      <trkpt lat="47.26184" lon="-1.7177">
        <ele>76.9</ele>
        <time>2013-03-02T10:13:23Z</time>
      </trkpt>
      <trkpt lat="47.26183" lon="-1.71768">
        <ele>77</ele>
        <time>2013-03-02T10:13:24Z</time>
      </trkpt>
      <trkpt lat="47.26182" lon="-1.71766">
        <ele>76.8</ele>
        <time>2013-03-02T10:13:25Z</time>
      </trkpt>
      <trkpt lat="47.26181" lon="-1.71763">
        <ele>76.7</ele>
        <time>2013-03-02T10:13:26Z</time>
      </trkpt>
      <trkpt lat="47.2618" lon="-1.7176">
        <ele>76.9</ele>
        <time>2013-03-02T10:13:28Z</time>
      </trkpt>
      <trkpt lat="47.2618" lon="-1.7176">
        <ele>77.2</ele>
        <time>2013-03-02T10:13:29Z</time>
      </trkpt>
      <trkpt lat="47.2618" lon="-1.7176">
        <ele>77.1</ele>
        <time>2013-03-02T10:13:30Z</time>
      </trkpt>
      <trkpt lat="47.26179" lon="-1.7176">
        <ele>77</ele>
        <time>2013-03-02T10:13:31Z</time>
      </trkpt>
      <trkpt lat="47.26179" lon="-1.71759">
        <ele>76.9</ele>
        <time>2013-03-02T10:13:32Z</time>
      </trkpt>
      <trkpt lat="47.26179" lon="-1.71759">
        <ele>76.7</ele>
        <time>2013-03-02T10:13:33Z</time>
      </trkpt>
      <trkpt lat="47.26179" lon="-1.71759">
        <ele>76.6</ele>
        <time>2013-03-02T10:13:34Z</time>
      </trkpt>
      <trkpt lat="47.26179" lon="-1.71759">
        <ele>76.7</ele>
        <time>2013-03-02T10:13:35Z</time>
      </trkpt>
      <trkpt lat="47.26179" lon="-1.71759">
        <ele>76.8</ele>
        <time>2013-03-02T10:13:36Z</time>
      </trkpt>
      <trkpt lat="47.26179" lon="-1.71759">
        <ele>76.8</ele>
        <time>2013-03-02T10:13:37Z</time>
      </trkpt>
      <trkpt lat="47.26178" lon="-1.71759">
        <ele>76.7</ele>
        <time>2013-03-02T10:13:38Z</time>
      </trkpt>
      <trkpt lat="47.26178" lon="-1.71759">
        <ele>76.6</ele>
        <time>2013-03-02T10:13:39Z</time>
      </trkpt>
      <trkpt lat="47.26178" lon="-1.71759">
        <ele>77</ele>
        <time>2013-03-02T10:13:40Z</time>
      </trkpt>
      <trkpt lat="47.26178" lon="-1.71759">
        <ele>77.2</ele>
        <time>2013-03-02T10:13:41Z</time>
      </trkpt>
      <trkpt lat="47.26178" lon="-1.71759">
        <ele>77.4</ele>
        <time>2013-03-02T10:13:42Z</time>
      </trkpt>
      <trkpt lat="47.26178" lon="-1.71758">
        <ele>77.6</ele>
        <time>2013-03-02T10:13:43Z</time>
      </trkpt>
      <trkpt lat="47.26178" lon="-1.71756">
        <ele>77.6</ele>
        <time>2013-03-02T10:13:44Z</time>
      </trkpt>
      <trkpt lat="47.26177" lon="-1.71755">
        <ele>77.7</ele>
        <time>2013-03-02T10:13:46Z</time>
      </trkpt>
      <trkpt lat="47.26177" lon="-1.71755">
        <ele>77.4</ele>
        <time>2013-03-02T10:13:47Z</time>
      </trkpt>
      <trkpt lat="47.26177" lon="-1.71754">
        <ele>77.2</ele>
        <time>2013-03-02T10:13:48Z</time>
      </trkpt>
      <trkpt lat="47.26177" lon="-1.71754">
        <ele>77.3</ele>
        <time>2013-03-02T10:13:49Z</time>
      </trkpt>
      <trkpt lat="47.26177" lon="-1.71754">
        <ele>77.4</ele>
        <time>2013-03-02T10:13:50Z</time>
      </trkpt>
      <trkpt lat="47.26177" lon="-1.71754">
        <ele>77.5</ele>
        <time>2013-03-02T10:13:51Z</time>
      </trkpt>
      <trkpt lat="47.26177" lon="-1.71754">
        <ele>77.8</ele>
        <time>2013-03-02T10:13:52Z</time>
      </trkpt>
      <trkpt lat="47.26177" lon="-1.71752">
        <ele>78.1</ele>
        <time>2013-03-02T10:13:53Z</time>
      </trkpt>
      <trkpt lat="47.26176" lon="-1.71751">
        <ele>78.1</ele>
        <time>2013-03-02T10:13:54Z</time>
      </trkpt>
      <trkpt lat="47.26173" lon="-1.71745">
        <ele>77.5</ele>
        <time>2013-03-02T10:13:56Z</time>
      </trkpt>
      <trkpt lat="47.26172" lon="-1.71741">
        <ele>77.1</ele>
        <time>2013-03-02T10:13:57Z</time>
      </trkpt>
      <trkpt lat="47.26164" lon="-1.71715">
        <ele>77.6</ele>
        <time>2013-03-02T10:14:03Z</time>
      </trkpt>
      <trkpt lat="47.26158" lon="-1.717">
        <ele>77.5</ele>
        <time>2013-03-02T10:14:07Z</time>
      </trkpt>
      <trkpt lat="47.2613" lon="-1.71624">
        <ele>78.1</ele>
        <time>2013-03-02T10:14:25Z</time>
      </trkpt>
      <trkpt lat="47.2613" lon="-1.71619">
        <ele>78.2</ele>
        <time>2013-03-02T10:14:26Z</time>
      </trkpt>
      <trkpt lat="47.26129" lon="-1.71613">
        <ele>77.9</ele>
        <time>2013-03-02T10:14:27Z</time>
      </trkpt>
      <trkpt lat="47.26129" lon="-1.71607">
        <ele>77.7</ele>
        <time>2013-03-02T10:14:28Z</time>
      </trkpt>
      <trkpt lat="47.26129" lon="-1.71602">
        <ele>77.8</ele>
        <time>2013-03-02T10:14:29Z</time>
      </trkpt>
      <trkpt lat="47.2613" lon="-1.71592">
        <ele>78</ele>
        <time>2013-03-02T10:14:31Z</time>
      </trkpt>
      <trkpt lat="47.2613" lon="-1.71587">
        <ele>77.6</ele>
        <time>2013-03-02T10:14:32Z</time>
      </trkpt>
      <trkpt lat="47.26131" lon="-1.71583">
        <ele>77.3</ele>
        <time>2013-03-02T10:14:33Z</time>
      </trkpt>
      <trkpt lat="47.26132" lon="-1.71579">
        <ele>76.9</ele>
        <time>2013-03-02T10:14:34Z</time>
      </trkpt>
      <trkpt lat="47.26134" lon="-1.71576">
        <ele>76.6</ele>
        <time>2013-03-02T10:14:35Z</time>
      </trkpt>
      <trkpt lat="47.26172" lon="-1.71521">
        <ele>78.7</ele>
        <time>2013-03-02T10:14:52Z</time>
      </trkpt>
      <trkpt lat="47.26175" lon="-1.71518">
        <ele>78.5</ele>
        <time>2013-03-02T10:14:53Z</time>
      </trkpt>
      <trkpt lat="47.26187" lon="-1.71504">
        <ele>77.7</ele>
        <time>2013-03-02T10:14:57Z</time>
      </trkpt>
      <trkpt lat="47.26193" lon="-1.71495">
        <ele>77.3</ele>
        <time>2013-03-02T10:14:59Z</time>
      </trkpt>
      <trkpt lat="47.26199" lon="-1.71485">
        <ele>77</ele>
        <time>2013-03-02T10:15:01Z</time>
      </trkpt>
      <trkpt lat="47.26202" lon="-1.71479">
        <ele>76.9</ele>
        <time>2013-03-02T10:15:02Z</time>
      </trkpt>
      <trkpt lat="47.26207" lon="-1.71465">
        <ele>76.8</ele>
        <time>2013-03-02T10:15:04Z</time>
      </trkpt>
      <trkpt lat="47.26212" lon="-1.7145">
        <ele>76.2</ele>
        <time>2013-03-02T10:15:06Z</time>
      </trkpt>
      <trkpt lat="47.26216" lon="-1.71432">
        <ele>74.9</ele>
        <time>2013-03-02T10:15:08Z</time>
      </trkpt>
      <trkpt lat="47.26222" lon="-1.71402">
        <ele>73.9</ele>
        <time>2013-03-02T10:15:11Z</time>
      </trkpt>
      <trkpt lat="47.26325" lon="-1.70774">
        <ele>59.9</ele>
        <time>2013-03-02T10:16:12Z</time>
      </trkpt>
      <trkpt lat="47.26325" lon="-1.70764">
        <ele>59.7</ele>
        <time>2013-03-02T10:16:13Z</time>
      </trkpt>
      <trkpt lat="47.26326" lon="-1.70735">
        <ele>59.2</ele>
        <time>2013-03-02T10:16:16Z</time>
      </trkpt>
      <trkpt lat="47.26326" lon="-1.70726">
        <ele>59.2</ele>
        <time>2013-03-02T10:16:17Z</time>
      </trkpt>
      <trkpt lat="47.26324" lon="-1.7071">
        <ele>58.9</ele>
        <time>2013-03-02T10:16:19Z</time>
      </trkpt>
      <trkpt lat="47.26318" lon="-1.70673">
        <ele>59.7</ele>
        <time>2013-03-02T10:16:25Z</time>
      </trkpt>
      <trkpt lat="47.26304" lon="-1.70603">
        <ele>62.6</ele>
        <time>2013-03-02T10:16:40Z</time>
      </trkpt>
      <trkpt lat="47.26286" lon="-1.70521">
        <ele>62.1</ele>
        <time>2013-03-02T10:16:56Z</time>
      </trkpt>
      <trkpt lat="47.26284" lon="-1.70516">
        <ele>62.3</ele>
        <time>2013-03-02T10:16:57Z</time>
      </trkpt>
      <trkpt lat="47.26273" lon="-1.7049">
        <ele>64</ele>
        <time>2013-03-02T10:17:02Z</time>
      </trkpt>
      <trkpt lat="47.26227" lon="-1.70398">
        <ele>65.6</ele>
        <time>2013-03-02T10:17:22Z</time>
      </trkpt>
      <trkpt lat="47.26225" lon="-1.70394">
        <ele>65.7</ele>
        <time>2013-03-02T10:17:23Z</time>
      </trkpt>
      <trkpt lat="47.26215" lon="-1.70377">
        <ele>66.8</ele>
        <time>2013-03-02T10:17:29Z</time>
      </trkpt>
      <trkpt lat="47.26214" lon="-1.70376">
        <ele>66.7</ele>
        <time>2013-03-02T10:17:30Z</time>
      </trkpt>
      <trkpt lat="47.26213" lon="-1.70375">
        <ele>66.5</ele>
        <time>2013-03-02T10:17:31Z</time>
      </trkpt>
      <trkpt lat="47.26212" lon="-1.70375">
        <ele>66.7</ele>
        <time>2013-03-02T10:17:32Z</time>
      </trkpt>
      <trkpt lat="47.26211" lon="-1.70375">
        <ele>66.8</ele>
        <time>2013-03-02T10:17:33Z</time>
      </trkpt>
      <trkpt lat="47.26211" lon="-1.70375">
        <ele>66.8</ele>
        <time>2013-03-02T10:17:34Z</time>
      </trkpt>
      <trkpt lat="47.2621" lon="-1.70374">
        <ele>66.8</ele>
        <time>2013-03-02T10:17:35Z</time>
      </trkpt>
      <trkpt lat="47.2621" lon="-1.70374">
        <ele>66.8</ele>
        <time>2013-03-02T10:17:36Z</time>
      </trkpt>
      <trkpt lat="47.26209" lon="-1.70375">
        <ele>67.4</ele>
        <time>2013-03-02T10:17:38Z</time>
      </trkpt>
      <trkpt lat="47.26207" lon="-1.70375">
        <ele>67.3</ele>
        <time>2013-03-02T10:17:39Z</time>
      </trkpt>
      <trkpt lat="47.26205" lon="-1.70376">
        <ele>67.3</ele>
        <time>2013-03-02T10:17:40Z</time>
      </trkpt>
      <trkpt lat="47.26198" lon="-1.7038">
        <ele>67.2</ele>
        <time>2013-03-02T10:17:43Z</time>
      </trkpt>
      <trkpt lat="47.26195" lon="-1.70382">
        <ele>66.7</ele>
        <time>2013-03-02T10:17:44Z</time>
      </trkpt>
      <trkpt lat="47.25963" lon="-1.70572">
        <ele>58.4</ele>
        <time>2013-03-02T10:18:31Z</time>
      </trkpt>
      <trkpt lat="47.25959" lon="-1.70576">
        <ele>58.4</ele>
        <time>2013-03-02T10:18:32Z</time>
      </trkpt>
      <trkpt lat="47.25929" lon="-1.7061">
        <ele>59.7</ele>
        <time>2013-03-02T10:18:41Z</time>
      </trkpt>
      <trkpt lat="47.25892" lon="-1.70654">
        <ele>62.4</ele>
        <time>2013-03-02T10:18:53Z</time>
      </trkpt>
      <trkpt lat="47.25888" lon="-1.70657">
        <ele>62.7</ele>
        <time>2013-03-02T10:18:54Z</time>
      </trkpt>
      <trkpt lat="47.25795" lon="-1.70739">
        <ele>63.3</ele>
        <time>2013-03-02T10:19:17Z</time>
      </trkpt>
      <trkpt lat="47.2579" lon="-1.70742">
        <ele>63.5</ele>
        <time>2013-03-02T10:19:18Z</time>
      </trkpt>
      <trkpt lat="47.25781" lon="-1.70746">
        <ele>63.6</ele>
        <time>2013-03-02T10:19:20Z</time>
      </trkpt>
      <trkpt lat="47.25776" lon="-1.70748">
        <ele>64</ele>
        <time>2013-03-02T10:19:21Z</time>
      </trkpt>
      <trkpt lat="47.25757" lon="-1.70752">
        <ele>64.2</ele>
        <time>2013-03-02T10:19:25Z</time>
      </trkpt>
      <trkpt lat="47.25753" lon="-1.70752">
        <ele>64.5</ele>
        <time>2013-03-02T10:19:26Z</time>
      </trkpt>
      <trkpt lat="47.25743" lon="-1.70752">
        <ele>64.6</ele>
        <time>2013-03-02T10:19:28Z</time>
      </trkpt>
      <trkpt lat="47.25738" lon="-1.70751">
        <ele>64.5</ele>
        <time>2013-03-02T10:19:29Z</time>
      </trkpt>
      <trkpt lat="47.25608" lon="-1.70744">
        <ele>66.4</ele>
        <time>2013-03-02T10:19:57Z</time>
      </trkpt>
      <trkpt lat="47.25603" lon="-1.70741">
        <ele>66.4</ele>
        <time>2013-03-02T10:19:58Z</time>
      </trkpt>
      <trkpt lat="47.256" lon="-1.70738">
        <ele>66.4</ele>
        <time>2013-03-02T10:19:59Z</time>
      </trkpt>
      <trkpt lat="47.25598" lon="-1.70733">
        <ele>66.4</ele>
        <time>2013-03-02T10:20:00Z</time>
      </trkpt>
      <trkpt lat="47.25596" lon="-1.70727">
        <ele>66.5</ele>
        <time>2013-03-02T10:20:01Z</time>
      </trkpt>
      <trkpt lat="47.25596" lon="-1.70722">
        <ele>66.3</ele>
        <time>2013-03-02T10:20:02Z</time>
      </trkpt>
      <trkpt lat="47.2559" lon="-1.70692">
        <ele>66.7</ele>
        <time>2013-03-02T10:20:09Z</time>
      </trkpt>
      <trkpt lat="47.25569" lon="-1.70597">
        <ele>67.9</ele>
        <time>2013-03-02T10:20:28Z</time>
      </trkpt>
      <trkpt lat="47.25569" lon="-1.70591">
        <ele>68</ele>
        <time>2013-03-02T10:20:29Z</time>
      </trkpt>
      <trkpt lat="47.25569" lon="-1.70587">
        <ele>68.3</ele>
        <time>2013-03-02T10:20:30Z</time>
      </trkpt>
      <trkpt lat="47.2557" lon="-1.70582">
        <ele>68.4</ele>
        <time>2013-03-02T10:20:31Z</time>
      </trkpt>
      <trkpt lat="47.2557" lon="-1.70576">
        <ele>68.6</ele>
        <time>2013-03-02T10:20:32Z</time>
      </trkpt>
      <trkpt lat="47.25572" lon="-1.70566">
        <ele>68.2</ele>
        <time>2013-03-02T10:20:34Z</time>
      </trkpt>
      <trkpt lat="47.25573" lon="-1.70561">
        <ele>68.3</ele>
        <time>2013-03-02T10:20:35Z</time>
      </trkpt>
      <trkpt lat="47.25577" lon="-1.70552">
        <ele>68</ele>
        <time>2013-03-02T10:20:37Z</time>
      </trkpt>
      <trkpt lat="47.25596" lon="-1.70505">
        <ele>67.7</ele>
        <time>2013-03-02T10:20:47Z</time>
      </trkpt>
      <trkpt lat="47.25598" lon="-1.70501">
        <ele>67.8</ele>
        <time>2013-03-02T10:20:48Z</time>
      </trkpt>
      <trkpt lat="47.25606" lon="-1.70485">
        <ele>68.8</ele>
        <time>2013-03-02T10:20:52Z</time>
      </trkpt>
      <trkpt lat="47.25608" lon="-1.70481">
        <ele>68.7</ele>
        <time>2013-03-02T10:20:53Z</time>
      </trkpt>
      <trkpt lat="47.25614" lon="-1.70474">
        <ele>69.3</ele>
        <time>2013-03-02T10:20:55Z</time>
      </trkpt>
      <trkpt lat="47.25617" lon="-1.70471">
        <ele>69.1</ele>
        <time>2013-03-02T10:20:56Z</time>
      </trkpt>
      <trkpt lat="47.25684" lon="-1.70407">
        <ele>68.4</ele>
        <time>2013-03-02T10:21:17Z</time>
      </trkpt>
      <trkpt lat="47.25687" lon="-1.70404">
        <ele>67.9</ele>
        <time>2013-03-02T10:21:18Z</time>
      </trkpt>
      <trkpt lat="47.25787" lon="-1.7033">
        <ele>63.1</ele>
        <time>2013-03-02T10:21:42Z</time>
      </trkpt>
      <trkpt lat="47.25791" lon="-1.70325">
        <ele>62.9</ele>
        <time>2013-03-02T10:21:43Z</time>
      </trkpt>
      <trkpt lat="47.25807" lon="-1.70308">
        <ele>62.6</ele>
        <time>2013-03-02T10:21:47Z</time>
      </trkpt>
      <trkpt lat="47.25811" lon="-1.70302">
        <ele>62.3</ele>
        <time>2013-03-02T10:21:48Z</time>
      </trkpt>
      <trkpt lat="47.25817" lon="-1.70292">
        <ele>62</ele>
        <time>2013-03-02T10:21:50Z</time>
      </trkpt>
      <trkpt lat="47.2585" lon="-1.70248">
        <ele>59.2</ele>
        <time>2013-03-02T10:22:00Z</time>
      </trkpt>
      <trkpt lat="47.2587" lon="-1.70224">
        <ele>57.7</ele>
        <time>2013-03-02T10:22:06Z</time>
      </trkpt>
      <trkpt lat="47.25873" lon="-1.70222">
        <ele>57.4</ele>
        <time>2013-03-02T10:22:07Z</time>
      </trkpt>
      <trkpt lat="47.25891" lon="-1.70209">
        <ele>56.7</ele>
        <time>2013-03-02T10:22:13Z</time>
      </trkpt>
      <trkpt lat="47.25928" lon="-1.7018">
        <ele>55.7</ele>
        <time>2013-03-02T10:22:25Z</time>
      </trkpt>
      <trkpt lat="47.25931" lon="-1.70179">
        <ele>55.7</ele>
        <time>2013-03-02T10:22:26Z</time>
      </trkpt>
      <trkpt lat="47.25953" lon="-1.70161">
        <ele>54.5</ele>
        <time>2013-03-02T10:22:38Z</time>
      </trkpt>
      <trkpt lat="47.25954" lon="-1.70161">
        <ele>54.4</ele>
        <time>2013-03-02T10:22:39Z</time>
      </trkpt>
      <trkpt lat="47.25954" lon="-1.7016">
        <ele>54.3</ele>
        <time>2013-03-02T10:22:42Z</time>
      </trkpt>
      <trkpt lat="47.25955" lon="-1.70159">
        <ele>54.3</ele>
        <time>2013-03-02T10:22:44Z</time>
      </trkpt>
      <trkpt lat="47.25957" lon="-1.70154">
        <ele>54.1</ele>
        <time>2013-03-02T10:22:48Z</time>
      </trkpt>
      <trkpt lat="47.25957" lon="-1.70154">
        <ele>53.9</ele>
        <time>2013-03-02T10:22:49Z</time>
      </trkpt>
      <trkpt lat="47.25958" lon="-1.70153">
        <ele>53.5</ele>
        <time>2013-03-02T10:22:50Z</time>
      </trkpt>
      <trkpt lat="47.25958" lon="-1.70153">
        <ele>53.2</ele>
        <time>2013-03-02T10:22:51Z</time>
      </trkpt>
      <trkpt lat="47.25959" lon="-1.70151">
        <ele>53.4</ele>
        <time>2013-03-02T10:22:53Z</time>
      </trkpt>
      <trkpt lat="47.25959" lon="-1.70151">
        <ele>53.6</ele>
        <time>2013-03-02T10:22:55Z</time>
      </trkpt>
      <trkpt lat="47.2596" lon="-1.7015">
        <ele>53.7</ele>
        <time>2013-03-02T10:22:57Z</time>
      </trkpt>
      <trkpt lat="47.2596" lon="-1.7015">
        <ele>53.7</ele>
        <time>2013-03-02T10:22:58Z</time>
      </trkpt>
      <trkpt lat="47.2596" lon="-1.7015">
        <ele>53.7</ele>
        <time>2013-03-02T10:22:59Z</time>
      </trkpt>
      <trkpt lat="47.25961" lon="-1.70149">
        <ele>53.9</ele>
        <time>2013-03-02T10:23:01Z</time>
      </trkpt>
      <trkpt lat="47.25962" lon="-1.70148">
        <ele>53.9</ele>
        <time>2013-03-02T10:23:02Z</time>
      </trkpt>
      <trkpt lat="47.25962" lon="-1.70148">
        <ele>53.9</ele>
        <time>2013-03-02T10:23:03Z</time>
      </trkpt>
      <trkpt lat="47.25962" lon="-1.70147">
        <ele>53.9</ele>
        <time>2013-03-02T10:23:04Z</time>
      </trkpt>
      <trkpt lat="47.25962" lon="-1.70147">
        <ele>54</ele>
        <time>2013-03-02T10:23:05Z</time>
      </trkpt>
      <trkpt lat="47.25962" lon="-1.70146">
        <ele>54</ele>
        <time>2013-03-02T10:23:06Z</time>
      </trkpt>
      <trkpt lat="47.25962" lon="-1.70146">
        <ele>54.1</ele>
        <time>2013-03-02T10:23:07Z</time>
      </trkpt>
      <trkpt lat="47.25962" lon="-1.70146">
        <ele>54.2</ele>
        <time>2013-03-02T10:23:08Z</time>
      </trkpt>
      <trkpt lat="47.25963" lon="-1.70146">
        <ele>54.1</ele>
        <time>2013-03-02T10:23:09Z</time>
      </trkpt>
      <trkpt lat="47.25963" lon="-1.70145">
        <ele>54.1</ele>
        <time>2013-03-02T10:23:11Z</time>
      </trkpt>
      <trkpt lat="47.25963" lon="-1.70145">
        <ele>54.1</ele>
        <time>2013-03-02T10:23:12Z</time>
      </trkpt>
      <trkpt lat="47.25963" lon="-1.70145">
        <ele>54.2</ele>
        <time>2013-03-02T10:23:13Z</time>
      </trkpt>
      <trkpt lat="47.25963" lon="-1.70145">
        <ele>53.9</ele>
        <time>2013-03-02T10:23:14Z</time>
      </trkpt>
      <trkpt lat="47.25963" lon="-1.70145">
        <ele>53.7</ele>
        <time>2013-03-02T10:23:15Z</time>
      </trkpt>
      <trkpt lat="47.25963" lon="-1.70145">
        <ele>53.4</ele>
        <time>2013-03-02T10:23:16Z</time>
      </trkpt>
      <trkpt lat="47.25963" lon="-1.70145">
        <ele>53.2</ele>
        <time>2013-03-02T10:23:17Z</time>
      </trkpt>
      <trkpt lat="47.25963" lon="-1.70144">
        <ele>53</ele>
        <time>2013-03-02T10:23:18Z</time>
      </trkpt>
      <trkpt lat="47.25964" lon="-1.70144">
        <ele>53.2</ele>
        <time>2013-03-02T10:23:19Z</time>
      </trkpt>
      <trkpt lat="47.25964" lon="-1.70143">
        <ele>53.4</ele>
        <time>2013-03-02T10:23:20Z</time>
      </trkpt>
      <trkpt lat="47.25964" lon="-1.70143">
        <ele>53.5</ele>
        <time>2013-03-02T10:23:21Z</time>
      </trkpt>
      <trkpt lat="47.25964" lon="-1.70142">
        <ele>53.5</ele>
        <time>2013-03-02T10:23:22Z</time>
      </trkpt>
      <trkpt lat="47.25965" lon="-1.70141">
        <ele>54.1</ele>
        <time>2013-03-02T10:23:23Z</time>
      </trkpt>
      <trkpt lat="47.25968" lon="-1.70134">
        <ele>54.6</ele>
        <time>2013-03-02T10:23:28Z</time>
      </trkpt>
      <trkpt lat="47.25969" lon="-1.70133">
        <ele>54.6</ele>
        <time>2013-03-02T10:23:29Z</time>
      </trkpt>
      <trkpt lat="47.2597" lon="-1.70132">
        <ele>54.5</ele>
        <time>2013-03-02T10:23:31Z</time>
      </trkpt>
      <trkpt lat="47.25971" lon="-1.70132">
        <ele>54.4</ele>
        <time>2013-03-02T10:23:32Z</time>
      </trkpt>
      <trkpt lat="47.25971" lon="-1.70132">
        <ele>54.4</ele>
        <time>2013-03-02T10:23:34Z</time>
      </trkpt>
      <trkpt lat="47.25971" lon="-1.70132">
        <ele>54.2</ele>
        <time>2013-03-02T10:23:35Z</time>
      </trkpt>
      <trkpt lat="47.25971" lon="-1.70131">
        <ele>54</ele>
        <time>2013-03-02T10:23:36Z</time>
      </trkpt>
      <trkpt lat="47.25972" lon="-1.70131">
        <ele>54.4</ele>
        <time>2013-03-02T10:23:39Z</time>
      </trkpt>
      <trkpt lat="47.25972" lon="-1.70131">
        <ele>53.6</ele>
        <time>2013-03-02T10:23:41Z</time>
      </trkpt>
      <trkpt lat="47.25972" lon="-1.70131">
        <ele>53.7</ele>
        <time>2013-03-02T10:23:42Z</time>
      </trkpt>
      <trkpt lat="47.25973" lon="-1.7013">
        <ele>53.8</ele>
        <time>2013-03-02T10:23:43Z</time>
      </trkpt>
      <trkpt lat="47.25974" lon="-1.7013">
        <ele>53.9</ele>
        <time>2013-03-02T10:23:44Z</time>
      </trkpt>
      <trkpt lat="47.25975" lon="-1.7013">
        <ele>53.8</ele>
        <time>2013-03-02T10:23:45Z</time>
      </trkpt>
      <trkpt lat="47.25976" lon="-1.70129">
        <ele>53.8</ele>
        <time>2013-03-02T10:23:46Z</time>
      </trkpt>
      <trkpt lat="47.25983" lon="-1.70124">
        <ele>53.6</ele>
        <time>2013-03-02T10:23:52Z</time>
      </trkpt>
      <trkpt lat="47.25987" lon="-1.7012">
        <ele>53.4</ele>
        <time>2013-03-02T10:23:57Z</time>
      </trkpt>
      <trkpt lat="47.25989" lon="-1.7012">
        <ele>53.7</ele>
        <time>2013-03-02T10:23:58Z</time>
      </trkpt>
      <trkpt lat="47.25991" lon="-1.7012">
        <ele>54.9</ele>
        <time>2013-03-02T10:24:00Z</time>
      </trkpt>
      <trkpt lat="47.25992" lon="-1.7012">
        <ele>54.8</ele>
        <time>2013-03-02T10:24:01Z</time>
      </trkpt>
      <trkpt lat="47.25993" lon="-1.70119">
        <ele>54.7</ele>
        <time>2013-03-02T10:24:02Z</time>
      </trkpt>
      <trkpt lat="47.25995" lon="-1.70116">
        <ele>54.9</ele>
        <time>2013-03-02T10:24:05Z</time>
      </trkpt>
      <trkpt lat="47.25996" lon="-1.70116">
        <ele>55.1</ele>
        <time>2013-03-02T10:24:06Z</time>
      </trkpt>
      <trkpt lat="47.25997" lon="-1.70115">
        <ele>55.3</ele>
        <time>2013-03-02T10:24:07Z</time>
      </trkpt>
      <trkpt lat="47.25998" lon="-1.70115">
        <ele>55.5</ele>
        <time>2013-03-02T10:24:08Z</time>
      </trkpt>
      <trkpt lat="47.26" lon="-1.70115">
        <ele>55.6</ele>
        <time>2013-03-02T10:24:09Z</time>
      </trkpt>
      <trkpt lat="47.26" lon="-1.70114">
        <ele>55.7</ele>
        <time>2013-03-02T10:24:10Z</time>
      </trkpt>
      <trkpt lat="47.26001" lon="-1.70114">
        <ele>55.7</ele>
        <time>2013-03-02T10:24:11Z</time>
      </trkpt>
      <trkpt lat="47.26003" lon="-1.70113">
        <ele>55.8</ele>
        <time>2013-03-02T10:24:14Z</time>
      </trkpt>
      <trkpt lat="47.26004" lon="-1.70113">
        <ele>55.9</ele>
        <time>2013-03-02T10:24:15Z</time>
      </trkpt>
      <trkpt lat="47.26004" lon="-1.70113">
        <ele>56</ele>
        <time>2013-03-02T10:24:16Z</time>
      </trkpt>
      <trkpt lat="47.26004" lon="-1.70113">
        <ele>56</ele>
        <time>2013-03-02T10:24:17Z</time>
      </trkpt>
      <trkpt lat="47.26004" lon="-1.70113">
        <ele>55.8</ele>
        <time>2013-03-02T10:24:18Z</time>
      </trkpt>
      <trkpt lat="47.26005" lon="-1.70113">
        <ele>55.6</ele>
        <time>2013-03-02T10:24:19Z</time>
      </trkpt>
      <trkpt lat="47.26005" lon="-1.70113">
        <ele>55.4</ele>
        <time>2013-03-02T10:24:20Z</time>
      </trkpt>
      <trkpt lat="47.26005" lon="-1.70113">
        <ele>55.3</ele>
        <time>2013-03-02T10:24:21Z</time>
      </trkpt>
      <trkpt lat="47.26005" lon="-1.70113">
        <ele>55.3</ele>
        <time>2013-03-02T10:24:22Z</time>
      </trkpt>
      <trkpt lat="47.26005" lon="-1.70113">
        <ele>55.2</ele>
        <time>2013-03-02T10:24:23Z</time>
      </trkpt>
      <trkpt lat="47.26005" lon="-1.70113">
        <ele>55.2</ele>
        <time>2013-03-02T10:24:24Z</time>
      </trkpt>
      <trkpt lat="47.26005" lon="-1.70113">
        <ele>55.4</ele>
        <time>2013-03-02T10:24:25Z</time>
      </trkpt>
      <trkpt lat="47.26005" lon="-1.70113">
        <ele>55.5</ele>
        <time>2013-03-02T10:24:26Z</time>
      </trkpt>
      <trkpt lat="47.26005" lon="-1.70113">
        <ele>55</ele>
        <time>2013-03-02T10:24:27Z</time>
      </trkpt>
      <trkpt lat="47.26006" lon="-1.70112">
        <ele>54.6</ele>
        <time>2013-03-02T10:24:28Z</time>
      </trkpt>
      <trkpt lat="47.26006" lon="-1.70112">
        <ele>54.3</ele>
        <time>2013-03-02T10:24:29Z</time>
      </trkpt>
      <trkpt lat="47.26006" lon="-1.70112">
        <ele>54.4</ele>
        <time>2013-03-02T10:24:30Z</time>
      </trkpt>
      <trkpt lat="47.26006" lon="-1.70112">
        <ele>54.4</ele>
        <time>2013-03-02T10:24:31Z</time>
      </trkpt>
      <trkpt lat="47.26006" lon="-1.70112">
        <ele>54.7</ele>
        <time>2013-03-02T10:24:32Z</time>
      </trkpt>
      <trkpt lat="47.26006" lon="-1.70112">
        <ele>54.9</ele>
        <time>2013-03-02T10:24:33Z</time>
      </trkpt>
      <trkpt lat="47.26006" lon="-1.70112">
        <ele>55</ele>
        <time>2013-03-02T10:24:34Z</time>
      </trkpt>
      <trkpt lat="47.26006" lon="-1.70112">
        <ele>54.8</ele>
        <time>2013-03-02T10:24:35Z</time>
      </trkpt>
      <trkpt lat="47.26006" lon="-1.70112">
        <ele>54.6</ele>
        <time>2013-03-02T10:24:36Z</time>
      </trkpt>
      <trkpt lat="47.26006" lon="-1.70112">
        <ele>54.7</ele>
        <time>2013-03-02T10:24:37Z</time>
      </trkpt>
      <trkpt lat="47.26006" lon="-1.70112">
        <ele>54.8</ele>
        <time>2013-03-02T10:24:38Z</time>
      </trkpt>
      <trkpt lat="47.26006" lon="-1.70112">
        <ele>55.2</ele>
        <time>2013-03-02T10:24:39Z</time>
      </trkpt>
      <trkpt lat="47.26006" lon="-1.70112">
        <ele>55.5</ele>
        <time>2013-03-02T10:24:40Z</time>
      </trkpt>
      <trkpt lat="47.26006" lon="-1.70112">
        <ele>55.7</ele>
        <time>2013-03-02T10:24:41Z</time>
      </trkpt>
      <trkpt lat="47.26006" lon="-1.70112">
        <ele>55.6</ele>
        <time>2013-03-02T10:24:42Z</time>
      </trkpt>
      <trkpt lat="47.26006" lon="-1.70112">
        <ele>55.5</ele>
        <time>2013-03-02T10:24:43Z</time>
      </trkpt>
      <trkpt lat="47.26006" lon="-1.70112">
        <ele>55.2</ele>
        <time>2013-03-02T10:24:44Z</time>
      </trkpt>
      <trkpt lat="47.26005" lon="-1.70112">
        <ele>55.1</ele>
        <time>2013-03-02T10:24:45Z</time>
      </trkpt>
      <trkpt lat="47.26005" lon="-1.70112">
        <ele>55.1</ele>
        <time>2013-03-02T10:24:46Z</time>
      </trkpt>
      <trkpt lat="47.26005" lon="-1.70111">
        <ele>55.2</ele>
        <time>2013-03-02T10:24:47Z</time>
      </trkpt>
      <trkpt lat="47.26005" lon="-1.70111">
        <ele>55.2</ele>
        <time>2013-03-02T10:24:48Z</time>
      </trkpt>
      <trkpt lat="47.26005" lon="-1.70111">
        <ele>55.1</ele>
        <time>2013-03-02T10:24:49Z</time>
      </trkpt>
      <trkpt lat="47.26005" lon="-1.70111">
        <ele>55</ele>
        <time>2013-03-02T10:24:50Z</time>
      </trkpt>
      <trkpt lat="47.26005" lon="-1.70111">
        <ele>55</ele>
        <time>2013-03-02T10:24:51Z</time>
      </trkpt>
      <trkpt lat="47.26005" lon="-1.70111">
        <ele>55</ele>
        <time>2013-03-02T10:24:52Z</time>
      </trkpt>
      <trkpt lat="47.26005" lon="-1.70111">
        <ele>55</ele>
        <time>2013-03-02T10:24:53Z</time>
      </trkpt>
      <trkpt lat="47.26005" lon="-1.70111">
        <ele>54.9</ele>
        <time>2013-03-02T10:24:54Z</time>
      </trkpt>
      <trkpt lat="47.26005" lon="-1.70111">
        <ele>54.8</ele>
        <time>2013-03-02T10:24:55Z</time>
      </trkpt>
      <trkpt lat="47.26005" lon="-1.70111">
        <ele>55.1</ele>
        <time>2013-03-02T10:24:56Z</time>
      </trkpt>
      <trkpt lat="47.26005" lon="-1.70111">
        <ele>55.3</ele>
        <time>2013-03-02T10:24:57Z</time>
      </trkpt>
      <trkpt lat="47.26005" lon="-1.70111">
        <ele>55.3</ele>
        <time>2013-03-02T10:24:58Z</time>
      </trkpt>
      <trkpt lat="47.26005" lon="-1.70111">
        <ele>55.3</ele>
        <time>2013-03-02T10:24:59Z</time>
      </trkpt>
      <trkpt lat="47.26004" lon="-1.70111">
        <ele>55.3</ele>
        <time>2013-03-02T10:25:00Z</time>
      </trkpt>
      <trkpt lat="47.26004" lon="-1.70111">
        <ele>55.5</ele>
        <time>2013-03-02T10:25:01Z</time>
      </trkpt>
      <trkpt lat="47.26005" lon="-1.70112">
        <ele>55.7</ele>
        <time>2013-03-02T10:25:02Z</time>
      </trkpt>
      <trkpt lat="47.26006" lon="-1.70112">
        <ele>55.5</ele>
        <time>2013-03-02T10:25:03Z</time>
      </trkpt>
      <trkpt lat="47.26006" lon="-1.70112">
        <ele>55.4</ele>
        <time>2013-03-02T10:25:04Z</time>
      </trkpt>
      <trkpt lat="47.26006" lon="-1.70112">
        <ele>55.2</ele>
        <time>2013-03-02T10:25:05Z</time>
      </trkpt>
      <trkpt lat="47.26006" lon="-1.70112">
        <ele>55</ele>
        <time>2013-03-02T10:25:06Z</time>
      </trkpt>
      <trkpt lat="47.26006" lon="-1.70112">
        <ele>54.9</ele>
        <time>2013-03-02T10:25:07Z</time>
      </trkpt>
      <trkpt lat="47.26005" lon="-1.70112">
        <ele>55.3</ele>
        <time>2013-03-02T10:25:08Z</time>
      </trkpt>
      <trkpt lat="47.26005" lon="-1.70112">
        <ele>55.5</ele>
        <time>2013-03-02T10:25:09Z</time>
      </trkpt>
      <trkpt lat="47.26004" lon="-1.70112">
        <ele>55.9</ele>
        <time>2013-03-02T10:25:10Z</time>
      </trkpt>
      <trkpt lat="47.26003" lon="-1.70112">
        <ele>56.2</ele>
        <time>2013-03-02T10:25:11Z</time>
      </trkpt>
      <trkpt lat="47.26003" lon="-1.70112">
        <ele>56.1</ele>
        <time>2013-03-02T10:25:12Z</time>
      </trkpt>
      <trkpt lat="47.26002" lon="-1.70112">
        <ele>56.1</ele>
        <time>2013-03-02T10:25:13Z</time>
      </trkpt>
      <trkpt lat="47.26001" lon="-1.70112">
        <ele>56</ele>
        <time>2013-03-02T10:25:14Z</time>
      </trkpt>
      <trkpt lat="47.25999" lon="-1.70113">
        <ele>55.5</ele>
        <time>2013-03-02T10:25:16Z</time>
      </trkpt>
      <trkpt lat="47.25998" lon="-1.70113">
        <ele>55.7</ele>
        <time>2013-03-02T10:25:17Z</time>
      </trkpt>
      <trkpt lat="47.25997" lon="-1.70114">
        <ele>55.8</ele>
        <time>2013-03-02T10:25:18Z</time>
      </trkpt>
      <trkpt lat="47.25995" lon="-1.70117">
        <ele>55.6</ele>
        <time>2013-03-02T10:25:20Z</time>
      </trkpt>
      <trkpt lat="47.25994" lon="-1.70117">
        <ele>55.4</ele>
        <time>2013-03-02T10:25:21Z</time>
      </trkpt>
      <trkpt lat="47.25992" lon="-1.70118">
        <ele>55</ele>
        <time>2013-03-02T10:25:22Z</time>
      </trkpt>
      <trkpt lat="47.25991" lon="-1.70117">
        <ele>54.6</ele>
        <time>2013-03-02T10:25:23Z</time>
      </trkpt>
      <trkpt lat="47.25989" lon="-1.70117">
        <ele>55.2</ele>
        <time>2013-03-02T10:25:25Z</time>
      </trkpt>
      <trkpt lat="47.25988" lon="-1.70118">
        <ele>55.4</ele>
        <time>2013-03-02T10:25:26Z</time>
      </trkpt>
      <trkpt lat="47.25988" lon="-1.70119">
        <ele>55.9</ele>
        <time>2013-03-02T10:25:27Z</time>
      </trkpt>
      <trkpt lat="47.25986" lon="-1.70122">
        <ele>56</ele>
        <time>2013-03-02T10:25:29Z</time>
      </trkpt>
      <trkpt lat="47.25984" lon="-1.70124">
        <ele>55.3</ele>
        <time>2013-03-02T10:25:31Z</time>
      </trkpt>
      <trkpt lat="47.25983" lon="-1.70125">
        <ele>55</ele>
        <time>2013-03-02T10:25:32Z</time>
      </trkpt>
      <trkpt lat="47.25979" lon="-1.70128">
        <ele>54.1</ele>
        <time>2013-03-02T10:25:36Z</time>
      </trkpt>
      <trkpt lat="47.25977" lon="-1.70129">
        <ele>53.8</ele>
        <time>2013-03-02T10:25:38Z</time>
      </trkpt>
      <trkpt lat="47.25976" lon="-1.70129">
        <ele>54.2</ele>
        <time>2013-03-02T10:25:39Z</time>
      </trkpt>
      <trkpt lat="47.25975" lon="-1.70129">
        <ele>54.3</ele>
        <time>2013-03-02T10:25:41Z</time>
      </trkpt>
      <trkpt lat="47.25974" lon="-1.70129">
        <ele>54.2</ele>
        <time>2013-03-02T10:25:42Z</time>
      </trkpt>
      <trkpt lat="47.25973" lon="-1.7013">
        <ele>54.1</ele>
        <time>2013-03-02T10:25:43Z</time>
      </trkpt>
      <trkpt lat="47.25972" lon="-1.70131">
        <ele>54</ele>
        <time>2013-03-02T10:25:44Z</time>
      </trkpt>
      <trkpt lat="47.25971" lon="-1.70133">
        <ele>53.9</ele>
        <time>2013-03-02T10:25:45Z</time>
      </trkpt>
      <trkpt lat="47.25971" lon="-1.70134">
        <ele>54.1</ele>
        <time>2013-03-02T10:25:46Z</time>
      </trkpt>
      <trkpt lat="47.2597" lon="-1.70135">
        <ele>54.2</ele>
        <time>2013-03-02T10:25:47Z</time>
      </trkpt>
      <trkpt lat="47.2597" lon="-1.70136">
        <ele>54.4</ele>
        <time>2013-03-02T10:25:48Z</time>
      </trkpt>
      <trkpt lat="47.2597" lon="-1.70137">
        <ele>54.6</ele>
        <time>2013-03-02T10:25:49Z</time>
      </trkpt>
      <trkpt lat="47.25969" lon="-1.70138">
        <ele>54.5</ele>
        <time>2013-03-02T10:25:50Z</time>
      </trkpt>
      <trkpt lat="47.25969" lon="-1.70138">
        <ele>54.5</ele>
        <time>2013-03-02T10:25:51Z</time>
      </trkpt>
      <trkpt lat="47.25969" lon="-1.70138">
        <ele>54.5</ele>
        <time>2013-03-02T10:25:52Z</time>
      </trkpt>
      <trkpt lat="47.25969" lon="-1.70138">
        <ele>54.4</ele>
        <time>2013-03-02T10:25:53Z</time>
      </trkpt>
      <trkpt lat="47.25969" lon="-1.70138">
        <ele>54.4</ele>
        <time>2013-03-02T10:25:54Z</time>
      </trkpt>
      <trkpt lat="47.25969" lon="-1.70139">
        <ele>54.5</ele>
        <time>2013-03-02T10:25:59Z</time>
      </trkpt>
      <trkpt lat="47.25969" lon="-1.70139">
        <ele>54.5</ele>
        <time>2013-03-02T10:26:00Z</time>
      </trkpt>
      <trkpt lat="47.25969" lon="-1.70139">
        <ele>54.5</ele>
        <time>2013-03-02T10:26:01Z</time>
      </trkpt>
      <trkpt lat="47.25969" lon="-1.70139">
        <ele>54.3</ele>
        <time>2013-03-02T10:26:02Z</time>
      </trkpt>
      <trkpt lat="47.25969" lon="-1.70139">
        <ele>54.1</ele>
        <time>2013-03-02T10:26:03Z</time>
      </trkpt>
      <trkpt lat="47.25969" lon="-1.70139">
        <ele>54</ele>
        <time>2013-03-02T10:26:04Z</time>
      </trkpt>
      <trkpt lat="47.25969" lon="-1.70139">
        <ele>54.1</ele>
        <time>2013-03-02T10:26:05Z</time>
      </trkpt>
      <trkpt lat="47.25969" lon="-1.70139">
        <ele>54.2</ele>
        <time>2013-03-02T10:26:06Z</time>
      </trkpt>
      <trkpt lat="47.25969" lon="-1.70139">
        <ele>53.9</ele>
        <time>2013-03-02T10:26:07Z</time>
      </trkpt>
      <trkpt lat="47.25969" lon="-1.70139">
        <ele>53.7</ele>
        <time>2013-03-02T10:26:08Z</time>
      </trkpt>
      <trkpt lat="47.25969" lon="-1.70139">
        <ele>53.9</ele>
        <time>2013-03-02T10:26:09Z</time>
      </trkpt>
      <trkpt lat="47.25969" lon="-1.70139">
        <ele>53.9</ele>
        <time>2013-03-02T10:26:12Z</time>
      </trkpt>
      <trkpt lat="47.25969" lon="-1.70139">
        <ele>53.8</ele>
        <time>2013-03-02T10:26:13Z</time>
      </trkpt>
      <trkpt lat="47.25969" lon="-1.7014">
        <ele>54</ele>
        <time>2013-03-02T10:26:14Z</time>
      </trkpt>
      <trkpt lat="47.25969" lon="-1.7014">
        <ele>54.1</ele>
        <time>2013-03-02T10:26:15Z</time>
      </trkpt>
      <trkpt lat="47.25969" lon="-1.7014">
        <ele>54.1</ele>
        <time>2013-03-02T10:26:16Z</time>
      </trkpt>
      <trkpt lat="47.25969" lon="-1.7014">
        <ele>53.8</ele>
        <time>2013-03-02T10:26:17Z</time>
      </trkpt>
      <trkpt lat="47.25969" lon="-1.7014">
        <ele>53.6</ele>
        <time>2013-03-02T10:26:18Z</time>
      </trkpt>
      <trkpt lat="47.25969" lon="-1.7014">
        <ele>53.6</ele>
        <time>2013-03-02T10:26:19Z</time>
      </trkpt>
      <trkpt lat="47.25969" lon="-1.7014">
        <ele>53.6</ele>
        <time>2013-03-02T10:26:20Z</time>
      </trkpt>
      <trkpt lat="47.25969" lon="-1.7014">
        <ele>53.9</ele>
        <time>2013-03-02T10:26:21Z</time>
      </trkpt>
      <trkpt lat="47.25969" lon="-1.7014">
        <ele>54.2</ele>
        <time>2013-03-02T10:26:22Z</time>
      </trkpt>
      <trkpt lat="47.25969" lon="-1.7014">
        <ele>54.4</ele>
        <time>2013-03-02T10:26:23Z</time>
      </trkpt>
      <trkpt lat="47.25969" lon="-1.70141">
        <ele>54.4</ele>
        <time>2013-03-02T10:26:24Z</time>
      </trkpt>
      <trkpt lat="47.25969" lon="-1.70141">
        <ele>54.5</ele>
        <time>2013-03-02T10:26:25Z</time>
      </trkpt>
      <trkpt lat="47.25969" lon="-1.70142">
        <ele>54.6</ele>
        <time>2013-03-02T10:26:26Z</time>
      </trkpt>
      <trkpt lat="47.25969" lon="-1.70142">
        <ele>54.8</ele>
        <time>2013-03-02T10:26:27Z</time>
      </trkpt>
      <trkpt lat="47.25969" lon="-1.70142">
        <ele>54.8</ele>
        <time>2013-03-02T10:26:28Z</time>
      </trkpt>
      <trkpt lat="47.25969" lon="-1.70142">
        <ele>54.8</ele>
        <time>2013-03-02T10:26:29Z</time>
      </trkpt>
      <trkpt lat="47.25969" lon="-1.70142">
        <ele>54.8</ele>
        <time>2013-03-02T10:26:30Z</time>
      </trkpt>
      <trkpt lat="47.25969" lon="-1.70143">
        <ele>54.7</ele>
        <time>2013-03-02T10:26:31Z</time>
      </trkpt>
      <trkpt lat="47.25968" lon="-1.70143">
        <ele>54.6</ele>
        <time>2013-03-02T10:26:32Z</time>
      </trkpt>
      <trkpt lat="47.25968" lon="-1.70143">
        <ele>54.5</ele>
        <time>2013-03-02T10:26:33Z</time>
      </trkpt>
      <trkpt lat="47.25968" lon="-1.70143">
        <ele>54.5</ele>
        <time>2013-03-02T10:26:34Z</time>
      </trkpt>
      <trkpt lat="47.25968" lon="-1.70143">
        <ele>54.5</ele>
        <time>2013-03-02T10:26:35Z</time>
      </trkpt>
      <trkpt lat="47.25968" lon="-1.70143">
        <ele>54.3</ele>
        <time>2013-03-02T10:26:36Z</time>
      </trkpt>
      <trkpt lat="47.25967" lon="-1.70144">
        <ele>54.1</ele>
        <time>2013-03-02T10:26:39Z</time>
      </trkpt>
      <trkpt lat="47.25967" lon="-1.70144">
        <ele>54.3</ele>
        <time>2013-03-02T10:26:40Z</time>
      </trkpt>
      <trkpt lat="47.25967" lon="-1.70144">
        <ele>54.4</ele>
        <time>2013-03-02T10:26:41Z</time>
      </trkpt>
      <trkpt lat="47.25966" lon="-1.70144">
        <ele>54.6</ele>
        <time>2013-03-02T10:26:42Z</time>
      </trkpt>
      <trkpt lat="47.25966" lon="-1.70144">
        <ele>54.1</ele>
        <time>2013-03-02T10:26:43Z</time>
      </trkpt>
      <trkpt lat="47.25966" lon="-1.70145">
        <ele>53.8</ele>
        <time>2013-03-02T10:26:44Z</time>
      </trkpt>
      <trkpt lat="47.25965" lon="-1.70146">
        <ele>54.2</ele>
        <time>2013-03-02T10:26:45Z</time>
      </trkpt>
      <trkpt lat="47.25963" lon="-1.70148">
        <ele>54</ele>
        <time>2013-03-02T10:26:48Z</time>
      </trkpt>
      <trkpt lat="47.25962" lon="-1.70149">
        <ele>53.8</ele>
        <time>2013-03-02T10:26:49Z</time>
      </trkpt>
      <trkpt lat="47.25961" lon="-1.70151">
        <ele>53.7</ele>
        <time>2013-03-02T10:26:51Z</time>
      </trkpt>
      <trkpt lat="47.2596" lon="-1.70152">
        <ele>53.9</ele>
        <time>2013-03-02T10:26:52Z</time>
      </trkpt>
      <trkpt lat="47.25959" lon="-1.70153">
        <ele>54</ele>
        <time>2013-03-02T10:26:53Z</time>
      </trkpt>
      <trkpt lat="47.25958" lon="-1.70155">
        <ele>54.4</ele>
        <time>2013-03-02T10:26:55Z</time>
      </trkpt>
      <trkpt lat="47.25953" lon="-1.70158">
        <ele>54.6</ele>
        <time>2013-03-02T10:27:00Z</time>
      </trkpt>
      <trkpt lat="47.25951" lon="-1.70159">
        <ele>54.6</ele>
        <time>2013-03-02T10:27:02Z</time>
      </trkpt>
      <trkpt lat="47.2595" lon="-1.7016">
        <ele>54.6</ele>
        <time>2013-03-02T10:27:03Z</time>
      </trkpt>
      <trkpt lat="47.2595" lon="-1.7016">
        <ele>54.9</ele>
        <time>2013-03-02T10:27:05Z</time>
      </trkpt>
      <trkpt lat="47.2595" lon="-1.70161">
        <ele>54.8</ele>
        <time>2013-03-02T10:27:06Z</time>
      </trkpt>
      <trkpt lat="47.2595" lon="-1.70161">
        <ele>54.7</ele>
        <time>2013-03-02T10:27:07Z</time>
      </trkpt>
      <trkpt lat="47.2595" lon="-1.70161">
        <ele>54.7</ele>
        <time>2013-03-02T10:27:08Z</time>
      </trkpt>
      <trkpt lat="47.2595" lon="-1.70161">
        <ele>54.8</ele>
        <time>2013-03-02T10:27:09Z</time>
      </trkpt>
      <trkpt lat="47.2595" lon="-1.70161">
        <ele>54.9</ele>
        <time>2013-03-02T10:27:10Z</time>
      </trkpt>
      <trkpt lat="47.25949" lon="-1.70161">
        <ele>54.5</ele>
        <time>2013-03-02T10:27:11Z</time>
      </trkpt>
      <trkpt lat="47.25949" lon="-1.70162">
        <ele>54.2</ele>
        <time>2013-03-02T10:27:12Z</time>
      </trkpt>
      <trkpt lat="47.25949" lon="-1.70162">
        <ele>53.9</ele>
        <time>2013-03-02T10:27:13Z</time>
      </trkpt>
      <trkpt lat="47.25949" lon="-1.70162">
        <ele>54.2</ele>
        <time>2013-03-02T10:27:14Z</time>
      </trkpt>
      <trkpt lat="47.25949" lon="-1.70162">
        <ele>54.4</ele>
        <time>2013-03-02T10:27:15Z</time>
      </trkpt>
      <trkpt lat="47.25949" lon="-1.70162">
        <ele>54.6</ele>
        <time>2013-03-02T10:27:16Z</time>
      </trkpt>
      <trkpt lat="47.25949" lon="-1.70164">
        <ele>54.7</ele>
        <time>2013-03-02T10:27:17Z</time>
      </trkpt>
      <trkpt lat="47.25948" lon="-1.70165">
        <ele>54.8</ele>
        <time>2013-03-02T10:27:18Z</time>
      </trkpt>
      <trkpt lat="47.25947" lon="-1.70167">
        <ele>54.9</ele>
        <time>2013-03-02T10:27:19Z</time>
      </trkpt>
      <trkpt lat="47.25945" lon="-1.70168">
        <ele>55</ele>
        <time>2013-03-02T10:27:20Z</time>
      </trkpt>
      <trkpt lat="47.25944" lon="-1.70169">
        <ele>55</ele>
        <time>2013-03-02T10:27:21Z</time>
      </trkpt>
      <trkpt lat="47.25942" lon="-1.7017">
        <ele>54.9</ele>
        <time>2013-03-02T10:27:22Z</time>
      </trkpt>
      <trkpt lat="47.25934" lon="-1.70175">
        <ele>54.4</ele>
        <time>2013-03-02T10:27:26Z</time>
      </trkpt>
      <trkpt lat="47.25907" lon="-1.70194">
        <ele>55.9</ele>
        <time>2013-03-02T10:27:38Z</time>
      </trkpt>
      <trkpt lat="47.25904" lon="-1.70196">
        <ele>56.1</ele>
        <time>2013-03-02T10:27:39Z</time>
      </trkpt>
      <trkpt lat="47.25885" lon="-1.70211">
        <ele>56.3</ele>
        <time>2013-03-02T10:27:46Z</time>
      </trkpt>
      <trkpt lat="47.2588" lon="-1.70216">
        <ele>56.5</ele>
        <time>2013-03-02T10:27:48Z</time>
      </trkpt>
      <trkpt lat="47.25878" lon="-1.70218">
        <ele>56.9</ele>
        <time>2013-03-02T10:27:49Z</time>
      </trkpt>
      <trkpt lat="47.25876" lon="-1.70221">
        <ele>57.2</ele>
        <time>2013-03-02T10:27:50Z</time>
      </trkpt>
      <trkpt lat="47.25873" lon="-1.70224">
        <ele>57.5</ele>
        <time>2013-03-02T10:27:51Z</time>
      </trkpt>
      <trkpt lat="47.25834" lon="-1.70271">
        <ele>58.1</ele>
        <time>2013-03-02T10:28:08Z</time>
      </trkpt>
      <trkpt lat="47.25829" lon="-1.70276">
        <ele>58.1</ele>
        <time>2013-03-02T10:28:11Z</time>
      </trkpt>
      <trkpt lat="47.25813" lon="-1.70298">
        <ele>59.2</ele>
        <time>2013-03-02T10:28:21Z</time>
      </trkpt>
      <trkpt lat="47.25811" lon="-1.703">
        <ele>59.2</ele>
        <time>2013-03-02T10:28:22Z</time>
      </trkpt>
      <trkpt lat="47.2581" lon="-1.703">
        <ele>59.2</ele>
        <time>2013-03-02T10:28:23Z</time>
      </trkpt>
      <trkpt lat="47.25808" lon="-1.70298">
        <ele>59.1</ele>
        <time>2013-03-02T10:28:24Z</time>
      </trkpt>
      <trkpt lat="47.25807" lon="-1.70296">
        <ele>59.8</ele>
        <time>2013-03-02T10:28:25Z</time>
      </trkpt>
      <trkpt lat="47.25803" lon="-1.70287">
        <ele>60.2</ele>
        <time>2013-03-02T10:28:28Z</time>
      </trkpt>
      <trkpt lat="47.25797" lon="-1.70272">
        <ele>60.2</ele>
        <time>2013-03-02T10:28:32Z</time>
      </trkpt>
      <trkpt lat="47.25792" lon="-1.7026">
        <ele>60.8</ele>
        <time>2013-03-02T10:28:35Z</time>
      </trkpt>
      <trkpt lat="47.25784" lon="-1.70232">
        <ele>61.6</ele>
        <time>2013-03-02T10:28:42Z</time>
      </trkpt>
      <trkpt lat="47.25783" lon="-1.70228">
        <ele>61.8</ele>
        <time>2013-03-02T10:28:43Z</time>
      </trkpt>
      <trkpt lat="47.25769" lon="-1.70176">
        <ele>62.4</ele>
        <time>2013-03-02T10:28:55Z</time>
      </trkpt>
      <trkpt lat="47.25767" lon="-1.70165">
        <ele>62.8</ele>
        <time>2013-03-02T10:28:58Z</time>
      </trkpt>
      <trkpt lat="47.25763" lon="-1.70149">
        <ele>62.5</ele>
        <time>2013-03-02T10:29:02Z</time>
      </trkpt>
      <trkpt lat="47.25761" lon="-1.70143">
        <ele>63.2</ele>
        <time>2013-03-02T10:29:04Z</time>
      </trkpt>
      <trkpt lat="47.25756" lon="-1.7013">
        <ele>64.2</ele>
        <time>2013-03-02T10:29:08Z</time>
      </trkpt>
      <trkpt lat="47.25753" lon="-1.70116">
        <ele>65.9</ele>
        <time>2013-03-02T10:29:12Z</time>
      </trkpt>
      <trkpt lat="47.25751" lon="-1.70113">
        <ele>65.8</ele>
        <time>2013-03-02T10:29:13Z</time>
      </trkpt>
      <trkpt lat="47.25749" lon="-1.70107">
        <ele>65.9</ele>
        <time>2013-03-02T10:29:15Z</time>
      </trkpt>
      <trkpt lat="47.25748" lon="-1.70105">
        <ele>66.1</ele>
        <time>2013-03-02T10:29:16Z</time>
      </trkpt>
      <trkpt lat="47.25747" lon="-1.70102">
        <ele>66.1</ele>
        <time>2013-03-02T10:29:17Z</time>
      </trkpt>
      <trkpt lat="47.25746" lon="-1.70095">
        <ele>66.2</ele>
        <time>2013-03-02T10:29:19Z</time>
      </trkpt>
      <trkpt lat="47.25732" lon="-1.70045">
        <ele>66.7</ele>
        <time>2013-03-02T10:29:30Z</time>
      </trkpt>
      <trkpt lat="47.25679" lon="-1.69823">
        <ele>61.5</ele>
        <time>2013-03-02T10:30:05Z</time>
      </trkpt>
      <trkpt lat="47.25678" lon="-1.69816">
        <ele>61.4</ele>
        <time>2013-03-02T10:30:06Z</time>
      </trkpt>
      <trkpt lat="47.25667" lon="-1.69725">
        <ele>60.3</ele>
        <time>2013-03-02T10:30:17Z</time>
      </trkpt>
      <trkpt lat="47.25664" lon="-1.69717">
        <ele>60.1</ele>
        <time>2013-03-02T10:30:18Z</time>
      </trkpt>
      <trkpt lat="47.25662" lon="-1.69709">
        <ele>60.2</ele>
        <time>2013-03-02T10:30:19Z</time>
      </trkpt>
      <trkpt lat="47.25658" lon="-1.69702">
        <ele>60.3</ele>
        <time>2013-03-02T10:30:20Z</time>
      </trkpt>
      <trkpt lat="47.25653" lon="-1.69696">
        <ele>60.3</ele>
        <time>2013-03-02T10:30:21Z</time>
      </trkpt>
      <trkpt lat="47.25649" lon="-1.69692">
        <ele>60.2</ele>
        <time>2013-03-02T10:30:22Z</time>
      </trkpt>
      <trkpt lat="47.25644" lon="-1.69688">
        <ele>60</ele>
        <time>2013-03-02T10:30:23Z</time>
      </trkpt>
      <trkpt lat="47.25634" lon="-1.69683">
        <ele>59.5</ele>
        <time>2013-03-02T10:30:25Z</time>
      </trkpt>
      <trkpt lat="47.2562" lon="-1.69676">
        <ele>59.5</ele>
        <time>2013-03-02T10:30:28Z</time>
      </trkpt>
      <trkpt lat="47.25605" lon="-1.69671">
        <ele>60.1</ele>
        <time>2013-03-02T10:30:31Z</time>
      </trkpt>
      <trkpt lat="47.25593" lon="-1.69668">
        <ele>59.9</ele>
        <time>2013-03-02T10:30:37Z</time>
      </trkpt>
      <trkpt lat="47.25592" lon="-1.69668">
        <ele>60.3</ele>
        <time>2013-03-02T10:30:38Z</time>
      </trkpt>
      <trkpt lat="47.25592" lon="-1.69669">
        <ele>60.5</ele>
        <time>2013-03-02T10:30:39Z</time>
      </trkpt>
      <trkpt lat="47.25592" lon="-1.69669">
        <ele>60.7</ele>
        <time>2013-03-02T10:30:40Z</time>
      </trkpt>
      <trkpt lat="47.25593" lon="-1.69669">
        <ele>60.5</ele>
        <time>2013-03-02T10:30:41Z</time>
      </trkpt>
      <trkpt lat="47.25593" lon="-1.69669">
        <ele>60.3</ele>
        <time>2013-03-02T10:30:42Z</time>
      </trkpt>
      <trkpt lat="47.25594" lon="-1.69669">
        <ele>60</ele>
        <time>2013-03-02T10:30:43Z</time>
      </trkpt>
      <trkpt lat="47.25594" lon="-1.69669">
        <ele>59.8</ele>
        <time>2013-03-02T10:30:44Z</time>
      </trkpt>
      <trkpt lat="47.25596" lon="-1.6967">
        <ele>59.7</ele>
        <time>2013-03-02T10:30:45Z</time>
      </trkpt>
      <trkpt lat="47.25597" lon="-1.6967">
        <ele>59.7</ele>
        <time>2013-03-02T10:30:46Z</time>
      </trkpt>
      <trkpt lat="47.25599" lon="-1.6967">
        <ele>59.6</ele>
        <time>2013-03-02T10:30:47Z</time>
      </trkpt>
      <trkpt lat="47.256" lon="-1.69669">
        <ele>60.1</ele>
        <time>2013-03-02T10:30:48Z</time>
      </trkpt>
      <trkpt lat="47.25602" lon="-1.69668">
        <ele>60.5</ele>
        <time>2013-03-02T10:30:49Z</time>
      </trkpt>
      <trkpt lat="47.25603" lon="-1.69667">
        <ele>60.3</ele>
        <time>2013-03-02T10:30:50Z</time>
      </trkpt>
      <trkpt lat="47.25604" lon="-1.69666">
        <ele>60.1</ele>
        <time>2013-03-02T10:30:51Z</time>
      </trkpt>
      <trkpt lat="47.25609" lon="-1.69654">
        <ele>59.7</ele>
        <time>2013-03-02T10:30:57Z</time>
      </trkpt>
      <trkpt lat="47.25611" lon="-1.69652">
        <ele>59.8</ele>
        <time>2013-03-02T10:30:58Z</time>
      </trkpt>
      <trkpt lat="47.25614" lon="-1.69647">
        <ele>59.7</ele>
        <time>2013-03-02T10:31:00Z</time>
      </trkpt>
      <trkpt lat="47.25631" lon="-1.69612">
        <ele>59.1</ele>
        <time>2013-03-02T10:31:10Z</time>
      </trkpt>
      <trkpt lat="47.25632" lon="-1.69608">
        <ele>58.9</ele>
        <time>2013-03-02T10:31:11Z</time>
      </trkpt>
      <trkpt lat="47.25637" lon="-1.69595">
        <ele>58.9</ele>
        <time>2013-03-02T10:31:14Z</time>
      </trkpt>
      <trkpt lat="47.25649" lon="-1.69562">
        <ele>57.7</ele>
        <time>2013-03-02T10:31:21Z</time>
      </trkpt>
      <trkpt lat="47.25651" lon="-1.69557">
        <ele>57.7</ele>
        <time>2013-03-02T10:31:22Z</time>
      </trkpt>
      <trkpt lat="47.25674" lon="-1.69506">
        <ele>55.3</ele>
        <time>2013-03-02T10:31:31Z</time>
      </trkpt>
      <trkpt lat="47.25716" lon="-1.69414">
        <ele>51.8</ele>
        <time>2013-03-02T10:31:45Z</time>
      </trkpt>
      <trkpt lat="47.25719" lon="-1.6941">
        <ele>51.5</ele>
        <time>2013-03-02T10:31:46Z</time>
      </trkpt>
      <trkpt lat="47.25722" lon="-1.69406">
        <ele>51.8</ele>
        <time>2013-03-02T10:31:47Z</time>
      </trkpt>
      <trkpt lat="47.25724" lon="-1.69403">
        <ele>52.1</ele>
        <time>2013-03-02T10:31:48Z</time>
      </trkpt>
      <trkpt lat="47.25726" lon="-1.69401">
        <ele>52.2</ele>
        <time>2013-03-02T10:31:49Z</time>
      </trkpt>
      <trkpt lat="47.25729" lon="-1.694">
        <ele>52.7</ele>
        <time>2013-03-02T10:31:50Z</time>
      </trkpt>
      <trkpt lat="47.25732" lon="-1.694">
        <ele>53.1</ele>
        <time>2013-03-02T10:31:51Z</time>
      </trkpt>
      <trkpt lat="47.25734" lon="-1.69399">
        <ele>53.1</ele>
        <time>2013-03-02T10:31:52Z</time>
      </trkpt>
      <trkpt lat="47.25736" lon="-1.694">
        <ele>53.1</ele>
        <time>2013-03-02T10:31:53Z</time>
      </trkpt>
      <trkpt lat="47.25737" lon="-1.694">
        <ele>53.4</ele>
        <time>2013-03-02T10:31:54Z</time>
      </trkpt>
      <trkpt lat="47.25738" lon="-1.69401">
        <ele>53.7</ele>
        <time>2013-03-02T10:31:55Z</time>
      </trkpt>
      <trkpt lat="47.2574" lon="-1.69404">
        <ele>54.6</ele>
        <time>2013-03-02T10:31:57Z</time>
      </trkpt>
      <trkpt lat="47.25741" lon="-1.69406">
        <ele>55.2</ele>
        <time>2013-03-02T10:31:58Z</time>
      </trkpt>
      <trkpt lat="47.25748" lon="-1.69419">
        <ele>55.3</ele>
        <time>2013-03-02T10:32:07Z</time>
      </trkpt>
      <trkpt lat="47.25749" lon="-1.6942">
        <ele>55.2</ele>
        <time>2013-03-02T10:32:08Z</time>
      </trkpt>
      <trkpt lat="47.2575" lon="-1.69421">
        <ele>55.3</ele>
        <time>2013-03-02T10:32:09Z</time>
      </trkpt>
      <trkpt lat="47.25751" lon="-1.69421">
        <ele>55.3</ele>
        <time>2013-03-02T10:32:10Z</time>
      </trkpt>
      <trkpt lat="47.25752" lon="-1.6942">
        <ele>55.6</ele>
        <time>2013-03-02T10:32:11Z</time>
      </trkpt>
      <trkpt lat="47.25752" lon="-1.69419">
        <ele>55.8</ele>
        <time>2013-03-02T10:32:12Z</time>
      </trkpt>
      <trkpt lat="47.25752" lon="-1.69417">
        <ele>56</ele>
        <time>2013-03-02T10:32:13Z</time>
      </trkpt>
      <trkpt lat="47.25752" lon="-1.69416">
        <ele>55.5</ele>
        <time>2013-03-02T10:32:14Z</time>
      </trkpt>
      <trkpt lat="47.25748" lon="-1.69403">
        <ele>55.2</ele>
        <time>2013-03-02T10:32:21Z</time>
      </trkpt>
      <trkpt lat="47.25747" lon="-1.69401">
        <ele>54.7</ele>
        <time>2013-03-02T10:32:22Z</time>
      </trkpt>
      <trkpt lat="47.25746" lon="-1.69398">
        <ele>55</ele>
        <time>2013-03-02T10:32:23Z</time>
      </trkpt>
      <trkpt lat="47.25745" lon="-1.69397">
        <ele>55.3</ele>
        <time>2013-03-02T10:32:24Z</time>
      </trkpt>
      <trkpt lat="47.25744" lon="-1.69395">
        <ele>55.7</ele>
        <time>2013-03-02T10:32:25Z</time>
      </trkpt>
      <trkpt lat="47.25742" lon="-1.69394">
        <ele>56</ele>
        <time>2013-03-02T10:32:26Z</time>
      </trkpt>
      <trkpt lat="47.2574" lon="-1.69393">
        <ele>56.3</ele>
        <time>2013-03-02T10:32:27Z</time>
      </trkpt>
      <trkpt lat="47.25738" lon="-1.69393">
        <ele>55.8</ele>
        <time>2013-03-02T10:32:28Z</time>
      </trkpt>
      <trkpt lat="47.25735" lon="-1.69393">
        <ele>55.4</ele>
        <time>2013-03-02T10:32:29Z</time>
      </trkpt>
      <trkpt lat="47.25731" lon="-1.69395">
        <ele>55.2</ele>
        <time>2013-03-02T10:32:30Z</time>
      </trkpt>
      <trkpt lat="47.25727" lon="-1.69398">
        <ele>55</ele>
        <time>2013-03-02T10:32:31Z</time>
      </trkpt>
      <trkpt lat="47.25724" lon="-1.69404">
        <ele>54.9</ele>
        <time>2013-03-02T10:32:32Z</time>
      </trkpt>
      <trkpt lat="47.2571" lon="-1.69433">
        <ele>53</ele>
        <time>2013-03-02T10:32:36Z</time>
      </trkpt>
      <trkpt lat="47.25693" lon="-1.6947">
        <ele>51.8</ele>
        <time>2013-03-02T10:32:42Z</time>
      </trkpt>
      <trkpt lat="47.25645" lon="-1.69587">
        <ele>57</ele>
        <time>2013-03-02T10:33:06Z</time>
      </trkpt>
      <trkpt lat="47.25626" lon="-1.69624">
        <ele>58.8</ele>
        <time>2013-03-02T10:33:17Z</time>
      </trkpt>
      <trkpt lat="47.25624" lon="-1.69627">
        <ele>58.8</ele>
        <time>2013-03-02T10:33:18Z</time>
      </trkpt>
      <trkpt lat="47.25611" lon="-1.69653">
        <ele>59.8</ele>
        <time>2013-03-02T10:33:28Z</time>
      </trkpt>
      <trkpt lat="47.25609" lon="-1.69655">
        <ele>59.7</ele>
        <time>2013-03-02T10:33:29Z</time>
      </trkpt>
      <trkpt lat="47.25608" lon="-1.69656">
        <ele>59.8</ele>
        <time>2013-03-02T10:33:30Z</time>
      </trkpt>
      <trkpt lat="47.25606" lon="-1.69658">
        <ele>59.8</ele>
        <time>2013-03-02T10:33:31Z</time>
      </trkpt>
      <trkpt lat="47.25604" lon="-1.69658">
        <ele>59.8</ele>
        <time>2013-03-02T10:33:32Z</time>
      </trkpt>
      <trkpt lat="47.25602" lon="-1.69659">
        <ele>59.9</ele>
        <time>2013-03-02T10:33:33Z</time>
      </trkpt>
      <trkpt lat="47.256" lon="-1.69659">
        <ele>59.7</ele>
        <time>2013-03-02T10:33:34Z</time>
      </trkpt>
      <trkpt lat="47.25598" lon="-1.69659">
        <ele>59.6</ele>
        <time>2013-03-02T10:33:35Z</time>
      </trkpt>
      <trkpt lat="47.25595" lon="-1.69659">
        <ele>59.5</ele>
        <time>2013-03-02T10:33:36Z</time>
      </trkpt>
      <trkpt lat="47.25566" lon="-1.69655">
        <ele>58.7</ele>
        <time>2013-03-02T10:33:46Z</time>
      </trkpt>
      <trkpt lat="47.25524" lon="-1.6965">
        <ele>56.5</ele>
        <time>2013-03-02T10:33:58Z</time>
      </trkpt>
      <trkpt lat="47.25521" lon="-1.69648">
        <ele>55.9</ele>
        <time>2013-03-02T10:33:59Z</time>
      </trkpt>
      <trkpt lat="47.25496" lon="-1.69637">
        <ele>53.3</ele>
        <time>2013-03-02T10:34:06Z</time>
      </trkpt>
      <trkpt lat="47.25346" lon="-1.69565">
        <ele>59.3</ele>
        <time>2013-03-02T10:34:48Z</time>
      </trkpt>
      <trkpt lat="47.25343" lon="-1.69563">
        <ele>59.6</ele>
        <time>2013-03-02T10:34:49Z</time>
      </trkpt>
      <trkpt lat="47.25308" lon="-1.69537">
        <ele>60.2</ele>
        <time>2013-03-02T10:35:01Z</time>
      </trkpt>
      <trkpt lat="47.25302" lon="-1.69531">
        <ele>60.6</ele>
        <time>2013-03-02T10:35:03Z</time>
      </trkpt>
      <trkpt lat="47.253" lon="-1.69528">
        <ele>60.8</ele>
        <time>2013-03-02T10:35:04Z</time>
      </trkpt>
      <trkpt lat="47.25297" lon="-1.69524">
        <ele>60.9</ele>
        <time>2013-03-02T10:35:05Z</time>
      </trkpt>
      <trkpt lat="47.25295" lon="-1.69521">
        <ele>61</ele>
        <time>2013-03-02T10:35:06Z</time>
      </trkpt>
      <trkpt lat="47.25294" lon="-1.69517">
        <ele>60.6</ele>
        <time>2013-03-02T10:35:07Z</time>
      </trkpt>
      <trkpt lat="47.25292" lon="-1.69513">
        <ele>60.3</ele>
        <time>2013-03-02T10:35:08Z</time>
      </trkpt>
      <trkpt lat="47.25292" lon="-1.6951">
        <ele>60.4</ele>
        <time>2013-03-02T10:35:09Z</time>
      </trkpt>
      <trkpt lat="47.25291" lon="-1.69507">
        <ele>60.5</ele>
        <time>2013-03-02T10:35:10Z</time>
      </trkpt>
      <trkpt lat="47.2529" lon="-1.695">
        <ele>60.6</ele>
        <time>2013-03-02T10:35:12Z</time>
      </trkpt>
      <trkpt lat="47.25291" lon="-1.69497">
        <ele>60.6</ele>
        <time>2013-03-02T10:35:13Z</time>
      </trkpt>
      <trkpt lat="47.25291" lon="-1.69494">
        <ele>60.6</ele>
        <time>2013-03-02T10:35:14Z</time>
      </trkpt>
      <trkpt lat="47.25309" lon="-1.69351">
        <ele>59.1</ele>
        <time>2013-03-02T10:35:42Z</time>
      </trkpt>
      <trkpt lat="47.2531" lon="-1.69338">
        <ele>59.1</ele>
        <time>2013-03-02T10:35:44Z</time>
      </trkpt>
      <trkpt lat="47.2531" lon="-1.69317">
        <ele>59.7</ele>
        <time>2013-03-02T10:35:47Z</time>
      </trkpt>
      <trkpt lat="47.2531" lon="-1.6931">
        <ele>59.6</ele>
        <time>2013-03-02T10:35:48Z</time>
      </trkpt>
      <trkpt lat="47.25305" lon="-1.69264">
        <ele>58.9</ele>
        <time>2013-03-02T10:35:55Z</time>
      </trkpt>
      <trkpt lat="47.25304" lon="-1.69258">
        <ele>58.9</ele>
        <time>2013-03-02T10:35:56Z</time>
      </trkpt>
      <trkpt lat="47.25284" lon="-1.69135">
        <ele>55.3</ele>
        <time>2013-03-02T10:36:16Z</time>
      </trkpt>
      <trkpt lat="47.25283" lon="-1.69131">
        <ele>55.2</ele>
        <time>2013-03-02T10:36:17Z</time>
      </trkpt>
      <trkpt lat="47.25281" lon="-1.69127">
        <ele>55.6</ele>
        <time>2013-03-02T10:36:19Z</time>
      </trkpt>
      <trkpt lat="47.2528" lon="-1.69124">
        <ele>55.8</ele>
        <time>2013-03-02T10:36:20Z</time>
      </trkpt>
      <trkpt lat="47.25278" lon="-1.69122">
        <ele>55.7</ele>
        <time>2013-03-02T10:36:21Z</time>
      </trkpt>
      <trkpt lat="47.25276" lon="-1.6912">
        <ele>55.7</ele>
        <time>2013-03-02T10:36:22Z</time>
      </trkpt>
      <trkpt lat="47.25272" lon="-1.69116">
        <ele>55.4</ele>
        <time>2013-03-02T10:36:24Z</time>
      </trkpt>
      <trkpt lat="47.2527" lon="-1.69113">
        <ele>55.3</ele>
        <time>2013-03-02T10:36:25Z</time>
      </trkpt>
      <trkpt lat="47.25268" lon="-1.6911">
        <ele>55.3</ele>
        <time>2013-03-02T10:36:26Z</time>
      </trkpt>
      <trkpt lat="47.25267" lon="-1.69106">
        <ele>55.3</ele>
        <time>2013-03-02T10:36:27Z</time>
      </trkpt>
      <trkpt lat="47.25267" lon="-1.69103">
        <ele>55</ele>
        <time>2013-03-02T10:36:28Z</time>
      </trkpt>
      <trkpt lat="47.25266" lon="-1.69094">
        <ele>54.3</ele>
        <time>2013-03-02T10:36:30Z</time>
      </trkpt>
      <trkpt lat="47.25265" lon="-1.69081">
        <ele>53</ele>
        <time>2013-03-02T10:36:33Z</time>
      </trkpt>
      <trkpt lat="47.25266" lon="-1.69069">
        <ele>52.9</ele>
        <time>2013-03-02T10:36:36Z</time>
      </trkpt>
      <trkpt lat="47.25266" lon="-1.69065">
        <ele>53.3</ele>
        <time>2013-03-02T10:36:37Z</time>
      </trkpt>
      <trkpt lat="47.25268" lon="-1.69044">
        <ele>54.2</ele>
        <time>2013-03-02T10:36:42Z</time>
      </trkpt>
      <trkpt lat="47.25267" lon="-1.6904">
        <ele>54.3</ele>
        <time>2013-03-02T10:36:43Z</time>
      </trkpt>
      <trkpt lat="47.25267" lon="-1.69037">
        <ele>53.9</ele>
        <time>2013-03-02T10:36:44Z</time>
      </trkpt>
      <trkpt lat="47.25265" lon="-1.69034">
        <ele>53.6</ele>
        <time>2013-03-02T10:36:45Z</time>
      </trkpt>
      <trkpt lat="47.25264" lon="-1.69031">
        <ele>53.4</ele>
        <time>2013-03-02T10:36:46Z</time>
      </trkpt>
      <trkpt lat="47.25262" lon="-1.69028">
        <ele>53.2</ele>
        <time>2013-03-02T10:36:47Z</time>
      </trkpt>
      <trkpt lat="47.25259" lon="-1.69025">
        <ele>53.1</ele>
        <time>2013-03-02T10:36:48Z</time>
      </trkpt>
      <trkpt lat="47.25257" lon="-1.69022">
        <ele>53.4</ele>
        <time>2013-03-02T10:36:49Z</time>
      </trkpt>
      <trkpt lat="47.25254" lon="-1.69021">
        <ele>53.6</ele>
        <time>2013-03-02T10:36:50Z</time>
      </trkpt>
      <trkpt lat="47.25252" lon="-1.69019">
        <ele>53.6</ele>
        <time>2013-03-02T10:36:51Z</time>
      </trkpt>
      <trkpt lat="47.25233" lon="-1.69007">
        <ele>54.2</ele>
        <time>2013-03-02T10:36:58Z</time>
      </trkpt>
      <trkpt lat="47.2523" lon="-1.69005">
        <ele>54.3</ele>
        <time>2013-03-02T10:36:59Z</time>
      </trkpt>
      <trkpt lat="47.25191" lon="-1.68978">
        <ele>56.1</ele>
        <time>2013-03-02T10:37:15Z</time>
      </trkpt>
      <trkpt lat="47.25189" lon="-1.68977">
        <ele>56</ele>
        <time>2013-03-02T10:37:16Z</time>
      </trkpt>
      <trkpt lat="47.25187" lon="-1.68977">
        <ele>56</ele>
        <time>2013-03-02T10:37:17Z</time>
      </trkpt>
      <trkpt lat="47.25185" lon="-1.68976">
        <ele>56.1</ele>
        <time>2013-03-02T10:37:18Z</time>
      </trkpt>
      <trkpt lat="47.25183" lon="-1.68975">
        <ele>56.3</ele>
        <time>2013-03-02T10:37:19Z</time>
      </trkpt>
      <trkpt lat="47.25182" lon="-1.68974">
        <ele>55.9</ele>
        <time>2013-03-02T10:37:20Z</time>
      </trkpt>
      <trkpt lat="47.25179" lon="-1.6897">
        <ele>55.9</ele>
        <time>2013-03-02T10:37:22Z</time>
      </trkpt>
      <trkpt lat="47.25178" lon="-1.68968">
        <ele>56.2</ele>
        <time>2013-03-02T10:37:23Z</time>
      </trkpt>
      <trkpt lat="47.25175" lon="-1.68963">
        <ele>56.7</ele>
        <time>2013-03-02T10:37:25Z</time>
      </trkpt>
      <trkpt lat="47.25174" lon="-1.6896">
        <ele>56.9</ele>
        <time>2013-03-02T10:37:26Z</time>
      </trkpt>
      <trkpt lat="47.25172" lon="-1.68953">
        <ele>56.8</ele>
        <time>2013-03-02T10:37:29Z</time>
      </trkpt>
      <trkpt lat="47.25172" lon="-1.6895">
        <ele>56.9</ele>
        <time>2013-03-02T10:37:30Z</time>
      </trkpt>
      <trkpt lat="47.2517" lon="-1.68943">
        <ele>56.6</ele>
        <time>2013-03-02T10:37:33Z</time>
      </trkpt>
      <trkpt lat="47.2517" lon="-1.68942">
        <ele>56.2</ele>
        <time>2013-03-02T10:37:34Z</time>
      </trkpt>
      <trkpt lat="47.2517" lon="-1.6894">
        <ele>55.9</ele>
        <time>2013-03-02T10:37:35Z</time>
      </trkpt>
      <trkpt lat="47.25169" lon="-1.68939">
        <ele>55.6</ele>
        <time>2013-03-02T10:37:36Z</time>
      </trkpt>
      <trkpt lat="47.25168" lon="-1.68938">
        <ele>56.1</ele>
        <time>2013-03-02T10:37:37Z</time>
      </trkpt>
      <trkpt lat="47.25168" lon="-1.68935">
        <ele>56.4</ele>
        <time>2013-03-02T10:37:38Z</time>
      </trkpt>
      <trkpt lat="47.25168" lon="-1.68932">
        <ele>56.3</ele>
        <time>2013-03-02T10:37:39Z</time>
      </trkpt>
      <trkpt lat="47.25168" lon="-1.6893">
        <ele>56.1</ele>
        <time>2013-03-02T10:37:40Z</time>
      </trkpt>
      <trkpt lat="47.25168" lon="-1.68927">
        <ele>56.4</ele>
        <time>2013-03-02T10:37:41Z</time>
      </trkpt>
      <trkpt lat="47.25168" lon="-1.6892">
        <ele>57.3</ele>
        <time>2013-03-02T10:37:44Z</time>
      </trkpt>
      <trkpt lat="47.25168" lon="-1.68894">
        <ele>58.3</ele>
        <time>2013-03-02T10:37:54Z</time>
      </trkpt>
      <trkpt lat="47.25168" lon="-1.68892">
        <ele>58.5</ele>
        <time>2013-03-02T10:37:55Z</time>
      </trkpt>
      <trkpt lat="47.25168" lon="-1.6889">
        <ele>59</ele>
        <time>2013-03-02T10:37:56Z</time>
      </trkpt>
      <trkpt lat="47.25167" lon="-1.68889">
        <ele>59.4</ele>
        <time>2013-03-02T10:37:57Z</time>
      </trkpt>
      <trkpt lat="47.25167" lon="-1.68885">
        <ele>59.9</ele>
        <time>2013-03-02T10:37:59Z</time>
      </trkpt>
      <trkpt lat="47.25167" lon="-1.68883">
        <ele>60.2</ele>
        <time>2013-03-02T10:38:00Z</time>
      </trkpt>
      <trkpt lat="47.25167" lon="-1.68874">
        <ele>60.5</ele>
        <time>2013-03-02T10:38:04Z</time>
      </trkpt>
      <trkpt lat="47.25168" lon="-1.68844">
        <ele>61.5</ele>
        <time>2013-03-02T10:38:17Z</time>
      </trkpt>
      <trkpt lat="47.25168" lon="-1.68842">
        <ele>61.5</ele>
        <time>2013-03-02T10:38:18Z</time>
      </trkpt>
      <trkpt lat="47.25168" lon="-1.68838">
        <ele>61.8</ele>
        <time>2013-03-02T10:38:20Z</time>
      </trkpt>
      <trkpt lat="47.25168" lon="-1.68834">
        <ele>62.1</ele>
        <time>2013-03-02T10:38:22Z</time>
      </trkpt>
      <trkpt lat="47.25168" lon="-1.68832">
        <ele>62.2</ele>
        <time>2013-03-02T10:38:23Z</time>
      </trkpt>
      <trkpt lat="47.25168" lon="-1.6883">
        <ele>63.1</ele>
        <time>2013-03-02T10:38:24Z</time>
      </trkpt>
      <trkpt lat="47.25168" lon="-1.68828">
        <ele>63.8</ele>
        <time>2013-03-02T10:38:25Z</time>
      </trkpt>
      <trkpt lat="47.25168" lon="-1.68823">
        <ele>63.6</ele>
        <time>2013-03-02T10:38:27Z</time>
      </trkpt>
      <trkpt lat="47.25168" lon="-1.68821">
        <ele>63.5</ele>
        <time>2013-03-02T10:38:28Z</time>
      </trkpt>
      <trkpt lat="47.25167" lon="-1.68816">
        <ele>63.6</ele>
        <time>2013-03-02T10:38:30Z</time>
      </trkpt>
      <trkpt lat="47.25168" lon="-1.68814">
        <ele>63.9</ele>
        <time>2013-03-02T10:38:31Z</time>
      </trkpt>
      <trkpt lat="47.25168" lon="-1.6881">
        <ele>64.1</ele>
        <time>2013-03-02T10:38:33Z</time>
      </trkpt>
      <trkpt lat="47.25168" lon="-1.68808">
        <ele>63.4</ele>
        <time>2013-03-02T10:38:34Z</time>
      </trkpt>
      <trkpt lat="47.25168" lon="-1.68802">
        <ele>64.5</ele>
        <time>2013-03-02T10:38:37Z</time>
      </trkpt>
      <trkpt lat="47.25168" lon="-1.6879">
        <ele>63.9</ele>
        <time>2013-03-02T10:38:42Z</time>
      </trkpt>
      <trkpt lat="47.25168" lon="-1.68785">
        <ele>64.1</ele>
        <time>2013-03-02T10:38:44Z</time>
      </trkpt>
      <trkpt lat="47.25168" lon="-1.6878">
        <ele>64.6</ele>
        <time>2013-03-02T10:38:46Z</time>
      </trkpt>
      <trkpt lat="47.25169" lon="-1.68778">
        <ele>64.7</ele>
        <time>2013-03-02T10:38:47Z</time>
      </trkpt>
      <trkpt lat="47.25169" lon="-1.68775">
        <ele>65.2</ele>
        <time>2013-03-02T10:38:48Z</time>
      </trkpt>
      <trkpt lat="47.25169" lon="-1.68766">
        <ele>66.3</ele>
        <time>2013-03-02T10:38:52Z</time>
      </trkpt>
      <trkpt lat="47.25169" lon="-1.68763">
        <ele>66.7</ele>
        <time>2013-03-02T10:38:54Z</time>
      </trkpt>
      <trkpt lat="47.25169" lon="-1.68762">
        <ele>66.4</ele>
        <time>2013-03-02T10:38:55Z</time>
      </trkpt>
      <trkpt lat="47.2517" lon="-1.68762">
        <ele>66.1</ele>
        <time>2013-03-02T10:38:56Z</time>
      </trkpt>
      <trkpt lat="47.2517" lon="-1.68762">
        <ele>65.8</ele>
        <time>2013-03-02T10:38:57Z</time>
      </trkpt>
      <trkpt lat="47.2517" lon="-1.68762">
        <ele>65.6</ele>
        <time>2013-03-02T10:38:58Z</time>
      </trkpt>
      <trkpt lat="47.2517" lon="-1.68762">
        <ele>65.4</ele>
        <time>2013-03-02T10:38:59Z</time>
      </trkpt>
      <trkpt lat="47.2517" lon="-1.68762">
        <ele>64.3</ele>
        <time>2013-03-02T10:39:00Z</time>
      </trkpt>
      <trkpt lat="47.2517" lon="-1.68761">
        <ele>63.6</ele>
        <time>2013-03-02T10:39:01Z</time>
      </trkpt>
      <trkpt lat="47.25169" lon="-1.68761">
        <ele>64.3</ele>
        <time>2013-03-02T10:39:02Z</time>
      </trkpt>
      <trkpt lat="47.25169" lon="-1.68761">
        <ele>64.8</ele>
        <time>2013-03-02T10:39:03Z</time>
      </trkpt>
      <trkpt lat="47.25169" lon="-1.68761">
        <ele>65.1</ele>
        <time>2013-03-02T10:39:04Z</time>
      </trkpt>
      <trkpt lat="47.25169" lon="-1.68761">
        <ele>65.3</ele>
        <time>2013-03-02T10:39:05Z</time>
      </trkpt>
      <trkpt lat="47.25169" lon="-1.68761">
        <ele>65.5</ele>
        <time>2013-03-02T10:39:06Z</time>
      </trkpt>
      <trkpt lat="47.25169" lon="-1.6876">
        <ele>66.5</ele>
        <time>2013-03-02T10:39:07Z</time>
      </trkpt>
      <trkpt lat="47.25169" lon="-1.6876">
        <ele>67.2</ele>
        <time>2013-03-02T10:39:08Z</time>
      </trkpt>
      <trkpt lat="47.25169" lon="-1.6876">
        <ele>66</ele>
        <time>2013-03-02T10:39:09Z</time>
      </trkpt>
      <trkpt lat="47.25169" lon="-1.6876">
        <ele>65.2</ele>
        <time>2013-03-02T10:39:10Z</time>
      </trkpt>
      <trkpt lat="47.25169" lon="-1.6876">
        <ele>66.1</ele>
        <time>2013-03-02T10:39:11Z</time>
      </trkpt>
      <trkpt lat="47.25169" lon="-1.6876">
        <ele>66.7</ele>
        <time>2013-03-02T10:39:12Z</time>
      </trkpt>
      <trkpt lat="47.25169" lon="-1.6876">
        <ele>67.2</ele>
        <time>2013-03-02T10:39:13Z</time>
      </trkpt>
      <trkpt lat="47.25169" lon="-1.68759">
        <ele>67.1</ele>
        <time>2013-03-02T10:39:14Z</time>
      </trkpt>
      <trkpt lat="47.25169" lon="-1.68759">
        <ele>67</ele>
        <time>2013-03-02T10:39:15Z</time>
      </trkpt>
      <trkpt lat="47.25169" lon="-1.68759">
        <ele>66.2</ele>
        <time>2013-03-02T10:39:16Z</time>
      </trkpt>
      <trkpt lat="47.25169" lon="-1.68759">
        <ele>65.6</ele>
        <time>2013-03-02T10:39:17Z</time>
      </trkpt>
      <trkpt lat="47.25169" lon="-1.68759">
        <ele>65.2</ele>
        <time>2013-03-02T10:39:18Z</time>
      </trkpt>
      <trkpt lat="47.25169" lon="-1.68759">
        <ele>65</ele>
        <time>2013-03-02T10:39:19Z</time>
      </trkpt>
      <trkpt lat="47.25169" lon="-1.68759">
        <ele>64.8</ele>
        <time>2013-03-02T10:39:20Z</time>
      </trkpt>
      <trkpt lat="47.25169" lon="-1.68759">
        <ele>66.1</ele>
        <time>2013-03-02T10:39:21Z</time>
      </trkpt>
      <trkpt lat="47.25169" lon="-1.68759">
        <ele>67</ele>
        <time>2013-03-02T10:39:22Z</time>
      </trkpt>
      <trkpt lat="47.25169" lon="-1.68759">
        <ele>67.1</ele>
        <time>2013-03-02T10:39:23Z</time>
      </trkpt>
      <trkpt lat="47.25169" lon="-1.68758">
        <ele>67.1</ele>
        <time>2013-03-02T10:39:24Z</time>
      </trkpt>
      <trkpt lat="47.25169" lon="-1.68758">
        <ele>67.1</ele>
        <time>2013-03-02T10:39:25Z</time>
      </trkpt>
      <trkpt lat="47.25169" lon="-1.68758">
        <ele>66.9</ele>
        <time>2013-03-02T10:39:26Z</time>
      </trkpt>
      <trkpt lat="47.25169" lon="-1.68758">
        <ele>66.7</ele>
        <time>2013-03-02T10:39:27Z</time>
      </trkpt>
      <trkpt lat="47.25169" lon="-1.68758">
        <ele>67.5</ele>
        <time>2013-03-02T10:39:28Z</time>
      </trkpt>
      <trkpt lat="47.25169" lon="-1.68758">
        <ele>68.1</ele>
        <time>2013-03-02T10:39:29Z</time>
      </trkpt>
      <trkpt lat="47.25169" lon="-1.68758">
        <ele>68.1</ele>
        <time>2013-03-02T10:39:30Z</time>
      </trkpt>
      <trkpt lat="47.25169" lon="-1.68758">
        <ele>68.1</ele>
        <time>2013-03-02T10:39:31Z</time>
      </trkpt>
      <trkpt lat="47.25169" lon="-1.68758">
        <ele>68.1</ele>
        <time>2013-03-02T10:39:32Z</time>
      </trkpt>
      <trkpt lat="47.25169" lon="-1.68758">
        <ele>67.8</ele>
        <time>2013-03-02T10:39:33Z</time>
      </trkpt>
      <trkpt lat="47.25169" lon="-1.68758">
        <ele>67.6</ele>
        <time>2013-03-02T10:39:34Z</time>
      </trkpt>
      <trkpt lat="47.25169" lon="-1.68758">
        <ele>67.4</ele>
        <time>2013-03-02T10:39:35Z</time>
      </trkpt>
      <trkpt lat="47.25169" lon="-1.68758">
        <ele>67.2</ele>
        <time>2013-03-02T10:39:36Z</time>
      </trkpt>
      <trkpt lat="47.25169" lon="-1.68757">
        <ele>67.1</ele>
        <time>2013-03-02T10:39:37Z</time>
      </trkpt>
      <trkpt lat="47.25169" lon="-1.68757">
        <ele>66.6</ele>
        <time>2013-03-02T10:39:38Z</time>
      </trkpt>
      <trkpt lat="47.25169" lon="-1.68757">
        <ele>66.2</ele>
        <time>2013-03-02T10:39:39Z</time>
      </trkpt>
      <trkpt lat="47.25169" lon="-1.68757">
        <ele>66.4</ele>
        <time>2013-03-02T10:39:40Z</time>
      </trkpt>
      <trkpt lat="47.25169" lon="-1.68757">
        <ele>66.6</ele>
        <time>2013-03-02T10:39:41Z</time>
      </trkpt>
      <trkpt lat="47.25169" lon="-1.68757">
        <ele>66.7</ele>
        <time>2013-03-02T10:39:42Z</time>
      </trkpt>
      <trkpt lat="47.25169" lon="-1.68757">
        <ele>66.7</ele>
        <time>2013-03-02T10:39:43Z</time>
      </trkpt>
      <trkpt lat="47.25169" lon="-1.68757">
        <ele>66.8</ele>
        <time>2013-03-02T10:39:44Z</time>
      </trkpt>
      <trkpt lat="47.25169" lon="-1.68757">
        <ele>66.5</ele>
        <time>2013-03-02T10:39:45Z</time>
      </trkpt>
      <trkpt lat="47.25169" lon="-1.68757">
        <ele>66.3</ele>
        <time>2013-03-02T10:39:46Z</time>
      </trkpt>
      <trkpt lat="47.25169" lon="-1.68757">
        <ele>66.5</ele>
        <time>2013-03-02T10:39:47Z</time>
      </trkpt>
      <trkpt lat="47.25168" lon="-1.68757">
        <ele>66.6</ele>
        <time>2013-03-02T10:39:48Z</time>
      </trkpt>
      <trkpt lat="47.25168" lon="-1.68757">
        <ele>66.4</ele>
        <time>2013-03-02T10:39:49Z</time>
      </trkpt>
      <trkpt lat="47.25168" lon="-1.68757">
        <ele>66.2</ele>
        <time>2013-03-02T10:39:50Z</time>
      </trkpt>
      <trkpt lat="47.25168" lon="-1.68757">
        <ele>66.1</ele>
        <time>2013-03-02T10:39:51Z</time>
      </trkpt>
      <trkpt lat="47.25168" lon="-1.68757">
        <ele>65.9</ele>
        <time>2013-03-02T10:39:52Z</time>
      </trkpt>
      <trkpt lat="47.25168" lon="-1.68757">
        <ele>65.8</ele>
        <time>2013-03-02T10:39:53Z</time>
      </trkpt>
      <trkpt lat="47.25168" lon="-1.68757">
        <ele>66</ele>
        <time>2013-03-02T10:39:54Z</time>
      </trkpt>
      <trkpt lat="47.25168" lon="-1.68756">
        <ele>66.3</ele>
        <time>2013-03-02T10:39:55Z</time>
      </trkpt>
      <trkpt lat="47.25168" lon="-1.68756">
        <ele>66.4</ele>
        <time>2013-03-02T10:39:56Z</time>
      </trkpt>
      <trkpt lat="47.25168" lon="-1.68756">
        <ele>66.2</ele>
        <time>2013-03-02T10:39:57Z</time>
      </trkpt>
      <trkpt lat="47.25168" lon="-1.68756">
        <ele>66.1</ele>
        <time>2013-03-02T10:39:58Z</time>
      </trkpt>
      <trkpt lat="47.25168" lon="-1.68756">
        <ele>65.6</ele>
        <time>2013-03-02T10:39:59Z</time>
      </trkpt>
      <trkpt lat="47.25168" lon="-1.68756">
        <ele>65.3</ele>
        <time>2013-03-02T10:40:00Z</time>
      </trkpt>
      <trkpt lat="47.25168" lon="-1.68756">
        <ele>65.4</ele>
        <time>2013-03-02T10:40:01Z</time>
      </trkpt>
      <trkpt lat="47.25168" lon="-1.68756">
        <ele>65.5</ele>
        <time>2013-03-02T10:40:02Z</time>
      </trkpt>
      <trkpt lat="47.25168" lon="-1.68756">
        <ele>65.6</ele>
        <time>2013-03-02T10:40:03Z</time>
      </trkpt>
      <trkpt lat="47.25168" lon="-1.68756">
        <ele>66.1</ele>
        <time>2013-03-02T10:40:04Z</time>
      </trkpt>
      <trkpt lat="47.25167" lon="-1.68756">
        <ele>66.5</ele>
        <time>2013-03-02T10:40:05Z</time>
      </trkpt>
      <trkpt lat="47.25167" lon="-1.68756">
        <ele>66.6</ele>
        <time>2013-03-02T10:40:06Z</time>
      </trkpt>
      <trkpt lat="47.25167" lon="-1.68756">
        <ele>66.7</ele>
        <time>2013-03-02T10:40:07Z</time>
      </trkpt>
      <trkpt lat="47.25167" lon="-1.68755">
        <ele>66.6</ele>
        <time>2013-03-02T10:40:08Z</time>
      </trkpt>
      <trkpt lat="47.25167" lon="-1.68755">
        <ele>66.6</ele>
        <time>2013-03-02T10:40:09Z</time>
      </trkpt>
      <trkpt lat="47.25168" lon="-1.68755">
        <ele>66.5</ele>
        <time>2013-03-02T10:40:10Z</time>
      </trkpt>
      <trkpt lat="47.25168" lon="-1.68755">
        <ele>66.6</ele>
        <time>2013-03-02T10:40:11Z</time>
      </trkpt>
      <trkpt lat="47.25169" lon="-1.68754">
        <ele>66.7</ele>
        <time>2013-03-02T10:40:12Z</time>
      </trkpt>
      <trkpt lat="47.2517" lon="-1.68754">
        <ele>66.7</ele>
        <time>2013-03-02T10:40:13Z</time>
      </trkpt>
      <trkpt lat="47.25171" lon="-1.68755">
        <ele>66.8</ele>
        <time>2013-03-02T10:40:14Z</time>
      </trkpt>
      <trkpt lat="47.25186" lon="-1.68762">
        <ele>66.9</ele>
        <time>2013-03-02T10:40:23Z</time>
      </trkpt>
      <trkpt lat="47.25205" lon="-1.6877">
        <ele>66.5</ele>
        <time>2013-03-02T10:40:31Z</time>
      </trkpt>
      <trkpt lat="47.25209" lon="-1.68771">
        <ele>66.5</ele>
        <time>2013-03-02T10:40:32Z</time>
      </trkpt>
      <trkpt lat="47.25212" lon="-1.68772">
        <ele>66.6</ele>
        <time>2013-03-02T10:40:33Z</time>
      </trkpt>
      <trkpt lat="47.25215" lon="-1.68772">
        <ele>66.3</ele>
        <time>2013-03-02T10:40:34Z</time>
      </trkpt>
      <trkpt lat="47.25219" lon="-1.68772">
        <ele>66</ele>
        <time>2013-03-02T10:40:35Z</time>
      </trkpt>
      <trkpt lat="47.25237" lon="-1.68771">
        <ele>64.8</ele>
        <time>2013-03-02T10:40:39Z</time>
      </trkpt>
      <trkpt lat="47.25243" lon="-1.68771">
        <ele>64.5</ele>
        <time>2013-03-02T10:40:40Z</time>
      </trkpt>
      <trkpt lat="47.25285" lon="-1.68779">
        <ele>61.8</ele>
        <time>2013-03-02T10:40:47Z</time>
      </trkpt>
      <trkpt lat="47.253" lon="-1.68784">
        <ele>60.6</ele>
        <time>2013-03-02T10:40:49Z</time>
      </trkpt>
      <trkpt lat="47.25308" lon="-1.68787">
        <ele>59.9</ele>
        <time>2013-03-02T10:40:50Z</time>
      </trkpt>
      <trkpt lat="47.2534" lon="-1.688">
        <ele>57.8</ele>
        <time>2013-03-02T10:40:54Z</time>
      </trkpt>
      <trkpt lat="47.25349" lon="-1.68802">
        <ele>57.5</ele>
        <time>2013-03-02T10:40:55Z</time>
      </trkpt>
      <trkpt lat="47.25365" lon="-1.68804">
        <ele>56.7</ele>
        <time>2013-03-02T10:40:57Z</time>
      </trkpt>
      <trkpt lat="47.25373" lon="-1.68803">
        <ele>56</ele>
        <time>2013-03-02T10:40:58Z</time>
      </trkpt>
      <trkpt lat="47.2538" lon="-1.68801">
        <ele>55.5</ele>
        <time>2013-03-02T10:40:59Z</time>
      </trkpt>
      <trkpt lat="47.25408" lon="-1.6879">
        <ele>53</ele>
        <time>2013-03-02T10:41:04Z</time>
      </trkpt>
      <trkpt lat="47.25413" lon="-1.68787">
        <ele>52.8</ele>
        <time>2013-03-02T10:41:05Z</time>
      </trkpt>
      <trkpt lat="47.25418" lon="-1.68783">
        <ele>52.6</ele>
        <time>2013-03-02T10:41:06Z</time>
      </trkpt>
      <trkpt lat="47.25421" lon="-1.68778">
        <ele>52.4</ele>
        <time>2013-03-02T10:41:07Z</time>
      </trkpt>
      <trkpt lat="47.25424" lon="-1.68771">
        <ele>52.1</ele>
        <time>2013-03-02T10:41:08Z</time>
      </trkpt>
      <trkpt lat="47.25426" lon="-1.68764">
        <ele>51.8</ele>
        <time>2013-03-02T10:41:09Z</time>
      </trkpt>
      <trkpt lat="47.25431" lon="-1.68745">
        <ele>51</ele>
        <time>2013-03-02T10:41:12Z</time>
      </trkpt>
      <trkpt lat="47.25432" lon="-1.68739">
        <ele>49.4</ele>
        <time>2013-03-02T10:41:13Z</time>
      </trkpt>
      <trkpt lat="47.25433" lon="-1.68728">
        <ele>50</ele>
        <time>2013-03-02T10:41:15Z</time>
      </trkpt>
      <trkpt lat="47.25433" lon="-1.68722">
        <ele>51.4</ele>
        <time>2013-03-02T10:41:16Z</time>
      </trkpt>
      <trkpt lat="47.25433" lon="-1.68717">
        <ele>51.5</ele>
        <time>2013-03-02T10:41:17Z</time>
      </trkpt>
      <trkpt lat="47.25432" lon="-1.68712">
        <ele>51.7</ele>
        <time>2013-03-02T10:41:18Z</time>
      </trkpt>
      <trkpt lat="47.2543" lon="-1.68708">
        <ele>51.7</ele>
        <time>2013-03-02T10:41:19Z</time>
      </trkpt>
      <trkpt lat="47.25428" lon="-1.68704">
        <ele>51.4</ele>
        <time>2013-03-02T10:41:20Z</time>
      </trkpt>
      <trkpt lat="47.25425" lon="-1.68701">
        <ele>51.1</ele>
        <time>2013-03-02T10:41:21Z</time>
      </trkpt>
      <trkpt lat="47.25408" lon="-1.68682">
        <ele>51.6</ele>
        <time>2013-03-02T10:41:27Z</time>
      </trkpt>
      <trkpt lat="47.25406" lon="-1.68679">
        <ele>52</ele>
        <time>2013-03-02T10:41:28Z</time>
      </trkpt>
      <trkpt lat="47.25404" lon="-1.68674">
        <ele>51.8</ele>
        <time>2013-03-02T10:41:29Z</time>
      </trkpt>
      <trkpt lat="47.25402" lon="-1.6867">
        <ele>51.7</ele>
        <time>2013-03-02T10:41:30Z</time>
      </trkpt>
      <trkpt lat="47.254" lon="-1.6866">
        <ele>51.2</ele>
        <time>2013-03-02T10:41:32Z</time>
      </trkpt>
      <trkpt lat="47.25399" lon="-1.68656">
        <ele>50.9</ele>
        <time>2013-03-02T10:41:33Z</time>
      </trkpt>
      <trkpt lat="47.25397" lon="-1.68647">
        <ele>50.6</ele>
        <time>2013-03-02T10:41:35Z</time>
      </trkpt>
      <trkpt lat="47.25395" lon="-1.68629">
        <ele>51.5</ele>
        <time>2013-03-02T10:41:39Z</time>
      </trkpt>
      <trkpt lat="47.25381" lon="-1.68491">
        <ele>53.3</ele>
        <time>2013-03-02T10:42:03Z</time>
      </trkpt>
      <trkpt lat="47.2538" lon="-1.68485">
        <ele>53.6</ele>
        <time>2013-03-02T10:42:04Z</time>
      </trkpt>
      <trkpt lat="47.25376" lon="-1.68473">
        <ele>52.9</ele>
        <time>2013-03-02T10:42:06Z</time>
      </trkpt>
      <trkpt lat="47.25374" lon="-1.68467">
        <ele>52.7</ele>
        <time>2013-03-02T10:42:07Z</time>
      </trkpt>
      <trkpt lat="47.25367" lon="-1.68449">
        <ele>52.3</ele>
        <time>2013-03-02T10:42:10Z</time>
      </trkpt>
      <trkpt lat="47.25358" lon="-1.68433">
        <ele>51.6</ele>
        <time>2013-03-02T10:42:13Z</time>
      </trkpt>
      <trkpt lat="47.25329" lon="-1.68388">
        <ele>51.3</ele>
        <time>2013-03-02T10:42:22Z</time>
      </trkpt>
      <trkpt lat="47.25306" lon="-1.68352">
        <ele>51</ele>
        <time>2013-03-02T10:42:30Z</time>
      </trkpt>
      <trkpt lat="47.25304" lon="-1.68347">
        <ele>51.2</ele>
        <time>2013-03-02T10:42:31Z</time>
      </trkpt>
      <trkpt lat="47.253" lon="-1.68338">
        <ele>51.6</ele>
        <time>2013-03-02T10:42:33Z</time>
      </trkpt>
      <trkpt lat="47.25298" lon="-1.68332">
        <ele>51.8</ele>
        <time>2013-03-02T10:42:34Z</time>
      </trkpt>
      <trkpt lat="47.25297" lon="-1.68327">
        <ele>51.9</ele>
        <time>2013-03-02T10:42:35Z</time>
      </trkpt>
      <trkpt lat="47.25296" lon="-1.68321">
        <ele>51.6</ele>
        <time>2013-03-02T10:42:36Z</time>
      </trkpt>
      <trkpt lat="47.25295" lon="-1.68315">
        <ele>51.4</ele>
        <time>2013-03-02T10:42:37Z</time>
      </trkpt>
      <trkpt lat="47.25295" lon="-1.68309">
        <ele>51.4</ele>
        <time>2013-03-02T10:42:38Z</time>
      </trkpt>
      <trkpt lat="47.25295" lon="-1.68302">
        <ele>51.4</ele>
        <time>2013-03-02T10:42:39Z</time>
      </trkpt>
      <trkpt lat="47.25298" lon="-1.68276">
        <ele>52.5</ele>
        <time>2013-03-02T10:42:43Z</time>
      </trkpt>
      <trkpt lat="47.25307" lon="-1.68209">
        <ele>52.5</ele>
        <time>2013-03-02T10:42:54Z</time>
      </trkpt>
      <trkpt lat="47.25307" lon="-1.68203">
        <ele>52.3</ele>
        <time>2013-03-02T10:42:55Z</time>
      </trkpt>
      <trkpt lat="47.25306" lon="-1.68196">
        <ele>52.3</ele>
        <time>2013-03-02T10:42:56Z</time>
      </trkpt>
      <trkpt lat="47.25305" lon="-1.6819">
        <ele>52.1</ele>
        <time>2013-03-02T10:42:57Z</time>
      </trkpt>
      <trkpt lat="47.25303" lon="-1.68177">
        <ele>52</ele>
        <time>2013-03-02T10:42:59Z</time>
      </trkpt>
      <trkpt lat="47.25302" lon="-1.68171">
        <ele>52.1</ele>
        <time>2013-03-02T10:43:00Z</time>
      </trkpt>
      <trkpt lat="47.253" lon="-1.68165">
        <ele>52.1</ele>
        <time>2013-03-02T10:43:01Z</time>
      </trkpt>
      <trkpt lat="47.2529" lon="-1.68143">
        <ele>52.5</ele>
        <time>2013-03-02T10:43:05Z</time>
      </trkpt>
      <trkpt lat="47.25284" lon="-1.68133">
        <ele>52.9</ele>
        <time>2013-03-02T10:43:07Z</time>
      </trkpt>
      <trkpt lat="47.25281" lon="-1.68128">
        <ele>53</ele>
        <time>2013-03-02T10:43:08Z</time>
      </trkpt>
      <trkpt lat="47.25224" lon="-1.6804">
        <ele>53</ele>
        <time>2013-03-02T10:43:28Z</time>
      </trkpt>
      <trkpt lat="47.25222" lon="-1.68035">
        <ele>53</ele>
        <time>2013-03-02T10:43:29Z</time>
      </trkpt>
      <trkpt lat="47.25213" lon="-1.68013">
        <ele>51.7</ele>
        <time>2013-03-02T10:43:33Z</time>
      </trkpt>
      <trkpt lat="47.25211" lon="-1.68008">
        <ele>51.5</ele>
        <time>2013-03-02T10:43:34Z</time>
      </trkpt>
      <trkpt lat="47.25209" lon="-1.67995">
        <ele>51.8</ele>
        <time>2013-03-02T10:43:36Z</time>
      </trkpt>
      <trkpt lat="47.25207" lon="-1.67984">
        <ele>51.7</ele>
        <time>2013-03-02T10:43:38Z</time>
      </trkpt>
      <trkpt lat="47.25207" lon="-1.67977">
        <ele>51.7</ele>
        <time>2013-03-02T10:43:39Z</time>
      </trkpt>
      <trkpt lat="47.25207" lon="-1.67933">
        <ele>52.1</ele>
        <time>2013-03-02T10:43:45Z</time>
      </trkpt>
      <trkpt lat="47.25209" lon="-1.67918">
        <ele>51.7</ele>
        <time>2013-03-02T10:43:47Z</time>
      </trkpt>
      <trkpt lat="47.2521" lon="-1.67911">
        <ele>51.4</ele>
        <time>2013-03-02T10:43:48Z</time>
      </trkpt>
      <trkpt lat="47.25211" lon="-1.6789">
        <ele>50.8</ele>
        <time>2013-03-02T10:43:51Z</time>
      </trkpt>
      <trkpt lat="47.25213" lon="-1.67884">
        <ele>50.6</ele>
        <time>2013-03-02T10:43:52Z</time>
      </trkpt>
      <trkpt lat="47.25222" lon="-1.67851">
        <ele>50.1</ele>
        <time>2013-03-02T10:43:57Z</time>
      </trkpt>
      <trkpt lat="47.25225" lon="-1.67846">
        <ele>50</ele>
        <time>2013-03-02T10:43:58Z</time>
      </trkpt>
      <trkpt lat="47.25228" lon="-1.67841">
        <ele>49.8</ele>
        <time>2013-03-02T10:43:59Z</time>
      </trkpt>
      <trkpt lat="47.25231" lon="-1.67837">
        <ele>49.6</ele>
        <time>2013-03-02T10:44:00Z</time>
      </trkpt>
      <trkpt lat="47.25243" lon="-1.67822">
        <ele>49.4</ele>
        <time>2013-03-02T10:44:04Z</time>
      </trkpt>
      <trkpt lat="47.25273" lon="-1.67791">
        <ele>49.3</ele>
        <time>2013-03-02T10:44:12Z</time>
      </trkpt>
      <trkpt lat="47.25278" lon="-1.67787">
        <ele>49.4</ele>
        <time>2013-03-02T10:44:13Z</time>
      </trkpt>
      <trkpt lat="47.25312" lon="-1.6775">
        <ele>47.6</ele>
        <time>2013-03-02T10:44:21Z</time>
      </trkpt>
      <trkpt lat="47.25315" lon="-1.67743">
        <ele>47.3</ele>
        <time>2013-03-02T10:44:22Z</time>
      </trkpt>
      <trkpt lat="47.25317" lon="-1.67735">
        <ele>47.1</ele>
        <time>2013-03-02T10:44:23Z</time>
      </trkpt>
      <trkpt lat="47.25318" lon="-1.67727">
        <ele>46.9</ele>
        <time>2013-03-02T10:44:24Z</time>
      </trkpt>
      <trkpt lat="47.25319" lon="-1.67718">
        <ele>47.1</ele>
        <time>2013-03-02T10:44:25Z</time>
      </trkpt>
      <trkpt lat="47.25318" lon="-1.6771">
        <ele>47.2</ele>
        <time>2013-03-02T10:44:26Z</time>
      </trkpt>
      <trkpt lat="47.25316" lon="-1.67702">
        <ele>47.3</ele>
        <time>2013-03-02T10:44:27Z</time>
      </trkpt>
      <trkpt lat="47.25311" lon="-1.6768">
        <ele>47.1</ele>
        <time>2013-03-02T10:44:30Z</time>
      </trkpt>
      <trkpt lat="47.25286" lon="-1.67601">
        <ele>45.8</ele>
        <time>2013-03-02T10:44:42Z</time>
      </trkpt>
      <trkpt lat="47.25286" lon="-1.67595">
        <ele>45.7</ele>
        <time>2013-03-02T10:44:43Z</time>
      </trkpt>
      <trkpt lat="47.25288" lon="-1.6759">
        <ele>45.6</ele>
        <time>2013-03-02T10:44:44Z</time>
      </trkpt>
      <trkpt lat="47.25291" lon="-1.67586">
        <ele>45.4</ele>
        <time>2013-03-02T10:44:45Z</time>
      </trkpt>
      <trkpt lat="47.25327" lon="-1.67549">
        <ele>44.4</ele>
        <time>2013-03-02T10:44:54Z</time>
      </trkpt>
      <trkpt lat="47.25331" lon="-1.67543">
        <ele>44.4</ele>
        <time>2013-03-02T10:44:55Z</time>
      </trkpt>
      <trkpt lat="47.25333" lon="-1.67536">
        <ele>44.2</ele>
        <time>2013-03-02T10:44:56Z</time>
      </trkpt>
      <trkpt lat="47.25335" lon="-1.67528">
        <ele>44</ele>
        <time>2013-03-02T10:44:57Z</time>
      </trkpt>
      <trkpt lat="47.25335" lon="-1.67519">
        <ele>43.7</ele>
        <time>2013-03-02T10:44:58Z</time>
      </trkpt>
      <trkpt lat="47.25336" lon="-1.67495">
        <ele>43.3</ele>
        <time>2013-03-02T10:45:01Z</time>
      </trkpt>
      <trkpt lat="47.25337" lon="-1.67487">
        <ele>43.2</ele>
        <time>2013-03-02T10:45:02Z</time>
      </trkpt>
      <trkpt lat="47.25339" lon="-1.67479">
        <ele>43.1</ele>
        <time>2013-03-02T10:45:03Z</time>
      </trkpt>
      <trkpt lat="47.25346" lon="-1.67463">
        <ele>42.7</ele>
        <time>2013-03-02T10:45:05Z</time>
      </trkpt>
      <trkpt lat="47.25359" lon="-1.67434">
        <ele>41.9</ele>
        <time>2013-03-02T10:45:09Z</time>
      </trkpt>
      <trkpt lat="47.25362" lon="-1.67428">
        <ele>41.6</ele>
        <time>2013-03-02T10:45:10Z</time>
      </trkpt>
      <trkpt lat="47.25373" lon="-1.6741">
        <ele>40.9</ele>
        <time>2013-03-02T10:45:13Z</time>
      </trkpt>
      <trkpt lat="47.25375" lon="-1.67404">
        <ele>40.8</ele>
        <time>2013-03-02T10:45:14Z</time>
      </trkpt>
      <trkpt lat="47.25376" lon="-1.67397">
        <ele>40.9</ele>
        <time>2013-03-02T10:45:15Z</time>
      </trkpt>
      <trkpt lat="47.25376" lon="-1.6739">
        <ele>40.9</ele>
        <time>2013-03-02T10:45:16Z</time>
      </trkpt>
      <trkpt lat="47.25376" lon="-1.67384">
        <ele>40.9</ele>
        <time>2013-03-02T10:45:17Z</time>
      </trkpt>
      <trkpt lat="47.25373" lon="-1.67365">
        <ele>41</ele>
        <time>2013-03-02T10:45:20Z</time>
      </trkpt>
      <trkpt lat="47.25368" lon="-1.67333">
        <ele>42.8</ele>
        <time>2013-03-02T10:45:26Z</time>
      </trkpt>
      <trkpt lat="47.25366" lon="-1.67318">
        <ele>43.4</ele>
        <time>2013-03-02T10:45:29Z</time>
      </trkpt>
      <trkpt lat="47.25365" lon="-1.67308">
        <ele>43.6</ele>
        <time>2013-03-02T10:45:31Z</time>
      </trkpt>
      <trkpt lat="47.25361" lon="-1.67277">
        <ele>45.4</ele>
        <time>2013-03-02T10:45:37Z</time>
      </trkpt>
      <trkpt lat="47.25348" lon="-1.67121">
        <ele>48.4</ele>
        <time>2013-03-02T10:46:07Z</time>
      </trkpt>
      <trkpt lat="47.25343" lon="-1.67044">
        <ele>48.8</ele>
        <time>2013-03-02T10:46:20Z</time>
      </trkpt>
      <trkpt lat="47.25344" lon="-1.67038">
        <ele>48.8</ele>
        <time>2013-03-02T10:46:21Z</time>
      </trkpt>
      <trkpt lat="47.25344" lon="-1.6702">
        <ele>48.6</ele>
        <time>2013-03-02T10:46:24Z</time>
      </trkpt>
      <trkpt lat="47.25344" lon="-1.66994">
        <ele>48.1</ele>
        <time>2013-03-02T10:46:29Z</time>
      </trkpt>
      <trkpt lat="47.25343" lon="-1.66989">
        <ele>48</ele>
        <time>2013-03-02T10:46:30Z</time>
      </trkpt>
      <trkpt lat="47.25342" lon="-1.66985">
        <ele>48.2</ele>
        <time>2013-03-02T10:46:31Z</time>
      </trkpt>
      <trkpt lat="47.2534" lon="-1.66978">
        <ele>48.8</ele>
        <time>2013-03-02T10:46:33Z</time>
      </trkpt>
      <trkpt lat="47.25339" lon="-1.66974">
        <ele>49.1</ele>
        <time>2013-03-02T10:46:34Z</time>
      </trkpt>
      <trkpt lat="47.25339" lon="-1.66971">
        <ele>48.9</ele>
        <time>2013-03-02T10:46:35Z</time>
      </trkpt>
      <trkpt lat="47.2534" lon="-1.66962">
        <ele>48.6</ele>
        <time>2013-03-02T10:46:38Z</time>
      </trkpt>
      <trkpt lat="47.25339" lon="-1.66958">
        <ele>48.7</ele>
        <time>2013-03-02T10:46:39Z</time>
      </trkpt>
      <trkpt lat="47.25339" lon="-1.66952">
        <ele>48.5</ele>
        <time>2013-03-02T10:46:41Z</time>
      </trkpt>
      <trkpt lat="47.25339" lon="-1.66949">
        <ele>48.7</ele>
        <time>2013-03-02T10:46:42Z</time>
      </trkpt>
      <trkpt lat="47.25339" lon="-1.66931">
        <ele>48.9</ele>
        <time>2013-03-02T10:46:47Z</time>
      </trkpt>
      <trkpt lat="47.25338" lon="-1.66928">
        <ele>48.8</ele>
        <time>2013-03-02T10:46:48Z</time>
      </trkpt>
      <trkpt lat="47.25337" lon="-1.66922">
        <ele>48.5</ele>
        <time>2013-03-02T10:46:50Z</time>
      </trkpt>
      <trkpt lat="47.25337" lon="-1.66919">
        <ele>48.4</ele>
        <time>2013-03-02T10:46:51Z</time>
      </trkpt>
      <trkpt lat="47.25337" lon="-1.66873">
        <ele>48.8</ele>
        <time>2013-03-02T10:47:06Z</time>
      </trkpt>
      <trkpt lat="47.25336" lon="-1.66851">
        <ele>48.4</ele>
        <time>2013-03-02T10:47:12Z</time>
      </trkpt>
      <trkpt lat="47.25336" lon="-1.6685">
        <ele>48.2</ele>
        <time>2013-03-02T10:47:13Z</time>
      </trkpt>
      <trkpt lat="47.25336" lon="-1.6685">
        <ele>48.2</ele>
        <time>2013-03-02T10:47:14Z</time>
      </trkpt>
      <trkpt lat="47.25336" lon="-1.6685">
        <ele>48.1</ele>
        <time>2013-03-02T10:47:15Z</time>
      </trkpt>
      <trkpt lat="47.25336" lon="-1.66849">
        <ele>48.4</ele>
        <time>2013-03-02T10:47:16Z</time>
      </trkpt>
      <trkpt lat="47.25336" lon="-1.66849">
        <ele>48.6</ele>
        <time>2013-03-02T10:47:17Z</time>
      </trkpt>
      <trkpt lat="47.25336" lon="-1.66848">
        <ele>47.9</ele>
        <time>2013-03-02T10:47:19Z</time>
      </trkpt>
      <trkpt lat="47.25336" lon="-1.66848">
        <ele>47.6</ele>
        <time>2013-03-02T10:47:20Z</time>
      </trkpt>
      <trkpt lat="47.25336" lon="-1.66848">
        <ele>47.3</ele>
        <time>2013-03-02T10:47:21Z</time>
      </trkpt>
      <trkpt lat="47.25336" lon="-1.66848">
        <ele>47.1</ele>
        <time>2013-03-02T10:47:22Z</time>
      </trkpt>
      <trkpt lat="47.25336" lon="-1.66848">
        <ele>46.1</ele>
        <time>2013-03-02T10:47:23Z</time>
      </trkpt>
      <trkpt lat="47.25335" lon="-1.66848">
        <ele>45.3</ele>
        <time>2013-03-02T10:47:24Z</time>
      </trkpt>
      <trkpt lat="47.25335" lon="-1.66847">
        <ele>45.7</ele>
        <time>2013-03-02T10:47:25Z</time>
      </trkpt>
      <trkpt lat="47.25335" lon="-1.66847">
        <ele>46</ele>
        <time>2013-03-02T10:47:26Z</time>
      </trkpt>
      <trkpt lat="47.25335" lon="-1.66847">
        <ele>46.8</ele>
        <time>2013-03-02T10:47:27Z</time>
      </trkpt>
      <trkpt lat="47.25335" lon="-1.66847">
        <ele>47.3</ele>
        <time>2013-03-02T10:47:28Z</time>
      </trkpt>
      <trkpt lat="47.25335" lon="-1.66847">
        <ele>47.7</ele>
        <time>2013-03-02T10:47:29Z</time>
      </trkpt>
      <trkpt lat="47.25335" lon="-1.66847">
        <ele>47.2</ele>
        <time>2013-03-02T10:47:30Z</time>
      </trkpt>
      <trkpt lat="47.25335" lon="-1.66847">
        <ele>46.8</ele>
        <time>2013-03-02T10:47:31Z</time>
      </trkpt>
      <trkpt lat="47.25335" lon="-1.66847">
        <ele>49.2</ele>
        <time>2013-03-02T10:47:32Z</time>
      </trkpt>
      <trkpt lat="47.25335" lon="-1.66847">
        <ele>50.9</ele>
        <time>2013-03-02T10:47:33Z</time>
      </trkpt>
      <trkpt lat="47.25335" lon="-1.66847">
        <ele>52.2</ele>
        <time>2013-03-02T10:47:34Z</time>
      </trkpt>
      <trkpt lat="47.25334" lon="-1.66846">
        <ele>51.7</ele>
        <time>2013-03-02T10:47:35Z</time>
      </trkpt>
      <trkpt lat="47.25334" lon="-1.66846">
        <ele>51.3</ele>
        <time>2013-03-02T10:47:36Z</time>
      </trkpt>
      <trkpt lat="47.25334" lon="-1.66846">
        <ele>50.4</ele>
        <time>2013-03-02T10:47:37Z</time>
      </trkpt>
      <trkpt lat="47.25334" lon="-1.66846">
        <ele>49.8</ele>
        <time>2013-03-02T10:47:38Z</time>
      </trkpt>
      <trkpt lat="47.25334" lon="-1.66846">
        <ele>49.6</ele>
        <time>2013-03-02T10:47:39Z</time>
      </trkpt>
      <trkpt lat="47.25334" lon="-1.66846">
        <ele>49.4</ele>
        <time>2013-03-02T10:47:40Z</time>
      </trkpt>
      <trkpt lat="47.25334" lon="-1.66846">
        <ele>49.3</ele>
        <time>2013-03-02T10:47:41Z</time>
      </trkpt>
      <trkpt lat="47.25334" lon="-1.66846">
        <ele>48.4</ele>
        <time>2013-03-02T10:47:42Z</time>
      </trkpt>
      <trkpt lat="47.25335" lon="-1.66845">
        <ele>47.8</ele>
        <time>2013-03-02T10:47:43Z</time>
      </trkpt>
      <trkpt lat="47.25335" lon="-1.66844">
        <ele>48.2</ele>
        <time>2013-03-02T10:47:44Z</time>
      </trkpt>
      <trkpt lat="47.25335" lon="-1.66842">
        <ele>48.5</ele>
        <time>2013-03-02T10:47:45Z</time>
      </trkpt>
      <trkpt lat="47.25336" lon="-1.66781">
        <ele>48.2</ele>
        <time>2013-03-02T10:47:58Z</time>
      </trkpt>
      <trkpt lat="47.25334" lon="-1.666">
        <ele>44.3</ele>
        <time>2013-03-02T10:48:26Z</time>
      </trkpt>
      <trkpt lat="47.25334" lon="-1.66593">
        <ele>44.5</ele>
        <time>2013-03-02T10:48:27Z</time>
      </trkpt>
      <trkpt lat="47.25326" lon="-1.66482">
        <ele>40.3</ele>
        <time>2013-03-02T10:48:43Z</time>
      </trkpt>
      <trkpt lat="47.25327" lon="-1.66477">
        <ele>40.2</ele>
        <time>2013-03-02T10:48:44Z</time>
      </trkpt>
      <trkpt lat="47.25327" lon="-1.66472">
        <ele>40.2</ele>
        <time>2013-03-02T10:48:45Z</time>
      </trkpt>
      <trkpt lat="47.25327" lon="-1.66467">
        <ele>40</ele>
        <time>2013-03-02T10:48:46Z</time>
      </trkpt>
      <trkpt lat="47.25325" lon="-1.66342">
        <ele>44.1</ele>
        <time>2013-03-02T10:49:12Z</time>
      </trkpt>
      <trkpt lat="47.2532" lon="-1.66217">
        <ele>43.1</ele>
        <time>2013-03-02T10:49:37Z</time>
      </trkpt>
      <trkpt lat="47.2532" lon="-1.66213">
        <ele>43.2</ele>
        <time>2013-03-02T10:49:38Z</time>
      </trkpt>
      <trkpt lat="47.2532" lon="-1.66155">
        <ele>44.3</ele>
        <time>2013-03-02T10:49:52Z</time>
      </trkpt>
      <trkpt lat="47.2532" lon="-1.6615">
        <ele>44.4</ele>
        <time>2013-03-02T10:49:53Z</time>
      </trkpt>
      <trkpt lat="47.25322" lon="-1.66135">
        <ele>44.9</ele>
        <time>2013-03-02T10:49:57Z</time>
      </trkpt>
      <trkpt lat="47.25323" lon="-1.66121">
        <ele>44.7</ele>
        <time>2013-03-02T10:50:00Z</time>
      </trkpt>
      <trkpt lat="47.25323" lon="-1.66116">
        <ele>44.6</ele>
        <time>2013-03-02T10:50:01Z</time>
      </trkpt>
      <trkpt lat="47.25322" lon="-1.66104">
        <ele>45.2</ele>
        <time>2013-03-02T10:50:04Z</time>
      </trkpt>
      <trkpt lat="47.25321" lon="-1.661">
        <ele>45.6</ele>
        <time>2013-03-02T10:50:05Z</time>
      </trkpt>
      <trkpt lat="47.25321" lon="-1.66096">
        <ele>45.9</ele>
        <time>2013-03-02T10:50:06Z</time>
      </trkpt>
      <trkpt lat="47.25319" lon="-1.66093">
        <ele>45.7</ele>
        <time>2013-03-02T10:50:07Z</time>
      </trkpt>
      <trkpt lat="47.25312" lon="-1.66077">
        <ele>46.4</ele>
        <time>2013-03-02T10:50:12Z</time>
      </trkpt>
      <trkpt lat="47.2531" lon="-1.66074">
        <ele>46.5</ele>
        <time>2013-03-02T10:50:13Z</time>
      </trkpt>
      <trkpt lat="47.25306" lon="-1.66068">
        <ele>46.4</ele>
        <time>2013-03-02T10:50:15Z</time>
      </trkpt>
      <trkpt lat="47.25305" lon="-1.66064">
        <ele>46.3</ele>
        <time>2013-03-02T10:50:16Z</time>
      </trkpt>
      <trkpt lat="47.25279" lon="-1.66013">
        <ele>46.4</ele>
        <time>2013-03-02T10:50:30Z</time>
      </trkpt>
      <trkpt lat="47.25277" lon="-1.66011">
        <ele>46.4</ele>
        <time>2013-03-02T10:50:31Z</time>
      </trkpt>
      <trkpt lat="47.25275" lon="-1.66009">
        <ele>46.4</ele>
        <time>2013-03-02T10:50:32Z</time>
      </trkpt>
      <trkpt lat="47.25274" lon="-1.66006">
        <ele>46.4</ele>
        <time>2013-03-02T10:50:33Z</time>
      </trkpt>
      <trkpt lat="47.25273" lon="-1.66002">
        <ele>46.5</ele>
        <time>2013-03-02T10:50:34Z</time>
      </trkpt>
      <trkpt lat="47.2527" lon="-1.65994">
        <ele>45.9</ele>
        <time>2013-03-02T10:50:36Z</time>
      </trkpt>
      <trkpt lat="47.25268" lon="-1.65991">
        <ele>45.7</ele>
        <time>2013-03-02T10:50:37Z</time>
      </trkpt>
      <trkpt lat="47.25266" lon="-1.65987">
        <ele>45.5</ele>
        <time>2013-03-02T10:50:38Z</time>
      </trkpt>
      <trkpt lat="47.25264" lon="-1.65982">
        <ele>45.4</ele>
        <time>2013-03-02T10:50:39Z</time>
      </trkpt>
      <trkpt lat="47.25248" lon="-1.65942">
        <ele>46.6</ele>
        <time>2013-03-02T10:50:48Z</time>
      </trkpt>
      <trkpt lat="47.25245" lon="-1.65932">
        <ele>46</ele>
        <time>2013-03-02T10:50:50Z</time>
      </trkpt>
      <trkpt lat="47.25222" lon="-1.65853">
        <ele>44.7</ele>
        <time>2013-03-02T10:51:05Z</time>
      </trkpt>
      <trkpt lat="47.25208" lon="-1.6581">
        <ele>43.6</ele>
        <time>2013-03-02T10:51:13Z</time>
      </trkpt>
      <trkpt lat="47.25203" lon="-1.65793">
        <ele>43.3</ele>
        <time>2013-03-02T10:51:16Z</time>
      </trkpt>
      <trkpt lat="47.25196" lon="-1.65765">
        <ele>42.2</ele>
        <time>2013-03-02T10:51:21Z</time>
      </trkpt>
      <trkpt lat="47.25189" lon="-1.65733">
        <ele>42.5</ele>
        <time>2013-03-02T10:51:27Z</time>
      </trkpt>
      <trkpt lat="47.25188" lon="-1.65728">
        <ele>42.3</ele>
        <time>2013-03-02T10:51:28Z</time>
      </trkpt>
      <trkpt lat="47.25186" lon="-1.65723">
        <ele>42.3</ele>
        <time>2013-03-02T10:51:29Z</time>
      </trkpt>
      <trkpt lat="47.25183" lon="-1.65718">
        <ele>41.8</ele>
        <time>2013-03-02T10:51:30Z</time>
      </trkpt>
      <trkpt lat="47.25179" lon="-1.65715">
        <ele>41.5</ele>
        <time>2013-03-02T10:51:31Z</time>
      </trkpt>
      <trkpt lat="47.25175" lon="-1.65714">
        <ele>41</ele>
        <time>2013-03-02T10:51:32Z</time>
      </trkpt>
      <trkpt lat="47.2511" lon="-1.65689">
        <ele>38.5</ele>
        <time>2013-03-02T10:51:43Z</time>
      </trkpt>
      <trkpt lat="47.25102" lon="-1.65686">
        <ele>38</ele>
        <time>2013-03-02T10:51:44Z</time>
      </trkpt>
      <trkpt lat="47.25089" lon="-1.65678">
        <ele>37.1</ele>
        <time>2013-03-02T10:51:46Z</time>
      </trkpt>
      <trkpt lat="47.25083" lon="-1.65673">
        <ele>36.7</ele>
        <time>2013-03-02T10:51:47Z</time>
      </trkpt>
      <trkpt lat="47.25079" lon="-1.65666">
        <ele>36.4</ele>
        <time>2013-03-02T10:51:48Z</time>
      </trkpt>
      <trkpt lat="47.25075" lon="-1.65658">
        <ele>35.6</ele>
        <time>2013-03-02T10:51:49Z</time>
      </trkpt>
      <trkpt lat="47.25074" lon="-1.65649">
        <ele>35</ele>
        <time>2013-03-02T10:51:50Z</time>
      </trkpt>
      <trkpt lat="47.25073" lon="-1.65639">
        <ele>34.3</ele>
        <time>2013-03-02T10:51:51Z</time>
      </trkpt>
      <trkpt lat="47.25074" lon="-1.6563">
        <ele>33.8</ele>
        <time>2013-03-02T10:51:52Z</time>
      </trkpt>
      <trkpt lat="47.25081" lon="-1.65587">
        <ele>32.6</ele>
        <time>2013-03-02T10:51:57Z</time>
      </trkpt>
      <trkpt lat="47.25083" lon="-1.6558">
        <ele>31.7</ele>
        <time>2013-03-02T10:51:58Z</time>
      </trkpt>
      <trkpt lat="47.25085" lon="-1.65573">
        <ele>31.1</ele>
        <time>2013-03-02T10:51:59Z</time>
      </trkpt>
      <trkpt lat="47.25092" lon="-1.65554">
        <ele>31.3</ele>
        <time>2013-03-02T10:52:02Z</time>
      </trkpt>
      <trkpt lat="47.25093" lon="-1.65548">
        <ele>31.4</ele>
        <time>2013-03-02T10:52:03Z</time>
      </trkpt>
      <trkpt lat="47.25097" lon="-1.65526">
        <ele>32.9</ele>
        <time>2013-03-02T10:52:07Z</time>
      </trkpt>
      <trkpt lat="47.25098" lon="-1.6552">
        <ele>33.4</ele>
        <time>2013-03-02T10:52:08Z</time>
      </trkpt>
      <trkpt lat="47.251" lon="-1.65486">
        <ele>35.9</ele>
        <time>2013-03-02T10:52:14Z</time>
      </trkpt>
      <trkpt lat="47.25103" lon="-1.65449">
        <ele>37.3</ele>
        <time>2013-03-02T10:52:20Z</time>
      </trkpt>
      <trkpt lat="47.25104" lon="-1.65443">
        <ele>37.5</ele>
        <time>2013-03-02T10:52:21Z</time>
      </trkpt>
      <trkpt lat="47.25106" lon="-1.65437">
        <ele>37.8</ele>
        <time>2013-03-02T10:52:22Z</time>
      </trkpt>
      <trkpt lat="47.25108" lon="-1.65432">
        <ele>38.1</ele>
        <time>2013-03-02T10:52:23Z</time>
      </trkpt>
      <trkpt lat="47.2511" lon="-1.65426">
        <ele>38.4</ele>
        <time>2013-03-02T10:52:24Z</time>
      </trkpt>
      <trkpt lat="47.25115" lon="-1.65417">
        <ele>38.8</ele>
        <time>2013-03-02T10:52:26Z</time>
      </trkpt>
      <trkpt lat="47.25128" lon="-1.6539">
        <ele>40.2</ele>
        <time>2013-03-02T10:52:33Z</time>
      </trkpt>
      <trkpt lat="47.2513" lon="-1.65386">
        <ele>40.6</ele>
        <time>2013-03-02T10:52:34Z</time>
      </trkpt>
      <trkpt lat="47.25132" lon="-1.65378">
        <ele>40.6</ele>
        <time>2013-03-02T10:52:36Z</time>
      </trkpt>
      <trkpt lat="47.25133" lon="-1.65374">
        <ele>40.4</ele>
        <time>2013-03-02T10:52:37Z</time>
      </trkpt>
      <trkpt lat="47.25138" lon="-1.65354">
        <ele>40.8</ele>
        <time>2013-03-02T10:52:43Z</time>
      </trkpt>
      <trkpt lat="47.25148" lon="-1.65317">
        <ele>42.8</ele>
        <time>2013-03-02T10:52:57Z</time>
      </trkpt>
      <trkpt lat="47.2515" lon="-1.65314">
        <ele>42.8</ele>
        <time>2013-03-02T10:52:58Z</time>
      </trkpt>
      <trkpt lat="47.25155" lon="-1.65298">
        <ele>42.8</ele>
        <time>2013-03-02T10:53:03Z</time>
      </trkpt>
      <trkpt lat="47.25156" lon="-1.65295">
        <ele>42.7</ele>
        <time>2013-03-02T10:53:04Z</time>
      </trkpt>
      <trkpt lat="47.25157" lon="-1.65289">
        <ele>43</ele>
        <time>2013-03-02T10:53:06Z</time>
      </trkpt>
      <trkpt lat="47.25159" lon="-1.65266">
        <ele>43.7</ele>
        <time>2013-03-02T10:53:13Z</time>
      </trkpt>
      <trkpt lat="47.25158" lon="-1.65262">
        <ele>44.3</ele>
        <time>2013-03-02T10:53:14Z</time>
      </trkpt>
      <trkpt lat="47.25158" lon="-1.65259">
        <ele>44.8</ele>
        <time>2013-03-02T10:53:15Z</time>
      </trkpt>
      <trkpt lat="47.25158" lon="-1.65256">
        <ele>44.7</ele>
        <time>2013-03-02T10:53:16Z</time>
      </trkpt>
      <trkpt lat="47.25158" lon="-1.65249">
        <ele>44.7</ele>
        <time>2013-03-02T10:53:18Z</time>
      </trkpt>
      <trkpt lat="47.25157" lon="-1.65242">
        <ele>44.8</ele>
        <time>2013-03-02T10:53:20Z</time>
      </trkpt>
      <trkpt lat="47.25157" lon="-1.65238">
        <ele>44.7</ele>
        <time>2013-03-02T10:53:21Z</time>
      </trkpt>
      <trkpt lat="47.25156" lon="-1.65234">
        <ele>44.6</ele>
        <time>2013-03-02T10:53:22Z</time>
      </trkpt>
      <trkpt lat="47.25152" lon="-1.6522">
        <ele>45.2</ele>
        <time>2013-03-02T10:53:26Z</time>
      </trkpt>
      <trkpt lat="47.25152" lon="-1.65216">
        <ele>45.2</ele>
        <time>2013-03-02T10:53:27Z</time>
      </trkpt>
      <trkpt lat="47.25152" lon="-1.65209">
        <ele>46</ele>
        <time>2013-03-02T10:53:29Z</time>
      </trkpt>
      <trkpt lat="47.25152" lon="-1.65206">
        <ele>46.2</ele>
        <time>2013-03-02T10:53:30Z</time>
      </trkpt>
      <trkpt lat="47.25153" lon="-1.65196">
        <ele>46.7</ele>
        <time>2013-03-02T10:53:33Z</time>
      </trkpt>
      <trkpt lat="47.25155" lon="-1.65185">
        <ele>47.4</ele>
        <time>2013-03-02T10:53:37Z</time>
      </trkpt>
      <trkpt lat="47.25156" lon="-1.65182">
        <ele>47.7</ele>
        <time>2013-03-02T10:53:38Z</time>
      </trkpt>
      <trkpt lat="47.25168" lon="-1.65134">
        <ele>47.8</ele>
        <time>2013-03-02T10:53:52Z</time>
      </trkpt>
      <trkpt lat="47.2517" lon="-1.65127">
        <ele>48.1</ele>
        <time>2013-03-02T10:53:54Z</time>
      </trkpt>
      <trkpt lat="47.25171" lon="-1.65119">
        <ele>48</ele>
        <time>2013-03-02T10:53:56Z</time>
      </trkpt>
      <trkpt lat="47.25172" lon="-1.65111">
        <ele>47.9</ele>
        <time>2013-03-02T10:53:58Z</time>
      </trkpt>
      <trkpt lat="47.25172" lon="-1.65107">
        <ele>47.9</ele>
        <time>2013-03-02T10:53:59Z</time>
      </trkpt>
      <trkpt lat="47.25172" lon="-1.65094">
        <ele>48.5</ele>
        <time>2013-03-02T10:54:03Z</time>
      </trkpt>
      <trkpt lat="47.25172" lon="-1.65085">
        <ele>48.7</ele>
        <time>2013-03-02T10:54:06Z</time>
      </trkpt>
      <trkpt lat="47.25172" lon="-1.65071">
        <ele>49.2</ele>
        <time>2013-03-02T10:54:10Z</time>
      </trkpt>
      <trkpt lat="47.25172" lon="-1.65057">
        <ele>49.5</ele>
        <time>2013-03-02T10:54:14Z</time>
      </trkpt>
      <trkpt lat="47.25171" lon="-1.65024">
        <ele>50.5</ele>
        <time>2013-03-02T10:54:23Z</time>
      </trkpt>
      <trkpt lat="47.25171" lon="-1.6501">
        <ele>50.5</ele>
        <time>2013-03-02T10:54:27Z</time>
      </trkpt>
      <trkpt lat="47.25171" lon="-1.65003">
        <ele>50.3</ele>
        <time>2013-03-02T10:54:29Z</time>
      </trkpt>
      <trkpt lat="47.25171" lon="-1.65">
        <ele>50.4</ele>
        <time>2013-03-02T10:54:30Z</time>
      </trkpt>
      <trkpt lat="47.2517" lon="-1.64995">
        <ele>50.3</ele>
        <time>2013-03-02T10:54:32Z</time>
      </trkpt>
      <trkpt lat="47.2517" lon="-1.6499">
        <ele>50</ele>
        <time>2013-03-02T10:54:34Z</time>
      </trkpt>
      <trkpt lat="47.2517" lon="-1.64987">
        <ele>49.8</ele>
        <time>2013-03-02T10:54:35Z</time>
      </trkpt>
      <trkpt lat="47.25171" lon="-1.64984">
        <ele>49.7</ele>
        <time>2013-03-02T10:54:36Z</time>
      </trkpt>
      <trkpt lat="47.25171" lon="-1.64981">
        <ele>49.9</ele>
        <time>2013-03-02T10:54:37Z</time>
      </trkpt>
      <trkpt lat="47.25172" lon="-1.64978">
        <ele>50</ele>
        <time>2013-03-02T10:54:38Z</time>
      </trkpt>
      <trkpt lat="47.25171" lon="-1.64975">
        <ele>49.9</ele>
        <time>2013-03-02T10:54:39Z</time>
      </trkpt>
      <trkpt lat="47.2517" lon="-1.64963">
        <ele>49.6</ele>
        <time>2013-03-02T10:54:42Z</time>
      </trkpt>
      <trkpt lat="47.2517" lon="-1.6496">
        <ele>49.3</ele>
        <time>2013-03-02T10:54:43Z</time>
      </trkpt>
      <trkpt lat="47.25169" lon="-1.64932">
        <ele>49.1</ele>
        <time>2013-03-02T10:54:50Z</time>
      </trkpt>
      <trkpt lat="47.25169" lon="-1.64926">
        <ele>49.9</ele>
        <time>2013-03-02T10:54:52Z</time>
      </trkpt>
      <trkpt lat="47.25168" lon="-1.64922">
        <ele>50.1</ele>
        <time>2013-03-02T10:54:53Z</time>
      </trkpt>
      <trkpt lat="47.25163" lon="-1.64902">
        <ele>48.9</ele>
        <time>2013-03-02T10:54:57Z</time>
      </trkpt>
      <trkpt lat="47.25161" lon="-1.64897">
        <ele>48.7</ele>
        <time>2013-03-02T10:54:58Z</time>
      </trkpt>
      <trkpt lat="47.25158" lon="-1.64893">
        <ele>48.3</ele>
        <time>2013-03-02T10:54:59Z</time>
      </trkpt>
      <trkpt lat="47.25155" lon="-1.64889">
        <ele>48</ele>
        <time>2013-03-02T10:55:00Z</time>
      </trkpt>
      <trkpt lat="47.25132" lon="-1.64864">
        <ele>45.7</ele>
        <time>2013-03-02T10:55:09Z</time>
      </trkpt>
      <trkpt lat="47.25128" lon="-1.64862">
        <ele>45.8</ele>
        <time>2013-03-02T10:55:10Z</time>
      </trkpt>
      <trkpt lat="47.25125" lon="-1.6486">
        <ele>45.9</ele>
        <time>2013-03-02T10:55:11Z</time>
      </trkpt>
      <trkpt lat="47.25122" lon="-1.64857">
        <ele>45.9</ele>
        <time>2013-03-02T10:55:12Z</time>
      </trkpt>
      <trkpt lat="47.251" lon="-1.64837">
        <ele>44</ele>
        <time>2013-03-02T10:55:18Z</time>
      </trkpt>
      <trkpt lat="47.25096" lon="-1.64834">
        <ele>43.9</ele>
        <time>2013-03-02T10:55:19Z</time>
      </trkpt>
      <trkpt lat="47.25089" lon="-1.6483">
        <ele>43.1</ele>
        <time>2013-03-02T10:55:22Z</time>
      </trkpt>
      <trkpt lat="47.25088" lon="-1.64828">
        <ele>42.9</ele>
        <time>2013-03-02T10:55:23Z</time>
      </trkpt>
      <trkpt lat="47.25087" lon="-1.64825">
        <ele>42.8</ele>
        <time>2013-03-02T10:55:24Z</time>
      </trkpt>
      <trkpt lat="47.25087" lon="-1.64823">
        <ele>42.4</ele>
        <time>2013-03-02T10:55:25Z</time>
      </trkpt>
      <trkpt lat="47.25088" lon="-1.6482">
        <ele>42.1</ele>
        <time>2013-03-02T10:55:26Z</time>
      </trkpt>
      <trkpt lat="47.25088" lon="-1.64814">
        <ele>42.4</ele>
        <time>2013-03-02T10:55:28Z</time>
      </trkpt>
      <trkpt lat="47.25088" lon="-1.64811">
        <ele>42.3</ele>
        <time>2013-03-02T10:55:29Z</time>
      </trkpt>
      <trkpt lat="47.25087" lon="-1.64804">
        <ele>42.1</ele>
        <time>2013-03-02T10:55:31Z</time>
      </trkpt>
      <trkpt lat="47.25087" lon="-1.648">
        <ele>42.4</ele>
        <time>2013-03-02T10:55:32Z</time>
      </trkpt>
      <trkpt lat="47.25088" lon="-1.64797">
        <ele>42.6</ele>
        <time>2013-03-02T10:55:33Z</time>
      </trkpt>
      <trkpt lat="47.25088" lon="-1.64793">
        <ele>42.5</ele>
        <time>2013-03-02T10:55:34Z</time>
      </trkpt>
      <trkpt lat="47.25089" lon="-1.64751">
        <ele>43.9</ele>
        <time>2013-03-02T10:55:44Z</time>
      </trkpt>
      <trkpt lat="47.2509" lon="-1.64743">
        <ele>43.3</ele>
        <time>2013-03-02T10:55:46Z</time>
      </trkpt>
      <trkpt lat="47.25094" lon="-1.64698">
        <ele>45.4</ele>
        <time>2013-03-02T10:55:57Z</time>
      </trkpt>
      <trkpt lat="47.25095" lon="-1.64695">
        <ele>45.4</ele>
        <time>2013-03-02T10:55:58Z</time>
      </trkpt>
      <trkpt lat="47.25096" lon="-1.64688">
        <ele>45.5</ele>
        <time>2013-03-02T10:56:00Z</time>
      </trkpt>
      <trkpt lat="47.25096" lon="-1.64684">
        <ele>45.7</ele>
        <time>2013-03-02T10:56:01Z</time>
      </trkpt>
      <trkpt lat="47.25096" lon="-1.6468">
        <ele>45.8</ele>
        <time>2013-03-02T10:56:02Z</time>
      </trkpt>
      <trkpt lat="47.25099" lon="-1.64651">
        <ele>47.4</ele>
        <time>2013-03-02T10:56:10Z</time>
      </trkpt>
      <trkpt lat="47.25102" lon="-1.64626">
        <ele>46.5</ele>
        <time>2013-03-02T10:56:15Z</time>
      </trkpt>
      <trkpt lat="47.25102" lon="-1.64621">
        <ele>46.3</ele>
        <time>2013-03-02T10:56:16Z</time>
      </trkpt>
      <trkpt lat="47.25101" lon="-1.64581">
        <ele>47.1</ele>
        <time>2013-03-02T10:56:23Z</time>
      </trkpt>
      <trkpt lat="47.251" lon="-1.64575">
        <ele>47.2</ele>
        <time>2013-03-02T10:56:24Z</time>
      </trkpt>
      <trkpt lat="47.25098" lon="-1.64542">
        <ele>48.2</ele>
        <time>2013-03-02T10:56:30Z</time>
      </trkpt>
      <trkpt lat="47.25097" lon="-1.64539">
        <ele>48.4</ele>
        <time>2013-03-02T10:56:31Z</time>
      </trkpt>
      <trkpt lat="47.25095" lon="-1.64536">
        <ele>48.5</ele>
        <time>2013-03-02T10:56:32Z</time>
      </trkpt>
      <trkpt lat="47.25093" lon="-1.64535">
        <ele>48.3</ele>
        <time>2013-03-02T10:56:33Z</time>
      </trkpt>
      <trkpt lat="47.25091" lon="-1.64534">
        <ele>48.2</ele>
        <time>2013-03-02T10:56:34Z</time>
      </trkpt>
      <trkpt lat="47.25088" lon="-1.64535">
        <ele>48.1</ele>
        <time>2013-03-02T10:56:35Z</time>
      </trkpt>
      <trkpt lat="47.25086" lon="-1.64538">
        <ele>47.9</ele>
        <time>2013-03-02T10:56:36Z</time>
      </trkpt>
      <trkpt lat="47.2504" lon="-1.64581">
        <ele>44.1</ele>
        <time>2013-03-02T10:56:47Z</time>
      </trkpt>
      <trkpt lat="47.25035" lon="-1.64584">
        <ele>44.2</ele>
        <time>2013-03-02T10:56:48Z</time>
      </trkpt>
      <trkpt lat="47.2503" lon="-1.64584">
        <ele>44.3</ele>
        <time>2013-03-02T10:56:49Z</time>
      </trkpt>
      <trkpt lat="47.25025" lon="-1.64583">
        <ele>44</ele>
        <time>2013-03-02T10:56:50Z</time>
      </trkpt>
      <trkpt lat="47.25021" lon="-1.64579">
        <ele>43.8</ele>
        <time>2013-03-02T10:56:51Z</time>
      </trkpt>
      <trkpt lat="47.25018" lon="-1.64574">
        <ele>43.7</ele>
        <time>2013-03-02T10:56:52Z</time>
      </trkpt>
      <trkpt lat="47.25016" lon="-1.64568">
        <ele>43.1</ele>
        <time>2013-03-02T10:56:53Z</time>
      </trkpt>
      <trkpt lat="47.25016" lon="-1.64564">
        <ele>42.6</ele>
        <time>2013-03-02T10:56:54Z</time>
      </trkpt>
      <trkpt lat="47.25015" lon="-1.64559">
        <ele>42.8</ele>
        <time>2013-03-02T10:56:55Z</time>
      </trkpt>
      <trkpt lat="47.25014" lon="-1.64551">
        <ele>43.2</ele>
        <time>2013-03-02T10:56:57Z</time>
      </trkpt>
      <trkpt lat="47.25014" lon="-1.64548">
        <ele>43.4</ele>
        <time>2013-03-02T10:56:58Z</time>
      </trkpt>
      <trkpt lat="47.25012" lon="-1.64546">
        <ele>43.5</ele>
        <time>2013-03-02T10:56:59Z</time>
      </trkpt>
      <trkpt lat="47.2501" lon="-1.64544">
        <ele>43.8</ele>
        <time>2013-03-02T10:57:00Z</time>
      </trkpt>
      <trkpt lat="47.25009" lon="-1.64542">
        <ele>44</ele>
        <time>2013-03-02T10:57:01Z</time>
      </trkpt>
      <trkpt lat="47.25008" lon="-1.6454">
        <ele>43.8</ele>
        <time>2013-03-02T10:57:02Z</time>
      </trkpt>
      <trkpt lat="47.25007" lon="-1.64538">
        <ele>43.6</ele>
        <time>2013-03-02T10:57:03Z</time>
      </trkpt>
      <trkpt lat="47.25005" lon="-1.64528">
        <ele>44.4</ele>
        <time>2013-03-02T10:57:08Z</time>
      </trkpt>
      <trkpt lat="47.25004" lon="-1.64525">
        <ele>44.1</ele>
        <time>2013-03-02T10:57:09Z</time>
      </trkpt>
      <trkpt lat="47.25003" lon="-1.64522">
        <ele>43.8</ele>
        <time>2013-03-02T10:57:10Z</time>
      </trkpt>
      <trkpt lat="47.24999" lon="-1.64508">
        <ele>44.5</ele>
        <time>2013-03-02T10:57:14Z</time>
      </trkpt>
      <trkpt lat="47.24973" lon="-1.64419">
        <ele>45.2</ele>
        <time>2013-03-02T10:57:35Z</time>
      </trkpt>
      <trkpt lat="47.2496" lon="-1.64376">
        <ele>46.5</ele>
        <time>2013-03-02T10:57:44Z</time>
      </trkpt>
      <trkpt lat="47.24952" lon="-1.64343">
        <ele>46</ele>
        <time>2013-03-02T10:57:51Z</time>
      </trkpt>
      <trkpt lat="47.24947" lon="-1.64319">
        <ele>46.5</ele>
        <time>2013-03-02T10:57:57Z</time>
      </trkpt>
      <trkpt lat="47.24944" lon="-1.64307">
        <ele>46.3</ele>
        <time>2013-03-02T10:58:00Z</time>
      </trkpt>
      <trkpt lat="47.24943" lon="-1.64303">
        <ele>46.5</ele>
        <time>2013-03-02T10:58:01Z</time>
      </trkpt>
      <trkpt lat="47.24938" lon="-1.64288">
        <ele>46.7</ele>
        <time>2013-03-02T10:58:05Z</time>
      </trkpt>
      <trkpt lat="47.24937" lon="-1.64285">
        <ele>46.6</ele>
        <time>2013-03-02T10:58:06Z</time>
      </trkpt>
      <trkpt lat="47.24936" lon="-1.64281">
        <ele>46.5</ele>
        <time>2013-03-02T10:58:07Z</time>
      </trkpt>
      <trkpt lat="47.24935" lon="-1.64273">
        <ele>46.4</ele>
        <time>2013-03-02T10:58:09Z</time>
      </trkpt>
      <trkpt lat="47.24932" lon="-1.64261">
        <ele>46.2</ele>
        <time>2013-03-02T10:58:13Z</time>
      </trkpt>
      <trkpt lat="47.24931" lon="-1.64258">
        <ele>46.5</ele>
        <time>2013-03-02T10:58:14Z</time>
      </trkpt>
      <trkpt lat="47.24929" lon="-1.64255">
        <ele>46.7</ele>
        <time>2013-03-02T10:58:15Z</time>
      </trkpt>
      <trkpt lat="47.24927" lon="-1.64252">
        <ele>46.5</ele>
        <time>2013-03-02T10:58:16Z</time>
      </trkpt>
      <trkpt lat="47.24924" lon="-1.64248">
        <ele>46.3</ele>
        <time>2013-03-02T10:58:17Z</time>
      </trkpt>
      <trkpt lat="47.24921" lon="-1.64245">
        <ele>45.8</ele>
        <time>2013-03-02T10:58:18Z</time>
      </trkpt>
      <trkpt lat="47.24918" lon="-1.64244">
        <ele>45.5</ele>
        <time>2013-03-02T10:58:19Z</time>
      </trkpt>
      <trkpt lat="47.2491" lon="-1.64241">
        <ele>44.6</ele>
        <time>2013-03-02T10:58:21Z</time>
      </trkpt>
      <trkpt lat="47.24892" lon="-1.64237">
        <ele>44</ele>
        <time>2013-03-02T10:58:25Z</time>
      </trkpt>
      <trkpt lat="47.24887" lon="-1.64237">
        <ele>44</ele>
        <time>2013-03-02T10:58:26Z</time>
      </trkpt>
      <trkpt lat="47.24882" lon="-1.64237">
        <ele>44</ele>
        <time>2013-03-02T10:58:27Z</time>
      </trkpt>
      <trkpt lat="47.24863" lon="-1.64235">
        <ele>43.5</ele>
        <time>2013-03-02T10:58:31Z</time>
      </trkpt>
      <trkpt lat="47.24846" lon="-1.6423">
        <ele>43.2</ele>
        <time>2013-03-02T10:58:35Z</time>
      </trkpt>
      <trkpt lat="47.24841" lon="-1.64228">
        <ele>43.2</ele>
        <time>2013-03-02T10:58:36Z</time>
      </trkpt>
      <trkpt lat="47.24838" lon="-1.64226">
        <ele>43</ele>
        <time>2013-03-02T10:58:37Z</time>
      </trkpt>
      <trkpt lat="47.24831" lon="-1.6422">
        <ele>42.6</ele>
        <time>2013-03-02T10:58:39Z</time>
      </trkpt>
      <trkpt lat="47.24827" lon="-1.64217">
        <ele>42.5</ele>
        <time>2013-03-02T10:58:40Z</time>
      </trkpt>
      <trkpt lat="47.24824" lon="-1.64214">
        <ele>42.3</ele>
        <time>2013-03-02T10:58:41Z</time>
      </trkpt>
      <trkpt lat="47.24822" lon="-1.6421">
        <ele>42.3</ele>
        <time>2013-03-02T10:58:42Z</time>
      </trkpt>
      <trkpt lat="47.24819" lon="-1.64206">
        <ele>42.3</ele>
        <time>2013-03-02T10:58:43Z</time>
      </trkpt>
      <trkpt lat="47.24818" lon="-1.642">
        <ele>42.1</ele>
        <time>2013-03-02T10:58:44Z</time>
      </trkpt>
      <trkpt lat="47.24816" lon="-1.64194">
        <ele>41.9</ele>
        <time>2013-03-02T10:58:45Z</time>
      </trkpt>
      <trkpt lat="47.24812" lon="-1.64161">
        <ele>40.6</ele>
        <time>2013-03-02T10:58:49Z</time>
      </trkpt>
      <trkpt lat="47.24809" lon="-1.64145">
        <ele>39.9</ele>
        <time>2013-03-02T10:58:51Z</time>
      </trkpt>
      <trkpt lat="47.24807" lon="-1.64137">
        <ele>39.7</ele>
        <time>2013-03-02T10:58:52Z</time>
      </trkpt>
      <trkpt lat="47.24803" lon="-1.64131">
        <ele>39.5</ele>
        <time>2013-03-02T10:58:53Z</time>
      </trkpt>
      <trkpt lat="47.24748" lon="-1.64031">
        <ele>35.9</ele>
        <time>2013-03-02T10:59:12Z</time>
      </trkpt>
      <trkpt lat="47.24744" lon="-1.64027">
        <ele>35.8</ele>
        <time>2013-03-02T10:59:13Z</time>
      </trkpt>
      <trkpt lat="47.24735" lon="-1.64017">
        <ele>35.3</ele>
        <time>2013-03-02T10:59:15Z</time>
      </trkpt>
      <trkpt lat="47.24731" lon="-1.64012">
        <ele>34.9</ele>
        <time>2013-03-02T10:59:16Z</time>
      </trkpt>
      <trkpt lat="47.24696" lon="-1.6396">
        <ele>34.5</ele>
        <time>2013-03-02T10:59:25Z</time>
      </trkpt>
      <trkpt lat="47.24692" lon="-1.63956">
        <ele>34.6</ele>
        <time>2013-03-02T10:59:26Z</time>
      </trkpt>
      <trkpt lat="47.24678" lon="-1.63942">
        <ele>34.2</ele>
        <time>2013-03-02T10:59:29Z</time>
      </trkpt>
      <trkpt lat="47.24636" lon="-1.63899">
        <ele>33.9</ele>
        <time>2013-03-02T10:59:38Z</time>
      </trkpt>
      <trkpt lat="47.24631" lon="-1.63893">
        <ele>33.6</ele>
        <time>2013-03-02T10:59:39Z</time>
      </trkpt>
      <trkpt lat="47.24627" lon="-1.63886">
        <ele>33.4</ele>
        <time>2013-03-02T10:59:40Z</time>
      </trkpt>
      <trkpt lat="47.24623" lon="-1.6388">
        <ele>33.5</ele>
        <time>2013-03-02T10:59:41Z</time>
      </trkpt>
      <trkpt lat="47.24621" lon="-1.63873">
        <ele>33.5</ele>
        <time>2013-03-02T10:59:42Z</time>
      </trkpt>
      <trkpt lat="47.24617" lon="-1.63862">
        <ele>33.2</ele>
        <time>2013-03-02T10:59:44Z</time>
      </trkpt>
      <trkpt lat="47.24617" lon="-1.63857">
        <ele>33.1</ele>
        <time>2013-03-02T10:59:45Z</time>
      </trkpt>
      <trkpt lat="47.24616" lon="-1.63852">
        <ele>33.4</ele>
        <time>2013-03-02T10:59:46Z</time>
      </trkpt>
      <trkpt lat="47.24615" lon="-1.63847">
        <ele>33.6</ele>
        <time>2013-03-02T10:59:47Z</time>
      </trkpt>
      <trkpt lat="47.24598" lon="-1.63802">
        <ele>35.8</ele>
        <time>2013-03-02T10:59:56Z</time>
      </trkpt>
      <trkpt lat="47.24596" lon="-1.63798">
        <ele>35.9</ele>
        <time>2013-03-02T10:59:57Z</time>
      </trkpt>
      <trkpt lat="47.24593" lon="-1.63796">
        <ele>36.1</ele>
        <time>2013-03-02T10:59:58Z</time>
      </trkpt>
      <trkpt lat="47.2459" lon="-1.63795">
        <ele>36.2</ele>
        <time>2013-03-02T10:59:59Z</time>
      </trkpt>
      <trkpt lat="47.24587" lon="-1.63796">
        <ele>36.2</ele>
        <time>2013-03-02T11:00:00Z</time>
      </trkpt>
      <trkpt lat="47.24584" lon="-1.63798">
        <ele>36.2</ele>
        <time>2013-03-02T11:00:01Z</time>
      </trkpt>
      <trkpt lat="47.24553" lon="-1.63814">
        <ele>35.3</ele>
        <time>2013-03-02T11:00:08Z</time>
      </trkpt>
      <trkpt lat="47.24549" lon="-1.63815">
        <ele>34.8</ele>
        <time>2013-03-02T11:00:09Z</time>
      </trkpt>
      <trkpt lat="47.24544" lon="-1.63815">
        <ele>34.9</ele>
        <time>2013-03-02T11:00:10Z</time>
      </trkpt>
      <trkpt lat="47.2454" lon="-1.63815">
        <ele>34.9</ele>
        <time>2013-03-02T11:00:11Z</time>
      </trkpt>
      <trkpt lat="47.24535" lon="-1.63814">
        <ele>34.7</ele>
        <time>2013-03-02T11:00:12Z</time>
      </trkpt>
      <trkpt lat="47.24521" lon="-1.63808">
        <ele>34.3</ele>
        <time>2013-03-02T11:00:15Z</time>
      </trkpt>
      <trkpt lat="47.24516" lon="-1.63805">
        <ele>34.2</ele>
        <time>2013-03-02T11:00:16Z</time>
      </trkpt>
      <trkpt lat="47.24457" lon="-1.63767">
        <ele>30.9</ele>
        <time>2013-03-02T11:00:27Z</time>
      </trkpt>
      <trkpt lat="47.24418" lon="-1.63745">
        <ele>28.8</ele>
        <time>2013-03-02T11:00:34Z</time>
      </trkpt>
      <trkpt lat="47.2441" lon="-1.63741">
        <ele>27.9</ele>
        <time>2013-03-02T11:00:36Z</time>
      </trkpt>
      <trkpt lat="47.24408" lon="-1.63739">
        <ele>27.7</ele>
        <time>2013-03-02T11:00:37Z</time>
      </trkpt>
      <trkpt lat="47.24406" lon="-1.63737">
        <ele>27.6</ele>
        <time>2013-03-02T11:00:38Z</time>
      </trkpt>
      <trkpt lat="47.24406" lon="-1.63734">
        <ele>27.4</ele>
        <time>2013-03-02T11:00:39Z</time>
      </trkpt>
      <trkpt lat="47.24406" lon="-1.63727">
        <ele>27.5</ele>
        <time>2013-03-02T11:00:41Z</time>
      </trkpt>
      <trkpt lat="47.24407" lon="-1.63723">
        <ele>27.7</ele>
        <time>2013-03-02T11:00:42Z</time>
      </trkpt>
      <trkpt lat="47.24407" lon="-1.63718">
        <ele>27.7</ele>
        <time>2013-03-02T11:00:43Z</time>
      </trkpt>
      <trkpt lat="47.24411" lon="-1.63698">
        <ele>28.3</ele>
        <time>2013-03-02T11:00:47Z</time>
      </trkpt>
      <trkpt lat="47.24413" lon="-1.63688">
        <ele>28.3</ele>
        <time>2013-03-02T11:00:49Z</time>
      </trkpt>
      <trkpt lat="47.24413" lon="-1.63684">
        <ele>28.3</ele>
        <time>2013-03-02T11:00:50Z</time>
      </trkpt>
      <trkpt lat="47.24413" lon="-1.6368">
        <ele>28.3</ele>
        <time>2013-03-02T11:00:51Z</time>
      </trkpt>
      <trkpt lat="47.24413" lon="-1.63673">
        <ele>28.6</ele>
        <time>2013-03-02T11:00:53Z</time>
      </trkpt>
    </trkseg>
  </trk>
</gpx>